<?xml version="1.0" encoding="UTF-8" standalone="no" ?>
<gpx xmlns="http://www.topografix.com/GPX/1/1" xmlns:xsi="http://www.w3.org/2001/XMLSchema-instance" xsi:schemaLocation="http://www.topografix.com/GPX/1/1 http://www.topografix.com/GPX/1/1/gpx.xsd" version="1.1" creator="VisuGPX - https://www.visugpx.com">
  <metadata>
    <name>151209ROBBenjamins</name>
    <desc><![CDATA[excellente sortie]]></desc>
  </metadata>
  <trk>
    <name><![CDATA[151209ROBBenjamins]]></name>
    <trkseg>
      <trkpt lat="43.41575" lon="6.0704">
        <ele>205.19999694824</ele>
        <time>2015-12-09T13:00:21Z</time>
      </trkpt>
      <trkpt lat="43.41575" lon="6.0704">
        <ele>205.19999694824</ele>
        <time>2015-12-09T13:00:22Z</time>
      </trkpt>
      <trkpt lat="43.41575" lon="6.07039">
        <ele>205.19999694824</ele>
        <time>2015-12-09T13:00:24Z</time>
      </trkpt>
      <trkpt lat="43.41576" lon="6.07039">
        <ele>205.39999389648</ele>
        <time>2015-12-09T13:00:26Z</time>
      </trkpt>
      <trkpt lat="43.41576" lon="6.07039">
        <ele>205</ele>
        <time>2015-12-09T13:00:32Z</time>
      </trkpt>
      <trkpt lat="43.41576" lon="6.07039">
        <ele>205.19999694824</ele>
        <time>2015-12-09T13:00:38Z</time>
      </trkpt>
      <trkpt lat="43.41576" lon="6.0704">
        <ele>205.19999694824</ele>
        <time>2015-12-09T13:00:40Z</time>
      </trkpt>
      <trkpt lat="43.41576" lon="6.0704">
        <ele>205</ele>
        <time>2015-12-09T13:00:42Z</time>
      </trkpt>
      <trkpt lat="43.41576" lon="6.0704">
        <ele>204.80000305176</ele>
        <time>2015-12-09T13:00:43Z</time>
      </trkpt>
      <trkpt lat="43.41577" lon="6.0704">
        <ele>205</ele>
        <time>2015-12-09T13:00:44Z</time>
      </trkpt>
      <trkpt lat="43.41577" lon="6.0704">
        <ele>205.19999694824</ele>
        <time>2015-12-09T13:00:46Z</time>
      </trkpt>
      <trkpt lat="43.41577" lon="6.0704">
        <ele>205.39999389648</ele>
        <time>2015-12-09T13:00:48Z</time>
      </trkpt>
      <trkpt lat="43.41578" lon="6.0704">
        <ele>205.39999389648</ele>
        <time>2015-12-09T13:00:50Z</time>
      </trkpt>
      <trkpt lat="43.41578" lon="6.0704">
        <ele>205.39999389648</ele>
        <time>2015-12-09T13:00:52Z</time>
      </trkpt>
      <trkpt lat="43.41578" lon="6.0704">
        <ele>205.19999694824</ele>
        <time>2015-12-09T13:00:54Z</time>
      </trkpt>
      <trkpt lat="43.41578" lon="6.0704">
        <ele>205.19999694824</ele>
        <time>2015-12-09T13:00:56Z</time>
      </trkpt>
      <trkpt lat="43.41579" lon="6.07042">
        <ele>205.19999694824</ele>
        <time>2015-12-09T13:00:58Z</time>
      </trkpt>
      <trkpt lat="43.41579" lon="6.07047">
        <ele>205.39999389648</ele>
        <time>2015-12-09T13:01:00Z</time>
      </trkpt>
      <trkpt lat="43.4158" lon="6.07052">
        <ele>205.39999389648</ele>
        <time>2015-12-09T13:01:02Z</time>
      </trkpt>
      <trkpt lat="43.4158" lon="6.07061">
        <ele>204.80000305176</ele>
        <time>2015-12-09T13:01:04Z</time>
      </trkpt>
      <trkpt lat="43.41581" lon="6.0707">
        <ele>205.19999694824</ele>
        <time>2015-12-09T13:01:06Z</time>
      </trkpt>
      <trkpt lat="43.41582" lon="6.07079">
        <ele>205.19999694824</ele>
        <time>2015-12-09T13:01:08Z</time>
      </trkpt>
      <trkpt lat="43.41583" lon="6.07088">
        <ele>205.19999694824</ele>
        <time>2015-12-09T13:01:10Z</time>
      </trkpt>
      <trkpt lat="43.41584" lon="6.07096">
        <ele>205.19999694824</ele>
        <time>2015-12-09T13:01:12Z</time>
      </trkpt>
      <trkpt lat="43.41583" lon="6.071">
        <ele>205.19999694824</ele>
        <time>2015-12-09T13:01:13Z</time>
      </trkpt>
      <trkpt lat="43.41582" lon="6.07101">
        <ele>205</ele>
        <time>2015-12-09T13:01:14Z</time>
      </trkpt>
      <trkpt lat="43.41579" lon="6.07105">
        <ele>205.19999694824</ele>
        <time>2015-12-09T13:01:16Z</time>
      </trkpt>
      <trkpt lat="43.41576" lon="6.07106">
        <ele>205.19999694824</ele>
        <time>2015-12-09T13:01:17Z</time>
      </trkpt>
      <trkpt lat="43.41574" lon="6.07108">
        <ele>205.19999694824</ele>
        <time>2015-12-09T13:01:18Z</time>
      </trkpt>
      <trkpt lat="43.41569" lon="6.07113">
        <ele>205.19999694824</ele>
        <time>2015-12-09T13:01:20Z</time>
      </trkpt>
      <trkpt lat="43.41562" lon="6.07115">
        <ele>205.19999694824</ele>
        <time>2015-12-09T13:01:22Z</time>
      </trkpt>
      <trkpt lat="43.41556" lon="6.07116">
        <ele>205</ele>
        <time>2015-12-09T13:01:24Z</time>
      </trkpt>
      <trkpt lat="43.4155" lon="6.07113">
        <ele>204.80000305176</ele>
        <time>2015-12-09T13:01:26Z</time>
      </trkpt>
      <trkpt lat="43.41549" lon="6.07109">
        <ele>204.80000305176</ele>
        <time>2015-12-09T13:01:27Z</time>
      </trkpt>
      <trkpt lat="43.41548" lon="6.07105">
        <ele>204.80000305176</ele>
        <time>2015-12-09T13:01:28Z</time>
      </trkpt>
      <trkpt lat="43.41547" lon="6.07093">
        <ele>204.60000610352</ele>
        <time>2015-12-09T13:01:31Z</time>
      </trkpt>
      <trkpt lat="43.41546" lon="6.07089">
        <ele>204.60000610352</ele>
        <time>2015-12-09T13:01:32Z</time>
      </trkpt>
      <trkpt lat="43.41544" lon="6.07083">
        <ele>204.80000305176</ele>
        <time>2015-12-09T13:01:34Z</time>
      </trkpt>
      <trkpt lat="43.41541" lon="6.07077">
        <ele>204.60000610352</ele>
        <time>2015-12-09T13:01:36Z</time>
      </trkpt>
      <trkpt lat="43.41539" lon="6.07075">
        <ele>204.39999389648</ele>
        <time>2015-12-09T13:01:37Z</time>
      </trkpt>
      <trkpt lat="43.41535" lon="6.07075">
        <ele>204</ele>
        <time>2015-12-09T13:01:38Z</time>
      </trkpt>
      <trkpt lat="43.41527" lon="6.07076">
        <ele>203.80000305176</ele>
        <time>2015-12-09T13:01:40Z</time>
      </trkpt>
      <trkpt lat="43.41519" lon="6.07078">
        <ele>203.39999389648</ele>
        <time>2015-12-09T13:01:42Z</time>
      </trkpt>
      <trkpt lat="43.4151" lon="6.07081">
        <ele>203.19999694824</ele>
        <time>2015-12-09T13:01:44Z</time>
      </trkpt>
      <trkpt lat="43.41502" lon="6.07082">
        <ele>203.60000610352</ele>
        <time>2015-12-09T13:01:46Z</time>
      </trkpt>
      <trkpt lat="43.41498" lon="6.07081">
        <ele>203.39999389648</ele>
        <time>2015-12-09T13:01:47Z</time>
      </trkpt>
      <trkpt lat="43.41494" lon="6.0708">
        <ele>203.39999389648</ele>
        <time>2015-12-09T13:01:48Z</time>
      </trkpt>
      <trkpt lat="43.41486" lon="6.07076">
        <ele>203</ele>
        <time>2015-12-09T13:01:50Z</time>
      </trkpt>
      <trkpt lat="43.41478" lon="6.07073">
        <ele>203.19999694824</ele>
        <time>2015-12-09T13:01:52Z</time>
      </trkpt>
      <trkpt lat="43.41474" lon="6.07072">
        <ele>203</ele>
        <time>2015-12-09T13:01:54Z</time>
      </trkpt>
      <trkpt lat="43.41473" lon="6.07071">
        <ele>203</ele>
        <time>2015-12-09T13:01:56Z</time>
      </trkpt>
      <trkpt lat="43.41471" lon="6.07071">
        <ele>202.80000305176</ele>
        <time>2015-12-09T13:01:58Z</time>
      </trkpt>
      <trkpt lat="43.41468" lon="6.07072">
        <ele>202.60000610352</ele>
        <time>2015-12-09T13:02:00Z</time>
      </trkpt>
      <trkpt lat="43.41467" lon="6.07071">
        <ele>202.60000610352</ele>
        <time>2015-12-09T13:02:01Z</time>
      </trkpt>
      <trkpt lat="43.41466" lon="6.0707">
        <ele>202.39999389648</ele>
        <time>2015-12-09T13:02:02Z</time>
      </trkpt>
      <trkpt lat="43.41466" lon="6.07071">
        <ele>202.39999389648</ele>
        <time>2015-12-09T13:02:06Z</time>
      </trkpt>
      <trkpt lat="43.41466" lon="6.07071">
        <ele>202.39999389648</ele>
        <time>2015-12-09T13:02:07Z</time>
      </trkpt>
      <trkpt lat="43.41466" lon="6.07071">
        <ele>202.39999389648</ele>
        <time>2015-12-09T13:02:08Z</time>
      </trkpt>
      <trkpt lat="43.41465" lon="6.07071">
        <ele>202.39999389648</ele>
        <time>2015-12-09T13:02:10Z</time>
      </trkpt>
      <trkpt lat="43.41465" lon="6.07071">
        <ele>202.39999389648</ele>
        <time>2015-12-09T13:02:12Z</time>
      </trkpt>
      <trkpt lat="43.41465" lon="6.07071">
        <ele>202.19999694824</ele>
        <time>2015-12-09T13:02:14Z</time>
      </trkpt>
      <trkpt lat="43.41465" lon="6.07071">
        <ele>202.39999389648</ele>
        <time>2015-12-09T13:02:18Z</time>
      </trkpt>
      <trkpt lat="43.41465" lon="6.0707">
        <ele>202.39999389648</ele>
        <time>2015-12-09T13:02:20Z</time>
      </trkpt>
      <trkpt lat="43.41465" lon="6.0707">
        <ele>202.19999694824</ele>
        <time>2015-12-09T13:02:22Z</time>
      </trkpt>
      <trkpt lat="43.41465" lon="6.0707">
        <ele>202.19999694824</ele>
        <time>2015-12-09T13:02:24Z</time>
      </trkpt>
      <trkpt lat="43.41465" lon="6.0707">
        <ele>202.19999694824</ele>
        <time>2015-12-09T13:02:25Z</time>
      </trkpt>
      <trkpt lat="43.41465" lon="6.07069">
        <ele>202.19999694824</ele>
        <time>2015-12-09T13:02:26Z</time>
      </trkpt>
      <trkpt lat="43.41465" lon="6.07065">
        <ele>202</ele>
        <time>2015-12-09T13:02:28Z</time>
      </trkpt>
      <trkpt lat="43.41467" lon="6.0706">
        <ele>202.39999389648</ele>
        <time>2015-12-09T13:02:30Z</time>
      </trkpt>
      <trkpt lat="43.41469" lon="6.07054">
        <ele>202.19999694824</ele>
        <time>2015-12-09T13:02:32Z</time>
      </trkpt>
      <trkpt lat="43.41475" lon="6.07042">
        <ele>202.39999389648</ele>
        <time>2015-12-09T13:02:36Z</time>
      </trkpt>
      <trkpt lat="43.41478" lon="6.07034">
        <ele>202.60000610352</ele>
        <time>2015-12-09T13:02:38Z</time>
      </trkpt>
      <trkpt lat="43.41483" lon="6.07026">
        <ele>202.80000305176</ele>
        <time>2015-12-09T13:02:40Z</time>
      </trkpt>
      <trkpt lat="43.41486" lon="6.07017">
        <ele>202.80000305176</ele>
        <time>2015-12-09T13:02:42Z</time>
      </trkpt>
      <trkpt lat="43.4149" lon="6.07009">
        <ele>202.60000610352</ele>
        <time>2015-12-09T13:02:44Z</time>
      </trkpt>
      <trkpt lat="43.41492" lon="6.07">
        <ele>202.60000610352</ele>
        <time>2015-12-09T13:02:46Z</time>
      </trkpt>
      <trkpt lat="43.41493" lon="6.0699">
        <ele>203</ele>
        <time>2015-12-09T13:02:48Z</time>
      </trkpt>
      <trkpt lat="43.41492" lon="6.06979">
        <ele>203.19999694824</ele>
        <time>2015-12-09T13:02:50Z</time>
      </trkpt>
      <trkpt lat="43.41489" lon="6.0697">
        <ele>203.19999694824</ele>
        <time>2015-12-09T13:02:52Z</time>
      </trkpt>
      <trkpt lat="43.41484" lon="6.06962">
        <ele>203.60000610352</ele>
        <time>2015-12-09T13:02:54Z</time>
      </trkpt>
      <trkpt lat="43.4148" lon="6.06953">
        <ele>203.80000305176</ele>
        <time>2015-12-09T13:02:56Z</time>
      </trkpt>
      <trkpt lat="43.41476" lon="6.06945">
        <ele>203.60000610352</ele>
        <time>2015-12-09T13:02:58Z</time>
      </trkpt>
      <trkpt lat="43.41471" lon="6.06937">
        <ele>203.80000305176</ele>
        <time>2015-12-09T13:03:00Z</time>
      </trkpt>
      <trkpt lat="43.41469" lon="6.06933">
        <ele>204</ele>
        <time>2015-12-09T13:03:01Z</time>
      </trkpt>
      <trkpt lat="43.41467" lon="6.0693">
        <ele>204</ele>
        <time>2015-12-09T13:03:02Z</time>
      </trkpt>
      <trkpt lat="43.41464" lon="6.06924">
        <ele>204.19999694824</ele>
        <time>2015-12-09T13:03:04Z</time>
      </trkpt>
      <trkpt lat="43.41466" lon="6.06921">
        <ele>204.19999694824</ele>
        <time>2015-12-09T13:03:05Z</time>
      </trkpt>
      <trkpt lat="43.41468" lon="6.0692">
        <ele>204.39999389648</ele>
        <time>2015-12-09T13:03:06Z</time>
      </trkpt>
      <trkpt lat="43.41472" lon="6.06915">
        <ele>204.80000305176</ele>
        <time>2015-12-09T13:03:08Z</time>
      </trkpt>
      <trkpt lat="43.41474" lon="6.0691">
        <ele>204.80000305176</ele>
        <time>2015-12-09T13:03:10Z</time>
      </trkpt>
      <trkpt lat="43.41474" lon="6.06909">
        <ele>205</ele>
        <time>2015-12-09T13:03:12Z</time>
      </trkpt>
      <trkpt lat="43.41474" lon="6.06909">
        <ele>204.80000305176</ele>
        <time>2015-12-09T13:03:14Z</time>
      </trkpt>
      <trkpt lat="43.41474" lon="6.06909">
        <ele>204.80000305176</ele>
        <time>2015-12-09T13:03:16Z</time>
      </trkpt>
      <trkpt lat="43.41476" lon="6.06905">
        <ele>204.80000305176</ele>
        <time>2015-12-09T13:03:19Z</time>
      </trkpt>
      <trkpt lat="43.41476" lon="6.06903">
        <ele>204.60000610352</ele>
        <time>2015-12-09T13:03:20Z</time>
      </trkpt>
      <trkpt lat="43.41475" lon="6.06896">
        <ele>204.60000610352</ele>
        <time>2015-12-09T13:03:22Z</time>
      </trkpt>
      <trkpt lat="43.41474" lon="6.06893">
        <ele>204.60000610352</ele>
        <time>2015-12-09T13:03:23Z</time>
      </trkpt>
      <trkpt lat="43.41473" lon="6.0689">
        <ele>204.60000610352</ele>
        <time>2015-12-09T13:03:24Z</time>
      </trkpt>
      <trkpt lat="43.41473" lon="6.06887">
        <ele>204.80000305176</ele>
        <time>2015-12-09T13:03:25Z</time>
      </trkpt>
      <trkpt lat="43.41473" lon="6.06883">
        <ele>204.80000305176</ele>
        <time>2015-12-09T13:03:26Z</time>
      </trkpt>
      <trkpt lat="43.41475" lon="6.06875">
        <ele>205</ele>
        <time>2015-12-09T13:03:28Z</time>
      </trkpt>
      <trkpt lat="43.41474" lon="6.06867">
        <ele>205.19999694824</ele>
        <time>2015-12-09T13:03:30Z</time>
      </trkpt>
      <trkpt lat="43.41473" lon="6.06858">
        <ele>205.39999389648</ele>
        <time>2015-12-09T13:03:32Z</time>
      </trkpt>
      <trkpt lat="43.41474" lon="6.06852">
        <ele>205.19999694824</ele>
        <time>2015-12-09T13:03:33Z</time>
      </trkpt>
      <trkpt lat="43.41475" lon="6.06847">
        <ele>205.19999694824</ele>
        <time>2015-12-09T13:03:34Z</time>
      </trkpt>
      <trkpt lat="43.41476" lon="6.06835">
        <ele>204.80000305176</ele>
        <time>2015-12-09T13:03:36Z</time>
      </trkpt>
      <trkpt lat="43.41479" lon="6.06825">
        <ele>204.39999389648</ele>
        <time>2015-12-09T13:03:38Z</time>
      </trkpt>
      <trkpt lat="43.41483" lon="6.06815">
        <ele>204.60000610352</ele>
        <time>2015-12-09T13:03:40Z</time>
      </trkpt>
      <trkpt lat="43.41486" lon="6.06804">
        <ele>204.39999389648</ele>
        <time>2015-12-09T13:03:42Z</time>
      </trkpt>
      <trkpt lat="43.41489" lon="6.06792">
        <ele>204.80000305176</ele>
        <time>2015-12-09T13:03:44Z</time>
      </trkpt>
      <trkpt lat="43.41492" lon="6.06782">
        <ele>204.80000305176</ele>
        <time>2015-12-09T13:03:46Z</time>
      </trkpt>
      <trkpt lat="43.41494" lon="6.0677">
        <ele>205.19999694824</ele>
        <time>2015-12-09T13:03:48Z</time>
      </trkpt>
      <trkpt lat="43.41495" lon="6.06757">
        <ele>205.39999389648</ele>
        <time>2015-12-09T13:03:50Z</time>
      </trkpt>
      <trkpt lat="43.41496" lon="6.06745">
        <ele>205.60000610352</ele>
        <time>2015-12-09T13:03:52Z</time>
      </trkpt>
      <trkpt lat="43.41498" lon="6.0672">
        <ele>206.39999389648</ele>
        <time>2015-12-09T13:03:56Z</time>
      </trkpt>
      <trkpt lat="43.41499" lon="6.06708">
        <ele>206.80000305176</ele>
        <time>2015-12-09T13:03:58Z</time>
      </trkpt>
      <trkpt lat="43.41499" lon="6.06683">
        <ele>207.19999694824</ele>
        <time>2015-12-09T13:04:02Z</time>
      </trkpt>
      <trkpt lat="43.415" lon="6.06664">
        <ele>207.39999389648</ele>
        <time>2015-12-09T13:04:05Z</time>
      </trkpt>
      <trkpt lat="43.41504" lon="6.06646">
        <ele>207.60000610352</ele>
        <time>2015-12-09T13:04:08Z</time>
      </trkpt>
      <trkpt lat="43.41507" lon="6.06635">
        <ele>207.60000610352</ele>
        <time>2015-12-09T13:04:10Z</time>
      </trkpt>
      <trkpt lat="43.41509" lon="6.06622">
        <ele>208</ele>
        <time>2015-12-09T13:04:12Z</time>
      </trkpt>
      <trkpt lat="43.41511" lon="6.0661">
        <ele>207.60000610352</ele>
        <time>2015-12-09T13:04:14Z</time>
      </trkpt>
      <trkpt lat="43.41512" lon="6.06599">
        <ele>207.80000305176</ele>
        <time>2015-12-09T13:04:16Z</time>
      </trkpt>
      <trkpt lat="43.41513" lon="6.06592">
        <ele>207.80000305176</ele>
        <time>2015-12-09T13:04:17Z</time>
      </trkpt>
      <trkpt lat="43.41514" lon="6.06586">
        <ele>207.80000305176</ele>
        <time>2015-12-09T13:04:18Z</time>
      </trkpt>
      <trkpt lat="43.41516" lon="6.06573">
        <ele>207.80000305176</ele>
        <time>2015-12-09T13:04:20Z</time>
      </trkpt>
      <trkpt lat="43.41518" lon="6.06561">
        <ele>208.19999694824</ele>
        <time>2015-12-09T13:04:22Z</time>
      </trkpt>
      <trkpt lat="43.4152" lon="6.06548">
        <ele>207.80000305176</ele>
        <time>2015-12-09T13:04:24Z</time>
      </trkpt>
      <trkpt lat="43.41523" lon="6.0653">
        <ele>208.19999694824</ele>
        <time>2015-12-09T13:04:27Z</time>
      </trkpt>
      <trkpt lat="43.41525" lon="6.06524">
        <ele>208.19999694824</ele>
        <time>2015-12-09T13:04:28Z</time>
      </trkpt>
      <trkpt lat="43.41526" lon="6.06518">
        <ele>208.39999389648</ele>
        <time>2015-12-09T13:04:29Z</time>
      </trkpt>
      <trkpt lat="43.41527" lon="6.06513">
        <ele>209</ele>
        <time>2015-12-09T13:04:30Z</time>
      </trkpt>
      <trkpt lat="43.41529" lon="6.06507">
        <ele>209.19999694824</ele>
        <time>2015-12-09T13:04:31Z</time>
      </trkpt>
      <trkpt lat="43.41537" lon="6.06494">
        <ele>209</ele>
        <time>2015-12-09T13:04:34Z</time>
      </trkpt>
      <trkpt lat="43.41542" lon="6.06485">
        <ele>209.39999389648</ele>
        <time>2015-12-09T13:04:36Z</time>
      </trkpt>
      <trkpt lat="43.41546" lon="6.06476">
        <ele>209.80000305176</ele>
        <time>2015-12-09T13:04:38Z</time>
      </trkpt>
      <trkpt lat="43.41547" lon="6.0647">
        <ele>209.80000305176</ele>
        <time>2015-12-09T13:04:39Z</time>
      </trkpt>
      <trkpt lat="43.41547" lon="6.06465">
        <ele>210</ele>
        <time>2015-12-09T13:04:40Z</time>
      </trkpt>
      <trkpt lat="43.41546" lon="6.06453">
        <ele>209.80000305176</ele>
        <time>2015-12-09T13:04:42Z</time>
      </trkpt>
      <trkpt lat="43.41546" lon="6.06441">
        <ele>210.19999694824</ele>
        <time>2015-12-09T13:04:44Z</time>
      </trkpt>
      <trkpt lat="43.41546" lon="6.06436">
        <ele>210.19999694824</ele>
        <time>2015-12-09T13:04:45Z</time>
      </trkpt>
      <trkpt lat="43.41547" lon="6.06432">
        <ele>210.19999694824</ele>
        <time>2015-12-09T13:04:46Z</time>
      </trkpt>
      <trkpt lat="43.41549" lon="6.06422">
        <ele>210.19999694824</ele>
        <time>2015-12-09T13:04:48Z</time>
      </trkpt>
      <trkpt lat="43.41549" lon="6.06417">
        <ele>210.60000610352</ele>
        <time>2015-12-09T13:04:49Z</time>
      </trkpt>
      <trkpt lat="43.4155" lon="6.06413">
        <ele>211</ele>
        <time>2015-12-09T13:04:50Z</time>
      </trkpt>
      <trkpt lat="43.41552" lon="6.06406">
        <ele>211.39999389648</ele>
        <time>2015-12-09T13:04:52Z</time>
      </trkpt>
      <trkpt lat="43.41553" lon="6.06402">
        <ele>211.60000610352</ele>
        <time>2015-12-09T13:04:53Z</time>
      </trkpt>
      <trkpt lat="43.41554" lon="6.0639">
        <ele>212.19999694824</ele>
        <time>2015-12-09T13:04:56Z</time>
      </trkpt>
      <trkpt lat="43.41555" lon="6.06382">
        <ele>212.39999389648</ele>
        <time>2015-12-09T13:04:58Z</time>
      </trkpt>
      <trkpt lat="43.41557" lon="6.06374">
        <ele>213</ele>
        <time>2015-12-09T13:05:00Z</time>
      </trkpt>
      <trkpt lat="43.41558" lon="6.06367">
        <ele>213.60000610352</ele>
        <time>2015-12-09T13:05:02Z</time>
      </trkpt>
      <trkpt lat="43.4156" lon="6.0636">
        <ele>214</ele>
        <time>2015-12-09T13:05:04Z</time>
      </trkpt>
      <trkpt lat="43.41565" lon="6.06347">
        <ele>214.39999389648</ele>
        <time>2015-12-09T13:05:08Z</time>
      </trkpt>
      <trkpt lat="43.41566" lon="6.06344">
        <ele>214.60000610352</ele>
        <time>2015-12-09T13:05:09Z</time>
      </trkpt>
      <trkpt lat="43.41568" lon="6.06342">
        <ele>214.80000305176</ele>
        <time>2015-12-09T13:05:10Z</time>
      </trkpt>
      <trkpt lat="43.4157" lon="6.0634">
        <ele>215</ele>
        <time>2015-12-09T13:05:11Z</time>
      </trkpt>
      <trkpt lat="43.41574" lon="6.06333">
        <ele>215.80000305176</ele>
        <time>2015-12-09T13:05:14Z</time>
      </trkpt>
      <trkpt lat="43.41578" lon="6.06328">
        <ele>215.80000305176</ele>
        <time>2015-12-09T13:05:16Z</time>
      </trkpt>
      <trkpt lat="43.41581" lon="6.06323">
        <ele>216.19999694824</ele>
        <time>2015-12-09T13:05:18Z</time>
      </trkpt>
      <trkpt lat="43.41584" lon="6.06318">
        <ele>217</ele>
        <time>2015-12-09T13:05:20Z</time>
      </trkpt>
      <trkpt lat="43.41586" lon="6.06313">
        <ele>217</ele>
        <time>2015-12-09T13:05:22Z</time>
      </trkpt>
      <trkpt lat="43.41588" lon="6.063">
        <ele>217.39999389648</ele>
        <time>2015-12-09T13:05:26Z</time>
      </trkpt>
      <trkpt lat="43.41588" lon="6.06297">
        <ele>217.39999389648</ele>
        <time>2015-12-09T13:05:27Z</time>
      </trkpt>
      <trkpt lat="43.41587" lon="6.06293">
        <ele>217.39999389648</ele>
        <time>2015-12-09T13:05:28Z</time>
      </trkpt>
      <trkpt lat="43.41586" lon="6.06287">
        <ele>217.39999389648</ele>
        <time>2015-12-09T13:05:30Z</time>
      </trkpt>
      <trkpt lat="43.41586" lon="6.0628">
        <ele>217.60000610352</ele>
        <time>2015-12-09T13:05:32Z</time>
      </trkpt>
      <trkpt lat="43.41586" lon="6.06274">
        <ele>218</ele>
        <time>2015-12-09T13:05:34Z</time>
      </trkpt>
      <trkpt lat="43.41588" lon="6.06271">
        <ele>218</ele>
        <time>2015-12-09T13:05:35Z</time>
      </trkpt>
      <trkpt lat="43.41589" lon="6.06269">
        <ele>218</ele>
        <time>2015-12-09T13:05:36Z</time>
      </trkpt>
      <trkpt lat="43.41592" lon="6.06266">
        <ele>218.39999389648</ele>
        <time>2015-12-09T13:05:38Z</time>
      </trkpt>
      <trkpt lat="43.41593" lon="6.06265">
        <ele>218.39999389648</ele>
        <time>2015-12-09T13:05:39Z</time>
      </trkpt>
      <trkpt lat="43.41597" lon="6.06261">
        <ele>218.60000610352</ele>
        <time>2015-12-09T13:05:42Z</time>
      </trkpt>
      <trkpt lat="43.41599" lon="6.06259">
        <ele>218.60000610352</ele>
        <time>2015-12-09T13:05:43Z</time>
      </trkpt>
      <trkpt lat="43.416" lon="6.06258">
        <ele>218.80000305176</ele>
        <time>2015-12-09T13:05:44Z</time>
      </trkpt>
      <trkpt lat="43.41602" lon="6.06253">
        <ele>219</ele>
        <time>2015-12-09T13:05:46Z</time>
      </trkpt>
      <trkpt lat="43.41603" lon="6.06247">
        <ele>219.19999694824</ele>
        <time>2015-12-09T13:05:48Z</time>
      </trkpt>
      <trkpt lat="43.41604" lon="6.06244">
        <ele>219.19999694824</ele>
        <time>2015-12-09T13:05:49Z</time>
      </trkpt>
      <trkpt lat="43.41605" lon="6.0624">
        <ele>219.19999694824</ele>
        <time>2015-12-09T13:05:50Z</time>
      </trkpt>
      <trkpt lat="43.4161" lon="6.06234">
        <ele>218.60000610352</ele>
        <time>2015-12-09T13:05:52Z</time>
      </trkpt>
      <trkpt lat="43.41611" lon="6.06234">
        <ele>218.60000610352</ele>
        <time>2015-12-09T13:05:53Z</time>
      </trkpt>
      <trkpt lat="43.41613" lon="6.06234">
        <ele>219</ele>
        <time>2015-12-09T13:05:54Z</time>
      </trkpt>
      <trkpt lat="43.41615" lon="6.06233">
        <ele>219.39999389648</ele>
        <time>2015-12-09T13:05:56Z</time>
      </trkpt>
      <trkpt lat="43.41617" lon="6.06232">
        <ele>219.60000610352</ele>
        <time>2015-12-09T13:05:57Z</time>
      </trkpt>
      <trkpt lat="43.41618" lon="6.06233">
        <ele>219.60000610352</ele>
        <time>2015-12-09T13:05:58Z</time>
      </trkpt>
      <trkpt lat="43.41621" lon="6.06233">
        <ele>219.80000305176</ele>
        <time>2015-12-09T13:05:59Z</time>
      </trkpt>
      <trkpt lat="43.41623" lon="6.06232">
        <ele>220.19999694824</ele>
        <time>2015-12-09T13:06:00Z</time>
      </trkpt>
      <trkpt lat="43.41626" lon="6.06231">
        <ele>220.39999389648</ele>
        <time>2015-12-09T13:06:02Z</time>
      </trkpt>
      <trkpt lat="43.4163" lon="6.06233">
        <ele>220.19999694824</ele>
        <time>2015-12-09T13:06:04Z</time>
      </trkpt>
      <trkpt lat="43.41633" lon="6.06236">
        <ele>220.39999389648</ele>
        <time>2015-12-09T13:06:06Z</time>
      </trkpt>
      <trkpt lat="43.41637" lon="6.06238">
        <ele>220.60000610352</ele>
        <time>2015-12-09T13:06:08Z</time>
      </trkpt>
      <trkpt lat="43.41641" lon="6.0624">
        <ele>220.80000305176</ele>
        <time>2015-12-09T13:06:10Z</time>
      </trkpt>
      <trkpt lat="43.41646" lon="6.06243">
        <ele>221</ele>
        <time>2015-12-09T13:06:12Z</time>
      </trkpt>
      <trkpt lat="43.4165" lon="6.06245">
        <ele>221</ele>
        <time>2015-12-09T13:06:14Z</time>
      </trkpt>
      <trkpt lat="43.41655" lon="6.06246">
        <ele>221.19999694824</ele>
        <time>2015-12-09T13:06:16Z</time>
      </trkpt>
      <trkpt lat="43.41664" lon="6.06249">
        <ele>221.19999694824</ele>
        <time>2015-12-09T13:06:19Z</time>
      </trkpt>
      <trkpt lat="43.41666" lon="6.0625">
        <ele>221.19999694824</ele>
        <time>2015-12-09T13:06:20Z</time>
      </trkpt>
      <trkpt lat="43.41673" lon="6.06251">
        <ele>221.60000610352</ele>
        <time>2015-12-09T13:06:22Z</time>
      </trkpt>
      <trkpt lat="43.41679" lon="6.06252">
        <ele>221.19999694824</ele>
        <time>2015-12-09T13:06:24Z</time>
      </trkpt>
      <trkpt lat="43.41685" lon="6.06252">
        <ele>221.39999389648</ele>
        <time>2015-12-09T13:06:26Z</time>
      </trkpt>
      <trkpt lat="43.41692" lon="6.06253">
        <ele>221.39999389648</ele>
        <time>2015-12-09T13:06:28Z</time>
      </trkpt>
      <trkpt lat="43.41705" lon="6.06253">
        <ele>221.39999389648</ele>
        <time>2015-12-09T13:06:32Z</time>
      </trkpt>
      <trkpt lat="43.41711" lon="6.06253">
        <ele>221.39999389648</ele>
        <time>2015-12-09T13:06:34Z</time>
      </trkpt>
      <trkpt lat="43.41717" lon="6.06253">
        <ele>221.39999389648</ele>
        <time>2015-12-09T13:06:36Z</time>
      </trkpt>
      <trkpt lat="43.41723" lon="6.06253">
        <ele>221.39999389648</ele>
        <time>2015-12-09T13:06:38Z</time>
      </trkpt>
      <trkpt lat="43.41735" lon="6.06253">
        <ele>221.80000305176</ele>
        <time>2015-12-09T13:06:42Z</time>
      </trkpt>
      <trkpt lat="43.41741" lon="6.06253">
        <ele>222.19999694824</ele>
        <time>2015-12-09T13:06:44Z</time>
      </trkpt>
      <trkpt lat="43.41747" lon="6.06254">
        <ele>222.60000610352</ele>
        <time>2015-12-09T13:06:46Z</time>
      </trkpt>
      <trkpt lat="43.41751" lon="6.06256">
        <ele>222.80000305176</ele>
        <time>2015-12-09T13:06:48Z</time>
      </trkpt>
      <trkpt lat="43.41754" lon="6.06257">
        <ele>223.19999694824</ele>
        <time>2015-12-09T13:06:49Z</time>
      </trkpt>
      <trkpt lat="43.41757" lon="6.06258">
        <ele>223.39999389648</ele>
        <time>2015-12-09T13:06:50Z</time>
      </trkpt>
      <trkpt lat="43.41762" lon="6.0626">
        <ele>223.60000610352</ele>
        <time>2015-12-09T13:06:52Z</time>
      </trkpt>
      <trkpt lat="43.41767" lon="6.06263">
        <ele>224</ele>
        <time>2015-12-09T13:06:54Z</time>
      </trkpt>
      <trkpt lat="43.41773" lon="6.06266">
        <ele>224.39999389648</ele>
        <time>2015-12-09T13:06:56Z</time>
      </trkpt>
      <trkpt lat="43.41775" lon="6.06268">
        <ele>224.60000610352</ele>
        <time>2015-12-09T13:06:57Z</time>
      </trkpt>
      <trkpt lat="43.41777" lon="6.06269">
        <ele>224.60000610352</ele>
        <time>2015-12-09T13:06:58Z</time>
      </trkpt>
      <trkpt lat="43.41782" lon="6.06273">
        <ele>225</ele>
        <time>2015-12-09T13:07:00Z</time>
      </trkpt>
      <trkpt lat="43.41786" lon="6.06276">
        <ele>225.19999694824</ele>
        <time>2015-12-09T13:07:02Z</time>
      </trkpt>
      <trkpt lat="43.41788" lon="6.06279">
        <ele>225.60000610352</ele>
        <time>2015-12-09T13:07:04Z</time>
      </trkpt>
      <trkpt lat="43.41788" lon="6.06278">
        <ele>225.60000610352</ele>
        <time>2015-12-09T13:07:05Z</time>
      </trkpt>
      <trkpt lat="43.41788" lon="6.06278">
        <ele>225.60000610352</ele>
        <time>2015-12-09T13:07:06Z</time>
      </trkpt>
      <trkpt lat="43.41788" lon="6.06278">
        <ele>225.80000305176</ele>
        <time>2015-12-09T13:07:08Z</time>
      </trkpt>
      <trkpt lat="43.41789" lon="6.06278">
        <ele>225.80000305176</ele>
        <time>2015-12-09T13:07:10Z</time>
      </trkpt>
      <trkpt lat="43.41788" lon="6.06278">
        <ele>225.80000305176</ele>
        <time>2015-12-09T13:07:12Z</time>
      </trkpt>
      <trkpt lat="43.41788" lon="6.06278">
        <ele>225.80000305176</ele>
        <time>2015-12-09T13:07:18Z</time>
      </trkpt>
      <trkpt lat="43.41788" lon="6.06278">
        <ele>225.80000305176</ele>
        <time>2015-12-09T13:07:52Z</time>
      </trkpt>
      <trkpt lat="43.41788" lon="6.06278">
        <ele>226</ele>
        <time>2015-12-09T13:07:58Z</time>
      </trkpt>
      <trkpt lat="43.41788" lon="6.06277">
        <ele>226.19999694824</ele>
        <time>2015-12-09T13:08:00Z</time>
      </trkpt>
      <trkpt lat="43.41788" lon="6.06277">
        <ele>226.19999694824</ele>
        <time>2015-12-09T13:08:02Z</time>
      </trkpt>
      <trkpt lat="43.41791" lon="6.06278">
        <ele>226.19999694824</ele>
        <time>2015-12-09T13:08:04Z</time>
      </trkpt>
      <trkpt lat="43.41794" lon="6.06281">
        <ele>226.19999694824</ele>
        <time>2015-12-09T13:08:06Z</time>
      </trkpt>
      <trkpt lat="43.41798" lon="6.06285">
        <ele>226.39999389648</ele>
        <time>2015-12-09T13:08:08Z</time>
      </trkpt>
      <trkpt lat="43.41804" lon="6.0629">
        <ele>226.39999389648</ele>
        <time>2015-12-09T13:08:10Z</time>
      </trkpt>
      <trkpt lat="43.4181" lon="6.06293">
        <ele>226.80000305176</ele>
        <time>2015-12-09T13:08:12Z</time>
      </trkpt>
      <trkpt lat="43.41817" lon="6.06294">
        <ele>227.19999694824</ele>
        <time>2015-12-09T13:08:14Z</time>
      </trkpt>
      <trkpt lat="43.41824" lon="6.06294">
        <ele>227.39999389648</ele>
        <time>2015-12-09T13:08:16Z</time>
      </trkpt>
      <trkpt lat="43.41838" lon="6.06295">
        <ele>227.60000610352</ele>
        <time>2015-12-09T13:08:20Z</time>
      </trkpt>
      <trkpt lat="43.41841" lon="6.06295">
        <ele>228</ele>
        <time>2015-12-09T13:08:21Z</time>
      </trkpt>
      <trkpt lat="43.41845" lon="6.06294">
        <ele>228.39999389648</ele>
        <time>2015-12-09T13:08:22Z</time>
      </trkpt>
      <trkpt lat="43.41851" lon="6.06294">
        <ele>228.80000305176</ele>
        <time>2015-12-09T13:08:24Z</time>
      </trkpt>
      <trkpt lat="43.41858" lon="6.06293">
        <ele>229.19999694824</ele>
        <time>2015-12-09T13:08:26Z</time>
      </trkpt>
      <trkpt lat="43.41871" lon="6.06294">
        <ele>230.19999694824</ele>
        <time>2015-12-09T13:08:30Z</time>
      </trkpt>
      <trkpt lat="43.41883" lon="6.06295">
        <ele>231</ele>
        <time>2015-12-09T13:08:34Z</time>
      </trkpt>
      <trkpt lat="43.4189" lon="6.06295">
        <ele>231.39999389648</ele>
        <time>2015-12-09T13:08:36Z</time>
      </trkpt>
      <trkpt lat="43.41896" lon="6.06295">
        <ele>231.80000305176</ele>
        <time>2015-12-09T13:08:38Z</time>
      </trkpt>
      <trkpt lat="43.41902" lon="6.06294">
        <ele>232.19999694824</ele>
        <time>2015-12-09T13:08:40Z</time>
      </trkpt>
      <trkpt lat="43.41904" lon="6.06295">
        <ele>232.19999694824</ele>
        <time>2015-12-09T13:08:41Z</time>
      </trkpt>
      <trkpt lat="43.41907" lon="6.06295">
        <ele>232.60000610352</ele>
        <time>2015-12-09T13:08:42Z</time>
      </trkpt>
      <trkpt lat="43.41912" lon="6.06294">
        <ele>233.19999694824</ele>
        <time>2015-12-09T13:08:44Z</time>
      </trkpt>
      <trkpt lat="43.41917" lon="6.06294">
        <ele>233.39999389648</ele>
        <time>2015-12-09T13:08:46Z</time>
      </trkpt>
      <trkpt lat="43.41921" lon="6.06294">
        <ele>234</ele>
        <time>2015-12-09T13:08:48Z</time>
      </trkpt>
      <trkpt lat="43.41924" lon="6.06294">
        <ele>234</ele>
        <time>2015-12-09T13:08:49Z</time>
      </trkpt>
      <trkpt lat="43.41926" lon="6.06293">
        <ele>234</ele>
        <time>2015-12-09T13:08:50Z</time>
      </trkpt>
      <trkpt lat="43.41929" lon="6.06292">
        <ele>234.19999694824</ele>
        <time>2015-12-09T13:08:51Z</time>
      </trkpt>
      <trkpt lat="43.41932" lon="6.06292">
        <ele>234.60000610352</ele>
        <time>2015-12-09T13:08:52Z</time>
      </trkpt>
      <trkpt lat="43.41937" lon="6.0629">
        <ele>234.60000610352</ele>
        <time>2015-12-09T13:08:54Z</time>
      </trkpt>
      <trkpt lat="43.41943" lon="6.06289">
        <ele>234.60000610352</ele>
        <time>2015-12-09T13:08:56Z</time>
      </trkpt>
      <trkpt lat="43.41948" lon="6.06287">
        <ele>234.60000610352</ele>
        <time>2015-12-09T13:08:58Z</time>
      </trkpt>
      <trkpt lat="43.41954" lon="6.06285">
        <ele>234.80000305176</ele>
        <time>2015-12-09T13:09:00Z</time>
      </trkpt>
      <trkpt lat="43.41959" lon="6.06283">
        <ele>235.19999694824</ele>
        <time>2015-12-09T13:09:02Z</time>
      </trkpt>
      <trkpt lat="43.41964" lon="6.06281">
        <ele>235.19999694824</ele>
        <time>2015-12-09T13:09:04Z</time>
      </trkpt>
      <trkpt lat="43.41966" lon="6.0628">
        <ele>235.19999694824</ele>
        <time>2015-12-09T13:09:05Z</time>
      </trkpt>
      <trkpt lat="43.41969" lon="6.06279">
        <ele>235.39999389648</ele>
        <time>2015-12-09T13:09:06Z</time>
      </trkpt>
      <trkpt lat="43.41973" lon="6.06278">
        <ele>236</ele>
        <time>2015-12-09T13:09:08Z</time>
      </trkpt>
      <trkpt lat="43.41978" lon="6.06278">
        <ele>236.39999389648</ele>
        <time>2015-12-09T13:09:10Z</time>
      </trkpt>
      <trkpt lat="43.41982" lon="6.06276">
        <ele>236.80000305176</ele>
        <time>2015-12-09T13:09:12Z</time>
      </trkpt>
      <trkpt lat="43.41984" lon="6.06275">
        <ele>237</ele>
        <time>2015-12-09T13:09:13Z</time>
      </trkpt>
      <trkpt lat="43.4199" lon="6.06274">
        <ele>237.80000305176</ele>
        <time>2015-12-09T13:09:16Z</time>
      </trkpt>
      <trkpt lat="43.41994" lon="6.06272">
        <ele>238.39999389648</ele>
        <time>2015-12-09T13:09:18Z</time>
      </trkpt>
      <trkpt lat="43.41996" lon="6.06272">
        <ele>238.60000610352</ele>
        <time>2015-12-09T13:09:19Z</time>
      </trkpt>
      <trkpt lat="43.41998" lon="6.06271">
        <ele>238.60000610352</ele>
        <time>2015-12-09T13:09:20Z</time>
      </trkpt>
      <trkpt lat="43.42006" lon="6.06268">
        <ele>240</ele>
        <time>2015-12-09T13:09:24Z</time>
      </trkpt>
      <trkpt lat="43.42009" lon="6.06268">
        <ele>240.60000610352</ele>
        <time>2015-12-09T13:09:26Z</time>
      </trkpt>
      <trkpt lat="43.42012" lon="6.06266">
        <ele>240.80000305176</ele>
        <time>2015-12-09T13:09:28Z</time>
      </trkpt>
      <trkpt lat="43.42014" lon="6.06266">
        <ele>241</ele>
        <time>2015-12-09T13:09:29Z</time>
      </trkpt>
      <trkpt lat="43.42015" lon="6.06266">
        <ele>241.19999694824</ele>
        <time>2015-12-09T13:09:30Z</time>
      </trkpt>
      <trkpt lat="43.42019" lon="6.06264">
        <ele>241.60000610352</ele>
        <time>2015-12-09T13:09:32Z</time>
      </trkpt>
      <trkpt lat="43.42022" lon="6.06263">
        <ele>242.19999694824</ele>
        <time>2015-12-09T13:09:34Z</time>
      </trkpt>
      <trkpt lat="43.42027" lon="6.06262">
        <ele>242.60000610352</ele>
        <time>2015-12-09T13:09:36Z</time>
      </trkpt>
      <trkpt lat="43.4203" lon="6.0626">
        <ele>243</ele>
        <time>2015-12-09T13:09:38Z</time>
      </trkpt>
      <trkpt lat="43.42033" lon="6.06259">
        <ele>243.39999389648</ele>
        <time>2015-12-09T13:09:40Z</time>
      </trkpt>
      <trkpt lat="43.42036" lon="6.06258">
        <ele>244</ele>
        <time>2015-12-09T13:09:42Z</time>
      </trkpt>
      <trkpt lat="43.42039" lon="6.06257">
        <ele>244.19999694824</ele>
        <time>2015-12-09T13:09:44Z</time>
      </trkpt>
      <trkpt lat="43.42041" lon="6.06257">
        <ele>244.39999389648</ele>
        <time>2015-12-09T13:09:45Z</time>
      </trkpt>
      <trkpt lat="43.42043" lon="6.06256">
        <ele>244.60000610352</ele>
        <time>2015-12-09T13:09:46Z</time>
      </trkpt>
      <trkpt lat="43.42046" lon="6.06255">
        <ele>245.39999389648</ele>
        <time>2015-12-09T13:09:48Z</time>
      </trkpt>
      <trkpt lat="43.42049" lon="6.06253">
        <ele>245.60000610352</ele>
        <time>2015-12-09T13:09:50Z</time>
      </trkpt>
      <trkpt lat="43.42052" lon="6.06253">
        <ele>246.19999694824</ele>
        <time>2015-12-09T13:09:52Z</time>
      </trkpt>
      <trkpt lat="43.4206" lon="6.0625">
        <ele>247.19999694824</ele>
        <time>2015-12-09T13:09:56Z</time>
      </trkpt>
      <trkpt lat="43.42064" lon="6.06249">
        <ele>247.80000305176</ele>
        <time>2015-12-09T13:09:58Z</time>
      </trkpt>
      <trkpt lat="43.42067" lon="6.06247">
        <ele>248.19999694824</ele>
        <time>2015-12-09T13:10:00Z</time>
      </trkpt>
      <trkpt lat="43.42071" lon="6.06246">
        <ele>248.60000610352</ele>
        <time>2015-12-09T13:10:02Z</time>
      </trkpt>
      <trkpt lat="43.42075" lon="6.06244">
        <ele>248.80000305176</ele>
        <time>2015-12-09T13:10:04Z</time>
      </trkpt>
      <trkpt lat="43.42076" lon="6.06244">
        <ele>248.80000305176</ele>
        <time>2015-12-09T13:10:05Z</time>
      </trkpt>
      <trkpt lat="43.42081" lon="6.06242">
        <ele>249.60000610352</ele>
        <time>2015-12-09T13:10:08Z</time>
      </trkpt>
      <trkpt lat="43.42083" lon="6.06241">
        <ele>249.60000610352</ele>
        <time>2015-12-09T13:10:09Z</time>
      </trkpt>
      <trkpt lat="43.42085" lon="6.0624">
        <ele>249.80000305176</ele>
        <time>2015-12-09T13:10:10Z</time>
      </trkpt>
      <trkpt lat="43.42086" lon="6.0624">
        <ele>250</ele>
        <time>2015-12-09T13:10:11Z</time>
      </trkpt>
      <trkpt lat="43.42088" lon="6.06239">
        <ele>250.39999389648</ele>
        <time>2015-12-09T13:10:12Z</time>
      </trkpt>
      <trkpt lat="43.42091" lon="6.06238">
        <ele>251</ele>
        <time>2015-12-09T13:10:14Z</time>
      </trkpt>
      <trkpt lat="43.42094" lon="6.06237">
        <ele>251.39999389648</ele>
        <time>2015-12-09T13:10:16Z</time>
      </trkpt>
      <trkpt lat="43.42097" lon="6.06237">
        <ele>251.39999389648</ele>
        <time>2015-12-09T13:10:18Z</time>
      </trkpt>
      <trkpt lat="43.42101" lon="6.06235">
        <ele>252</ele>
        <time>2015-12-09T13:10:20Z</time>
      </trkpt>
      <trkpt lat="43.42104" lon="6.06234">
        <ele>252.19999694824</ele>
        <time>2015-12-09T13:10:22Z</time>
      </trkpt>
      <trkpt lat="43.4211" lon="6.06232">
        <ele>253</ele>
        <time>2015-12-09T13:10:26Z</time>
      </trkpt>
      <trkpt lat="43.42117" lon="6.0623">
        <ele>253.19999694824</ele>
        <time>2015-12-09T13:10:30Z</time>
      </trkpt>
      <trkpt lat="43.4212" lon="6.06228">
        <ele>253.19999694824</ele>
        <time>2015-12-09T13:10:32Z</time>
      </trkpt>
      <trkpt lat="43.42123" lon="6.06227">
        <ele>253.60000610352</ele>
        <time>2015-12-09T13:10:34Z</time>
      </trkpt>
      <trkpt lat="43.42126" lon="6.06226">
        <ele>253.80000305176</ele>
        <time>2015-12-09T13:10:36Z</time>
      </trkpt>
      <trkpt lat="43.42133" lon="6.06224">
        <ele>254.80000305176</ele>
        <time>2015-12-09T13:10:40Z</time>
      </trkpt>
      <trkpt lat="43.42138" lon="6.06222">
        <ele>255</ele>
        <time>2015-12-09T13:10:43Z</time>
      </trkpt>
      <trkpt lat="43.42139" lon="6.06221">
        <ele>254.80000305176</ele>
        <time>2015-12-09T13:10:44Z</time>
      </trkpt>
      <trkpt lat="43.42142" lon="6.0622">
        <ele>254.80000305176</ele>
        <time>2015-12-09T13:10:48Z</time>
      </trkpt>
      <trkpt lat="43.42144" lon="6.06219">
        <ele>255.19999694824</ele>
        <time>2015-12-09T13:10:50Z</time>
      </trkpt>
      <trkpt lat="43.42144" lon="6.06219">
        <ele>255.19999694824</ele>
        <time>2015-12-09T13:10:51Z</time>
      </trkpt>
      <trkpt lat="43.42144" lon="6.06219">
        <ele>255</ele>
        <time>2015-12-09T13:10:54Z</time>
      </trkpt>
      <trkpt lat="43.42145" lon="6.06219">
        <ele>255</ele>
        <time>2015-12-09T13:10:56Z</time>
      </trkpt>
      <trkpt lat="43.42145" lon="6.06219">
        <ele>255.19999694824</ele>
        <time>2015-12-09T13:10:58Z</time>
      </trkpt>
      <trkpt lat="43.42145" lon="6.06219">
        <ele>255</ele>
        <time>2015-12-09T13:10:59Z</time>
      </trkpt>
      <trkpt lat="43.42145" lon="6.0622">
        <ele>255</ele>
        <time>2015-12-09T13:11:02Z</time>
      </trkpt>
      <trkpt lat="43.42145" lon="6.0622">
        <ele>255</ele>
        <time>2015-12-09T13:11:04Z</time>
      </trkpt>
      <trkpt lat="43.42145" lon="6.0622">
        <ele>254.80000305176</ele>
        <time>2015-12-09T13:11:06Z</time>
      </trkpt>
      <trkpt lat="43.42145" lon="6.0622">
        <ele>254.80000305176</ele>
        <time>2015-12-09T13:11:20Z</time>
      </trkpt>
      <trkpt lat="43.42145" lon="6.0622">
        <ele>255.19999694824</ele>
        <time>2015-12-09T13:11:54Z</time>
      </trkpt>
      <trkpt lat="43.42145" lon="6.0622">
        <ele>255</ele>
        <time>2015-12-09T13:11:56Z</time>
      </trkpt>
      <trkpt lat="43.42146" lon="6.0622">
        <ele>255</ele>
        <time>2015-12-09T13:11:58Z</time>
      </trkpt>
      <trkpt lat="43.42148" lon="6.06221">
        <ele>255</ele>
        <time>2015-12-09T13:12:00Z</time>
      </trkpt>
      <trkpt lat="43.4215" lon="6.06225">
        <ele>255</ele>
        <time>2015-12-09T13:12:02Z</time>
      </trkpt>
      <trkpt lat="43.42152" lon="6.06233">
        <ele>254.80000305176</ele>
        <time>2015-12-09T13:12:04Z</time>
      </trkpt>
      <trkpt lat="43.42153" lon="6.06244">
        <ele>254.39999389648</ele>
        <time>2015-12-09T13:12:06Z</time>
      </trkpt>
      <trkpt lat="43.42153" lon="6.06258">
        <ele>253.60000610352</ele>
        <time>2015-12-09T13:12:08Z</time>
      </trkpt>
      <trkpt lat="43.42153" lon="6.06266">
        <ele>253.39999389648</ele>
        <time>2015-12-09T13:12:09Z</time>
      </trkpt>
      <trkpt lat="43.42153" lon="6.06273">
        <ele>253</ele>
        <time>2015-12-09T13:12:10Z</time>
      </trkpt>
      <trkpt lat="43.42153" lon="6.06282">
        <ele>252.60000610352</ele>
        <time>2015-12-09T13:12:11Z</time>
      </trkpt>
      <trkpt lat="43.42153" lon="6.06291">
        <ele>252</ele>
        <time>2015-12-09T13:12:12Z</time>
      </trkpt>
      <trkpt lat="43.42154" lon="6.0631">
        <ele>251.19999694824</ele>
        <time>2015-12-09T13:12:14Z</time>
      </trkpt>
      <trkpt lat="43.42155" lon="6.06321">
        <ele>250.39999389648</ele>
        <time>2015-12-09T13:12:15Z</time>
      </trkpt>
      <trkpt lat="43.42157" lon="6.0633">
        <ele>249.80000305176</ele>
        <time>2015-12-09T13:12:16Z</time>
      </trkpt>
      <trkpt lat="43.42158" lon="6.0634">
        <ele>249.39999389648</ele>
        <time>2015-12-09T13:12:17Z</time>
      </trkpt>
      <trkpt lat="43.42159" lon="6.06348">
        <ele>249</ele>
        <time>2015-12-09T13:12:18Z</time>
      </trkpt>
      <trkpt lat="43.42167" lon="6.0639">
        <ele>248.19999694824</ele>
        <time>2015-12-09T13:12:23Z</time>
      </trkpt>
      <trkpt lat="43.42168" lon="6.06398">
        <ele>248.19999694824</ele>
        <time>2015-12-09T13:12:24Z</time>
      </trkpt>
      <trkpt lat="43.42171" lon="6.06413">
        <ele>248.39999389648</ele>
        <time>2015-12-09T13:12:26Z</time>
      </trkpt>
      <trkpt lat="43.42173" lon="6.06427">
        <ele>248.39999389648</ele>
        <time>2015-12-09T13:12:28Z</time>
      </trkpt>
      <trkpt lat="43.42176" lon="6.06439">
        <ele>248.19999694824</ele>
        <time>2015-12-09T13:12:30Z</time>
      </trkpt>
      <trkpt lat="43.42179" lon="6.06461">
        <ele>248.80000305176</ele>
        <time>2015-12-09T13:12:34Z</time>
      </trkpt>
      <trkpt lat="43.42181" lon="6.06471">
        <ele>248.60000610352</ele>
        <time>2015-12-09T13:12:36Z</time>
      </trkpt>
      <trkpt lat="43.42182" lon="6.06481">
        <ele>248.60000610352</ele>
        <time>2015-12-09T13:12:38Z</time>
      </trkpt>
      <trkpt lat="43.42183" lon="6.06486">
        <ele>248.60000610352</ele>
        <time>2015-12-09T13:12:39Z</time>
      </trkpt>
      <trkpt lat="43.42184" lon="6.06491">
        <ele>248.60000610352</ele>
        <time>2015-12-09T13:12:40Z</time>
      </trkpt>
      <trkpt lat="43.42184" lon="6.06497">
        <ele>248.60000610352</ele>
        <time>2015-12-09T13:12:41Z</time>
      </trkpt>
      <trkpt lat="43.42185" lon="6.06502">
        <ele>248.60000610352</ele>
        <time>2015-12-09T13:12:42Z</time>
      </trkpt>
      <trkpt lat="43.42188" lon="6.06512">
        <ele>248.60000610352</ele>
        <time>2015-12-09T13:12:44Z</time>
      </trkpt>
      <trkpt lat="43.42192" lon="6.06514">
        <ele>248.60000610352</ele>
        <time>2015-12-09T13:12:45Z</time>
      </trkpt>
      <trkpt lat="43.42196" lon="6.06514">
        <ele>248.39999389648</ele>
        <time>2015-12-09T13:12:46Z</time>
      </trkpt>
      <trkpt lat="43.42203" lon="6.06513">
        <ele>248.80000305176</ele>
        <time>2015-12-09T13:12:48Z</time>
      </trkpt>
      <trkpt lat="43.42206" lon="6.06513">
        <ele>249.19999694824</ele>
        <time>2015-12-09T13:12:49Z</time>
      </trkpt>
      <trkpt lat="43.42208" lon="6.06514">
        <ele>249.60000610352</ele>
        <time>2015-12-09T13:12:50Z</time>
      </trkpt>
      <trkpt lat="43.42211" lon="6.06514">
        <ele>249.80000305176</ele>
        <time>2015-12-09T13:12:51Z</time>
      </trkpt>
      <trkpt lat="43.42213" lon="6.06515">
        <ele>250</ele>
        <time>2015-12-09T13:12:52Z</time>
      </trkpt>
      <trkpt lat="43.42217" lon="6.06516">
        <ele>250.80000305176</ele>
        <time>2015-12-09T13:12:54Z</time>
      </trkpt>
      <trkpt lat="43.4222" lon="6.06516">
        <ele>250.80000305176</ele>
        <time>2015-12-09T13:12:55Z</time>
      </trkpt>
      <trkpt lat="43.42222" lon="6.06517">
        <ele>251</ele>
        <time>2015-12-09T13:12:56Z</time>
      </trkpt>
      <trkpt lat="43.42226" lon="6.06518">
        <ele>251.60000610352</ele>
        <time>2015-12-09T13:12:58Z</time>
      </trkpt>
      <trkpt lat="43.42228" lon="6.06519">
        <ele>251.80000305176</ele>
        <time>2015-12-09T13:12:59Z</time>
      </trkpt>
      <trkpt lat="43.4223" lon="6.06519">
        <ele>252</ele>
        <time>2015-12-09T13:13:00Z</time>
      </trkpt>
      <trkpt lat="43.42233" lon="6.0652">
        <ele>252.39999389648</ele>
        <time>2015-12-09T13:13:01Z</time>
      </trkpt>
      <trkpt lat="43.42235" lon="6.0652">
        <ele>252.60000610352</ele>
        <time>2015-12-09T13:13:02Z</time>
      </trkpt>
      <trkpt lat="43.42239" lon="6.06521">
        <ele>252.80000305176</ele>
        <time>2015-12-09T13:13:04Z</time>
      </trkpt>
      <trkpt lat="43.42244" lon="6.06522">
        <ele>252.80000305176</ele>
        <time>2015-12-09T13:13:06Z</time>
      </trkpt>
      <trkpt lat="43.42247" lon="6.06521">
        <ele>253</ele>
        <time>2015-12-09T13:13:08Z</time>
      </trkpt>
      <trkpt lat="43.42252" lon="6.0652">
        <ele>253.19999694824</ele>
        <time>2015-12-09T13:13:10Z</time>
      </trkpt>
      <trkpt lat="43.42255" lon="6.06519">
        <ele>253.39999389648</ele>
        <time>2015-12-09T13:13:12Z</time>
      </trkpt>
      <trkpt lat="43.42257" lon="6.06519">
        <ele>253.60000610352</ele>
        <time>2015-12-09T13:13:13Z</time>
      </trkpt>
      <trkpt lat="43.4226" lon="6.06517">
        <ele>253.80000305176</ele>
        <time>2015-12-09T13:13:14Z</time>
      </trkpt>
      <trkpt lat="43.42263" lon="6.06516">
        <ele>254</ele>
        <time>2015-12-09T13:13:16Z</time>
      </trkpt>
      <trkpt lat="43.42266" lon="6.06513">
        <ele>254.19999694824</ele>
        <time>2015-12-09T13:13:18Z</time>
      </trkpt>
      <trkpt lat="43.42267" lon="6.06512">
        <ele>254.39999389648</ele>
        <time>2015-12-09T13:13:19Z</time>
      </trkpt>
      <trkpt lat="43.42268" lon="6.06511">
        <ele>254.39999389648</ele>
        <time>2015-12-09T13:13:20Z</time>
      </trkpt>
      <trkpt lat="43.42271" lon="6.06509">
        <ele>254.80000305176</ele>
        <time>2015-12-09T13:13:22Z</time>
      </trkpt>
      <trkpt lat="43.42272" lon="6.06507">
        <ele>255</ele>
        <time>2015-12-09T13:13:23Z</time>
      </trkpt>
      <trkpt lat="43.42274" lon="6.06506">
        <ele>255.19999694824</ele>
        <time>2015-12-09T13:13:24Z</time>
      </trkpt>
      <trkpt lat="43.42276" lon="6.06503">
        <ele>255.39999389648</ele>
        <time>2015-12-09T13:13:26Z</time>
      </trkpt>
      <trkpt lat="43.42279" lon="6.06501">
        <ele>255.80000305176</ele>
        <time>2015-12-09T13:13:28Z</time>
      </trkpt>
      <trkpt lat="43.42284" lon="6.06495">
        <ele>256</ele>
        <time>2015-12-09T13:13:32Z</time>
      </trkpt>
      <trkpt lat="43.42285" lon="6.06493">
        <ele>256.20001220703</ele>
        <time>2015-12-09T13:13:33Z</time>
      </trkpt>
      <trkpt lat="43.42286" lon="6.06492">
        <ele>256.39999389648</ele>
        <time>2015-12-09T13:13:34Z</time>
      </trkpt>
      <trkpt lat="43.42289" lon="6.06488">
        <ele>256.39999389648</ele>
        <time>2015-12-09T13:13:36Z</time>
      </trkpt>
      <trkpt lat="43.42291" lon="6.06485">
        <ele>257</ele>
        <time>2015-12-09T13:13:38Z</time>
      </trkpt>
      <trkpt lat="43.42294" lon="6.06483">
        <ele>257.39999389648</ele>
        <time>2015-12-09T13:13:40Z</time>
      </trkpt>
      <trkpt lat="43.42297" lon="6.06479">
        <ele>257.39999389648</ele>
        <time>2015-12-09T13:13:42Z</time>
      </trkpt>
      <trkpt lat="43.423" lon="6.06477">
        <ele>257.60000610352</ele>
        <time>2015-12-09T13:13:44Z</time>
      </trkpt>
      <trkpt lat="43.42302" lon="6.06474">
        <ele>257.79998779297</ele>
        <time>2015-12-09T13:13:46Z</time>
      </trkpt>
      <trkpt lat="43.42305" lon="6.06471">
        <ele>257.79998779297</ele>
        <time>2015-12-09T13:13:48Z</time>
      </trkpt>
      <trkpt lat="43.42309" lon="6.06465">
        <ele>258.60000610352</ele>
        <time>2015-12-09T13:13:52Z</time>
      </trkpt>
      <trkpt lat="43.42311" lon="6.06461">
        <ele>258.79998779297</ele>
        <time>2015-12-09T13:13:54Z</time>
      </trkpt>
      <trkpt lat="43.42314" lon="6.0646">
        <ele>258.79998779297</ele>
        <time>2015-12-09T13:13:56Z</time>
      </trkpt>
      <trkpt lat="43.42317" lon="6.06457">
        <ele>259</ele>
        <time>2015-12-09T13:13:58Z</time>
      </trkpt>
      <trkpt lat="43.4232" lon="6.06455">
        <ele>259.20001220703</ele>
        <time>2015-12-09T13:14:00Z</time>
      </trkpt>
      <trkpt lat="43.42322" lon="6.06456">
        <ele>259.39999389648</ele>
        <time>2015-12-09T13:14:01Z</time>
      </trkpt>
      <trkpt lat="43.42323" lon="6.06455">
        <ele>259.39999389648</ele>
        <time>2015-12-09T13:14:02Z</time>
      </trkpt>
      <trkpt lat="43.42324" lon="6.06454">
        <ele>259.39999389648</ele>
        <time>2015-12-09T13:14:04Z</time>
      </trkpt>
      <trkpt lat="43.42326" lon="6.06451">
        <ele>259.20001220703</ele>
        <time>2015-12-09T13:14:06Z</time>
      </trkpt>
      <trkpt lat="43.42326" lon="6.06451">
        <ele>259.20001220703</ele>
        <time>2015-12-09T13:14:08Z</time>
      </trkpt>
      <trkpt lat="43.42326" lon="6.06451">
        <ele>259.20001220703</ele>
        <time>2015-12-09T13:14:10Z</time>
      </trkpt>
      <trkpt lat="43.42326" lon="6.06451">
        <ele>259.20001220703</ele>
        <time>2015-12-09T13:14:12Z</time>
      </trkpt>
      <trkpt lat="43.42326" lon="6.06451">
        <ele>259.39999389648</ele>
        <time>2015-12-09T13:14:14Z</time>
      </trkpt>
      <trkpt lat="43.42326" lon="6.06451">
        <ele>259.20001220703</ele>
        <time>2015-12-09T13:14:20Z</time>
      </trkpt>
      <trkpt lat="43.42326" lon="6.06451">
        <ele>259.20001220703</ele>
        <time>2015-12-09T13:14:22Z</time>
      </trkpt>
      <trkpt lat="43.42326" lon="6.06451">
        <ele>259.20001220703</ele>
        <time>2015-12-09T13:14:24Z</time>
      </trkpt>
      <trkpt lat="43.42326" lon="6.06449">
        <ele>259.39999389648</ele>
        <time>2015-12-09T13:14:25Z</time>
      </trkpt>
      <trkpt lat="43.42327" lon="6.06448">
        <ele>259.39999389648</ele>
        <time>2015-12-09T13:14:26Z</time>
      </trkpt>
      <trkpt lat="43.4233" lon="6.06446">
        <ele>259.60000610352</ele>
        <time>2015-12-09T13:14:28Z</time>
      </trkpt>
      <trkpt lat="43.42332" lon="6.06444">
        <ele>259.39999389648</ele>
        <time>2015-12-09T13:14:30Z</time>
      </trkpt>
      <trkpt lat="43.42334" lon="6.06443">
        <ele>259.39999389648</ele>
        <time>2015-12-09T13:14:31Z</time>
      </trkpt>
      <trkpt lat="43.42336" lon="6.06441">
        <ele>259.60000610352</ele>
        <time>2015-12-09T13:14:32Z</time>
      </trkpt>
      <trkpt lat="43.42339" lon="6.06439">
        <ele>259.60000610352</ele>
        <time>2015-12-09T13:14:34Z</time>
      </trkpt>
      <trkpt lat="43.42342" lon="6.06438">
        <ele>259.39999389648</ele>
        <time>2015-12-09T13:14:36Z</time>
      </trkpt>
      <trkpt lat="43.42344" lon="6.06437">
        <ele>259.39999389648</ele>
        <time>2015-12-09T13:14:37Z</time>
      </trkpt>
      <trkpt lat="43.42345" lon="6.06436">
        <ele>259.60000610352</ele>
        <time>2015-12-09T13:14:38Z</time>
      </trkpt>
      <trkpt lat="43.42348" lon="6.06433">
        <ele>259.79998779297</ele>
        <time>2015-12-09T13:14:40Z</time>
      </trkpt>
      <trkpt lat="43.42351" lon="6.06431">
        <ele>259.79998779297</ele>
        <time>2015-12-09T13:14:42Z</time>
      </trkpt>
      <trkpt lat="43.42356" lon="6.06424">
        <ele>259.79998779297</ele>
        <time>2015-12-09T13:14:46Z</time>
      </trkpt>
      <trkpt lat="43.42358" lon="6.06423">
        <ele>259.79998779297</ele>
        <time>2015-12-09T13:14:47Z</time>
      </trkpt>
      <trkpt lat="43.42359" lon="6.06422">
        <ele>259.60000610352</ele>
        <time>2015-12-09T13:14:48Z</time>
      </trkpt>
      <trkpt lat="43.42361" lon="6.06421">
        <ele>259.60000610352</ele>
        <time>2015-12-09T13:14:49Z</time>
      </trkpt>
      <trkpt lat="43.42363" lon="6.06418">
        <ele>259.60000610352</ele>
        <time>2015-12-09T13:14:50Z</time>
      </trkpt>
      <trkpt lat="43.42367" lon="6.06413">
        <ele>259.79998779297</ele>
        <time>2015-12-09T13:14:52Z</time>
      </trkpt>
      <trkpt lat="43.42373" lon="6.06408">
        <ele>260</ele>
        <time>2015-12-09T13:14:54Z</time>
      </trkpt>
      <trkpt lat="43.42376" lon="6.06406">
        <ele>260</ele>
        <time>2015-12-09T13:14:56Z</time>
      </trkpt>
      <trkpt lat="43.4238" lon="6.06405">
        <ele>260</ele>
        <time>2015-12-09T13:14:58Z</time>
      </trkpt>
      <trkpt lat="43.42381" lon="6.06404">
        <ele>260.20001220703</ele>
        <time>2015-12-09T13:14:59Z</time>
      </trkpt>
      <trkpt lat="43.42383" lon="6.06404">
        <ele>260.39999389648</ele>
        <time>2015-12-09T13:15:00Z</time>
      </trkpt>
      <trkpt lat="43.42387" lon="6.06404">
        <ele>260.60000610352</ele>
        <time>2015-12-09T13:15:02Z</time>
      </trkpt>
      <trkpt lat="43.42389" lon="6.06406">
        <ele>260.79998779297</ele>
        <time>2015-12-09T13:15:03Z</time>
      </trkpt>
      <trkpt lat="43.4239" lon="6.06406">
        <ele>261</ele>
        <time>2015-12-09T13:15:04Z</time>
      </trkpt>
      <trkpt lat="43.42392" lon="6.06407">
        <ele>261</ele>
        <time>2015-12-09T13:15:05Z</time>
      </trkpt>
      <trkpt lat="43.42398" lon="6.0641">
        <ele>261.39999389648</ele>
        <time>2015-12-09T13:15:08Z</time>
      </trkpt>
      <trkpt lat="43.42401" lon="6.06411">
        <ele>261.60000610352</ele>
        <time>2015-12-09T13:15:10Z</time>
      </trkpt>
      <trkpt lat="43.42403" lon="6.06412">
        <ele>261.79998779297</ele>
        <time>2015-12-09T13:15:11Z</time>
      </trkpt>
      <trkpt lat="43.42405" lon="6.06412">
        <ele>262</ele>
        <time>2015-12-09T13:15:12Z</time>
      </trkpt>
      <trkpt lat="43.42409" lon="6.06414">
        <ele>262.39999389648</ele>
        <time>2015-12-09T13:15:14Z</time>
      </trkpt>
      <trkpt lat="43.42413" lon="6.06414">
        <ele>262.20001220703</ele>
        <time>2015-12-09T13:15:16Z</time>
      </trkpt>
      <trkpt lat="43.42419" lon="6.06411">
        <ele>262</ele>
        <time>2015-12-09T13:15:18Z</time>
      </trkpt>
      <trkpt lat="43.42423" lon="6.06408">
        <ele>262</ele>
        <time>2015-12-09T13:15:20Z</time>
      </trkpt>
      <trkpt lat="43.42427" lon="6.06405">
        <ele>262</ele>
        <time>2015-12-09T13:15:22Z</time>
      </trkpt>
      <trkpt lat="43.4243" lon="6.06403">
        <ele>262.20001220703</ele>
        <time>2015-12-09T13:15:23Z</time>
      </trkpt>
      <trkpt lat="43.42432" lon="6.06401">
        <ele>262.20001220703</ele>
        <time>2015-12-09T13:15:24Z</time>
      </trkpt>
      <trkpt lat="43.42437" lon="6.06396">
        <ele>262.20001220703</ele>
        <time>2015-12-09T13:15:26Z</time>
      </trkpt>
      <trkpt lat="43.42441" lon="6.06392">
        <ele>262.39999389648</ele>
        <time>2015-12-09T13:15:28Z</time>
      </trkpt>
      <trkpt lat="43.42443" lon="6.0639">
        <ele>262.39999389648</ele>
        <time>2015-12-09T13:15:29Z</time>
      </trkpt>
      <trkpt lat="43.42445" lon="6.0639">
        <ele>262.39999389648</ele>
        <time>2015-12-09T13:15:30Z</time>
      </trkpt>
      <trkpt lat="43.4245" lon="6.06388">
        <ele>262.39999389648</ele>
        <time>2015-12-09T13:15:32Z</time>
      </trkpt>
      <trkpt lat="43.42455" lon="6.06386">
        <ele>262.39999389648</ele>
        <time>2015-12-09T13:15:34Z</time>
      </trkpt>
      <trkpt lat="43.42461" lon="6.06386">
        <ele>262.39999389648</ele>
        <time>2015-12-09T13:15:36Z</time>
      </trkpt>
      <trkpt lat="43.42466" lon="6.06384">
        <ele>262.39999389648</ele>
        <time>2015-12-09T13:15:38Z</time>
      </trkpt>
      <trkpt lat="43.42472" lon="6.06385">
        <ele>262.79998779297</ele>
        <time>2015-12-09T13:15:40Z</time>
      </trkpt>
      <trkpt lat="43.42477" lon="6.06385">
        <ele>263.20001220703</ele>
        <time>2015-12-09T13:15:42Z</time>
      </trkpt>
      <trkpt lat="43.42483" lon="6.06384">
        <ele>263.39999389648</ele>
        <time>2015-12-09T13:15:44Z</time>
      </trkpt>
      <trkpt lat="43.42488" lon="6.06383">
        <ele>263.39999389648</ele>
        <time>2015-12-09T13:15:46Z</time>
      </trkpt>
      <trkpt lat="43.42493" lon="6.0638">
        <ele>263.79998779297</ele>
        <time>2015-12-09T13:15:48Z</time>
      </trkpt>
      <trkpt lat="43.42498" lon="6.06377">
        <ele>263.60000610352</ele>
        <time>2015-12-09T13:15:50Z</time>
      </trkpt>
      <trkpt lat="43.42503" lon="6.06374">
        <ele>263.79998779297</ele>
        <time>2015-12-09T13:15:52Z</time>
      </trkpt>
      <trkpt lat="43.42507" lon="6.06372">
        <ele>264.39999389648</ele>
        <time>2015-12-09T13:15:54Z</time>
      </trkpt>
      <trkpt lat="43.42511" lon="6.0637">
        <ele>264.79998779297</ele>
        <time>2015-12-09T13:15:56Z</time>
      </trkpt>
      <trkpt lat="43.42516" lon="6.06369">
        <ele>265</ele>
        <time>2015-12-09T13:15:58Z</time>
      </trkpt>
      <trkpt lat="43.4252" lon="6.06368">
        <ele>265.39999389648</ele>
        <time>2015-12-09T13:16:00Z</time>
      </trkpt>
      <trkpt lat="43.42524" lon="6.06367">
        <ele>265.39999389648</ele>
        <time>2015-12-09T13:16:02Z</time>
      </trkpt>
      <trkpt lat="43.42528" lon="6.06366">
        <ele>265.39999389648</ele>
        <time>2015-12-09T13:16:04Z</time>
      </trkpt>
      <trkpt lat="43.42532" lon="6.06362">
        <ele>265.60000610352</ele>
        <time>2015-12-09T13:16:06Z</time>
      </trkpt>
      <trkpt lat="43.42536" lon="6.06358">
        <ele>266</ele>
        <time>2015-12-09T13:16:08Z</time>
      </trkpt>
      <trkpt lat="43.4254" lon="6.06356">
        <ele>266.20001220703</ele>
        <time>2015-12-09T13:16:10Z</time>
      </trkpt>
      <trkpt lat="43.42544" lon="6.06354">
        <ele>266.60000610352</ele>
        <time>2015-12-09T13:16:12Z</time>
      </trkpt>
      <trkpt lat="43.42551" lon="6.06349">
        <ele>266.60000610352</ele>
        <time>2015-12-09T13:16:16Z</time>
      </trkpt>
      <trkpt lat="43.42555" lon="6.06347">
        <ele>267</ele>
        <time>2015-12-09T13:16:18Z</time>
      </trkpt>
      <trkpt lat="43.42559" lon="6.06344">
        <ele>267.39999389648</ele>
        <time>2015-12-09T13:16:20Z</time>
      </trkpt>
      <trkpt lat="43.42561" lon="6.06343">
        <ele>267.79998779297</ele>
        <time>2015-12-09T13:16:21Z</time>
      </trkpt>
      <trkpt lat="43.42562" lon="6.06341">
        <ele>268</ele>
        <time>2015-12-09T13:16:22Z</time>
      </trkpt>
      <trkpt lat="43.42566" lon="6.06338">
        <ele>268.39999389648</ele>
        <time>2015-12-09T13:16:24Z</time>
      </trkpt>
      <trkpt lat="43.42567" lon="6.06337">
        <ele>268.79998779297</ele>
        <time>2015-12-09T13:16:25Z</time>
      </trkpt>
      <trkpt lat="43.42569" lon="6.06335">
        <ele>268.79998779297</ele>
        <time>2015-12-09T13:16:26Z</time>
      </trkpt>
      <trkpt lat="43.4257" lon="6.06334">
        <ele>268.60000610352</ele>
        <time>2015-12-09T13:16:27Z</time>
      </trkpt>
      <trkpt lat="43.42571" lon="6.06332">
        <ele>268.60000610352</ele>
        <time>2015-12-09T13:16:28Z</time>
      </trkpt>
      <trkpt lat="43.42575" lon="6.06329">
        <ele>268.79998779297</ele>
        <time>2015-12-09T13:16:30Z</time>
      </trkpt>
      <trkpt lat="43.42578" lon="6.06327">
        <ele>269.39999389648</ele>
        <time>2015-12-09T13:16:32Z</time>
      </trkpt>
      <trkpt lat="43.42581" lon="6.06323">
        <ele>269</ele>
        <time>2015-12-09T13:16:34Z</time>
      </trkpt>
      <trkpt lat="43.42584" lon="6.06321">
        <ele>269.60000610352</ele>
        <time>2015-12-09T13:16:36Z</time>
      </trkpt>
      <trkpt lat="43.42586" lon="6.0632">
        <ele>269.79998779297</ele>
        <time>2015-12-09T13:16:37Z</time>
      </trkpt>
      <trkpt lat="43.42587" lon="6.06319">
        <ele>270</ele>
        <time>2015-12-09T13:16:38Z</time>
      </trkpt>
      <trkpt lat="43.42591" lon="6.06317">
        <ele>270</ele>
        <time>2015-12-09T13:16:40Z</time>
      </trkpt>
      <trkpt lat="43.42595" lon="6.06315">
        <ele>270.20001220703</ele>
        <time>2015-12-09T13:16:42Z</time>
      </trkpt>
      <trkpt lat="43.42599" lon="6.06314">
        <ele>270.60000610352</ele>
        <time>2015-12-09T13:16:44Z</time>
      </trkpt>
      <trkpt lat="43.42603" lon="6.06315">
        <ele>270.79998779297</ele>
        <time>2015-12-09T13:16:46Z</time>
      </trkpt>
      <trkpt lat="43.42608" lon="6.06317">
        <ele>270.79998779297</ele>
        <time>2015-12-09T13:16:48Z</time>
      </trkpt>
      <trkpt lat="43.42612" lon="6.06319">
        <ele>271.20001220703</ele>
        <time>2015-12-09T13:16:50Z</time>
      </trkpt>
      <trkpt lat="43.42616" lon="6.06321">
        <ele>271.39999389648</ele>
        <time>2015-12-09T13:16:52Z</time>
      </trkpt>
      <trkpt lat="43.4262" lon="6.06323">
        <ele>271.79998779297</ele>
        <time>2015-12-09T13:16:54Z</time>
      </trkpt>
      <trkpt lat="43.42622" lon="6.06324">
        <ele>271.79998779297</ele>
        <time>2015-12-09T13:16:55Z</time>
      </trkpt>
      <trkpt lat="43.42623" lon="6.06324">
        <ele>272</ele>
        <time>2015-12-09T13:16:56Z</time>
      </trkpt>
      <trkpt lat="43.42628" lon="6.06325">
        <ele>272.20001220703</ele>
        <time>2015-12-09T13:16:58Z</time>
      </trkpt>
      <trkpt lat="43.42633" lon="6.06326">
        <ele>272.39999389648</ele>
        <time>2015-12-09T13:17:00Z</time>
      </trkpt>
      <trkpt lat="43.42638" lon="6.06328">
        <ele>272.39999389648</ele>
        <time>2015-12-09T13:17:02Z</time>
      </trkpt>
      <trkpt lat="43.4264" lon="6.0633">
        <ele>272.60000610352</ele>
        <time>2015-12-09T13:17:03Z</time>
      </trkpt>
      <trkpt lat="43.42642" lon="6.0633">
        <ele>273</ele>
        <time>2015-12-09T13:17:04Z</time>
      </trkpt>
      <trkpt lat="43.42647" lon="6.06331">
        <ele>273</ele>
        <time>2015-12-09T13:17:06Z</time>
      </trkpt>
      <trkpt lat="43.42649" lon="6.06332">
        <ele>273</ele>
        <time>2015-12-09T13:17:07Z</time>
      </trkpt>
      <trkpt lat="43.42652" lon="6.06331">
        <ele>273.39999389648</ele>
        <time>2015-12-09T13:17:08Z</time>
      </trkpt>
      <trkpt lat="43.42655" lon="6.06331">
        <ele>273.39999389648</ele>
        <time>2015-12-09T13:17:09Z</time>
      </trkpt>
      <trkpt lat="43.42658" lon="6.06331">
        <ele>273.60000610352</ele>
        <time>2015-12-09T13:17:10Z</time>
      </trkpt>
      <trkpt lat="43.42663" lon="6.06333">
        <ele>274</ele>
        <time>2015-12-09T13:17:12Z</time>
      </trkpt>
      <trkpt lat="43.42665" lon="6.06334">
        <ele>274.20001220703</ele>
        <time>2015-12-09T13:17:13Z</time>
      </trkpt>
      <trkpt lat="43.42667" lon="6.06335">
        <ele>274.60000610352</ele>
        <time>2015-12-09T13:17:14Z</time>
      </trkpt>
      <trkpt lat="43.42669" lon="6.06337">
        <ele>275</ele>
        <time>2015-12-09T13:17:16Z</time>
      </trkpt>
      <trkpt lat="43.42671" lon="6.06338">
        <ele>275.20001220703</ele>
        <time>2015-12-09T13:17:17Z</time>
      </trkpt>
      <trkpt lat="43.42672" lon="6.06338">
        <ele>275.20001220703</ele>
        <time>2015-12-09T13:17:18Z</time>
      </trkpt>
      <trkpt lat="43.42674" lon="6.06339">
        <ele>275</ele>
        <time>2015-12-09T13:17:19Z</time>
      </trkpt>
      <trkpt lat="43.42676" lon="6.0634">
        <ele>274.79998779297</ele>
        <time>2015-12-09T13:17:20Z</time>
      </trkpt>
      <trkpt lat="43.42679" lon="6.06341">
        <ele>274.79998779297</ele>
        <time>2015-12-09T13:17:22Z</time>
      </trkpt>
      <trkpt lat="43.42682" lon="6.06342">
        <ele>275</ele>
        <time>2015-12-09T13:17:24Z</time>
      </trkpt>
      <trkpt lat="43.42683" lon="6.06341">
        <ele>275.20001220703</ele>
        <time>2015-12-09T13:17:26Z</time>
      </trkpt>
      <trkpt lat="43.42684" lon="6.06341">
        <ele>275.20001220703</ele>
        <time>2015-12-09T13:17:28Z</time>
      </trkpt>
      <trkpt lat="43.42685" lon="6.06341">
        <ele>275.20001220703</ele>
        <time>2015-12-09T13:17:30Z</time>
      </trkpt>
      <trkpt lat="43.42685" lon="6.06341">
        <ele>275</ele>
        <time>2015-12-09T13:17:32Z</time>
      </trkpt>
      <trkpt lat="43.42685" lon="6.06341">
        <ele>275</ele>
        <time>2015-12-09T13:17:34Z</time>
      </trkpt>
      <trkpt lat="43.42685" lon="6.06341">
        <ele>275</ele>
        <time>2015-12-09T13:17:36Z</time>
      </trkpt>
      <trkpt lat="43.42685" lon="6.06341">
        <ele>275</ele>
        <time>2015-12-09T13:17:40Z</time>
      </trkpt>
      <trkpt lat="43.42685" lon="6.06341">
        <ele>274.79998779297</ele>
        <time>2015-12-09T13:17:44Z</time>
      </trkpt>
      <trkpt lat="43.42685" lon="6.06341">
        <ele>274.79998779297</ele>
        <time>2015-12-09T13:17:48Z</time>
      </trkpt>
      <trkpt lat="43.42685" lon="6.06341">
        <ele>274.60000610352</ele>
        <time>2015-12-09T13:17:50Z</time>
      </trkpt>
      <trkpt lat="43.42685" lon="6.06341">
        <ele>274.79998779297</ele>
        <time>2015-12-09T13:17:52Z</time>
      </trkpt>
      <trkpt lat="43.42685" lon="6.06341">
        <ele>274.79998779297</ele>
        <time>2015-12-09T13:17:54Z</time>
      </trkpt>
      <trkpt lat="43.42685" lon="6.06341">
        <ele>274.79998779297</ele>
        <time>2015-12-09T13:18:08Z</time>
      </trkpt>
      <trkpt lat="43.42685" lon="6.06341">
        <ele>275</ele>
        <time>2015-12-09T13:18:10Z</time>
      </trkpt>
      <trkpt lat="43.42685" lon="6.06341">
        <ele>274.79998779297</ele>
        <time>2015-12-09T13:18:12Z</time>
      </trkpt>
      <trkpt lat="43.42685" lon="6.06341">
        <ele>274.60000610352</ele>
        <time>2015-12-09T13:18:16Z</time>
      </trkpt>
      <trkpt lat="43.42685" lon="6.06341">
        <ele>274.60000610352</ele>
        <time>2015-12-09T13:18:18Z</time>
      </trkpt>
      <trkpt lat="43.42685" lon="6.06341">
        <ele>274.39999389648</ele>
        <time>2015-12-09T13:18:20Z</time>
      </trkpt>
      <trkpt lat="43.42685" lon="6.06341">
        <ele>274.60000610352</ele>
        <time>2015-12-09T13:18:24Z</time>
      </trkpt>
      <trkpt lat="43.42685" lon="6.06341">
        <ele>274.60000610352</ele>
        <time>2015-12-09T13:18:26Z</time>
      </trkpt>
      <trkpt lat="43.42685" lon="6.06341">
        <ele>274.79998779297</ele>
        <time>2015-12-09T13:18:30Z</time>
      </trkpt>
      <trkpt lat="43.42685" lon="6.06341">
        <ele>274.79998779297</ele>
        <time>2015-12-09T13:18:32Z</time>
      </trkpt>
      <trkpt lat="43.42685" lon="6.06341">
        <ele>274.79998779297</ele>
        <time>2015-12-09T13:18:34Z</time>
      </trkpt>
      <trkpt lat="43.42685" lon="6.06341">
        <ele>274.79998779297</ele>
        <time>2015-12-09T13:18:36Z</time>
      </trkpt>
      <trkpt lat="43.42685" lon="6.06341">
        <ele>274.79998779297</ele>
        <time>2015-12-09T13:18:38Z</time>
      </trkpt>
      <trkpt lat="43.42685" lon="6.06341">
        <ele>275</ele>
        <time>2015-12-09T13:18:40Z</time>
      </trkpt>
      <trkpt lat="43.42685" lon="6.06341">
        <ele>274.79998779297</ele>
        <time>2015-12-09T13:18:42Z</time>
      </trkpt>
      <trkpt lat="43.42685" lon="6.06341">
        <ele>274.79998779297</ele>
        <time>2015-12-09T13:18:44Z</time>
      </trkpt>
      <trkpt lat="43.42685" lon="6.06341">
        <ele>275</ele>
        <time>2015-12-09T13:18:46Z</time>
      </trkpt>
      <trkpt lat="43.42685" lon="6.06341">
        <ele>275</ele>
        <time>2015-12-09T13:18:48Z</time>
      </trkpt>
      <trkpt lat="43.42685" lon="6.06341">
        <ele>275</ele>
        <time>2015-12-09T13:18:50Z</time>
      </trkpt>
      <trkpt lat="43.42685" lon="6.06341">
        <ele>274.79998779297</ele>
        <time>2015-12-09T13:18:52Z</time>
      </trkpt>
      <trkpt lat="43.42685" lon="6.06341">
        <ele>275</ele>
        <time>2015-12-09T13:18:54Z</time>
      </trkpt>
      <trkpt lat="43.42685" lon="6.06341">
        <ele>274.79998779297</ele>
        <time>2015-12-09T13:18:56Z</time>
      </trkpt>
      <trkpt lat="43.42685" lon="6.06341">
        <ele>274.79998779297</ele>
        <time>2015-12-09T13:18:58Z</time>
      </trkpt>
      <trkpt lat="43.42685" lon="6.06341">
        <ele>274.79998779297</ele>
        <time>2015-12-09T13:19:00Z</time>
      </trkpt>
      <trkpt lat="43.42685" lon="6.06341">
        <ele>274.79998779297</ele>
        <time>2015-12-09T13:19:04Z</time>
      </trkpt>
      <trkpt lat="43.42685" lon="6.06341">
        <ele>274.79998779297</ele>
        <time>2015-12-09T13:19:06Z</time>
      </trkpt>
      <trkpt lat="43.42685" lon="6.06341">
        <ele>274.79998779297</ele>
        <time>2015-12-09T13:19:08Z</time>
      </trkpt>
      <trkpt lat="43.42685" lon="6.06341">
        <ele>274.79998779297</ele>
        <time>2015-12-09T13:19:12Z</time>
      </trkpt>
      <trkpt lat="43.42687" lon="6.06343">
        <ele>275</ele>
        <time>2015-12-09T13:19:14Z</time>
      </trkpt>
      <trkpt lat="43.42691" lon="6.06346">
        <ele>274.60000610352</ele>
        <time>2015-12-09T13:19:16Z</time>
      </trkpt>
      <trkpt lat="43.42694" lon="6.06349">
        <ele>274.60000610352</ele>
        <time>2015-12-09T13:19:18Z</time>
      </trkpt>
      <trkpt lat="43.42699" lon="6.06351">
        <ele>274.20001220703</ele>
        <time>2015-12-09T13:19:20Z</time>
      </trkpt>
      <trkpt lat="43.42704" lon="6.06352">
        <ele>274.60000610352</ele>
        <time>2015-12-09T13:19:22Z</time>
      </trkpt>
      <trkpt lat="43.42708" lon="6.06353">
        <ele>274.79998779297</ele>
        <time>2015-12-09T13:19:24Z</time>
      </trkpt>
      <trkpt lat="43.42714" lon="6.06353">
        <ele>274.39999389648</ele>
        <time>2015-12-09T13:19:26Z</time>
      </trkpt>
      <trkpt lat="43.42719" lon="6.06352">
        <ele>274.79998779297</ele>
        <time>2015-12-09T13:19:28Z</time>
      </trkpt>
      <trkpt lat="43.42724" lon="6.0635">
        <ele>275</ele>
        <time>2015-12-09T13:19:30Z</time>
      </trkpt>
      <trkpt lat="43.4273" lon="6.06351">
        <ele>275.20001220703</ele>
        <time>2015-12-09T13:19:32Z</time>
      </trkpt>
      <trkpt lat="43.42737" lon="6.06349">
        <ele>275.39999389648</ele>
        <time>2015-12-09T13:19:34Z</time>
      </trkpt>
      <trkpt lat="43.42744" lon="6.06347">
        <ele>276</ele>
        <time>2015-12-09T13:19:36Z</time>
      </trkpt>
      <trkpt lat="43.42752" lon="6.06345">
        <ele>276.60000610352</ele>
        <time>2015-12-09T13:19:38Z</time>
      </trkpt>
      <trkpt lat="43.42756" lon="6.06343">
        <ele>277</ele>
        <time>2015-12-09T13:19:39Z</time>
      </trkpt>
      <trkpt lat="43.42759" lon="6.06342">
        <ele>277.60000610352</ele>
        <time>2015-12-09T13:19:40Z</time>
      </trkpt>
      <trkpt lat="43.42766" lon="6.06344">
        <ele>277.39999389648</ele>
        <time>2015-12-09T13:19:42Z</time>
      </trkpt>
      <trkpt lat="43.42772" lon="6.06347">
        <ele>278.39999389648</ele>
        <time>2015-12-09T13:19:45Z</time>
      </trkpt>
      <trkpt lat="43.42773" lon="6.06347">
        <ele>278.60000610352</ele>
        <time>2015-12-09T13:19:46Z</time>
      </trkpt>
      <trkpt lat="43.42777" lon="6.06347">
        <ele>279</ele>
        <time>2015-12-09T13:19:48Z</time>
      </trkpt>
      <trkpt lat="43.42783" lon="6.06348">
        <ele>279.60000610352</ele>
        <time>2015-12-09T13:19:50Z</time>
      </trkpt>
      <trkpt lat="43.42787" lon="6.06349">
        <ele>279.79998779297</ele>
        <time>2015-12-09T13:19:52Z</time>
      </trkpt>
      <trkpt lat="43.42793" lon="6.0635">
        <ele>280.79998779297</ele>
        <time>2015-12-09T13:19:54Z</time>
      </trkpt>
      <trkpt lat="43.42796" lon="6.06351">
        <ele>281</ele>
        <time>2015-12-09T13:19:55Z</time>
      </trkpt>
      <trkpt lat="43.42798" lon="6.06351">
        <ele>281</ele>
        <time>2015-12-09T13:19:56Z</time>
      </trkpt>
      <trkpt lat="43.42803" lon="6.06351">
        <ele>281.20001220703</ele>
        <time>2015-12-09T13:19:58Z</time>
      </trkpt>
      <trkpt lat="43.42807" lon="6.06351">
        <ele>281.39999389648</ele>
        <time>2015-12-09T13:20:00Z</time>
      </trkpt>
      <trkpt lat="43.42812" lon="6.06349">
        <ele>281.79998779297</ele>
        <time>2015-12-09T13:20:02Z</time>
      </trkpt>
      <trkpt lat="43.42816" lon="6.06347">
        <ele>282.20001220703</ele>
        <time>2015-12-09T13:20:04Z</time>
      </trkpt>
      <trkpt lat="43.42819" lon="6.06344">
        <ele>283.20001220703</ele>
        <time>2015-12-09T13:20:06Z</time>
      </trkpt>
      <trkpt lat="43.42822" lon="6.06341">
        <ele>283.60000610352</ele>
        <time>2015-12-09T13:20:08Z</time>
      </trkpt>
      <trkpt lat="43.42826" lon="6.06338">
        <ele>283.39999389648</ele>
        <time>2015-12-09T13:20:10Z</time>
      </trkpt>
      <trkpt lat="43.4283" lon="6.06335">
        <ele>284</ele>
        <time>2015-12-09T13:20:12Z</time>
      </trkpt>
      <trkpt lat="43.42833" lon="6.06333">
        <ele>285</ele>
        <time>2015-12-09T13:20:14Z</time>
      </trkpt>
      <trkpt lat="43.42836" lon="6.06331">
        <ele>285.20001220703</ele>
        <time>2015-12-09T13:20:16Z</time>
      </trkpt>
      <trkpt lat="43.42838" lon="6.06328">
        <ele>285</ele>
        <time>2015-12-09T13:20:18Z</time>
      </trkpt>
      <trkpt lat="43.42842" lon="6.06325">
        <ele>285.20001220703</ele>
        <time>2015-12-09T13:20:20Z</time>
      </trkpt>
      <trkpt lat="43.42845" lon="6.06322">
        <ele>285.39999389648</ele>
        <time>2015-12-09T13:20:22Z</time>
      </trkpt>
      <trkpt lat="43.42847" lon="6.0632">
        <ele>285.39999389648</ele>
        <time>2015-12-09T13:20:23Z</time>
      </trkpt>
      <trkpt lat="43.4285" lon="6.06319">
        <ele>285.20001220703</ele>
        <time>2015-12-09T13:20:24Z</time>
      </trkpt>
      <trkpt lat="43.42855" lon="6.06317">
        <ele>285</ele>
        <time>2015-12-09T13:20:26Z</time>
      </trkpt>
      <trkpt lat="43.4286" lon="6.06317">
        <ele>285.20001220703</ele>
        <time>2015-12-09T13:20:28Z</time>
      </trkpt>
      <trkpt lat="43.42865" lon="6.06317">
        <ele>284.60000610352</ele>
        <time>2015-12-09T13:20:30Z</time>
      </trkpt>
      <trkpt lat="43.4287" lon="6.06319">
        <ele>284.60000610352</ele>
        <time>2015-12-09T13:20:32Z</time>
      </trkpt>
      <trkpt lat="43.42876" lon="6.06321">
        <ele>284.60000610352</ele>
        <time>2015-12-09T13:20:34Z</time>
      </trkpt>
      <trkpt lat="43.42884" lon="6.06322">
        <ele>284.20001220703</ele>
        <time>2015-12-09T13:20:36Z</time>
      </trkpt>
      <trkpt lat="43.42891" lon="6.06322">
        <ele>283.60000610352</ele>
        <time>2015-12-09T13:20:38Z</time>
      </trkpt>
      <trkpt lat="43.42894" lon="6.06321">
        <ele>283.79998779297</ele>
        <time>2015-12-09T13:20:39Z</time>
      </trkpt>
      <trkpt lat="43.42896" lon="6.0632">
        <ele>283.60000610352</ele>
        <time>2015-12-09T13:20:40Z</time>
      </trkpt>
      <trkpt lat="43.429" lon="6.06319">
        <ele>282.79998779297</ele>
        <time>2015-12-09T13:20:42Z</time>
      </trkpt>
      <trkpt lat="43.42902" lon="6.06318">
        <ele>282.79998779297</ele>
        <time>2015-12-09T13:20:43Z</time>
      </trkpt>
      <trkpt lat="43.42904" lon="6.06318">
        <ele>282.60000610352</ele>
        <time>2015-12-09T13:20:46Z</time>
      </trkpt>
      <trkpt lat="43.42905" lon="6.06318">
        <ele>282.20001220703</ele>
        <time>2015-12-09T13:20:48Z</time>
      </trkpt>
      <trkpt lat="43.42908" lon="6.06319">
        <ele>282.60000610352</ele>
        <time>2015-12-09T13:20:50Z</time>
      </trkpt>
      <trkpt lat="43.42909" lon="6.06318">
        <ele>282.60000610352</ele>
        <time>2015-12-09T13:20:51Z</time>
      </trkpt>
      <trkpt lat="43.42908" lon="6.06318">
        <ele>282.39999389648</ele>
        <time>2015-12-09T13:20:52Z</time>
      </trkpt>
      <trkpt lat="43.4291" lon="6.06317">
        <ele>282.20001220703</ele>
        <time>2015-12-09T13:20:54Z</time>
      </trkpt>
      <trkpt lat="43.42911" lon="6.06317">
        <ele>281.79998779297</ele>
        <time>2015-12-09T13:20:56Z</time>
      </trkpt>
      <trkpt lat="43.42911" lon="6.06317">
        <ele>281.79998779297</ele>
        <time>2015-12-09T13:20:58Z</time>
      </trkpt>
      <trkpt lat="43.42911" lon="6.06317">
        <ele>281.60000610352</ele>
        <time>2015-12-09T13:20:59Z</time>
      </trkpt>
      <trkpt lat="43.42911" lon="6.06317">
        <ele>281.60000610352</ele>
        <time>2015-12-09T13:21:00Z</time>
      </trkpt>
      <trkpt lat="43.42911" lon="6.06316">
        <ele>281.39999389648</ele>
        <time>2015-12-09T13:21:02Z</time>
      </trkpt>
      <trkpt lat="43.42911" lon="6.06316">
        <ele>281.39999389648</ele>
        <time>2015-12-09T13:21:04Z</time>
      </trkpt>
      <trkpt lat="43.42911" lon="6.06316">
        <ele>281.60000610352</ele>
        <time>2015-12-09T13:21:06Z</time>
      </trkpt>
      <trkpt lat="43.42911" lon="6.06316">
        <ele>281.60000610352</ele>
        <time>2015-12-09T13:21:07Z</time>
      </trkpt>
      <trkpt lat="43.42911" lon="6.06316">
        <ele>281.60000610352</ele>
        <time>2015-12-09T13:21:10Z</time>
      </trkpt>
      <trkpt lat="43.42911" lon="6.06316">
        <ele>281.60000610352</ele>
        <time>2015-12-09T13:21:12Z</time>
      </trkpt>
      <trkpt lat="43.42911" lon="6.06316">
        <ele>281.60000610352</ele>
        <time>2015-12-09T13:21:14Z</time>
      </trkpt>
      <trkpt lat="43.42911" lon="6.06316">
        <ele>281.60000610352</ele>
        <time>2015-12-09T13:21:16Z</time>
      </trkpt>
      <trkpt lat="43.42911" lon="6.06316">
        <ele>281.79998779297</ele>
        <time>2015-12-09T13:21:18Z</time>
      </trkpt>
      <trkpt lat="43.42911" lon="6.06316">
        <ele>282</ele>
        <time>2015-12-09T13:21:20Z</time>
      </trkpt>
      <trkpt lat="43.42911" lon="6.06316">
        <ele>281.60000610352</ele>
        <time>2015-12-09T13:21:22Z</time>
      </trkpt>
      <trkpt lat="43.42911" lon="6.06316">
        <ele>281.79998779297</ele>
        <time>2015-12-09T13:21:24Z</time>
      </trkpt>
      <trkpt lat="43.42911" lon="6.06316">
        <ele>281.79998779297</ele>
        <time>2015-12-09T13:21:26Z</time>
      </trkpt>
      <trkpt lat="43.42911" lon="6.06316">
        <ele>281.79998779297</ele>
        <time>2015-12-09T13:21:28Z</time>
      </trkpt>
      <trkpt lat="43.42911" lon="6.06316">
        <ele>281.79998779297</ele>
        <time>2015-12-09T13:21:29Z</time>
      </trkpt>
      <trkpt lat="43.42911" lon="6.06316">
        <ele>281.79998779297</ele>
        <time>2015-12-09T13:21:30Z</time>
      </trkpt>
      <trkpt lat="43.42911" lon="6.06316">
        <ele>281.79998779297</ele>
        <time>2015-12-09T13:21:34Z</time>
      </trkpt>
      <trkpt lat="43.42911" lon="6.06316">
        <ele>281.60000610352</ele>
        <time>2015-12-09T13:21:38Z</time>
      </trkpt>
      <trkpt lat="43.42911" lon="6.06316">
        <ele>281.60000610352</ele>
        <time>2015-12-09T13:21:40Z</time>
      </trkpt>
      <trkpt lat="43.42911" lon="6.06316">
        <ele>281.79998779297</ele>
        <time>2015-12-09T13:21:42Z</time>
      </trkpt>
      <trkpt lat="43.42911" lon="6.06316">
        <ele>281.79998779297</ele>
        <time>2015-12-09T13:21:44Z</time>
      </trkpt>
      <trkpt lat="43.42911" lon="6.06316">
        <ele>281.79998779297</ele>
        <time>2015-12-09T13:21:46Z</time>
      </trkpt>
      <trkpt lat="43.4291" lon="6.06316">
        <ele>281.79998779297</ele>
        <time>2015-12-09T13:21:48Z</time>
      </trkpt>
      <trkpt lat="43.42911" lon="6.06316">
        <ele>282</ele>
        <time>2015-12-09T13:21:50Z</time>
      </trkpt>
      <trkpt lat="43.4291" lon="6.06316">
        <ele>282</ele>
        <time>2015-12-09T13:21:52Z</time>
      </trkpt>
      <trkpt lat="43.42909" lon="6.06316">
        <ele>282.20001220703</ele>
        <time>2015-12-09T13:21:54Z</time>
      </trkpt>
      <trkpt lat="43.42909" lon="6.06316">
        <ele>282.39999389648</ele>
        <time>2015-12-09T13:21:56Z</time>
      </trkpt>
      <trkpt lat="43.42909" lon="6.06317">
        <ele>282.20001220703</ele>
        <time>2015-12-09T13:22:00Z</time>
      </trkpt>
      <trkpt lat="43.42909" lon="6.06316">
        <ele>282.20001220703</ele>
        <time>2015-12-09T13:22:02Z</time>
      </trkpt>
      <trkpt lat="43.4291" lon="6.06316">
        <ele>282.20001220703</ele>
        <time>2015-12-09T13:22:04Z</time>
      </trkpt>
      <trkpt lat="43.42909" lon="6.06316">
        <ele>282.20001220703</ele>
        <time>2015-12-09T13:22:06Z</time>
      </trkpt>
      <trkpt lat="43.42909" lon="6.06316">
        <ele>282</ele>
        <time>2015-12-09T13:22:08Z</time>
      </trkpt>
      <trkpt lat="43.42909" lon="6.06316">
        <ele>282.20001220703</ele>
        <time>2015-12-09T13:22:10Z</time>
      </trkpt>
      <trkpt lat="43.42909" lon="6.06316">
        <ele>282.20001220703</ele>
        <time>2015-12-09T13:22:12Z</time>
      </trkpt>
      <trkpt lat="43.4291" lon="6.06316">
        <ele>282.39999389648</ele>
        <time>2015-12-09T13:22:14Z</time>
      </trkpt>
      <trkpt lat="43.4291" lon="6.06316">
        <ele>282</ele>
        <time>2015-12-09T13:22:16Z</time>
      </trkpt>
      <trkpt lat="43.42912" lon="6.06314">
        <ele>281.79998779297</ele>
        <time>2015-12-09T13:22:18Z</time>
      </trkpt>
      <trkpt lat="43.42914" lon="6.06312">
        <ele>280.79998779297</ele>
        <time>2015-12-09T13:22:20Z</time>
      </trkpt>
      <trkpt lat="43.42915" lon="6.06311">
        <ele>280.60000610352</ele>
        <time>2015-12-09T13:22:21Z</time>
      </trkpt>
      <trkpt lat="43.42915" lon="6.0631">
        <ele>280.20001220703</ele>
        <time>2015-12-09T13:22:22Z</time>
      </trkpt>
      <trkpt lat="43.42916" lon="6.06308">
        <ele>280.20001220703</ele>
        <time>2015-12-09T13:22:23Z</time>
      </trkpt>
      <trkpt lat="43.42918" lon="6.06305">
        <ele>280.20001220703</ele>
        <time>2015-12-09T13:22:24Z</time>
      </trkpt>
      <trkpt lat="43.42921" lon="6.06301">
        <ele>279.20001220703</ele>
        <time>2015-12-09T13:22:25Z</time>
      </trkpt>
      <trkpt lat="43.42923" lon="6.06298">
        <ele>278</ele>
        <time>2015-12-09T13:22:26Z</time>
      </trkpt>
      <trkpt lat="43.42926" lon="6.06295">
        <ele>276.60000610352</ele>
        <time>2015-12-09T13:22:27Z</time>
      </trkpt>
      <trkpt lat="43.42926" lon="6.06293">
        <ele>275.79998779297</ele>
        <time>2015-12-09T13:22:28Z</time>
      </trkpt>
      <trkpt lat="43.42927" lon="6.06293">
        <ele>275.60000610352</ele>
        <time>2015-12-09T13:22:29Z</time>
      </trkpt>
      <trkpt lat="43.42927" lon="6.06291">
        <ele>275.39999389648</ele>
        <time>2015-12-09T13:22:30Z</time>
      </trkpt>
      <trkpt lat="43.42927" lon="6.06291">
        <ele>275</ele>
        <time>2015-12-09T13:22:32Z</time>
      </trkpt>
      <trkpt lat="43.42927" lon="6.06291">
        <ele>274.79998779297</ele>
        <time>2015-12-09T13:22:34Z</time>
      </trkpt>
      <trkpt lat="43.42925" lon="6.0629">
        <ele>275</ele>
        <time>2015-12-09T13:22:36Z</time>
      </trkpt>
      <trkpt lat="43.42924" lon="6.06289">
        <ele>274.60000610352</ele>
        <time>2015-12-09T13:22:38Z</time>
      </trkpt>
      <trkpt lat="43.42924" lon="6.06289">
        <ele>275</ele>
        <time>2015-12-09T13:22:40Z</time>
      </trkpt>
      <trkpt lat="43.42924" lon="6.06289">
        <ele>275</ele>
        <time>2015-12-09T13:22:42Z</time>
      </trkpt>
      <trkpt lat="43.42924" lon="6.06289">
        <ele>275</ele>
        <time>2015-12-09T13:22:43Z</time>
      </trkpt>
      <trkpt lat="43.42923" lon="6.06288">
        <ele>275.20001220703</ele>
        <time>2015-12-09T13:22:44Z</time>
      </trkpt>
      <trkpt lat="43.42923" lon="6.06288">
        <ele>275.39999389648</ele>
        <time>2015-12-09T13:22:46Z</time>
      </trkpt>
      <trkpt lat="43.42923" lon="6.06288">
        <ele>275.60000610352</ele>
        <time>2015-12-09T13:22:48Z</time>
      </trkpt>
      <trkpt lat="43.42923" lon="6.06288">
        <ele>275.60000610352</ele>
        <time>2015-12-09T13:22:50Z</time>
      </trkpt>
      <trkpt lat="43.42922" lon="6.06288">
        <ele>275.60000610352</ele>
        <time>2015-12-09T13:22:52Z</time>
      </trkpt>
      <trkpt lat="43.42922" lon="6.06288">
        <ele>275.39999389648</ele>
        <time>2015-12-09T13:22:54Z</time>
      </trkpt>
      <trkpt lat="43.42922" lon="6.06288">
        <ele>275.39999389648</ele>
        <time>2015-12-09T13:23:00Z</time>
      </trkpt>
      <trkpt lat="43.42922" lon="6.06288">
        <ele>275.20001220703</ele>
        <time>2015-12-09T13:23:06Z</time>
      </trkpt>
      <trkpt lat="43.42921" lon="6.06288">
        <ele>275.39999389648</ele>
        <time>2015-12-09T13:23:08Z</time>
      </trkpt>
      <trkpt lat="43.42921" lon="6.06289">
        <ele>275.60000610352</ele>
        <time>2015-12-09T13:23:10Z</time>
      </trkpt>
      <trkpt lat="43.42921" lon="6.06289">
        <ele>275.60000610352</ele>
        <time>2015-12-09T13:23:12Z</time>
      </trkpt>
      <trkpt lat="43.42921" lon="6.06289">
        <ele>275.60000610352</ele>
        <time>2015-12-09T13:23:16Z</time>
      </trkpt>
      <trkpt lat="43.42921" lon="6.0629">
        <ele>275.79998779297</ele>
        <time>2015-12-09T13:23:18Z</time>
      </trkpt>
      <trkpt lat="43.42921" lon="6.0629">
        <ele>275.79998779297</ele>
        <time>2015-12-09T13:23:20Z</time>
      </trkpt>
      <trkpt lat="43.42921" lon="6.0629">
        <ele>275.60000610352</ele>
        <time>2015-12-09T13:23:26Z</time>
      </trkpt>
      <trkpt lat="43.42921" lon="6.0629">
        <ele>275.60000610352</ele>
        <time>2015-12-09T13:23:28Z</time>
      </trkpt>
      <trkpt lat="43.42921" lon="6.0629">
        <ele>275.60000610352</ele>
        <time>2015-12-09T13:23:30Z</time>
      </trkpt>
      <trkpt lat="43.42921" lon="6.0629">
        <ele>275.79998779297</ele>
        <time>2015-12-09T13:23:34Z</time>
      </trkpt>
      <trkpt lat="43.4292" lon="6.06291">
        <ele>276</ele>
        <time>2015-12-09T13:23:36Z</time>
      </trkpt>
      <trkpt lat="43.42919" lon="6.06293">
        <ele>276.20001220703</ele>
        <time>2015-12-09T13:23:40Z</time>
      </trkpt>
      <trkpt lat="43.4292" lon="6.06295">
        <ele>276.20001220703</ele>
        <time>2015-12-09T13:23:42Z</time>
      </trkpt>
      <trkpt lat="43.4292" lon="6.06295">
        <ele>276.60000610352</ele>
        <time>2015-12-09T13:23:44Z</time>
      </trkpt>
      <trkpt lat="43.4292" lon="6.06295">
        <ele>276.39999389648</ele>
        <time>2015-12-09T13:23:46Z</time>
      </trkpt>
      <trkpt lat="43.4292" lon="6.06295">
        <ele>276.39999389648</ele>
        <time>2015-12-09T13:23:48Z</time>
      </trkpt>
      <trkpt lat="43.4292" lon="6.06295">
        <ele>276.60000610352</ele>
        <time>2015-12-09T13:23:52Z</time>
      </trkpt>
      <trkpt lat="43.4292" lon="6.06295">
        <ele>276.39999389648</ele>
        <time>2015-12-09T13:23:56Z</time>
      </trkpt>
      <trkpt lat="43.4292" lon="6.06295">
        <ele>276.60000610352</ele>
        <time>2015-12-09T13:24:00Z</time>
      </trkpt>
      <trkpt lat="43.4292" lon="6.06295">
        <ele>276.20001220703</ele>
        <time>2015-12-09T13:24:02Z</time>
      </trkpt>
      <trkpt lat="43.4292" lon="6.06295">
        <ele>276.20001220703</ele>
        <time>2015-12-09T13:24:04Z</time>
      </trkpt>
      <trkpt lat="43.4292" lon="6.06295">
        <ele>276.20001220703</ele>
        <time>2015-12-09T13:24:08Z</time>
      </trkpt>
      <trkpt lat="43.4292" lon="6.06295">
        <ele>276.39999389648</ele>
        <time>2015-12-09T13:24:18Z</time>
      </trkpt>
      <trkpt lat="43.4292" lon="6.06295">
        <ele>276.20001220703</ele>
        <time>2015-12-09T13:24:20Z</time>
      </trkpt>
      <trkpt lat="43.4292" lon="6.06295">
        <ele>276.20001220703</ele>
        <time>2015-12-09T13:24:22Z</time>
      </trkpt>
      <trkpt lat="43.42919" lon="6.06297">
        <ele>276.39999389648</ele>
        <time>2015-12-09T13:24:24Z</time>
      </trkpt>
      <trkpt lat="43.42919" lon="6.06297">
        <ele>276.60000610352</ele>
        <time>2015-12-09T13:24:26Z</time>
      </trkpt>
      <trkpt lat="43.42919" lon="6.06297">
        <ele>276.60000610352</ele>
        <time>2015-12-09T13:24:27Z</time>
      </trkpt>
      <trkpt lat="43.42919" lon="6.06298">
        <ele>276.60000610352</ele>
        <time>2015-12-09T13:24:28Z</time>
      </trkpt>
      <trkpt lat="43.42919" lon="6.06298">
        <ele>277</ele>
        <time>2015-12-09T13:24:30Z</time>
      </trkpt>
      <trkpt lat="43.42919" lon="6.06298">
        <ele>277</ele>
        <time>2015-12-09T13:24:32Z</time>
      </trkpt>
      <trkpt lat="43.42919" lon="6.06298">
        <ele>277.20001220703</ele>
        <time>2015-12-09T13:24:36Z</time>
      </trkpt>
      <trkpt lat="43.42919" lon="6.06298">
        <ele>276.79998779297</ele>
        <time>2015-12-09T13:24:40Z</time>
      </trkpt>
      <trkpt lat="43.42919" lon="6.06298">
        <ele>277</ele>
        <time>2015-12-09T13:24:44Z</time>
      </trkpt>
      <trkpt lat="43.42919" lon="6.06298">
        <ele>277</ele>
        <time>2015-12-09T13:24:46Z</time>
      </trkpt>
      <trkpt lat="43.42919" lon="6.063">
        <ele>277.20001220703</ele>
        <time>2015-12-09T13:24:48Z</time>
      </trkpt>
      <trkpt lat="43.42919" lon="6.063">
        <ele>277.39999389648</ele>
        <time>2015-12-09T13:24:50Z</time>
      </trkpt>
      <trkpt lat="43.42919" lon="6.063">
        <ele>277.39999389648</ele>
        <time>2015-12-09T13:24:51Z</time>
      </trkpt>
      <trkpt lat="43.42919" lon="6.063">
        <ele>277.20001220703</ele>
        <time>2015-12-09T13:24:52Z</time>
      </trkpt>
      <trkpt lat="43.42919" lon="6.063">
        <ele>277.20001220703</ele>
        <time>2015-12-09T13:24:56Z</time>
      </trkpt>
      <trkpt lat="43.42919" lon="6.063">
        <ele>277</ele>
        <time>2015-12-09T13:24:58Z</time>
      </trkpt>
      <trkpt lat="43.42919" lon="6.063">
        <ele>277.20001220703</ele>
        <time>2015-12-09T13:25:02Z</time>
      </trkpt>
      <trkpt lat="43.42919" lon="6.063">
        <ele>277.39999389648</ele>
        <time>2015-12-09T13:25:08Z</time>
      </trkpt>
      <trkpt lat="43.42919" lon="6.063">
        <ele>277</ele>
        <time>2015-12-09T13:25:20Z</time>
      </trkpt>
      <trkpt lat="43.42919" lon="6.063">
        <ele>277</ele>
        <time>2015-12-09T13:25:24Z</time>
      </trkpt>
      <trkpt lat="43.42919" lon="6.063">
        <ele>277</ele>
        <time>2015-12-09T13:25:26Z</time>
      </trkpt>
      <trkpt lat="43.42919" lon="6.063">
        <ele>277</ele>
        <time>2015-12-09T13:25:28Z</time>
      </trkpt>
      <trkpt lat="43.42919" lon="6.063">
        <ele>277</ele>
        <time>2015-12-09T13:25:30Z</time>
      </trkpt>
      <trkpt lat="43.42919" lon="6.063">
        <ele>277</ele>
        <time>2015-12-09T13:25:32Z</time>
      </trkpt>
      <trkpt lat="43.42919" lon="6.063">
        <ele>277</ele>
        <time>2015-12-09T13:25:33Z</time>
      </trkpt>
      <trkpt lat="43.42919" lon="6.063">
        <ele>276.79998779297</ele>
        <time>2015-12-09T13:25:35Z</time>
      </trkpt>
      <trkpt lat="43.4292" lon="6.06302">
        <ele>277.20001220703</ele>
        <time>2015-12-09T13:25:37Z</time>
      </trkpt>
      <trkpt lat="43.42919" lon="6.06301">
        <ele>277.20001220703</ele>
        <time>2015-12-09T13:25:39Z</time>
      </trkpt>
      <trkpt lat="43.42919" lon="6.06301">
        <ele>277</ele>
        <time>2015-12-09T13:25:40Z</time>
      </trkpt>
      <trkpt lat="43.42919" lon="6.06301">
        <ele>277</ele>
        <time>2015-12-09T13:25:41Z</time>
      </trkpt>
      <trkpt lat="43.42919" lon="6.06302">
        <ele>277</ele>
        <time>2015-12-09T13:25:43Z</time>
      </trkpt>
      <trkpt lat="43.4292" lon="6.06302">
        <ele>277</ele>
        <time>2015-12-09T13:25:45Z</time>
      </trkpt>
      <trkpt lat="43.4292" lon="6.06302">
        <ele>277</ele>
        <time>2015-12-09T13:25:47Z</time>
      </trkpt>
      <trkpt lat="43.4292" lon="6.06302">
        <ele>277.20001220703</ele>
        <time>2015-12-09T13:25:49Z</time>
      </trkpt>
      <trkpt lat="43.42921" lon="6.06302">
        <ele>277.20001220703</ele>
        <time>2015-12-09T13:25:51Z</time>
      </trkpt>
      <trkpt lat="43.42921" lon="6.06302">
        <ele>277</ele>
        <time>2015-12-09T13:25:53Z</time>
      </trkpt>
      <trkpt lat="43.42921" lon="6.06302">
        <ele>276.60000610352</ele>
        <time>2015-12-09T13:25:55Z</time>
      </trkpt>
      <trkpt lat="43.42921" lon="6.06301">
        <ele>276.79998779297</ele>
        <time>2015-12-09T13:25:57Z</time>
      </trkpt>
      <trkpt lat="43.42921" lon="6.06301">
        <ele>276.79998779297</ele>
        <time>2015-12-09T13:25:59Z</time>
      </trkpt>
      <trkpt lat="43.42921" lon="6.06301">
        <ele>277</ele>
        <time>2015-12-09T13:26:01Z</time>
      </trkpt>
      <trkpt lat="43.42922" lon="6.063">
        <ele>277</ele>
        <time>2015-12-09T13:26:03Z</time>
      </trkpt>
      <trkpt lat="43.42923" lon="6.06299">
        <ele>276.60000610352</ele>
        <time>2015-12-09T13:26:05Z</time>
      </trkpt>
      <trkpt lat="43.42925" lon="6.06298">
        <ele>276.39999389648</ele>
        <time>2015-12-09T13:26:06Z</time>
      </trkpt>
      <trkpt lat="43.42926" lon="6.06297">
        <ele>276.20001220703</ele>
        <time>2015-12-09T13:26:07Z</time>
      </trkpt>
      <trkpt lat="43.42926" lon="6.06297">
        <ele>276</ele>
        <time>2015-12-09T13:26:08Z</time>
      </trkpt>
      <trkpt lat="43.42926" lon="6.06297">
        <ele>275.79998779297</ele>
        <time>2015-12-09T13:26:09Z</time>
      </trkpt>
      <trkpt lat="43.42926" lon="6.06297">
        <ele>275.60000610352</ele>
        <time>2015-12-09T13:26:11Z</time>
      </trkpt>
      <trkpt lat="43.42926" lon="6.06297">
        <ele>275.60000610352</ele>
        <time>2015-12-09T13:26:12Z</time>
      </trkpt>
      <trkpt lat="43.42926" lon="6.06297">
        <ele>275.60000610352</ele>
        <time>2015-12-09T13:26:13Z</time>
      </trkpt>
      <trkpt lat="43.42928" lon="6.06296">
        <ele>275.60000610352</ele>
        <time>2015-12-09T13:26:15Z</time>
      </trkpt>
      <trkpt lat="43.42929" lon="6.06294">
        <ele>275.39999389648</ele>
        <time>2015-12-09T13:26:17Z</time>
      </trkpt>
      <trkpt lat="43.42929" lon="6.06293">
        <ele>275.20001220703</ele>
        <time>2015-12-09T13:26:18Z</time>
      </trkpt>
      <trkpt lat="43.42929" lon="6.06293">
        <ele>275</ele>
        <time>2015-12-09T13:26:19Z</time>
      </trkpt>
      <trkpt lat="43.4293" lon="6.06292">
        <ele>274.79998779297</ele>
        <time>2015-12-09T13:26:21Z</time>
      </trkpt>
      <trkpt lat="43.42931" lon="6.06292">
        <ele>274.60000610352</ele>
        <time>2015-12-09T13:26:23Z</time>
      </trkpt>
      <trkpt lat="43.42932" lon="6.06291">
        <ele>274.39999389648</ele>
        <time>2015-12-09T13:26:25Z</time>
      </trkpt>
      <trkpt lat="43.42934" lon="6.06289">
        <ele>273.79998779297</ele>
        <time>2015-12-09T13:26:27Z</time>
      </trkpt>
      <trkpt lat="43.42937" lon="6.06288">
        <ele>273.39999389648</ele>
        <time>2015-12-09T13:26:29Z</time>
      </trkpt>
      <trkpt lat="43.4294" lon="6.0629">
        <ele>273.39999389648</ele>
        <time>2015-12-09T13:26:31Z</time>
      </trkpt>
      <trkpt lat="43.42944" lon="6.06293">
        <ele>273</ele>
        <time>2015-12-09T13:26:33Z</time>
      </trkpt>
      <trkpt lat="43.42945" lon="6.06295">
        <ele>272.20001220703</ele>
        <time>2015-12-09T13:26:34Z</time>
      </trkpt>
      <trkpt lat="43.42945" lon="6.06297">
        <ele>272</ele>
        <time>2015-12-09T13:26:35Z</time>
      </trkpt>
      <trkpt lat="43.42949" lon="6.06302">
        <ele>271.79998779297</ele>
        <time>2015-12-09T13:26:37Z</time>
      </trkpt>
      <trkpt lat="43.42953" lon="6.06307">
        <ele>271.60000610352</ele>
        <time>2015-12-09T13:26:39Z</time>
      </trkpt>
      <trkpt lat="43.42955" lon="6.06309">
        <ele>271.60000610352</ele>
        <time>2015-12-09T13:26:40Z</time>
      </trkpt>
      <trkpt lat="43.42959" lon="6.0631">
        <ele>271.79998779297</ele>
        <time>2015-12-09T13:26:41Z</time>
      </trkpt>
      <trkpt lat="43.42965" lon="6.0631">
        <ele>271</ele>
        <time>2015-12-09T13:26:43Z</time>
      </trkpt>
      <trkpt lat="43.42974" lon="6.06309">
        <ele>270</ele>
        <time>2015-12-09T13:26:46Z</time>
      </trkpt>
      <trkpt lat="43.42978" lon="6.0631">
        <ele>270</ele>
        <time>2015-12-09T13:26:47Z</time>
      </trkpt>
      <trkpt lat="43.42985" lon="6.06315">
        <ele>269.39999389648</ele>
        <time>2015-12-09T13:26:49Z</time>
      </trkpt>
      <trkpt lat="43.42989" lon="6.06315">
        <ele>268.79998779297</ele>
        <time>2015-12-09T13:26:50Z</time>
      </trkpt>
      <trkpt lat="43.42992" lon="6.06315">
        <ele>268.60000610352</ele>
        <time>2015-12-09T13:26:51Z</time>
      </trkpt>
      <trkpt lat="43.43" lon="6.06314">
        <ele>268.79998779297</ele>
        <time>2015-12-09T13:26:53Z</time>
      </trkpt>
      <trkpt lat="43.43007" lon="6.06314">
        <ele>268.60000610352</ele>
        <time>2015-12-09T13:26:55Z</time>
      </trkpt>
      <trkpt lat="43.43015" lon="6.06313">
        <ele>268.39999389648</ele>
        <time>2015-12-09T13:26:57Z</time>
      </trkpt>
      <trkpt lat="43.43022" lon="6.06316">
        <ele>267.60000610352</ele>
        <time>2015-12-09T13:26:59Z</time>
      </trkpt>
      <trkpt lat="43.43024" lon="6.06319">
        <ele>268</ele>
        <time>2015-12-09T13:27:00Z</time>
      </trkpt>
      <trkpt lat="43.43026" lon="6.06324">
        <ele>268.20001220703</ele>
        <time>2015-12-09T13:27:01Z</time>
      </trkpt>
      <trkpt lat="43.43026" lon="6.06332">
        <ele>267.60000610352</ele>
        <time>2015-12-09T13:27:03Z</time>
      </trkpt>
      <trkpt lat="43.4303" lon="6.0634">
        <ele>267.39999389648</ele>
        <time>2015-12-09T13:27:05Z</time>
      </trkpt>
      <trkpt lat="43.43035" lon="6.06345">
        <ele>266.79998779297</ele>
        <time>2015-12-09T13:27:07Z</time>
      </trkpt>
      <trkpt lat="43.43038" lon="6.06346">
        <ele>266.79998779297</ele>
        <time>2015-12-09T13:27:08Z</time>
      </trkpt>
      <trkpt lat="43.43044" lon="6.06348">
        <ele>266.60000610352</ele>
        <time>2015-12-09T13:27:10Z</time>
      </trkpt>
      <trkpt lat="43.43047" lon="6.0635">
        <ele>266.60000610352</ele>
        <time>2015-12-09T13:27:11Z</time>
      </trkpt>
      <trkpt lat="43.43054" lon="6.06352">
        <ele>266.39999389648</ele>
        <time>2015-12-09T13:27:13Z</time>
      </trkpt>
      <trkpt lat="43.43062" lon="6.06355">
        <ele>266</ele>
        <time>2015-12-09T13:27:15Z</time>
      </trkpt>
      <trkpt lat="43.43068" lon="6.0636">
        <ele>265.60000610352</ele>
        <time>2015-12-09T13:27:17Z</time>
      </trkpt>
      <trkpt lat="43.43074" lon="6.06367">
        <ele>265.79998779297</ele>
        <time>2015-12-09T13:27:19Z</time>
      </trkpt>
      <trkpt lat="43.43077" lon="6.06375">
        <ele>265.60000610352</ele>
        <time>2015-12-09T13:27:21Z</time>
      </trkpt>
      <trkpt lat="43.43079" lon="6.06385">
        <ele>265.60000610352</ele>
        <time>2015-12-09T13:27:23Z</time>
      </trkpt>
      <trkpt lat="43.43082" lon="6.06396">
        <ele>265.39999389648</ele>
        <time>2015-12-09T13:27:25Z</time>
      </trkpt>
      <trkpt lat="43.43082" lon="6.06401">
        <ele>265</ele>
        <time>2015-12-09T13:27:26Z</time>
      </trkpt>
      <trkpt lat="43.43083" lon="6.06407">
        <ele>264.79998779297</ele>
        <time>2015-12-09T13:27:27Z</time>
      </trkpt>
      <trkpt lat="43.43084" lon="6.06413">
        <ele>264.60000610352</ele>
        <time>2015-12-09T13:27:28Z</time>
      </trkpt>
      <trkpt lat="43.43086" lon="6.0642">
        <ele>264.39999389648</ele>
        <time>2015-12-09T13:27:29Z</time>
      </trkpt>
      <trkpt lat="43.43092" lon="6.06432">
        <ele>263.79998779297</ele>
        <time>2015-12-09T13:27:31Z</time>
      </trkpt>
      <trkpt lat="43.43095" lon="6.06439">
        <ele>262.60000610352</ele>
        <time>2015-12-09T13:27:32Z</time>
      </trkpt>
      <trkpt lat="43.43098" lon="6.06447">
        <ele>262.39999389648</ele>
        <time>2015-12-09T13:27:33Z</time>
      </trkpt>
      <trkpt lat="43.43103" lon="6.06463">
        <ele>262</ele>
        <time>2015-12-09T13:27:35Z</time>
      </trkpt>
      <trkpt lat="43.43105" lon="6.06469">
        <ele>261.60000610352</ele>
        <time>2015-12-09T13:27:36Z</time>
      </trkpt>
      <trkpt lat="43.43106" lon="6.06475">
        <ele>261.20001220703</ele>
        <time>2015-12-09T13:27:37Z</time>
      </trkpt>
      <trkpt lat="43.43111" lon="6.06486">
        <ele>260.39999389648</ele>
        <time>2015-12-09T13:27:39Z</time>
      </trkpt>
      <trkpt lat="43.43113" lon="6.0649">
        <ele>259.79998779297</ele>
        <time>2015-12-09T13:27:40Z</time>
      </trkpt>
      <trkpt lat="43.43117" lon="6.06495">
        <ele>259.60000610352</ele>
        <time>2015-12-09T13:27:41Z</time>
      </trkpt>
      <trkpt lat="43.43121" lon="6.06498">
        <ele>259.20001220703</ele>
        <time>2015-12-09T13:27:42Z</time>
      </trkpt>
      <trkpt lat="43.43124" lon="6.06502">
        <ele>258.60000610352</ele>
        <time>2015-12-09T13:27:43Z</time>
      </trkpt>
      <trkpt lat="43.4313" lon="6.06509">
        <ele>258</ele>
        <time>2015-12-09T13:27:45Z</time>
      </trkpt>
      <trkpt lat="43.43135" lon="6.06514">
        <ele>257.60000610352</ele>
        <time>2015-12-09T13:27:47Z</time>
      </trkpt>
      <trkpt lat="43.43137" lon="6.06518">
        <ele>256.79998779297</ele>
        <time>2015-12-09T13:27:48Z</time>
      </trkpt>
      <trkpt lat="43.43141" lon="6.06522">
        <ele>256.20001220703</ele>
        <time>2015-12-09T13:27:49Z</time>
      </trkpt>
      <trkpt lat="43.43147" lon="6.06528">
        <ele>256</ele>
        <time>2015-12-09T13:27:51Z</time>
      </trkpt>
      <trkpt lat="43.43149" lon="6.06532">
        <ele>255.80000305176</ele>
        <time>2015-12-09T13:27:52Z</time>
      </trkpt>
      <trkpt lat="43.43153" lon="6.06538">
        <ele>255.19999694824</ele>
        <time>2015-12-09T13:27:53Z</time>
      </trkpt>
      <trkpt lat="43.43156" lon="6.06543">
        <ele>254.80000305176</ele>
        <time>2015-12-09T13:27:54Z</time>
      </trkpt>
      <trkpt lat="43.4316" lon="6.0655">
        <ele>254.39999389648</ele>
        <time>2015-12-09T13:27:55Z</time>
      </trkpt>
      <trkpt lat="43.43164" lon="6.06557">
        <ele>253.60000610352</ele>
        <time>2015-12-09T13:27:56Z</time>
      </trkpt>
      <trkpt lat="43.43168" lon="6.06562">
        <ele>253.19999694824</ele>
        <time>2015-12-09T13:27:57Z</time>
      </trkpt>
      <trkpt lat="43.43172" lon="6.06568">
        <ele>252.19999694824</ele>
        <time>2015-12-09T13:27:58Z</time>
      </trkpt>
      <trkpt lat="43.43175" lon="6.06575">
        <ele>251.80000305176</ele>
        <time>2015-12-09T13:27:59Z</time>
      </trkpt>
      <trkpt lat="43.4318" lon="6.06587">
        <ele>252.19999694824</ele>
        <time>2015-12-09T13:28:01Z</time>
      </trkpt>
      <trkpt lat="43.43182" lon="6.06594">
        <ele>252</ele>
        <time>2015-12-09T13:28:02Z</time>
      </trkpt>
      <trkpt lat="43.43185" lon="6.066">
        <ele>251.39999389648</ele>
        <time>2015-12-09T13:28:03Z</time>
      </trkpt>
      <trkpt lat="43.43189" lon="6.06614">
        <ele>250.19999694824</ele>
        <time>2015-12-09T13:28:05Z</time>
      </trkpt>
      <trkpt lat="43.43192" lon="6.06621">
        <ele>249.39999389648</ele>
        <time>2015-12-09T13:28:06Z</time>
      </trkpt>
      <trkpt lat="43.43195" lon="6.06628">
        <ele>249</ele>
        <time>2015-12-09T13:28:07Z</time>
      </trkpt>
      <trkpt lat="43.432" lon="6.0664">
        <ele>248.60000610352</ele>
        <time>2015-12-09T13:28:09Z</time>
      </trkpt>
      <trkpt lat="43.432" lon="6.06651">
        <ele>248.19999694824</ele>
        <time>2015-12-09T13:28:11Z</time>
      </trkpt>
      <trkpt lat="43.43201" lon="6.06663">
        <ele>248.60000610352</ele>
        <time>2015-12-09T13:28:13Z</time>
      </trkpt>
      <trkpt lat="43.43203" lon="6.06668">
        <ele>248.80000305176</ele>
        <time>2015-12-09T13:28:14Z</time>
      </trkpt>
      <trkpt lat="43.43204" lon="6.06673">
        <ele>248.80000305176</ele>
        <time>2015-12-09T13:28:15Z</time>
      </trkpt>
      <trkpt lat="43.43206" lon="6.06684">
        <ele>248.60000610352</ele>
        <time>2015-12-09T13:28:17Z</time>
      </trkpt>
      <trkpt lat="43.43211" lon="6.06694">
        <ele>248.60000610352</ele>
        <time>2015-12-09T13:28:19Z</time>
      </trkpt>
      <trkpt lat="43.43222" lon="6.06708">
        <ele>248</ele>
        <time>2015-12-09T13:28:23Z</time>
      </trkpt>
      <trkpt lat="43.43227" lon="6.06714">
        <ele>248.19999694824</ele>
        <time>2015-12-09T13:28:25Z</time>
      </trkpt>
      <trkpt lat="43.43232" lon="6.06723">
        <ele>248.60000610352</ele>
        <time>2015-12-09T13:28:27Z</time>
      </trkpt>
      <trkpt lat="43.43236" lon="6.06731">
        <ele>248.80000305176</ele>
        <time>2015-12-09T13:28:29Z</time>
      </trkpt>
      <trkpt lat="43.4324" lon="6.06739">
        <ele>248.39999389648</ele>
        <time>2015-12-09T13:28:31Z</time>
      </trkpt>
      <trkpt lat="43.4325" lon="6.06759">
        <ele>248</ele>
        <time>2015-12-09T13:28:35Z</time>
      </trkpt>
      <trkpt lat="43.43253" lon="6.0677">
        <ele>247.60000610352</ele>
        <time>2015-12-09T13:28:37Z</time>
      </trkpt>
      <trkpt lat="43.43258" lon="6.06782">
        <ele>247.39999389648</ele>
        <time>2015-12-09T13:28:39Z</time>
      </trkpt>
      <trkpt lat="43.43259" lon="6.06788">
        <ele>247.19999694824</ele>
        <time>2015-12-09T13:28:40Z</time>
      </trkpt>
      <trkpt lat="43.43261" lon="6.06795">
        <ele>246.80000305176</ele>
        <time>2015-12-09T13:28:41Z</time>
      </trkpt>
      <trkpt lat="43.43264" lon="6.06809">
        <ele>246.19999694824</ele>
        <time>2015-12-09T13:28:43Z</time>
      </trkpt>
      <trkpt lat="43.43268" lon="6.06823">
        <ele>245.80000305176</ele>
        <time>2015-12-09T13:28:45Z</time>
      </trkpt>
      <trkpt lat="43.43269" lon="6.0683">
        <ele>245.60000610352</ele>
        <time>2015-12-09T13:28:46Z</time>
      </trkpt>
      <trkpt lat="43.43271" lon="6.06837">
        <ele>245.19999694824</ele>
        <time>2015-12-09T13:28:47Z</time>
      </trkpt>
      <trkpt lat="43.43274" lon="6.06852">
        <ele>245.39999389648</ele>
        <time>2015-12-09T13:28:49Z</time>
      </trkpt>
      <trkpt lat="43.43277" lon="6.06866">
        <ele>244.60000610352</ele>
        <time>2015-12-09T13:28:51Z</time>
      </trkpt>
      <trkpt lat="43.43278" lon="6.06873">
        <ele>243.60000610352</ele>
        <time>2015-12-09T13:28:52Z</time>
      </trkpt>
      <trkpt lat="43.43279" lon="6.06881">
        <ele>242.39999389648</ele>
        <time>2015-12-09T13:28:53Z</time>
      </trkpt>
      <trkpt lat="43.4328" lon="6.06888">
        <ele>241.39999389648</ele>
        <time>2015-12-09T13:28:54Z</time>
      </trkpt>
      <trkpt lat="43.4328" lon="6.06898">
        <ele>240.60000610352</ele>
        <time>2015-12-09T13:28:55Z</time>
      </trkpt>
      <trkpt lat="43.4328" lon="6.06908">
        <ele>240</ele>
        <time>2015-12-09T13:28:56Z</time>
      </trkpt>
      <trkpt lat="43.4328" lon="6.06919">
        <ele>238.19999694824</ele>
        <time>2015-12-09T13:28:57Z</time>
      </trkpt>
      <trkpt lat="43.43281" lon="6.06942">
        <ele>236.60000610352</ele>
        <time>2015-12-09T13:28:59Z</time>
      </trkpt>
      <trkpt lat="43.43281" lon="6.06965">
        <ele>235.19999694824</ele>
        <time>2015-12-09T13:29:01Z</time>
      </trkpt>
      <trkpt lat="43.43279" lon="6.06976">
        <ele>234.80000305176</ele>
        <time>2015-12-09T13:29:02Z</time>
      </trkpt>
      <trkpt lat="43.43277" lon="6.06986">
        <ele>234.60000610352</ele>
        <time>2015-12-09T13:29:03Z</time>
      </trkpt>
      <trkpt lat="43.43272" lon="6.07003">
        <ele>234.19999694824</ele>
        <time>2015-12-09T13:29:05Z</time>
      </trkpt>
      <trkpt lat="43.43271" lon="6.07009">
        <ele>234</ele>
        <time>2015-12-09T13:29:06Z</time>
      </trkpt>
      <trkpt lat="43.43271" lon="6.07014">
        <ele>234</ele>
        <time>2015-12-09T13:29:07Z</time>
      </trkpt>
      <trkpt lat="43.43271" lon="6.07017">
        <ele>234.39999389648</ele>
        <time>2015-12-09T13:29:09Z</time>
      </trkpt>
      <trkpt lat="43.43272" lon="6.0702">
        <ele>234.39999389648</ele>
        <time>2015-12-09T13:29:11Z</time>
      </trkpt>
      <trkpt lat="43.43272" lon="6.07019">
        <ele>234.39999389648</ele>
        <time>2015-12-09T13:29:13Z</time>
      </trkpt>
      <trkpt lat="43.43273" lon="6.07019">
        <ele>234.19999694824</ele>
        <time>2015-12-09T13:29:14Z</time>
      </trkpt>
      <trkpt lat="43.43273" lon="6.07019">
        <ele>234.19999694824</ele>
        <time>2015-12-09T13:29:15Z</time>
      </trkpt>
      <trkpt lat="43.43273" lon="6.07019">
        <ele>234.19999694824</ele>
        <time>2015-12-09T13:29:17Z</time>
      </trkpt>
      <trkpt lat="43.43273" lon="6.07019">
        <ele>234.19999694824</ele>
        <time>2015-12-09T13:29:19Z</time>
      </trkpt>
      <trkpt lat="43.43275" lon="6.07019">
        <ele>234.19999694824</ele>
        <time>2015-12-09T13:29:23Z</time>
      </trkpt>
      <trkpt lat="43.43276" lon="6.07017">
        <ele>234</ele>
        <time>2015-12-09T13:29:24Z</time>
      </trkpt>
      <trkpt lat="43.43276" lon="6.07016">
        <ele>234</ele>
        <time>2015-12-09T13:29:25Z</time>
      </trkpt>
      <trkpt lat="43.43275" lon="6.07012">
        <ele>234.19999694824</ele>
        <time>2015-12-09T13:29:27Z</time>
      </trkpt>
      <trkpt lat="43.43275" lon="6.07009">
        <ele>234.19999694824</ele>
        <time>2015-12-09T13:29:29Z</time>
      </trkpt>
      <trkpt lat="43.43275" lon="6.07006">
        <ele>234.19999694824</ele>
        <time>2015-12-09T13:29:31Z</time>
      </trkpt>
      <trkpt lat="43.43277" lon="6.07006">
        <ele>234.19999694824</ele>
        <time>2015-12-09T13:29:33Z</time>
      </trkpt>
      <trkpt lat="43.43279" lon="6.07007">
        <ele>234.19999694824</ele>
        <time>2015-12-09T13:29:34Z</time>
      </trkpt>
      <trkpt lat="43.43279" lon="6.07009">
        <ele>234.19999694824</ele>
        <time>2015-12-09T13:29:35Z</time>
      </trkpt>
      <trkpt lat="43.43281" lon="6.07014">
        <ele>234</ele>
        <time>2015-12-09T13:29:37Z</time>
      </trkpt>
      <trkpt lat="43.43282" lon="6.07016">
        <ele>234</ele>
        <time>2015-12-09T13:29:38Z</time>
      </trkpt>
      <trkpt lat="43.43282" lon="6.07018">
        <ele>234</ele>
        <time>2015-12-09T13:29:39Z</time>
      </trkpt>
      <trkpt lat="43.43283" lon="6.07018">
        <ele>233.80000305176</ele>
        <time>2015-12-09T13:29:41Z</time>
      </trkpt>
      <trkpt lat="43.43284" lon="6.07018">
        <ele>233.60000610352</ele>
        <time>2015-12-09T13:29:43Z</time>
      </trkpt>
      <trkpt lat="43.43284" lon="6.07018">
        <ele>233.60000610352</ele>
        <time>2015-12-09T13:29:45Z</time>
      </trkpt>
      <trkpt lat="43.43285" lon="6.07018">
        <ele>233.39999389648</ele>
        <time>2015-12-09T13:29:47Z</time>
      </trkpt>
      <trkpt lat="43.43284" lon="6.07018">
        <ele>233.39999389648</ele>
        <time>2015-12-09T13:29:49Z</time>
      </trkpt>
      <trkpt lat="43.43285" lon="6.07018">
        <ele>233.60000610352</ele>
        <time>2015-12-09T13:29:51Z</time>
      </trkpt>
      <trkpt lat="43.43287" lon="6.07018">
        <ele>233.60000610352</ele>
        <time>2015-12-09T13:29:52Z</time>
      </trkpt>
      <trkpt lat="43.4329" lon="6.07017">
        <ele>233.60000610352</ele>
        <time>2015-12-09T13:29:53Z</time>
      </trkpt>
      <trkpt lat="43.43298" lon="6.07016">
        <ele>233.39999389648</ele>
        <time>2015-12-09T13:29:55Z</time>
      </trkpt>
      <trkpt lat="43.43302" lon="6.07015">
        <ele>233.39999389648</ele>
        <time>2015-12-09T13:29:56Z</time>
      </trkpt>
      <trkpt lat="43.43306" lon="6.07014">
        <ele>233.39999389648</ele>
        <time>2015-12-09T13:29:57Z</time>
      </trkpt>
      <trkpt lat="43.43314" lon="6.07014">
        <ele>233</ele>
        <time>2015-12-09T13:29:59Z</time>
      </trkpt>
      <trkpt lat="43.43322" lon="6.07017">
        <ele>233</ele>
        <time>2015-12-09T13:30:01Z</time>
      </trkpt>
      <trkpt lat="43.43329" lon="6.07018">
        <ele>233.39999389648</ele>
        <time>2015-12-09T13:30:03Z</time>
      </trkpt>
      <trkpt lat="43.43336" lon="6.0702">
        <ele>232.80000305176</ele>
        <time>2015-12-09T13:30:05Z</time>
      </trkpt>
      <trkpt lat="43.4334" lon="6.07022">
        <ele>233</ele>
        <time>2015-12-09T13:30:07Z</time>
      </trkpt>
      <trkpt lat="43.43344" lon="6.07025">
        <ele>233.39999389648</ele>
        <time>2015-12-09T13:30:09Z</time>
      </trkpt>
      <trkpt lat="43.43349" lon="6.07028">
        <ele>233.39999389648</ele>
        <time>2015-12-09T13:30:11Z</time>
      </trkpt>
      <trkpt lat="43.43352" lon="6.07032">
        <ele>233.39999389648</ele>
        <time>2015-12-09T13:30:13Z</time>
      </trkpt>
      <trkpt lat="43.43354" lon="6.07033">
        <ele>233.19999694824</ele>
        <time>2015-12-09T13:30:14Z</time>
      </trkpt>
      <trkpt lat="43.43356" lon="6.07035">
        <ele>233.19999694824</ele>
        <time>2015-12-09T13:30:15Z</time>
      </trkpt>
      <trkpt lat="43.43356" lon="6.07035">
        <ele>233.19999694824</ele>
        <time>2015-12-09T13:30:17Z</time>
      </trkpt>
      <trkpt lat="43.43357" lon="6.07035">
        <ele>233.39999389648</ele>
        <time>2015-12-09T13:30:19Z</time>
      </trkpt>
      <trkpt lat="43.43357" lon="6.07035">
        <ele>233.60000610352</ele>
        <time>2015-12-09T13:30:21Z</time>
      </trkpt>
      <trkpt lat="43.43358" lon="6.07036">
        <ele>233.39999389648</ele>
        <time>2015-12-09T13:30:23Z</time>
      </trkpt>
      <trkpt lat="43.43362" lon="6.0704">
        <ele>233.19999694824</ele>
        <time>2015-12-09T13:30:25Z</time>
      </trkpt>
      <trkpt lat="43.43364" lon="6.07042">
        <ele>233.39999389648</ele>
        <time>2015-12-09T13:30:26Z</time>
      </trkpt>
      <trkpt lat="43.43368" lon="6.07043">
        <ele>233.60000610352</ele>
        <time>2015-12-09T13:30:27Z</time>
      </trkpt>
      <trkpt lat="43.43371" lon="6.07044">
        <ele>233.60000610352</ele>
        <time>2015-12-09T13:30:28Z</time>
      </trkpt>
      <trkpt lat="43.43375" lon="6.07046">
        <ele>233.60000610352</ele>
        <time>2015-12-09T13:30:29Z</time>
      </trkpt>
      <trkpt lat="43.43381" lon="6.07048">
        <ele>233.80000305176</ele>
        <time>2015-12-09T13:30:31Z</time>
      </trkpt>
      <trkpt lat="43.43388" lon="6.07051">
        <ele>234</ele>
        <time>2015-12-09T13:30:33Z</time>
      </trkpt>
      <trkpt lat="43.43391" lon="6.07051">
        <ele>234.19999694824</ele>
        <time>2015-12-09T13:30:34Z</time>
      </trkpt>
      <trkpt lat="43.43402" lon="6.07055">
        <ele>234.60000610352</ele>
        <time>2015-12-09T13:30:37Z</time>
      </trkpt>
      <trkpt lat="43.43409" lon="6.07058">
        <ele>234.80000305176</ele>
        <time>2015-12-09T13:30:39Z</time>
      </trkpt>
      <trkpt lat="43.43416" lon="6.0706">
        <ele>235.39999389648</ele>
        <time>2015-12-09T13:30:41Z</time>
      </trkpt>
      <trkpt lat="43.43423" lon="6.07063">
        <ele>235.39999389648</ele>
        <time>2015-12-09T13:30:43Z</time>
      </trkpt>
      <trkpt lat="43.4343" lon="6.07065">
        <ele>236</ele>
        <time>2015-12-09T13:30:45Z</time>
      </trkpt>
      <trkpt lat="43.43437" lon="6.07067">
        <ele>236.19999694824</ele>
        <time>2015-12-09T13:30:47Z</time>
      </trkpt>
      <trkpt lat="43.43444" lon="6.07069">
        <ele>236.39999389648</ele>
        <time>2015-12-09T13:30:49Z</time>
      </trkpt>
      <trkpt lat="43.43447" lon="6.0707">
        <ele>236.60000610352</ele>
        <time>2015-12-09T13:30:50Z</time>
      </trkpt>
      <trkpt lat="43.43451" lon="6.07071">
        <ele>236.80000305176</ele>
        <time>2015-12-09T13:30:51Z</time>
      </trkpt>
      <trkpt lat="43.43458" lon="6.07074">
        <ele>237.19999694824</ele>
        <time>2015-12-09T13:30:53Z</time>
      </trkpt>
      <trkpt lat="43.43465" lon="6.07076">
        <ele>237.39999389648</ele>
        <time>2015-12-09T13:30:55Z</time>
      </trkpt>
      <trkpt lat="43.43473" lon="6.07078">
        <ele>237.39999389648</ele>
        <time>2015-12-09T13:30:57Z</time>
      </trkpt>
      <trkpt lat="43.4348" lon="6.07079">
        <ele>237.80000305176</ele>
        <time>2015-12-09T13:30:59Z</time>
      </trkpt>
      <trkpt lat="43.43486" lon="6.07081">
        <ele>237.60000610352</ele>
        <time>2015-12-09T13:31:01Z</time>
      </trkpt>
      <trkpt lat="43.43492" lon="6.07083">
        <ele>237.60000610352</ele>
        <time>2015-12-09T13:31:03Z</time>
      </trkpt>
      <trkpt lat="43.43495" lon="6.07084">
        <ele>237.60000610352</ele>
        <time>2015-12-09T13:31:04Z</time>
      </trkpt>
      <trkpt lat="43.43498" lon="6.07086">
        <ele>237.60000610352</ele>
        <time>2015-12-09T13:31:05Z</time>
      </trkpt>
      <trkpt lat="43.43515" lon="6.0709">
        <ele>237</ele>
        <time>2015-12-09T13:31:09Z</time>
      </trkpt>
      <trkpt lat="43.4352" lon="6.07091">
        <ele>236.80000305176</ele>
        <time>2015-12-09T13:31:10Z</time>
      </trkpt>
      <trkpt lat="43.43525" lon="6.07092">
        <ele>236.39999389648</ele>
        <time>2015-12-09T13:31:11Z</time>
      </trkpt>
      <trkpt lat="43.43536" lon="6.07094">
        <ele>236.19999694824</ele>
        <time>2015-12-09T13:31:13Z</time>
      </trkpt>
      <trkpt lat="43.43547" lon="6.07097">
        <ele>235.60000610352</ele>
        <time>2015-12-09T13:31:15Z</time>
      </trkpt>
      <trkpt lat="43.43552" lon="6.07098">
        <ele>235.19999694824</ele>
        <time>2015-12-09T13:31:16Z</time>
      </trkpt>
      <trkpt lat="43.43559" lon="6.071">
        <ele>234.80000305176</ele>
        <time>2015-12-09T13:31:17Z</time>
      </trkpt>
      <trkpt lat="43.43571" lon="6.07103">
        <ele>234</ele>
        <time>2015-12-09T13:31:19Z</time>
      </trkpt>
      <trkpt lat="43.43584" lon="6.07107">
        <ele>234</ele>
        <time>2015-12-09T13:31:21Z</time>
      </trkpt>
      <trkpt lat="43.43595" lon="6.0711">
        <ele>233.60000610352</ele>
        <time>2015-12-09T13:31:23Z</time>
      </trkpt>
      <trkpt lat="43.436" lon="6.07112">
        <ele>233.39999389648</ele>
        <time>2015-12-09T13:31:24Z</time>
      </trkpt>
      <trkpt lat="43.43607" lon="6.07114">
        <ele>233.39999389648</ele>
        <time>2015-12-09T13:31:25Z</time>
      </trkpt>
      <trkpt lat="43.43617" lon="6.07118">
        <ele>233</ele>
        <time>2015-12-09T13:31:27Z</time>
      </trkpt>
      <trkpt lat="43.43626" lon="6.07121">
        <ele>232.80000305176</ele>
        <time>2015-12-09T13:31:29Z</time>
      </trkpt>
      <trkpt lat="43.43636" lon="6.07122">
        <ele>232.60000610352</ele>
        <time>2015-12-09T13:31:31Z</time>
      </trkpt>
      <trkpt lat="43.43645" lon="6.07126">
        <ele>232.60000610352</ele>
        <time>2015-12-09T13:31:33Z</time>
      </trkpt>
      <trkpt lat="43.43652" lon="6.07129">
        <ele>232.60000610352</ele>
        <time>2015-12-09T13:31:35Z</time>
      </trkpt>
      <trkpt lat="43.43658" lon="6.07133">
        <ele>232.80000305176</ele>
        <time>2015-12-09T13:31:37Z</time>
      </trkpt>
      <trkpt lat="43.43665" lon="6.07137">
        <ele>232.80000305176</ele>
        <time>2015-12-09T13:31:39Z</time>
      </trkpt>
      <trkpt lat="43.43672" lon="6.0714">
        <ele>232.80000305176</ele>
        <time>2015-12-09T13:31:41Z</time>
      </trkpt>
      <trkpt lat="43.43679" lon="6.07141">
        <ele>232.80000305176</ele>
        <time>2015-12-09T13:31:43Z</time>
      </trkpt>
      <trkpt lat="43.43682" lon="6.07141">
        <ele>233</ele>
        <time>2015-12-09T13:31:44Z</time>
      </trkpt>
      <trkpt lat="43.43685" lon="6.0714">
        <ele>233</ele>
        <time>2015-12-09T13:31:45Z</time>
      </trkpt>
      <trkpt lat="43.4369" lon="6.07139">
        <ele>233.19999694824</ele>
        <time>2015-12-09T13:31:47Z</time>
      </trkpt>
      <trkpt lat="43.43694" lon="6.07139">
        <ele>233.39999389648</ele>
        <time>2015-12-09T13:31:49Z</time>
      </trkpt>
      <trkpt lat="43.43695" lon="6.07138">
        <ele>233.60000610352</ele>
        <time>2015-12-09T13:31:50Z</time>
      </trkpt>
      <trkpt lat="43.43696" lon="6.07137">
        <ele>233.39999389648</ele>
        <time>2015-12-09T13:31:51Z</time>
      </trkpt>
      <trkpt lat="43.43697" lon="6.07134">
        <ele>233.39999389648</ele>
        <time>2015-12-09T13:31:53Z</time>
      </trkpt>
      <trkpt lat="43.43699" lon="6.07133">
        <ele>233.39999389648</ele>
        <time>2015-12-09T13:31:54Z</time>
      </trkpt>
      <trkpt lat="43.437" lon="6.07132">
        <ele>233.19999694824</ele>
        <time>2015-12-09T13:31:55Z</time>
      </trkpt>
      <trkpt lat="43.43702" lon="6.0713">
        <ele>232.80000305176</ele>
        <time>2015-12-09T13:31:56Z</time>
      </trkpt>
      <trkpt lat="43.43706" lon="6.07129">
        <ele>233.19999694824</ele>
        <time>2015-12-09T13:31:58Z</time>
      </trkpt>
      <trkpt lat="43.43711" lon="6.07126">
        <ele>232.60000610352</ele>
        <time>2015-12-09T13:32:00Z</time>
      </trkpt>
      <trkpt lat="43.43718" lon="6.07123">
        <ele>233.19999694824</ele>
        <time>2015-12-09T13:32:02Z</time>
      </trkpt>
      <trkpt lat="43.43724" lon="6.07119">
        <ele>233.60000610352</ele>
        <time>2015-12-09T13:32:04Z</time>
      </trkpt>
      <trkpt lat="43.43729" lon="6.07114">
        <ele>233.80000305176</ele>
        <time>2015-12-09T13:32:06Z</time>
      </trkpt>
      <trkpt lat="43.43735" lon="6.07109">
        <ele>233.80000305176</ele>
        <time>2015-12-09T13:32:08Z</time>
      </trkpt>
      <trkpt lat="43.43745" lon="6.07099">
        <ele>233.80000305176</ele>
        <time>2015-12-09T13:32:12Z</time>
      </trkpt>
      <trkpt lat="43.43751" lon="6.07093">
        <ele>234.39999389648</ele>
        <time>2015-12-09T13:32:14Z</time>
      </trkpt>
      <trkpt lat="43.43756" lon="6.07086">
        <ele>234.60000610352</ele>
        <time>2015-12-09T13:32:16Z</time>
      </trkpt>
      <trkpt lat="43.43762" lon="6.0708">
        <ele>234.80000305176</ele>
        <time>2015-12-09T13:32:18Z</time>
      </trkpt>
      <trkpt lat="43.43768" lon="6.07074">
        <ele>235.19999694824</ele>
        <time>2015-12-09T13:32:20Z</time>
      </trkpt>
      <trkpt lat="43.43774" lon="6.07067">
        <ele>235.19999694824</ele>
        <time>2015-12-09T13:32:22Z</time>
      </trkpt>
      <trkpt lat="43.43779" lon="6.07061">
        <ele>235.39999389648</ele>
        <time>2015-12-09T13:32:24Z</time>
      </trkpt>
      <trkpt lat="43.43784" lon="6.07055">
        <ele>235.39999389648</ele>
        <time>2015-12-09T13:32:26Z</time>
      </trkpt>
      <trkpt lat="43.43789" lon="6.0705">
        <ele>235.60000610352</ele>
        <time>2015-12-09T13:32:28Z</time>
      </trkpt>
      <trkpt lat="43.43792" lon="6.07047">
        <ele>235.60000610352</ele>
        <time>2015-12-09T13:32:29Z</time>
      </trkpt>
      <trkpt lat="43.43799" lon="6.07039">
        <ele>236</ele>
        <time>2015-12-09T13:32:32Z</time>
      </trkpt>
      <trkpt lat="43.43803" lon="6.07034">
        <ele>235.80000305176</ele>
        <time>2015-12-09T13:32:34Z</time>
      </trkpt>
      <trkpt lat="43.43809" lon="6.0703">
        <ele>235.60000610352</ele>
        <time>2015-12-09T13:32:36Z</time>
      </trkpt>
      <trkpt lat="43.43816" lon="6.07024">
        <ele>235.80000305176</ele>
        <time>2015-12-09T13:32:38Z</time>
      </trkpt>
      <trkpt lat="43.43822" lon="6.07019">
        <ele>235.39999389648</ele>
        <time>2015-12-09T13:32:40Z</time>
      </trkpt>
      <trkpt lat="43.43827" lon="6.07013">
        <ele>235.60000610352</ele>
        <time>2015-12-09T13:32:42Z</time>
      </trkpt>
      <trkpt lat="43.43833" lon="6.07007">
        <ele>235.80000305176</ele>
        <time>2015-12-09T13:32:44Z</time>
      </trkpt>
      <trkpt lat="43.43839" lon="6.07001">
        <ele>236.39999389648</ele>
        <time>2015-12-09T13:32:46Z</time>
      </trkpt>
      <trkpt lat="43.43844" lon="6.06997">
        <ele>236.39999389648</ele>
        <time>2015-12-09T13:32:48Z</time>
      </trkpt>
      <trkpt lat="43.4385" lon="6.06992">
        <ele>236.19999694824</ele>
        <time>2015-12-09T13:32:50Z</time>
      </trkpt>
      <trkpt lat="43.43856" lon="6.06992">
        <ele>236</ele>
        <time>2015-12-09T13:32:52Z</time>
      </trkpt>
      <trkpt lat="43.43871" lon="6.06989">
        <ele>236.19999694824</ele>
        <time>2015-12-09T13:32:56Z</time>
      </trkpt>
      <trkpt lat="43.43878" lon="6.06985">
        <ele>236.19999694824</ele>
        <time>2015-12-09T13:32:58Z</time>
      </trkpt>
      <trkpt lat="43.4388" lon="6.06981">
        <ele>236.19999694824</ele>
        <time>2015-12-09T13:32:59Z</time>
      </trkpt>
      <trkpt lat="43.43883" lon="6.06977">
        <ele>236.19999694824</ele>
        <time>2015-12-09T13:33:00Z</time>
      </trkpt>
      <trkpt lat="43.43886" lon="6.06969">
        <ele>236.19999694824</ele>
        <time>2015-12-09T13:33:02Z</time>
      </trkpt>
      <trkpt lat="43.43889" lon="6.06961">
        <ele>236.19999694824</ele>
        <time>2015-12-09T13:33:04Z</time>
      </trkpt>
      <trkpt lat="43.43895" lon="6.06954">
        <ele>236</ele>
        <time>2015-12-09T13:33:06Z</time>
      </trkpt>
      <trkpt lat="43.439" lon="6.06949">
        <ele>236.19999694824</ele>
        <time>2015-12-09T13:33:08Z</time>
      </trkpt>
      <trkpt lat="43.43904" lon="6.06947">
        <ele>236.19999694824</ele>
        <time>2015-12-09T13:33:09Z</time>
      </trkpt>
      <trkpt lat="43.43919" lon="6.06939">
        <ele>236.80000305176</ele>
        <time>2015-12-09T13:33:14Z</time>
      </trkpt>
      <trkpt lat="43.43925" lon="6.06936">
        <ele>236.80000305176</ele>
        <time>2015-12-09T13:33:16Z</time>
      </trkpt>
      <trkpt lat="43.43929" lon="6.06935">
        <ele>236.80000305176</ele>
        <time>2015-12-09T13:33:17Z</time>
      </trkpt>
      <trkpt lat="43.43932" lon="6.06934">
        <ele>236.60000610352</ele>
        <time>2015-12-09T13:33:18Z</time>
      </trkpt>
      <trkpt lat="43.43945" lon="6.06932">
        <ele>237.19999694824</ele>
        <time>2015-12-09T13:33:22Z</time>
      </trkpt>
      <trkpt lat="43.43953" lon="6.06931">
        <ele>237.19999694824</ele>
        <time>2015-12-09T13:33:24Z</time>
      </trkpt>
      <trkpt lat="43.4396" lon="6.0693">
        <ele>237</ele>
        <time>2015-12-09T13:33:26Z</time>
      </trkpt>
      <trkpt lat="43.43968" lon="6.0693">
        <ele>237.19999694824</ele>
        <time>2015-12-09T13:33:28Z</time>
      </trkpt>
      <trkpt lat="43.43975" lon="6.0693">
        <ele>237.39999389648</ele>
        <time>2015-12-09T13:33:30Z</time>
      </trkpt>
      <trkpt lat="43.43983" lon="6.06929">
        <ele>237.60000610352</ele>
        <time>2015-12-09T13:33:32Z</time>
      </trkpt>
      <trkpt lat="43.4399" lon="6.06929">
        <ele>237.60000610352</ele>
        <time>2015-12-09T13:33:34Z</time>
      </trkpt>
      <trkpt lat="43.43998" lon="6.06929">
        <ele>237.39999389648</ele>
        <time>2015-12-09T13:33:36Z</time>
      </trkpt>
      <trkpt lat="43.44005" lon="6.06929">
        <ele>237.60000610352</ele>
        <time>2015-12-09T13:33:38Z</time>
      </trkpt>
      <trkpt lat="43.44012" lon="6.06929">
        <ele>237.80000305176</ele>
        <time>2015-12-09T13:33:40Z</time>
      </trkpt>
      <trkpt lat="43.44019" lon="6.06929">
        <ele>237.60000610352</ele>
        <time>2015-12-09T13:33:42Z</time>
      </trkpt>
      <trkpt lat="43.44026" lon="6.0693">
        <ele>237.80000305176</ele>
        <time>2015-12-09T13:33:44Z</time>
      </trkpt>
      <trkpt lat="43.44033" lon="6.0693">
        <ele>237.60000610352</ele>
        <time>2015-12-09T13:33:46Z</time>
      </trkpt>
      <trkpt lat="43.44039" lon="6.06931">
        <ele>237.60000610352</ele>
        <time>2015-12-09T13:33:48Z</time>
      </trkpt>
      <trkpt lat="43.44046" lon="6.06932">
        <ele>237.80000305176</ele>
        <time>2015-12-09T13:33:50Z</time>
      </trkpt>
      <trkpt lat="43.44053" lon="6.06933">
        <ele>237.80000305176</ele>
        <time>2015-12-09T13:33:52Z</time>
      </trkpt>
      <trkpt lat="43.4406" lon="6.06934">
        <ele>238.19999694824</ele>
        <time>2015-12-09T13:33:54Z</time>
      </trkpt>
      <trkpt lat="43.44066" lon="6.06936">
        <ele>238</ele>
        <time>2015-12-09T13:33:56Z</time>
      </trkpt>
      <trkpt lat="43.44073" lon="6.06937">
        <ele>237.80000305176</ele>
        <time>2015-12-09T13:33:58Z</time>
      </trkpt>
      <trkpt lat="43.4408" lon="6.06939">
        <ele>238.19999694824</ele>
        <time>2015-12-09T13:34:00Z</time>
      </trkpt>
      <trkpt lat="43.44087" lon="6.06942">
        <ele>238.39999389648</ele>
        <time>2015-12-09T13:34:02Z</time>
      </trkpt>
      <trkpt lat="43.44093" lon="6.06944">
        <ele>238.39999389648</ele>
        <time>2015-12-09T13:34:04Z</time>
      </trkpt>
      <trkpt lat="43.441" lon="6.06947">
        <ele>238.39999389648</ele>
        <time>2015-12-09T13:34:06Z</time>
      </trkpt>
      <trkpt lat="43.44107" lon="6.0695">
        <ele>238.60000610352</ele>
        <time>2015-12-09T13:34:08Z</time>
      </trkpt>
      <trkpt lat="43.44113" lon="6.06953">
        <ele>238.60000610352</ele>
        <time>2015-12-09T13:34:10Z</time>
      </trkpt>
      <trkpt lat="43.4412" lon="6.06956">
        <ele>238.39999389648</ele>
        <time>2015-12-09T13:34:12Z</time>
      </trkpt>
      <trkpt lat="43.44127" lon="6.06961">
        <ele>238.39999389648</ele>
        <time>2015-12-09T13:34:14Z</time>
      </trkpt>
      <trkpt lat="43.44134" lon="6.06966">
        <ele>238.39999389648</ele>
        <time>2015-12-09T13:34:16Z</time>
      </trkpt>
      <trkpt lat="43.44141" lon="6.06971">
        <ele>238.19999694824</ele>
        <time>2015-12-09T13:34:18Z</time>
      </trkpt>
      <trkpt lat="43.44147" lon="6.06977">
        <ele>238.19999694824</ele>
        <time>2015-12-09T13:34:20Z</time>
      </trkpt>
      <trkpt lat="43.44154" lon="6.06983">
        <ele>238.19999694824</ele>
        <time>2015-12-09T13:34:22Z</time>
      </trkpt>
      <trkpt lat="43.44161" lon="6.06989">
        <ele>238</ele>
        <time>2015-12-09T13:34:24Z</time>
      </trkpt>
      <trkpt lat="43.44168" lon="6.06997">
        <ele>237.60000610352</ele>
        <time>2015-12-09T13:34:26Z</time>
      </trkpt>
      <trkpt lat="43.44175" lon="6.07003">
        <ele>237.80000305176</ele>
        <time>2015-12-09T13:34:28Z</time>
      </trkpt>
      <trkpt lat="43.44189" lon="6.0702">
        <ele>237.19999694824</ele>
        <time>2015-12-09T13:34:32Z</time>
      </trkpt>
      <trkpt lat="43.44197" lon="6.07029">
        <ele>237</ele>
        <time>2015-12-09T13:34:34Z</time>
      </trkpt>
      <trkpt lat="43.44204" lon="6.07036">
        <ele>236.80000305176</ele>
        <time>2015-12-09T13:34:36Z</time>
      </trkpt>
      <trkpt lat="43.44212" lon="6.07045">
        <ele>236.80000305176</ele>
        <time>2015-12-09T13:34:38Z</time>
      </trkpt>
      <trkpt lat="43.44216" lon="6.07049">
        <ele>236.80000305176</ele>
        <time>2015-12-09T13:34:39Z</time>
      </trkpt>
      <trkpt lat="43.44219" lon="6.07053">
        <ele>236.60000610352</ele>
        <time>2015-12-09T13:34:40Z</time>
      </trkpt>
      <trkpt lat="43.44226" lon="6.07061">
        <ele>236.39999389648</ele>
        <time>2015-12-09T13:34:42Z</time>
      </trkpt>
      <trkpt lat="43.44233" lon="6.07068">
        <ele>236.39999389648</ele>
        <time>2015-12-09T13:34:44Z</time>
      </trkpt>
      <trkpt lat="43.44238" lon="6.07075">
        <ele>236.19999694824</ele>
        <time>2015-12-09T13:34:46Z</time>
      </trkpt>
      <trkpt lat="43.44244" lon="6.07082">
        <ele>236.19999694824</ele>
        <time>2015-12-09T13:34:48Z</time>
      </trkpt>
      <trkpt lat="43.4425" lon="6.0709">
        <ele>236.19999694824</ele>
        <time>2015-12-09T13:34:50Z</time>
      </trkpt>
      <trkpt lat="43.44257" lon="6.07096">
        <ele>236.19999694824</ele>
        <time>2015-12-09T13:34:52Z</time>
      </trkpt>
      <trkpt lat="43.44263" lon="6.07103">
        <ele>236</ele>
        <time>2015-12-09T13:34:54Z</time>
      </trkpt>
      <trkpt lat="43.44269" lon="6.0711">
        <ele>236</ele>
        <time>2015-12-09T13:34:56Z</time>
      </trkpt>
      <trkpt lat="43.44276" lon="6.07117">
        <ele>236.19999694824</ele>
        <time>2015-12-09T13:34:58Z</time>
      </trkpt>
      <trkpt lat="43.44279" lon="6.07121">
        <ele>236.19999694824</ele>
        <time>2015-12-09T13:34:59Z</time>
      </trkpt>
      <trkpt lat="43.44283" lon="6.07125">
        <ele>236</ele>
        <time>2015-12-09T13:35:00Z</time>
      </trkpt>
      <trkpt lat="43.44286" lon="6.0713">
        <ele>236</ele>
        <time>2015-12-09T13:35:01Z</time>
      </trkpt>
      <trkpt lat="43.44289" lon="6.07135">
        <ele>236</ele>
        <time>2015-12-09T13:35:02Z</time>
      </trkpt>
      <trkpt lat="43.44295" lon="6.07145">
        <ele>235.80000305176</ele>
        <time>2015-12-09T13:35:04Z</time>
      </trkpt>
      <trkpt lat="43.44298" lon="6.07151">
        <ele>235.80000305176</ele>
        <time>2015-12-09T13:35:05Z</time>
      </trkpt>
      <trkpt lat="43.443" lon="6.07156">
        <ele>235.60000610352</ele>
        <time>2015-12-09T13:35:06Z</time>
      </trkpt>
      <trkpt lat="43.44307" lon="6.07171">
        <ele>235.80000305176</ele>
        <time>2015-12-09T13:35:09Z</time>
      </trkpt>
      <trkpt lat="43.4431" lon="6.07176">
        <ele>235.60000610352</ele>
        <time>2015-12-09T13:35:10Z</time>
      </trkpt>
      <trkpt lat="43.44314" lon="6.07186">
        <ele>235.60000610352</ele>
        <time>2015-12-09T13:35:12Z</time>
      </trkpt>
      <trkpt lat="43.44319" lon="6.07195">
        <ele>235.39999389648</ele>
        <time>2015-12-09T13:35:14Z</time>
      </trkpt>
      <trkpt lat="43.44327" lon="6.07198">
        <ele>235.80000305176</ele>
        <time>2015-12-09T13:35:16Z</time>
      </trkpt>
      <trkpt lat="43.44335" lon="6.07198">
        <ele>235.80000305176</ele>
        <time>2015-12-09T13:35:18Z</time>
      </trkpt>
      <trkpt lat="43.44339" lon="6.07197">
        <ele>235.80000305176</ele>
        <time>2015-12-09T13:35:19Z</time>
      </trkpt>
      <trkpt lat="43.44342" lon="6.07197">
        <ele>235.80000305176</ele>
        <time>2015-12-09T13:35:20Z</time>
      </trkpt>
      <trkpt lat="43.4435" lon="6.07198">
        <ele>236.19999694824</ele>
        <time>2015-12-09T13:35:22Z</time>
      </trkpt>
      <trkpt lat="43.44365" lon="6.072">
        <ele>236.60000610352</ele>
        <time>2015-12-09T13:35:26Z</time>
      </trkpt>
      <trkpt lat="43.44372" lon="6.072">
        <ele>237</ele>
        <time>2015-12-09T13:35:28Z</time>
      </trkpt>
      <trkpt lat="43.4438" lon="6.07199">
        <ele>237.19999694824</ele>
        <time>2015-12-09T13:35:30Z</time>
      </trkpt>
      <trkpt lat="43.44386" lon="6.07198">
        <ele>237.60000610352</ele>
        <time>2015-12-09T13:35:32Z</time>
      </trkpt>
      <trkpt lat="43.44391" lon="6.07196">
        <ele>238</ele>
        <time>2015-12-09T13:35:34Z</time>
      </trkpt>
      <trkpt lat="43.44397" lon="6.07192">
        <ele>238.60000610352</ele>
        <time>2015-12-09T13:35:36Z</time>
      </trkpt>
      <trkpt lat="43.44402" lon="6.0719">
        <ele>238.80000305176</ele>
        <time>2015-12-09T13:35:38Z</time>
      </trkpt>
      <trkpt lat="43.44405" lon="6.07189">
        <ele>239</ele>
        <time>2015-12-09T13:35:40Z</time>
      </trkpt>
      <trkpt lat="43.44407" lon="6.07188">
        <ele>239</ele>
        <time>2015-12-09T13:35:41Z</time>
      </trkpt>
      <trkpt lat="43.44406" lon="6.07187">
        <ele>239</ele>
        <time>2015-12-09T13:35:42Z</time>
      </trkpt>
      <trkpt lat="43.44406" lon="6.07187">
        <ele>239</ele>
        <time>2015-12-09T13:35:44Z</time>
      </trkpt>
      <trkpt lat="43.44406" lon="6.07187">
        <ele>238.60000610352</ele>
        <time>2015-12-09T13:35:45Z</time>
      </trkpt>
      <trkpt lat="43.44406" lon="6.07187">
        <ele>238.39999389648</ele>
        <time>2015-12-09T13:35:48Z</time>
      </trkpt>
      <trkpt lat="43.44406" lon="6.07187">
        <ele>238.39999389648</ele>
        <time>2015-12-09T13:35:54Z</time>
      </trkpt>
      <trkpt lat="43.44406" lon="6.07187">
        <ele>238.39999389648</ele>
        <time>2015-12-09T13:36:02Z</time>
      </trkpt>
      <trkpt lat="43.44406" lon="6.07187">
        <ele>238.60000610352</ele>
        <time>2015-12-09T13:36:10Z</time>
      </trkpt>
      <trkpt lat="43.44406" lon="6.07187">
        <ele>238.80000305176</ele>
        <time>2015-12-09T13:36:12Z</time>
      </trkpt>
      <trkpt lat="43.44406" lon="6.07187">
        <ele>239</ele>
        <time>2015-12-09T13:36:14Z</time>
      </trkpt>
      <trkpt lat="43.44406" lon="6.07187">
        <ele>239.19999694824</ele>
        <time>2015-12-09T13:36:16Z</time>
      </trkpt>
      <trkpt lat="43.44406" lon="6.07187">
        <ele>239.19999694824</ele>
        <time>2015-12-09T13:36:18Z</time>
      </trkpt>
      <trkpt lat="43.44406" lon="6.07187">
        <ele>239.19999694824</ele>
        <time>2015-12-09T13:36:20Z</time>
      </trkpt>
      <trkpt lat="43.44406" lon="6.07187">
        <ele>239.60000610352</ele>
        <time>2015-12-09T13:36:22Z</time>
      </trkpt>
      <trkpt lat="43.44406" lon="6.07187">
        <ele>239.19999694824</ele>
        <time>2015-12-09T13:36:26Z</time>
      </trkpt>
      <trkpt lat="43.44406" lon="6.07187">
        <ele>239</ele>
        <time>2015-12-09T13:36:34Z</time>
      </trkpt>
      <trkpt lat="43.44406" lon="6.07187">
        <ele>239.19999694824</ele>
        <time>2015-12-09T13:36:36Z</time>
      </trkpt>
      <trkpt lat="43.44407" lon="6.07187">
        <ele>239.19999694824</ele>
        <time>2015-12-09T13:36:38Z</time>
      </trkpt>
      <trkpt lat="43.44408" lon="6.07187">
        <ele>239.39999389648</ele>
        <time>2015-12-09T13:36:40Z</time>
      </trkpt>
      <trkpt lat="43.44411" lon="6.07189">
        <ele>239.39999389648</ele>
        <time>2015-12-09T13:36:42Z</time>
      </trkpt>
      <trkpt lat="43.44412" lon="6.07189">
        <ele>239.39999389648</ele>
        <time>2015-12-09T13:36:44Z</time>
      </trkpt>
      <trkpt lat="43.44413" lon="6.07188">
        <ele>239.60000610352</ele>
        <time>2015-12-09T13:36:46Z</time>
      </trkpt>
      <trkpt lat="43.44413" lon="6.07188">
        <ele>239.60000610352</ele>
        <time>2015-12-09T13:36:48Z</time>
      </trkpt>
      <trkpt lat="43.44413" lon="6.07189">
        <ele>239.60000610352</ele>
        <time>2015-12-09T13:36:52Z</time>
      </trkpt>
      <trkpt lat="43.44413" lon="6.07189">
        <ele>239.60000610352</ele>
        <time>2015-12-09T13:36:54Z</time>
      </trkpt>
      <trkpt lat="43.44413" lon="6.07189">
        <ele>240</ele>
        <time>2015-12-09T13:36:57Z</time>
      </trkpt>
      <trkpt lat="43.44413" lon="6.07189">
        <ele>239.60000610352</ele>
        <time>2015-12-09T13:37:04Z</time>
      </trkpt>
      <trkpt lat="43.44413" lon="6.07189">
        <ele>239.60000610352</ele>
        <time>2015-12-09T13:37:06Z</time>
      </trkpt>
      <trkpt lat="43.44413" lon="6.07189">
        <ele>239.60000610352</ele>
        <time>2015-12-09T13:37:11Z</time>
      </trkpt>
      <trkpt lat="43.44413" lon="6.07189">
        <ele>239.80000305176</ele>
        <time>2015-12-09T13:37:50Z</time>
      </trkpt>
      <trkpt lat="43.44413" lon="6.07189">
        <ele>240</ele>
        <time>2015-12-09T13:38:02Z</time>
      </trkpt>
      <trkpt lat="43.44413" lon="6.07189">
        <ele>240</ele>
        <time>2015-12-09T13:38:04Z</time>
      </trkpt>
      <trkpt lat="43.44413" lon="6.07189">
        <ele>240</ele>
        <time>2015-12-09T13:38:08Z</time>
      </trkpt>
      <trkpt lat="43.44413" lon="6.07189">
        <ele>240</ele>
        <time>2015-12-09T13:38:14Z</time>
      </trkpt>
      <trkpt lat="43.44413" lon="6.07189">
        <ele>240</ele>
        <time>2015-12-09T13:38:16Z</time>
      </trkpt>
      <trkpt lat="43.44413" lon="6.07189">
        <ele>239.80000305176</ele>
        <time>2015-12-09T13:38:18Z</time>
      </trkpt>
      <trkpt lat="43.44413" lon="6.07189">
        <ele>239.80000305176</ele>
        <time>2015-12-09T13:38:24Z</time>
      </trkpt>
      <trkpt lat="43.44413" lon="6.07189">
        <ele>239.80000305176</ele>
        <time>2015-12-09T13:38:28Z</time>
      </trkpt>
      <trkpt lat="43.44414" lon="6.0719">
        <ele>240</ele>
        <time>2015-12-09T13:38:31Z</time>
      </trkpt>
      <trkpt lat="43.44414" lon="6.0719">
        <ele>240</ele>
        <time>2015-12-09T13:38:34Z</time>
      </trkpt>
      <trkpt lat="43.44414" lon="6.0719">
        <ele>239.80000305176</ele>
        <time>2015-12-09T13:38:40Z</time>
      </trkpt>
      <trkpt lat="43.44414" lon="6.0719">
        <ele>240</ele>
        <time>2015-12-09T13:38:58Z</time>
      </trkpt>
      <trkpt lat="43.44414" lon="6.0719">
        <ele>239.80000305176</ele>
        <time>2015-12-09T13:39:04Z</time>
      </trkpt>
      <trkpt lat="43.44414" lon="6.0719">
        <ele>240.19999694824</ele>
        <time>2015-12-09T13:39:08Z</time>
      </trkpt>
      <trkpt lat="43.44416" lon="6.07191">
        <ele>240.19999694824</ele>
        <time>2015-12-09T13:39:10Z</time>
      </trkpt>
      <trkpt lat="43.44419" lon="6.07192">
        <ele>240.19999694824</ele>
        <time>2015-12-09T13:39:12Z</time>
      </trkpt>
      <trkpt lat="43.44424" lon="6.07192">
        <ele>240.19999694824</ele>
        <time>2015-12-09T13:39:14Z</time>
      </trkpt>
      <trkpt lat="43.4443" lon="6.07192">
        <ele>240.39999389648</ele>
        <time>2015-12-09T13:39:16Z</time>
      </trkpt>
      <trkpt lat="43.44435" lon="6.07192">
        <ele>240.60000610352</ele>
        <time>2015-12-09T13:39:18Z</time>
      </trkpt>
      <trkpt lat="43.44441" lon="6.07193">
        <ele>240.80000305176</ele>
        <time>2015-12-09T13:39:20Z</time>
      </trkpt>
      <trkpt lat="43.44446" lon="6.07194">
        <ele>241.19999694824</ele>
        <time>2015-12-09T13:39:22Z</time>
      </trkpt>
      <trkpt lat="43.44452" lon="6.07196">
        <ele>241.60000610352</ele>
        <time>2015-12-09T13:39:24Z</time>
      </trkpt>
      <trkpt lat="43.44462" lon="6.07199">
        <ele>242.19999694824</ele>
        <time>2015-12-09T13:39:28Z</time>
      </trkpt>
      <trkpt lat="43.44467" lon="6.07202">
        <ele>242.39999389648</ele>
        <time>2015-12-09T13:39:30Z</time>
      </trkpt>
      <trkpt lat="43.44471" lon="6.07205">
        <ele>242.60000610352</ele>
        <time>2015-12-09T13:39:32Z</time>
      </trkpt>
      <trkpt lat="43.44474" lon="6.07206">
        <ele>243</ele>
        <time>2015-12-09T13:39:33Z</time>
      </trkpt>
      <trkpt lat="43.44481" lon="6.0721">
        <ele>243.39999389648</ele>
        <time>2015-12-09T13:39:36Z</time>
      </trkpt>
      <trkpt lat="43.44486" lon="6.07211">
        <ele>243.80000305176</ele>
        <time>2015-12-09T13:39:38Z</time>
      </trkpt>
      <trkpt lat="43.44489" lon="6.07212">
        <ele>244.19999694824</ele>
        <time>2015-12-09T13:39:39Z</time>
      </trkpt>
      <trkpt lat="43.44491" lon="6.07211">
        <ele>244.19999694824</ele>
        <time>2015-12-09T13:39:40Z</time>
      </trkpt>
      <trkpt lat="43.44493" lon="6.07211">
        <ele>244.19999694824</ele>
        <time>2015-12-09T13:39:41Z</time>
      </trkpt>
      <trkpt lat="43.44496" lon="6.0721">
        <ele>244.39999389648</ele>
        <time>2015-12-09T13:39:42Z</time>
      </trkpt>
      <trkpt lat="43.44501" lon="6.07208">
        <ele>245</ele>
        <time>2015-12-09T13:39:44Z</time>
      </trkpt>
      <trkpt lat="43.44505" lon="6.07206">
        <ele>245.19999694824</ele>
        <time>2015-12-09T13:39:46Z</time>
      </trkpt>
      <trkpt lat="43.44509" lon="6.07203">
        <ele>245.80000305176</ele>
        <time>2015-12-09T13:39:48Z</time>
      </trkpt>
      <trkpt lat="43.44514" lon="6.072">
        <ele>246.19999694824</ele>
        <time>2015-12-09T13:39:50Z</time>
      </trkpt>
      <trkpt lat="43.44516" lon="6.07199">
        <ele>246.39999389648</ele>
        <time>2015-12-09T13:39:51Z</time>
      </trkpt>
      <trkpt lat="43.44522" lon="6.07195">
        <ele>247</ele>
        <time>2015-12-09T13:39:54Z</time>
      </trkpt>
      <trkpt lat="43.4453" lon="6.0719">
        <ele>248</ele>
        <time>2015-12-09T13:39:58Z</time>
      </trkpt>
      <trkpt lat="43.44532" lon="6.07189">
        <ele>248.19999694824</ele>
        <time>2015-12-09T13:39:59Z</time>
      </trkpt>
      <trkpt lat="43.44536" lon="6.07187">
        <ele>248.80000305176</ele>
        <time>2015-12-09T13:40:01Z</time>
      </trkpt>
      <trkpt lat="43.44541" lon="6.07185">
        <ele>250</ele>
        <time>2015-12-09T13:40:04Z</time>
      </trkpt>
      <trkpt lat="43.44544" lon="6.07184">
        <ele>250.19999694824</ele>
        <time>2015-12-09T13:40:06Z</time>
      </trkpt>
      <trkpt lat="43.44547" lon="6.07182">
        <ele>250.60000610352</ele>
        <time>2015-12-09T13:40:08Z</time>
      </trkpt>
      <trkpt lat="43.44548" lon="6.07181">
        <ele>250.80000305176</ele>
        <time>2015-12-09T13:40:09Z</time>
      </trkpt>
      <trkpt lat="43.4455" lon="6.07181">
        <ele>251</ele>
        <time>2015-12-09T13:40:10Z</time>
      </trkpt>
      <trkpt lat="43.44551" lon="6.07181">
        <ele>251.19999694824</ele>
        <time>2015-12-09T13:40:11Z</time>
      </trkpt>
      <trkpt lat="43.44552" lon="6.07181">
        <ele>251.39999389648</ele>
        <time>2015-12-09T13:40:12Z</time>
      </trkpt>
      <trkpt lat="43.44555" lon="6.07181">
        <ele>251.39999389648</ele>
        <time>2015-12-09T13:40:14Z</time>
      </trkpt>
      <trkpt lat="43.44558" lon="6.07181">
        <ele>251.80000305176</ele>
        <time>2015-12-09T13:40:16Z</time>
      </trkpt>
      <trkpt lat="43.44561" lon="6.07181">
        <ele>252.19999694824</ele>
        <time>2015-12-09T13:40:18Z</time>
      </trkpt>
      <trkpt lat="43.44564" lon="6.07182">
        <ele>252.39999389648</ele>
        <time>2015-12-09T13:40:20Z</time>
      </trkpt>
      <trkpt lat="43.44567" lon="6.07183">
        <ele>252.60000610352</ele>
        <time>2015-12-09T13:40:22Z</time>
      </trkpt>
      <trkpt lat="43.4457" lon="6.07182">
        <ele>253</ele>
        <time>2015-12-09T13:40:24Z</time>
      </trkpt>
      <trkpt lat="43.44574" lon="6.07182">
        <ele>253.19999694824</ele>
        <time>2015-12-09T13:40:26Z</time>
      </trkpt>
      <trkpt lat="43.44579" lon="6.07181">
        <ele>254</ele>
        <time>2015-12-09T13:40:30Z</time>
      </trkpt>
      <trkpt lat="43.44582" lon="6.0718">
        <ele>254.39999389648</ele>
        <time>2015-12-09T13:40:32Z</time>
      </trkpt>
      <trkpt lat="43.44585" lon="6.0718">
        <ele>254.60000610352</ele>
        <time>2015-12-09T13:40:34Z</time>
      </trkpt>
      <trkpt lat="43.44588" lon="6.0718">
        <ele>255.19999694824</ele>
        <time>2015-12-09T13:40:36Z</time>
      </trkpt>
      <trkpt lat="43.44591" lon="6.0718">
        <ele>255.39999389648</ele>
        <time>2015-12-09T13:40:38Z</time>
      </trkpt>
      <trkpt lat="43.44594" lon="6.0718">
        <ele>255.60000610352</ele>
        <time>2015-12-09T13:40:40Z</time>
      </trkpt>
      <trkpt lat="43.44597" lon="6.07179">
        <ele>256</ele>
        <time>2015-12-09T13:40:42Z</time>
      </trkpt>
      <trkpt lat="43.446" lon="6.07178">
        <ele>256.20001220703</ele>
        <time>2015-12-09T13:40:44Z</time>
      </trkpt>
      <trkpt lat="43.44604" lon="6.07178">
        <ele>256.60000610352</ele>
        <time>2015-12-09T13:40:46Z</time>
      </trkpt>
      <trkpt lat="43.44607" lon="6.07177">
        <ele>256.79998779297</ele>
        <time>2015-12-09T13:40:48Z</time>
      </trkpt>
      <trkpt lat="43.44611" lon="6.07177">
        <ele>257</ele>
        <time>2015-12-09T13:40:50Z</time>
      </trkpt>
      <trkpt lat="43.44614" lon="6.07177">
        <ele>257.20001220703</ele>
        <time>2015-12-09T13:40:52Z</time>
      </trkpt>
      <trkpt lat="43.44618" lon="6.07177">
        <ele>257.20001220703</ele>
        <time>2015-12-09T13:40:54Z</time>
      </trkpt>
      <trkpt lat="43.44622" lon="6.07177">
        <ele>257.60000610352</ele>
        <time>2015-12-09T13:40:56Z</time>
      </trkpt>
      <trkpt lat="43.44625" lon="6.07178">
        <ele>257.60000610352</ele>
        <time>2015-12-09T13:40:58Z</time>
      </trkpt>
      <trkpt lat="43.44632" lon="6.07176">
        <ele>258.39999389648</ele>
        <time>2015-12-09T13:41:02Z</time>
      </trkpt>
      <trkpt lat="43.44636" lon="6.07176">
        <ele>258.39999389648</ele>
        <time>2015-12-09T13:41:04Z</time>
      </trkpt>
      <trkpt lat="43.44637" lon="6.07176">
        <ele>258.20001220703</ele>
        <time>2015-12-09T13:41:05Z</time>
      </trkpt>
      <trkpt lat="43.44639" lon="6.07176">
        <ele>258.20001220703</ele>
        <time>2015-12-09T13:41:06Z</time>
      </trkpt>
      <trkpt lat="43.44642" lon="6.07174">
        <ele>258.79998779297</ele>
        <time>2015-12-09T13:41:08Z</time>
      </trkpt>
      <trkpt lat="43.44645" lon="6.07173">
        <ele>259.20001220703</ele>
        <time>2015-12-09T13:41:10Z</time>
      </trkpt>
      <trkpt lat="43.44648" lon="6.07171">
        <ele>259</ele>
        <time>2015-12-09T13:41:12Z</time>
      </trkpt>
      <trkpt lat="43.44651" lon="6.07169">
        <ele>259</ele>
        <time>2015-12-09T13:41:14Z</time>
      </trkpt>
      <trkpt lat="43.44653" lon="6.07167">
        <ele>259.39999389648</ele>
        <time>2015-12-09T13:41:16Z</time>
      </trkpt>
      <trkpt lat="43.44654" lon="6.07166">
        <ele>259.39999389648</ele>
        <time>2015-12-09T13:41:18Z</time>
      </trkpt>
      <trkpt lat="43.44655" lon="6.07164">
        <ele>259.39999389648</ele>
        <time>2015-12-09T13:41:20Z</time>
      </trkpt>
      <trkpt lat="43.44656" lon="6.07162">
        <ele>259.39999389648</ele>
        <time>2015-12-09T13:41:22Z</time>
      </trkpt>
      <trkpt lat="43.44656" lon="6.0716">
        <ele>259.79998779297</ele>
        <time>2015-12-09T13:41:24Z</time>
      </trkpt>
      <trkpt lat="43.44658" lon="6.07157">
        <ele>259.79998779297</ele>
        <time>2015-12-09T13:41:26Z</time>
      </trkpt>
      <trkpt lat="43.44659" lon="6.07153">
        <ele>259.79998779297</ele>
        <time>2015-12-09T13:41:28Z</time>
      </trkpt>
      <trkpt lat="43.44659" lon="6.07152">
        <ele>259.79998779297</ele>
        <time>2015-12-09T13:41:30Z</time>
      </trkpt>
      <trkpt lat="43.44659" lon="6.07152">
        <ele>259.79998779297</ele>
        <time>2015-12-09T13:41:32Z</time>
      </trkpt>
      <trkpt lat="43.44659" lon="6.07152">
        <ele>259.79998779297</ele>
        <time>2015-12-09T13:41:34Z</time>
      </trkpt>
      <trkpt lat="43.44659" lon="6.07152">
        <ele>260</ele>
        <time>2015-12-09T13:41:36Z</time>
      </trkpt>
      <trkpt lat="43.44659" lon="6.07152">
        <ele>259.79998779297</ele>
        <time>2015-12-09T13:41:38Z</time>
      </trkpt>
      <trkpt lat="43.44659" lon="6.07152">
        <ele>259.79998779297</ele>
        <time>2015-12-09T13:41:40Z</time>
      </trkpt>
      <trkpt lat="43.44659" lon="6.07152">
        <ele>260</ele>
        <time>2015-12-09T13:41:42Z</time>
      </trkpt>
      <trkpt lat="43.44659" lon="6.07151">
        <ele>259.79998779297</ele>
        <time>2015-12-09T13:41:44Z</time>
      </trkpt>
      <trkpt lat="43.44659" lon="6.07147">
        <ele>259.79998779297</ele>
        <time>2015-12-09T13:41:46Z</time>
      </trkpt>
      <trkpt lat="43.4466" lon="6.07142">
        <ele>259.79998779297</ele>
        <time>2015-12-09T13:41:48Z</time>
      </trkpt>
      <trkpt lat="43.4466" lon="6.07137">
        <ele>260.20001220703</ele>
        <time>2015-12-09T13:41:50Z</time>
      </trkpt>
      <trkpt lat="43.44661" lon="6.07131">
        <ele>260.20001220703</ele>
        <time>2015-12-09T13:41:52Z</time>
      </trkpt>
      <trkpt lat="43.44661" lon="6.07126">
        <ele>260.39999389648</ele>
        <time>2015-12-09T13:41:54Z</time>
      </trkpt>
      <trkpt lat="43.44662" lon="6.07121">
        <ele>260.79998779297</ele>
        <time>2015-12-09T13:41:56Z</time>
      </trkpt>
      <trkpt lat="43.44662" lon="6.07116">
        <ele>261.39999389648</ele>
        <time>2015-12-09T13:41:58Z</time>
      </trkpt>
      <trkpt lat="43.44663" lon="6.07111">
        <ele>261.39999389648</ele>
        <time>2015-12-09T13:42:00Z</time>
      </trkpt>
      <trkpt lat="43.44664" lon="6.07104">
        <ele>261.20001220703</ele>
        <time>2015-12-09T13:42:03Z</time>
      </trkpt>
      <trkpt lat="43.44666" lon="6.07096">
        <ele>261.60000610352</ele>
        <time>2015-12-09T13:42:06Z</time>
      </trkpt>
      <trkpt lat="43.44667" lon="6.07085">
        <ele>262</ele>
        <time>2015-12-09T13:42:10Z</time>
      </trkpt>
      <trkpt lat="43.44668" lon="6.07078">
        <ele>262.39999389648</ele>
        <time>2015-12-09T13:42:13Z</time>
      </trkpt>
      <trkpt lat="43.44669" lon="6.0707">
        <ele>262.79998779297</ele>
        <time>2015-12-09T13:42:16Z</time>
      </trkpt>
      <trkpt lat="43.4467" lon="6.07065">
        <ele>263</ele>
        <time>2015-12-09T13:42:18Z</time>
      </trkpt>
      <trkpt lat="43.4467" lon="6.0706">
        <ele>263.20001220703</ele>
        <time>2015-12-09T13:42:20Z</time>
      </trkpt>
      <trkpt lat="43.44671" lon="6.07054">
        <ele>263.39999389648</ele>
        <time>2015-12-09T13:42:22Z</time>
      </trkpt>
      <trkpt lat="43.44673" lon="6.07049">
        <ele>263.60000610352</ele>
        <time>2015-12-09T13:42:24Z</time>
      </trkpt>
      <trkpt lat="43.44675" lon="6.07045">
        <ele>264</ele>
        <time>2015-12-09T13:42:26Z</time>
      </trkpt>
      <trkpt lat="43.44677" lon="6.07041">
        <ele>264.39999389648</ele>
        <time>2015-12-09T13:42:28Z</time>
      </trkpt>
      <trkpt lat="43.44678" lon="6.07037">
        <ele>264.60000610352</ele>
        <time>2015-12-09T13:42:30Z</time>
      </trkpt>
      <trkpt lat="43.44678" lon="6.07035">
        <ele>265</ele>
        <time>2015-12-09T13:42:31Z</time>
      </trkpt>
      <trkpt lat="43.44679" lon="6.0703">
        <ele>265.39999389648</ele>
        <time>2015-12-09T13:42:33Z</time>
      </trkpt>
      <trkpt lat="43.44679" lon="6.07027">
        <ele>265.60000610352</ele>
        <time>2015-12-09T13:42:34Z</time>
      </trkpt>
      <trkpt lat="43.44679" lon="6.07014">
        <ele>266.39999389648</ele>
        <time>2015-12-09T13:42:40Z</time>
      </trkpt>
      <trkpt lat="43.44678" lon="6.07007">
        <ele>267.39999389648</ele>
        <time>2015-12-09T13:42:44Z</time>
      </trkpt>
      <trkpt lat="43.44678" lon="6.07003">
        <ele>267.79998779297</ele>
        <time>2015-12-09T13:42:46Z</time>
      </trkpt>
      <trkpt lat="43.44678" lon="6.07002">
        <ele>268.20001220703</ele>
        <time>2015-12-09T13:42:47Z</time>
      </trkpt>
      <trkpt lat="43.44678" lon="6.07001">
        <ele>268.39999389648</ele>
        <time>2015-12-09T13:42:48Z</time>
      </trkpt>
      <trkpt lat="43.44678" lon="6.06998">
        <ele>268.79998779297</ele>
        <time>2015-12-09T13:42:50Z</time>
      </trkpt>
      <trkpt lat="43.44679" lon="6.06994">
        <ele>269.79998779297</ele>
        <time>2015-12-09T13:42:52Z</time>
      </trkpt>
      <trkpt lat="43.4468" lon="6.0699">
        <ele>269.60000610352</ele>
        <time>2015-12-09T13:42:54Z</time>
      </trkpt>
      <trkpt lat="43.44681" lon="6.06988">
        <ele>270.20001220703</ele>
        <time>2015-12-09T13:42:56Z</time>
      </trkpt>
      <trkpt lat="43.44681" lon="6.06985">
        <ele>270.79998779297</ele>
        <time>2015-12-09T13:42:58Z</time>
      </trkpt>
      <trkpt lat="43.44679" lon="6.06977">
        <ele>271.20001220703</ele>
        <time>2015-12-09T13:43:02Z</time>
      </trkpt>
      <trkpt lat="43.44678" lon="6.06974">
        <ele>271.60000610352</ele>
        <time>2015-12-09T13:43:04Z</time>
      </trkpt>
      <trkpt lat="43.44677" lon="6.06967">
        <ele>272</ele>
        <time>2015-12-09T13:43:08Z</time>
      </trkpt>
      <trkpt lat="43.44677" lon="6.06963">
        <ele>272.39999389648</ele>
        <time>2015-12-09T13:43:10Z</time>
      </trkpt>
      <trkpt lat="43.44676" lon="6.0696">
        <ele>272.39999389648</ele>
        <time>2015-12-09T13:43:12Z</time>
      </trkpt>
      <trkpt lat="43.44675" lon="6.06957">
        <ele>272.60000610352</ele>
        <time>2015-12-09T13:43:14Z</time>
      </trkpt>
      <trkpt lat="43.44675" lon="6.06954">
        <ele>273.20001220703</ele>
        <time>2015-12-09T13:43:16Z</time>
      </trkpt>
      <trkpt lat="43.44675" lon="6.06944">
        <ele>273.79998779297</ele>
        <time>2015-12-09T13:43:22Z</time>
      </trkpt>
      <trkpt lat="43.44675" lon="6.0694">
        <ele>273.79998779297</ele>
        <time>2015-12-09T13:43:24Z</time>
      </trkpt>
      <trkpt lat="43.44675" lon="6.06937">
        <ele>274.20001220703</ele>
        <time>2015-12-09T13:43:26Z</time>
      </trkpt>
      <trkpt lat="43.44677" lon="6.06933">
        <ele>274.60000610352</ele>
        <time>2015-12-09T13:43:29Z</time>
      </trkpt>
      <trkpt lat="43.44676" lon="6.06931">
        <ele>274.60000610352</ele>
        <time>2015-12-09T13:43:30Z</time>
      </trkpt>
      <trkpt lat="43.44676" lon="6.06928">
        <ele>274.79998779297</ele>
        <time>2015-12-09T13:43:32Z</time>
      </trkpt>
      <trkpt lat="43.44676" lon="6.06924">
        <ele>275</ele>
        <time>2015-12-09T13:43:34Z</time>
      </trkpt>
      <trkpt lat="43.44675" lon="6.0692">
        <ele>275.39999389648</ele>
        <time>2015-12-09T13:43:36Z</time>
      </trkpt>
      <trkpt lat="43.44675" lon="6.06916">
        <ele>275.60000610352</ele>
        <time>2015-12-09T13:43:38Z</time>
      </trkpt>
      <trkpt lat="43.44675" lon="6.06909">
        <ele>276</ele>
        <time>2015-12-09T13:43:42Z</time>
      </trkpt>
      <trkpt lat="43.44675" lon="6.06902">
        <ele>276.39999389648</ele>
        <time>2015-12-09T13:43:46Z</time>
      </trkpt>
      <trkpt lat="43.44675" lon="6.06899">
        <ele>276.60000610352</ele>
        <time>2015-12-09T13:43:48Z</time>
      </trkpt>
      <trkpt lat="43.44675" lon="6.06895">
        <ele>276.79998779297</ele>
        <time>2015-12-09T13:43:50Z</time>
      </trkpt>
      <trkpt lat="43.44674" lon="6.06891">
        <ele>277</ele>
        <time>2015-12-09T13:43:52Z</time>
      </trkpt>
      <trkpt lat="43.44673" lon="6.06888">
        <ele>277</ele>
        <time>2015-12-09T13:43:54Z</time>
      </trkpt>
      <trkpt lat="43.44672" lon="6.06884">
        <ele>277.20001220703</ele>
        <time>2015-12-09T13:43:56Z</time>
      </trkpt>
      <trkpt lat="43.44671" lon="6.06881">
        <ele>277.79998779297</ele>
        <time>2015-12-09T13:43:58Z</time>
      </trkpt>
      <trkpt lat="43.4467" lon="6.06878">
        <ele>278</ele>
        <time>2015-12-09T13:44:00Z</time>
      </trkpt>
      <trkpt lat="43.44669" lon="6.06875">
        <ele>277.79998779297</ele>
        <time>2015-12-09T13:44:02Z</time>
      </trkpt>
      <trkpt lat="43.44669" lon="6.06872">
        <ele>278</ele>
        <time>2015-12-09T13:44:04Z</time>
      </trkpt>
      <trkpt lat="43.44669" lon="6.06869">
        <ele>278.20001220703</ele>
        <time>2015-12-09T13:44:06Z</time>
      </trkpt>
      <trkpt lat="43.44668" lon="6.06867">
        <ele>278.60000610352</ele>
        <time>2015-12-09T13:44:08Z</time>
      </trkpt>
      <trkpt lat="43.44668" lon="6.06867">
        <ele>278.60000610352</ele>
        <time>2015-12-09T13:44:10Z</time>
      </trkpt>
      <trkpt lat="43.44668" lon="6.06867">
        <ele>278.39999389648</ele>
        <time>2015-12-09T13:44:12Z</time>
      </trkpt>
      <trkpt lat="43.44668" lon="6.06867">
        <ele>278.60000610352</ele>
        <time>2015-12-09T13:44:14Z</time>
      </trkpt>
      <trkpt lat="43.44668" lon="6.06867">
        <ele>278.60000610352</ele>
        <time>2015-12-09T13:44:18Z</time>
      </trkpt>
      <trkpt lat="43.44668" lon="6.06867">
        <ele>278.39999389648</ele>
        <time>2015-12-09T13:44:20Z</time>
      </trkpt>
      <trkpt lat="43.44668" lon="6.06867">
        <ele>278.39999389648</ele>
        <time>2015-12-09T13:44:22Z</time>
      </trkpt>
      <trkpt lat="43.44667" lon="6.06865">
        <ele>278.39999389648</ele>
        <time>2015-12-09T13:44:24Z</time>
      </trkpt>
      <trkpt lat="43.44667" lon="6.06864">
        <ele>278.39999389648</ele>
        <time>2015-12-09T13:44:25Z</time>
      </trkpt>
      <trkpt lat="43.44668" lon="6.06862">
        <ele>278.60000610352</ele>
        <time>2015-12-09T13:44:26Z</time>
      </trkpt>
      <trkpt lat="43.44668" lon="6.0686">
        <ele>279</ele>
        <time>2015-12-09T13:44:27Z</time>
      </trkpt>
      <trkpt lat="43.44668" lon="6.06858">
        <ele>279.20001220703</ele>
        <time>2015-12-09T13:44:28Z</time>
      </trkpt>
      <trkpt lat="43.44669" lon="6.06854">
        <ele>279</ele>
        <time>2015-12-09T13:44:30Z</time>
      </trkpt>
      <trkpt lat="43.44669" lon="6.0685">
        <ele>279.20001220703</ele>
        <time>2015-12-09T13:44:32Z</time>
      </trkpt>
      <trkpt lat="43.44669" lon="6.06846">
        <ele>279.39999389648</ele>
        <time>2015-12-09T13:44:34Z</time>
      </trkpt>
      <trkpt lat="43.44669" lon="6.06842">
        <ele>279.60000610352</ele>
        <time>2015-12-09T13:44:36Z</time>
      </trkpt>
      <trkpt lat="43.44668" lon="6.06838">
        <ele>280.39999389648</ele>
        <time>2015-12-09T13:44:38Z</time>
      </trkpt>
      <trkpt lat="43.44668" lon="6.06834">
        <ele>280.39999389648</ele>
        <time>2015-12-09T13:44:40Z</time>
      </trkpt>
      <trkpt lat="43.44668" lon="6.0683">
        <ele>280.79998779297</ele>
        <time>2015-12-09T13:44:42Z</time>
      </trkpt>
      <trkpt lat="43.44668" lon="6.06825">
        <ele>281</ele>
        <time>2015-12-09T13:44:44Z</time>
      </trkpt>
      <trkpt lat="43.44668" lon="6.06821">
        <ele>281</ele>
        <time>2015-12-09T13:44:46Z</time>
      </trkpt>
      <trkpt lat="43.44668" lon="6.06819">
        <ele>281.39999389648</ele>
        <time>2015-12-09T13:44:47Z</time>
      </trkpt>
      <trkpt lat="43.44668" lon="6.06816">
        <ele>281.79998779297</ele>
        <time>2015-12-09T13:44:48Z</time>
      </trkpt>
      <trkpt lat="43.44669" lon="6.06813">
        <ele>281.79998779297</ele>
        <time>2015-12-09T13:44:50Z</time>
      </trkpt>
      <trkpt lat="43.4467" lon="6.06809">
        <ele>282.39999389648</ele>
        <time>2015-12-09T13:44:52Z</time>
      </trkpt>
      <trkpt lat="43.4467" lon="6.06804">
        <ele>282.79998779297</ele>
        <time>2015-12-09T13:44:55Z</time>
      </trkpt>
      <trkpt lat="43.4467" lon="6.06803">
        <ele>282.79998779297</ele>
        <time>2015-12-09T13:44:56Z</time>
      </trkpt>
      <trkpt lat="43.44671" lon="6.06801">
        <ele>282.79998779297</ele>
        <time>2015-12-09T13:44:58Z</time>
      </trkpt>
      <trkpt lat="43.44671" lon="6.068">
        <ele>282.79998779297</ele>
        <time>2015-12-09T13:45:00Z</time>
      </trkpt>
      <trkpt lat="43.44671" lon="6.06799">
        <ele>282.79998779297</ele>
        <time>2015-12-09T13:45:01Z</time>
      </trkpt>
      <trkpt lat="43.44671" lon="6.06799">
        <ele>283</ele>
        <time>2015-12-09T13:45:02Z</time>
      </trkpt>
      <trkpt lat="43.44671" lon="6.06799">
        <ele>283.20001220703</ele>
        <time>2015-12-09T13:45:04Z</time>
      </trkpt>
      <trkpt lat="43.44671" lon="6.06799">
        <ele>283</ele>
        <time>2015-12-09T13:45:06Z</time>
      </trkpt>
      <trkpt lat="43.44671" lon="6.06799">
        <ele>283.20001220703</ele>
        <time>2015-12-09T13:45:12Z</time>
      </trkpt>
      <trkpt lat="43.44671" lon="6.06799">
        <ele>283.20001220703</ele>
        <time>2015-12-09T13:45:18Z</time>
      </trkpt>
      <trkpt lat="43.44671" lon="6.06799">
        <ele>283</ele>
        <time>2015-12-09T13:45:32Z</time>
      </trkpt>
      <trkpt lat="43.44671" lon="6.06799">
        <ele>283</ele>
        <time>2015-12-09T13:45:44Z</time>
      </trkpt>
      <trkpt lat="43.44671" lon="6.06799">
        <ele>283</ele>
        <time>2015-12-09T13:45:52Z</time>
      </trkpt>
      <trkpt lat="43.44671" lon="6.06799">
        <ele>283</ele>
        <time>2015-12-09T13:45:54Z</time>
      </trkpt>
      <trkpt lat="43.44671" lon="6.06799">
        <ele>283</ele>
        <time>2015-12-09T13:46:10Z</time>
      </trkpt>
      <trkpt lat="43.44671" lon="6.06799">
        <ele>283.20001220703</ele>
        <time>2015-12-09T13:46:18Z</time>
      </trkpt>
      <trkpt lat="43.44671" lon="6.06799">
        <ele>283</ele>
        <time>2015-12-09T13:46:22Z</time>
      </trkpt>
      <trkpt lat="43.4467" lon="6.06799">
        <ele>282.79998779297</ele>
        <time>2015-12-09T13:46:24Z</time>
      </trkpt>
      <trkpt lat="43.44671" lon="6.06799">
        <ele>283</ele>
        <time>2015-12-09T13:46:26Z</time>
      </trkpt>
      <trkpt lat="43.44671" lon="6.06799">
        <ele>283</ele>
        <time>2015-12-09T13:46:30Z</time>
      </trkpt>
      <trkpt lat="43.44671" lon="6.06799">
        <ele>283</ele>
        <time>2015-12-09T13:46:36Z</time>
      </trkpt>
      <trkpt lat="43.44671" lon="6.06798">
        <ele>282.79998779297</ele>
        <time>2015-12-09T13:46:56Z</time>
      </trkpt>
      <trkpt lat="43.44671" lon="6.06798">
        <ele>282.60000610352</ele>
        <time>2015-12-09T13:47:12Z</time>
      </trkpt>
      <trkpt lat="43.44671" lon="6.06798">
        <ele>282.79998779297</ele>
        <time>2015-12-09T13:47:16Z</time>
      </trkpt>
      <trkpt lat="43.44672" lon="6.06798">
        <ele>282.79998779297</ele>
        <time>2015-12-09T13:47:18Z</time>
      </trkpt>
      <trkpt lat="43.44674" lon="6.06797">
        <ele>283</ele>
        <time>2015-12-09T13:47:20Z</time>
      </trkpt>
      <trkpt lat="43.44676" lon="6.06796">
        <ele>282.79998779297</ele>
        <time>2015-12-09T13:47:22Z</time>
      </trkpt>
      <trkpt lat="43.44677" lon="6.06796">
        <ele>282.79998779297</ele>
        <time>2015-12-09T13:47:23Z</time>
      </trkpt>
      <trkpt lat="43.4468" lon="6.06796">
        <ele>282.79998779297</ele>
        <time>2015-12-09T13:47:24Z</time>
      </trkpt>
      <trkpt lat="43.44683" lon="6.06796">
        <ele>283</ele>
        <time>2015-12-09T13:47:26Z</time>
      </trkpt>
      <trkpt lat="43.44685" lon="6.06796">
        <ele>282.79998779297</ele>
        <time>2015-12-09T13:47:27Z</time>
      </trkpt>
      <trkpt lat="43.44687" lon="6.06796">
        <ele>283</ele>
        <time>2015-12-09T13:47:28Z</time>
      </trkpt>
      <trkpt lat="43.44694" lon="6.06797">
        <ele>283</ele>
        <time>2015-12-09T13:47:32Z</time>
      </trkpt>
      <trkpt lat="43.44697" lon="6.06797">
        <ele>283</ele>
        <time>2015-12-09T13:47:34Z</time>
      </trkpt>
      <trkpt lat="43.447" lon="6.06797">
        <ele>283</ele>
        <time>2015-12-09T13:47:36Z</time>
      </trkpt>
      <trkpt lat="43.44703" lon="6.06798">
        <ele>283.20001220703</ele>
        <time>2015-12-09T13:47:38Z</time>
      </trkpt>
      <trkpt lat="43.4471" lon="6.06799">
        <ele>284.20001220703</ele>
        <time>2015-12-09T13:47:42Z</time>
      </trkpt>
      <trkpt lat="43.44711" lon="6.06799">
        <ele>284.20001220703</ele>
        <time>2015-12-09T13:47:43Z</time>
      </trkpt>
      <trkpt lat="43.44713" lon="6.06799">
        <ele>284.39999389648</ele>
        <time>2015-12-09T13:47:44Z</time>
      </trkpt>
      <trkpt lat="43.44715" lon="6.06798">
        <ele>284.60000610352</ele>
        <time>2015-12-09T13:47:46Z</time>
      </trkpt>
      <trkpt lat="43.44718" lon="6.06796">
        <ele>284.79998779297</ele>
        <time>2015-12-09T13:47:48Z</time>
      </trkpt>
      <trkpt lat="43.44725" lon="6.06791">
        <ele>285.39999389648</ele>
        <time>2015-12-09T13:47:54Z</time>
      </trkpt>
      <trkpt lat="43.44728" lon="6.06789">
        <ele>285.60000610352</ele>
        <time>2015-12-09T13:47:56Z</time>
      </trkpt>
      <trkpt lat="43.44729" lon="6.06788">
        <ele>285.60000610352</ele>
        <time>2015-12-09T13:47:57Z</time>
      </trkpt>
      <trkpt lat="43.44732" lon="6.06786">
        <ele>285.79998779297</ele>
        <time>2015-12-09T13:47:58Z</time>
      </trkpt>
      <trkpt lat="43.44735" lon="6.06783">
        <ele>286</ele>
        <time>2015-12-09T13:48:00Z</time>
      </trkpt>
      <trkpt lat="43.44737" lon="6.06781">
        <ele>286.60000610352</ele>
        <time>2015-12-09T13:48:02Z</time>
      </trkpt>
      <trkpt lat="43.4474" lon="6.0678">
        <ele>287</ele>
        <time>2015-12-09T13:48:04Z</time>
      </trkpt>
      <trkpt lat="43.44741" lon="6.06779">
        <ele>287</ele>
        <time>2015-12-09T13:48:05Z</time>
      </trkpt>
      <trkpt lat="43.44743" lon="6.06779">
        <ele>287</ele>
        <time>2015-12-09T13:48:06Z</time>
      </trkpt>
      <trkpt lat="43.44746" lon="6.06778">
        <ele>287.20001220703</ele>
        <time>2015-12-09T13:48:08Z</time>
      </trkpt>
      <trkpt lat="43.4475" lon="6.06778">
        <ele>287.39999389648</ele>
        <time>2015-12-09T13:48:11Z</time>
      </trkpt>
      <trkpt lat="43.44751" lon="6.06777">
        <ele>287.60000610352</ele>
        <time>2015-12-09T13:48:12Z</time>
      </trkpt>
      <trkpt lat="43.44754" lon="6.06775">
        <ele>287.60000610352</ele>
        <time>2015-12-09T13:48:14Z</time>
      </trkpt>
      <trkpt lat="43.44757" lon="6.06773">
        <ele>287.60000610352</ele>
        <time>2015-12-09T13:48:16Z</time>
      </trkpt>
      <trkpt lat="43.44759" lon="6.06771">
        <ele>287.39999389648</ele>
        <time>2015-12-09T13:48:18Z</time>
      </trkpt>
      <trkpt lat="43.44761" lon="6.06768">
        <ele>287.20001220703</ele>
        <time>2015-12-09T13:48:20Z</time>
      </trkpt>
      <trkpt lat="43.44762" lon="6.06765">
        <ele>287.39999389648</ele>
        <time>2015-12-09T13:48:22Z</time>
      </trkpt>
      <trkpt lat="43.44763" lon="6.06762">
        <ele>287.39999389648</ele>
        <time>2015-12-09T13:48:24Z</time>
      </trkpt>
      <trkpt lat="43.44763" lon="6.06756">
        <ele>287.39999389648</ele>
        <time>2015-12-09T13:48:27Z</time>
      </trkpt>
      <trkpt lat="43.44763" lon="6.06754">
        <ele>287.60000610352</ele>
        <time>2015-12-09T13:48:28Z</time>
      </trkpt>
      <trkpt lat="43.44764" lon="6.06751">
        <ele>288</ele>
        <time>2015-12-09T13:48:30Z</time>
      </trkpt>
      <trkpt lat="43.44765" lon="6.06746">
        <ele>288</ele>
        <time>2015-12-09T13:48:32Z</time>
      </trkpt>
      <trkpt lat="43.44765" lon="6.06742">
        <ele>288.20001220703</ele>
        <time>2015-12-09T13:48:34Z</time>
      </trkpt>
      <trkpt lat="43.44765" lon="6.06738">
        <ele>288.79998779297</ele>
        <time>2015-12-09T13:48:36Z</time>
      </trkpt>
      <trkpt lat="43.44765" lon="6.06734">
        <ele>289.20001220703</ele>
        <time>2015-12-09T13:48:38Z</time>
      </trkpt>
      <trkpt lat="43.44765" lon="6.0673">
        <ele>289.39999389648</ele>
        <time>2015-12-09T13:48:40Z</time>
      </trkpt>
      <trkpt lat="43.44766" lon="6.06727">
        <ele>289.79998779297</ele>
        <time>2015-12-09T13:48:42Z</time>
      </trkpt>
      <trkpt lat="43.44768" lon="6.06719">
        <ele>290</ele>
        <time>2015-12-09T13:48:46Z</time>
      </trkpt>
      <trkpt lat="43.44769" lon="6.06715">
        <ele>290.60000610352</ele>
        <time>2015-12-09T13:48:48Z</time>
      </trkpt>
      <trkpt lat="43.4477" lon="6.06712">
        <ele>290.60000610352</ele>
        <time>2015-12-09T13:48:50Z</time>
      </trkpt>
      <trkpt lat="43.44771" lon="6.06708">
        <ele>290.79998779297</ele>
        <time>2015-12-09T13:48:52Z</time>
      </trkpt>
      <trkpt lat="43.44773" lon="6.06703">
        <ele>291</ele>
        <time>2015-12-09T13:48:54Z</time>
      </trkpt>
      <trkpt lat="43.44773" lon="6.06702">
        <ele>291</ele>
        <time>2015-12-09T13:48:55Z</time>
      </trkpt>
      <trkpt lat="43.44778" lon="6.06699">
        <ele>291.39999389648</ele>
        <time>2015-12-09T13:48:58Z</time>
      </trkpt>
      <trkpt lat="43.44781" lon="6.06697">
        <ele>292.20001220703</ele>
        <time>2015-12-09T13:49:01Z</time>
      </trkpt>
      <trkpt lat="43.44783" lon="6.06696">
        <ele>292.39999389648</ele>
        <time>2015-12-09T13:49:02Z</time>
      </trkpt>
      <trkpt lat="43.44785" lon="6.06693">
        <ele>292.79998779297</ele>
        <time>2015-12-09T13:49:04Z</time>
      </trkpt>
      <trkpt lat="43.44788" lon="6.06694">
        <ele>292.79998779297</ele>
        <time>2015-12-09T13:49:06Z</time>
      </trkpt>
      <trkpt lat="43.44791" lon="6.06696">
        <ele>292.79998779297</ele>
        <time>2015-12-09T13:49:08Z</time>
      </trkpt>
      <trkpt lat="43.44794" lon="6.06697">
        <ele>292.60000610352</ele>
        <time>2015-12-09T13:49:10Z</time>
      </trkpt>
      <trkpt lat="43.44798" lon="6.06698">
        <ele>292.60000610352</ele>
        <time>2015-12-09T13:49:12Z</time>
      </trkpt>
      <trkpt lat="43.44802" lon="6.067">
        <ele>292.39999389648</ele>
        <time>2015-12-09T13:49:14Z</time>
      </trkpt>
      <trkpt lat="43.44805" lon="6.06702">
        <ele>292.60000610352</ele>
        <time>2015-12-09T13:49:16Z</time>
      </trkpt>
      <trkpt lat="43.44809" lon="6.06705">
        <ele>292.60000610352</ele>
        <time>2015-12-09T13:49:19Z</time>
      </trkpt>
      <trkpt lat="43.44811" lon="6.06705">
        <ele>292.39999389648</ele>
        <time>2015-12-09T13:49:20Z</time>
      </trkpt>
      <trkpt lat="43.44815" lon="6.06704">
        <ele>292.39999389648</ele>
        <time>2015-12-09T13:49:22Z</time>
      </trkpt>
      <trkpt lat="43.44818" lon="6.06703">
        <ele>292.79998779297</ele>
        <time>2015-12-09T13:49:24Z</time>
      </trkpt>
      <trkpt lat="43.4482" lon="6.06703">
        <ele>293.20001220703</ele>
        <time>2015-12-09T13:49:26Z</time>
      </trkpt>
      <trkpt lat="43.44821" lon="6.06703">
        <ele>293.60000610352</ele>
        <time>2015-12-09T13:49:28Z</time>
      </trkpt>
      <trkpt lat="43.44822" lon="6.06704">
        <ele>293.60000610352</ele>
        <time>2015-12-09T13:49:30Z</time>
      </trkpt>
      <trkpt lat="43.44823" lon="6.06704">
        <ele>293.79998779297</ele>
        <time>2015-12-09T13:49:34Z</time>
      </trkpt>
      <trkpt lat="43.44823" lon="6.06704">
        <ele>294.20001220703</ele>
        <time>2015-12-09T13:49:36Z</time>
      </trkpt>
      <trkpt lat="43.44825" lon="6.06705">
        <ele>294.20001220703</ele>
        <time>2015-12-09T13:49:38Z</time>
      </trkpt>
      <trkpt lat="43.44827" lon="6.06705">
        <ele>294.39999389648</ele>
        <time>2015-12-09T13:49:40Z</time>
      </trkpt>
      <trkpt lat="43.44828" lon="6.06705">
        <ele>294.39999389648</ele>
        <time>2015-12-09T13:49:42Z</time>
      </trkpt>
      <trkpt lat="43.44829" lon="6.06705">
        <ele>294.60000610352</ele>
        <time>2015-12-09T13:49:44Z</time>
      </trkpt>
      <trkpt lat="43.44829" lon="6.06705">
        <ele>294.60000610352</ele>
        <time>2015-12-09T13:49:46Z</time>
      </trkpt>
      <trkpt lat="43.4483" lon="6.06705">
        <ele>294.60000610352</ele>
        <time>2015-12-09T13:49:50Z</time>
      </trkpt>
      <trkpt lat="43.4483" lon="6.06705">
        <ele>294.39999389648</ele>
        <time>2015-12-09T13:49:54Z</time>
      </trkpt>
      <trkpt lat="43.4483" lon="6.06705">
        <ele>294.39999389648</ele>
        <time>2015-12-09T13:49:56Z</time>
      </trkpt>
      <trkpt lat="43.4483" lon="6.06705">
        <ele>294.60000610352</ele>
        <time>2015-12-09T13:49:58Z</time>
      </trkpt>
      <trkpt lat="43.44833" lon="6.06706">
        <ele>294.39999389648</ele>
        <time>2015-12-09T13:50:00Z</time>
      </trkpt>
      <trkpt lat="43.44835" lon="6.06706">
        <ele>294.39999389648</ele>
        <time>2015-12-09T13:50:02Z</time>
      </trkpt>
      <trkpt lat="43.44838" lon="6.06707">
        <ele>294.39999389648</ele>
        <time>2015-12-09T13:50:04Z</time>
      </trkpt>
      <trkpt lat="43.44841" lon="6.0671">
        <ele>294.39999389648</ele>
        <time>2015-12-09T13:50:06Z</time>
      </trkpt>
      <trkpt lat="43.44842" lon="6.06711">
        <ele>294.39999389648</ele>
        <time>2015-12-09T13:50:07Z</time>
      </trkpt>
      <trkpt lat="43.44846" lon="6.06712">
        <ele>294.39999389648</ele>
        <time>2015-12-09T13:50:10Z</time>
      </trkpt>
      <trkpt lat="43.44849" lon="6.06713">
        <ele>294.39999389648</ele>
        <time>2015-12-09T13:50:12Z</time>
      </trkpt>
      <trkpt lat="43.44852" lon="6.06716">
        <ele>294.20001220703</ele>
        <time>2015-12-09T13:50:14Z</time>
      </trkpt>
      <trkpt lat="43.44853" lon="6.06716">
        <ele>294.39999389648</ele>
        <time>2015-12-09T13:50:15Z</time>
      </trkpt>
      <trkpt lat="43.44853" lon="6.06716">
        <ele>294.79998779297</ele>
        <time>2015-12-09T13:50:16Z</time>
      </trkpt>
      <trkpt lat="43.44854" lon="6.06716">
        <ele>295</ele>
        <time>2015-12-09T13:50:18Z</time>
      </trkpt>
      <trkpt lat="43.44855" lon="6.06716">
        <ele>295.39999389648</ele>
        <time>2015-12-09T13:50:19Z</time>
      </trkpt>
      <trkpt lat="43.44855" lon="6.06716">
        <ele>295.39999389648</ele>
        <time>2015-12-09T13:50:20Z</time>
      </trkpt>
      <trkpt lat="43.44858" lon="6.06716">
        <ele>295.39999389648</ele>
        <time>2015-12-09T13:50:22Z</time>
      </trkpt>
      <trkpt lat="43.4486" lon="6.06715">
        <ele>295.60000610352</ele>
        <time>2015-12-09T13:50:24Z</time>
      </trkpt>
      <trkpt lat="43.44863" lon="6.06715">
        <ele>295.79998779297</ele>
        <time>2015-12-09T13:50:26Z</time>
      </trkpt>
      <trkpt lat="43.44866" lon="6.06714">
        <ele>296</ele>
        <time>2015-12-09T13:50:28Z</time>
      </trkpt>
      <trkpt lat="43.44869" lon="6.06713">
        <ele>296.39999389648</ele>
        <time>2015-12-09T13:50:30Z</time>
      </trkpt>
      <trkpt lat="43.44872" lon="6.06712">
        <ele>296.60000610352</ele>
        <time>2015-12-09T13:50:32Z</time>
      </trkpt>
      <trkpt lat="43.44873" lon="6.06711">
        <ele>296.60000610352</ele>
        <time>2015-12-09T13:50:33Z</time>
      </trkpt>
      <trkpt lat="43.44876" lon="6.06711">
        <ele>296.60000610352</ele>
        <time>2015-12-09T13:50:34Z</time>
      </trkpt>
      <trkpt lat="43.4488" lon="6.06711">
        <ele>296.79998779297</ele>
        <time>2015-12-09T13:50:36Z</time>
      </trkpt>
      <trkpt lat="43.44881" lon="6.06711">
        <ele>296.79998779297</ele>
        <time>2015-12-09T13:50:37Z</time>
      </trkpt>
      <trkpt lat="43.44883" lon="6.06711">
        <ele>297</ele>
        <time>2015-12-09T13:50:38Z</time>
      </trkpt>
      <trkpt lat="43.44886" lon="6.06711">
        <ele>297.39999389648</ele>
        <time>2015-12-09T13:50:40Z</time>
      </trkpt>
      <trkpt lat="43.44894" lon="6.06707">
        <ele>299.20001220703</ele>
        <time>2015-12-09T13:50:46Z</time>
      </trkpt>
      <trkpt lat="43.44897" lon="6.06705">
        <ele>300</ele>
        <time>2015-12-09T13:50:48Z</time>
      </trkpt>
      <trkpt lat="43.44899" lon="6.06704">
        <ele>300.39999389648</ele>
        <time>2015-12-09T13:50:50Z</time>
      </trkpt>
      <trkpt lat="43.44902" lon="6.06705">
        <ele>301</ele>
        <time>2015-12-09T13:50:52Z</time>
      </trkpt>
      <trkpt lat="43.44903" lon="6.06708">
        <ele>301</ele>
        <time>2015-12-09T13:50:54Z</time>
      </trkpt>
      <trkpt lat="43.44904" lon="6.0671">
        <ele>301</ele>
        <time>2015-12-09T13:50:56Z</time>
      </trkpt>
      <trkpt lat="43.44904" lon="6.0671">
        <ele>301</ele>
        <time>2015-12-09T13:50:58Z</time>
      </trkpt>
      <trkpt lat="43.44904" lon="6.0671">
        <ele>301</ele>
        <time>2015-12-09T13:51:00Z</time>
      </trkpt>
      <trkpt lat="43.44904" lon="6.0671">
        <ele>301</ele>
        <time>2015-12-09T13:51:01Z</time>
      </trkpt>
      <trkpt lat="43.44904" lon="6.0671">
        <ele>301</ele>
        <time>2015-12-09T13:51:04Z</time>
      </trkpt>
      <trkpt lat="43.44904" lon="6.0671">
        <ele>301</ele>
        <time>2015-12-09T13:51:08Z</time>
      </trkpt>
      <trkpt lat="43.44904" lon="6.0671">
        <ele>300.79998779297</ele>
        <time>2015-12-09T13:51:22Z</time>
      </trkpt>
      <trkpt lat="43.44904" lon="6.0671">
        <ele>300.79998779297</ele>
        <time>2015-12-09T13:51:32Z</time>
      </trkpt>
      <trkpt lat="43.44904" lon="6.0671">
        <ele>301</ele>
        <time>2015-12-09T13:51:42Z</time>
      </trkpt>
      <trkpt lat="43.44904" lon="6.0671">
        <ele>301.20001220703</ele>
        <time>2015-12-09T13:52:16Z</time>
      </trkpt>
      <trkpt lat="43.44904" lon="6.0671">
        <ele>301</ele>
        <time>2015-12-09T13:52:26Z</time>
      </trkpt>
      <trkpt lat="43.44904" lon="6.0671">
        <ele>301.20001220703</ele>
        <time>2015-12-09T13:52:32Z</time>
      </trkpt>
      <trkpt lat="43.44904" lon="6.0671">
        <ele>301.20001220703</ele>
        <time>2015-12-09T13:52:37Z</time>
      </trkpt>
      <trkpt lat="43.44904" lon="6.0671">
        <ele>301</ele>
        <time>2015-12-09T13:52:40Z</time>
      </trkpt>
      <trkpt lat="43.44904" lon="6.0671">
        <ele>301</ele>
        <time>2015-12-09T13:52:42Z</time>
      </trkpt>
      <trkpt lat="43.44904" lon="6.0671">
        <ele>301.20001220703</ele>
        <time>2015-12-09T13:52:44Z</time>
      </trkpt>
      <trkpt lat="43.44904" lon="6.0671">
        <ele>301.20001220703</ele>
        <time>2015-12-09T13:52:50Z</time>
      </trkpt>
      <trkpt lat="43.44904" lon="6.0671">
        <ele>301.20001220703</ele>
        <time>2015-12-09T13:53:04Z</time>
      </trkpt>
      <trkpt lat="43.44904" lon="6.0671">
        <ele>301.20001220703</ele>
        <time>2015-12-09T13:53:08Z</time>
      </trkpt>
      <trkpt lat="43.44904" lon="6.0671">
        <ele>301.20001220703</ele>
        <time>2015-12-09T13:53:10Z</time>
      </trkpt>
      <trkpt lat="43.44903" lon="6.0671">
        <ele>301.20001220703</ele>
        <time>2015-12-09T13:53:12Z</time>
      </trkpt>
      <trkpt lat="43.44903" lon="6.0671">
        <ele>301.20001220703</ele>
        <time>2015-12-09T13:53:14Z</time>
      </trkpt>
      <trkpt lat="43.44903" lon="6.0671">
        <ele>301.39999389648</ele>
        <time>2015-12-09T13:53:16Z</time>
      </trkpt>
      <trkpt lat="43.44903" lon="6.0671">
        <ele>301.39999389648</ele>
        <time>2015-12-09T13:53:20Z</time>
      </trkpt>
      <trkpt lat="43.44903" lon="6.0671">
        <ele>301.60000610352</ele>
        <time>2015-12-09T13:53:24Z</time>
      </trkpt>
      <trkpt lat="43.44903" lon="6.0671">
        <ele>301.39999389648</ele>
        <time>2015-12-09T13:53:36Z</time>
      </trkpt>
      <trkpt lat="43.44903" lon="6.0671">
        <ele>301.39999389648</ele>
        <time>2015-12-09T13:53:38Z</time>
      </trkpt>
      <trkpt lat="43.44903" lon="6.0671">
        <ele>301.39999389648</ele>
        <time>2015-12-09T13:53:44Z</time>
      </trkpt>
      <trkpt lat="43.44903" lon="6.0671">
        <ele>301.39999389648</ele>
        <time>2015-12-09T13:53:56Z</time>
      </trkpt>
      <trkpt lat="43.44904" lon="6.06713">
        <ele>301.20001220703</ele>
        <time>2015-12-09T13:53:58Z</time>
      </trkpt>
      <trkpt lat="43.44904" lon="6.06717">
        <ele>301.39999389648</ele>
        <time>2015-12-09T13:54:00Z</time>
      </trkpt>
      <trkpt lat="43.44905" lon="6.06719">
        <ele>301.39999389648</ele>
        <time>2015-12-09T13:54:01Z</time>
      </trkpt>
      <trkpt lat="43.44906" lon="6.06721">
        <ele>301.39999389648</ele>
        <time>2015-12-09T13:54:02Z</time>
      </trkpt>
      <trkpt lat="43.44907" lon="6.06725">
        <ele>301.60000610352</ele>
        <time>2015-12-09T13:54:04Z</time>
      </trkpt>
      <trkpt lat="43.44909" lon="6.06728">
        <ele>301.79998779297</ele>
        <time>2015-12-09T13:54:05Z</time>
      </trkpt>
      <trkpt lat="43.4491" lon="6.06729">
        <ele>302.20001220703</ele>
        <time>2015-12-09T13:54:06Z</time>
      </trkpt>
      <trkpt lat="43.44912" lon="6.06732">
        <ele>302.39999389648</ele>
        <time>2015-12-09T13:54:08Z</time>
      </trkpt>
      <trkpt lat="43.44913" lon="6.06733">
        <ele>302.20001220703</ele>
        <time>2015-12-09T13:54:09Z</time>
      </trkpt>
      <trkpt lat="43.44917" lon="6.06731">
        <ele>302.39999389648</ele>
        <time>2015-12-09T13:54:11Z</time>
      </trkpt>
      <trkpt lat="43.4492" lon="6.0673">
        <ele>302.39999389648</ele>
        <time>2015-12-09T13:54:13Z</time>
      </trkpt>
      <trkpt lat="43.44922" lon="6.06729">
        <ele>302.39999389648</ele>
        <time>2015-12-09T13:54:14Z</time>
      </trkpt>
      <trkpt lat="43.44924" lon="6.06728">
        <ele>302.39999389648</ele>
        <time>2015-12-09T13:54:15Z</time>
      </trkpt>
      <trkpt lat="43.44927" lon="6.06727">
        <ele>302.39999389648</ele>
        <time>2015-12-09T13:54:17Z</time>
      </trkpt>
      <trkpt lat="43.44932" lon="6.06728">
        <ele>302.39999389648</ele>
        <time>2015-12-09T13:54:19Z</time>
      </trkpt>
      <trkpt lat="43.44937" lon="6.06728">
        <ele>301.79998779297</ele>
        <time>2015-12-09T13:54:21Z</time>
      </trkpt>
      <trkpt lat="43.44939" lon="6.06728">
        <ele>302.20001220703</ele>
        <time>2015-12-09T13:54:22Z</time>
      </trkpt>
      <trkpt lat="43.44941" lon="6.06727">
        <ele>302.39999389648</ele>
        <time>2015-12-09T13:54:23Z</time>
      </trkpt>
      <trkpt lat="43.44944" lon="6.06726">
        <ele>302.39999389648</ele>
        <time>2015-12-09T13:54:25Z</time>
      </trkpt>
      <trkpt lat="43.44952" lon="6.06723">
        <ele>302.79998779297</ele>
        <time>2015-12-09T13:54:29Z</time>
      </trkpt>
      <trkpt lat="43.44955" lon="6.06722">
        <ele>302.79998779297</ele>
        <time>2015-12-09T13:54:31Z</time>
      </trkpt>
      <trkpt lat="43.44957" lon="6.06721">
        <ele>303</ele>
        <time>2015-12-09T13:54:32Z</time>
      </trkpt>
      <trkpt lat="43.44958" lon="6.0672">
        <ele>303.39999389648</ele>
        <time>2015-12-09T13:54:33Z</time>
      </trkpt>
      <trkpt lat="43.44966" lon="6.06717">
        <ele>304</ele>
        <time>2015-12-09T13:54:37Z</time>
      </trkpt>
      <trkpt lat="43.44968" lon="6.06716">
        <ele>304.20001220703</ele>
        <time>2015-12-09T13:54:38Z</time>
      </trkpt>
      <trkpt lat="43.4497" lon="6.06715">
        <ele>304.20001220703</ele>
        <time>2015-12-09T13:54:39Z</time>
      </trkpt>
      <trkpt lat="43.44973" lon="6.06715">
        <ele>304.79998779297</ele>
        <time>2015-12-09T13:54:41Z</time>
      </trkpt>
      <trkpt lat="43.44975" lon="6.06713">
        <ele>305.20001220703</ele>
        <time>2015-12-09T13:54:43Z</time>
      </trkpt>
      <trkpt lat="43.44975" lon="6.06713">
        <ele>305.20001220703</ele>
        <time>2015-12-09T13:54:44Z</time>
      </trkpt>
      <trkpt lat="43.44975" lon="6.06713">
        <ele>305.20001220703</ele>
        <time>2015-12-09T13:54:45Z</time>
      </trkpt>
      <trkpt lat="43.44975" lon="6.06713">
        <ele>305.39999389648</ele>
        <time>2015-12-09T13:54:47Z</time>
      </trkpt>
      <trkpt lat="43.44975" lon="6.06712">
        <ele>305.39999389648</ele>
        <time>2015-12-09T13:54:49Z</time>
      </trkpt>
      <trkpt lat="43.44975" lon="6.06712">
        <ele>305.39999389648</ele>
        <time>2015-12-09T13:54:51Z</time>
      </trkpt>
      <trkpt lat="43.44975" lon="6.06712">
        <ele>305.39999389648</ele>
        <time>2015-12-09T13:54:57Z</time>
      </trkpt>
      <trkpt lat="43.44975" lon="6.06712">
        <ele>305.39999389648</ele>
        <time>2015-12-09T13:54:59Z</time>
      </trkpt>
      <trkpt lat="43.44975" lon="6.06712">
        <ele>305.20001220703</ele>
        <time>2015-12-09T13:55:01Z</time>
      </trkpt>
      <trkpt lat="43.44974" lon="6.06712">
        <ele>305.39999389648</ele>
        <time>2015-12-09T13:55:05Z</time>
      </trkpt>
      <trkpt lat="43.44974" lon="6.06712">
        <ele>305.60000610352</ele>
        <time>2015-12-09T13:55:07Z</time>
      </trkpt>
      <trkpt lat="43.44974" lon="6.06712">
        <ele>305.39999389648</ele>
        <time>2015-12-09T13:55:09Z</time>
      </trkpt>
      <trkpt lat="43.44972" lon="6.06714">
        <ele>305.39999389648</ele>
        <time>2015-12-09T13:55:10Z</time>
      </trkpt>
      <trkpt lat="43.44971" lon="6.06715">
        <ele>305.20001220703</ele>
        <time>2015-12-09T13:55:11Z</time>
      </trkpt>
      <trkpt lat="43.44967" lon="6.06717">
        <ele>304.79998779297</ele>
        <time>2015-12-09T13:55:12Z</time>
      </trkpt>
      <trkpt lat="43.44963" lon="6.06718">
        <ele>304.20001220703</ele>
        <time>2015-12-09T13:55:13Z</time>
      </trkpt>
      <trkpt lat="43.44955" lon="6.06721">
        <ele>303.20001220703</ele>
        <time>2015-12-09T13:55:15Z</time>
      </trkpt>
      <trkpt lat="43.44949" lon="6.06724">
        <ele>303</ele>
        <time>2015-12-09T13:55:16Z</time>
      </trkpt>
      <trkpt lat="43.44945" lon="6.06726">
        <ele>303</ele>
        <time>2015-12-09T13:55:17Z</time>
      </trkpt>
      <trkpt lat="43.44939" lon="6.06726">
        <ele>302.39999389648</ele>
        <time>2015-12-09T13:55:18Z</time>
      </trkpt>
      <trkpt lat="43.44935" lon="6.06727">
        <ele>301.79998779297</ele>
        <time>2015-12-09T13:55:19Z</time>
      </trkpt>
      <trkpt lat="43.44931" lon="6.06727">
        <ele>301.60000610352</ele>
        <time>2015-12-09T13:55:20Z</time>
      </trkpt>
      <trkpt lat="43.44927" lon="6.06728">
        <ele>301.60000610352</ele>
        <time>2015-12-09T13:55:21Z</time>
      </trkpt>
      <trkpt lat="43.44921" lon="6.06731">
        <ele>302</ele>
        <time>2015-12-09T13:55:23Z</time>
      </trkpt>
      <trkpt lat="43.44916" lon="6.06733">
        <ele>302.20001220703</ele>
        <time>2015-12-09T13:55:25Z</time>
      </trkpt>
      <trkpt lat="43.44911" lon="6.06733">
        <ele>302.60000610352</ele>
        <time>2015-12-09T13:55:27Z</time>
      </trkpt>
      <trkpt lat="43.44909" lon="6.06731">
        <ele>302.20001220703</ele>
        <time>2015-12-09T13:55:29Z</time>
      </trkpt>
      <trkpt lat="43.44908" lon="6.06729">
        <ele>302.20001220703</ele>
        <time>2015-12-09T13:55:31Z</time>
      </trkpt>
      <trkpt lat="43.44905" lon="6.06725">
        <ele>301.79998779297</ele>
        <time>2015-12-09T13:55:33Z</time>
      </trkpt>
      <trkpt lat="43.44904" lon="6.06718">
        <ele>301.60000610352</ele>
        <time>2015-12-09T13:55:35Z</time>
      </trkpt>
      <trkpt lat="43.44903" lon="6.06715">
        <ele>301.79998779297</ele>
        <time>2015-12-09T13:55:36Z</time>
      </trkpt>
      <trkpt lat="43.44903" lon="6.06714">
        <ele>301.60000610352</ele>
        <time>2015-12-09T13:55:37Z</time>
      </trkpt>
      <trkpt lat="43.44902" lon="6.06713">
        <ele>301.60000610352</ele>
        <time>2015-12-09T13:55:39Z</time>
      </trkpt>
      <trkpt lat="43.44902" lon="6.06713">
        <ele>301.60000610352</ele>
        <time>2015-12-09T13:55:41Z</time>
      </trkpt>
      <trkpt lat="43.44903" lon="6.06713">
        <ele>301.79998779297</ele>
        <time>2015-12-09T13:55:43Z</time>
      </trkpt>
      <trkpt lat="43.44902" lon="6.06713">
        <ele>301.39999389648</ele>
        <time>2015-12-09T13:55:45Z</time>
      </trkpt>
      <trkpt lat="43.44902" lon="6.06713">
        <ele>301.20001220703</ele>
        <time>2015-12-09T13:55:46Z</time>
      </trkpt>
      <trkpt lat="43.44902" lon="6.06713">
        <ele>301.20001220703</ele>
        <time>2015-12-09T13:55:47Z</time>
      </trkpt>
      <trkpt lat="43.44902" lon="6.06713">
        <ele>301.20001220703</ele>
        <time>2015-12-09T13:55:49Z</time>
      </trkpt>
      <trkpt lat="43.44902" lon="6.06713">
        <ele>301.20001220703</ele>
        <time>2015-12-09T13:55:55Z</time>
      </trkpt>
      <trkpt lat="43.44902" lon="6.06713">
        <ele>301</ele>
        <time>2015-12-09T13:56:11Z</time>
      </trkpt>
      <trkpt lat="43.44902" lon="6.06713">
        <ele>301</ele>
        <time>2015-12-09T13:56:39Z</time>
      </trkpt>
      <trkpt lat="43.44902" lon="6.06713">
        <ele>301</ele>
        <time>2015-12-09T13:56:53Z</time>
      </trkpt>
      <trkpt lat="43.44902" lon="6.06713">
        <ele>301</ele>
        <time>2015-12-09T13:56:56Z</time>
      </trkpt>
      <trkpt lat="43.44902" lon="6.06713">
        <ele>301.20001220703</ele>
        <time>2015-12-09T13:57:03Z</time>
      </trkpt>
      <trkpt lat="43.44902" lon="6.06713">
        <ele>301</ele>
        <time>2015-12-09T13:57:05Z</time>
      </trkpt>
      <trkpt lat="43.44902" lon="6.06714">
        <ele>300.79998779297</ele>
        <time>2015-12-09T13:57:07Z</time>
      </trkpt>
      <trkpt lat="43.44902" lon="6.06714">
        <ele>301.20001220703</ele>
        <time>2015-12-09T13:57:11Z</time>
      </trkpt>
      <trkpt lat="43.44902" lon="6.06714">
        <ele>301</ele>
        <time>2015-12-09T13:57:19Z</time>
      </trkpt>
      <trkpt lat="43.44902" lon="6.06714">
        <ele>301.20001220703</ele>
        <time>2015-12-09T13:57:25Z</time>
      </trkpt>
      <trkpt lat="43.44902" lon="6.06714">
        <ele>300.79998779297</ele>
        <time>2015-12-09T13:57:31Z</time>
      </trkpt>
      <trkpt lat="43.44902" lon="6.06714">
        <ele>301</ele>
        <time>2015-12-09T13:57:33Z</time>
      </trkpt>
      <trkpt lat="43.44901" lon="6.06714">
        <ele>301.20001220703</ele>
        <time>2015-12-09T13:57:35Z</time>
      </trkpt>
      <trkpt lat="43.44901" lon="6.06714">
        <ele>301</ele>
        <time>2015-12-09T13:57:41Z</time>
      </trkpt>
      <trkpt lat="43.44901" lon="6.06714">
        <ele>301</ele>
        <time>2015-12-09T13:57:53Z</time>
      </trkpt>
      <trkpt lat="43.44901" lon="6.06714">
        <ele>300.79998779297</ele>
        <time>2015-12-09T13:58:01Z</time>
      </trkpt>
      <trkpt lat="43.44901" lon="6.06714">
        <ele>301</ele>
        <time>2015-12-09T13:58:03Z</time>
      </trkpt>
      <trkpt lat="43.44902" lon="6.06714">
        <ele>301</ele>
        <time>2015-12-09T13:58:05Z</time>
      </trkpt>
      <trkpt lat="43.44902" lon="6.06714">
        <ele>301</ele>
        <time>2015-12-09T13:58:07Z</time>
      </trkpt>
      <trkpt lat="43.44901" lon="6.06714">
        <ele>301</ele>
        <time>2015-12-09T13:58:09Z</time>
      </trkpt>
      <trkpt lat="43.44901" lon="6.06714">
        <ele>301</ele>
        <time>2015-12-09T13:58:11Z</time>
      </trkpt>
      <trkpt lat="43.44901" lon="6.06714">
        <ele>300.79998779297</ele>
        <time>2015-12-09T13:58:15Z</time>
      </trkpt>
      <trkpt lat="43.44901" lon="6.06714">
        <ele>301</ele>
        <time>2015-12-09T13:58:21Z</time>
      </trkpt>
      <trkpt lat="43.44901" lon="6.06714">
        <ele>301</ele>
        <time>2015-12-09T13:58:31Z</time>
      </trkpt>
      <trkpt lat="43.44901" lon="6.06714">
        <ele>301</ele>
        <time>2015-12-09T13:58:35Z</time>
      </trkpt>
      <trkpt lat="43.44902" lon="6.06714">
        <ele>300.79998779297</ele>
        <time>2015-12-09T13:58:37Z</time>
      </trkpt>
      <trkpt lat="43.44902" lon="6.06714">
        <ele>301</ele>
        <time>2015-12-09T13:58:41Z</time>
      </trkpt>
      <trkpt lat="43.44902" lon="6.06714">
        <ele>301.20001220703</ele>
        <time>2015-12-09T13:58:47Z</time>
      </trkpt>
      <trkpt lat="43.44902" lon="6.06713">
        <ele>301</ele>
        <time>2015-12-09T13:59:39Z</time>
      </trkpt>
      <trkpt lat="43.44902" lon="6.06713">
        <ele>301</ele>
        <time>2015-12-09T14:00:01Z</time>
      </trkpt>
      <trkpt lat="43.44902" lon="6.06713">
        <ele>301</ele>
        <time>2015-12-09T14:00:07Z</time>
      </trkpt>
      <trkpt lat="43.44902" lon="6.06713">
        <ele>301</ele>
        <time>2015-12-09T14:00:15Z</time>
      </trkpt>
      <trkpt lat="43.44902" lon="6.06713">
        <ele>301</ele>
        <time>2015-12-09T14:00:17Z</time>
      </trkpt>
      <trkpt lat="43.44902" lon="6.06713">
        <ele>301</ele>
        <time>2015-12-09T14:00:23Z</time>
      </trkpt>
      <trkpt lat="43.44902" lon="6.06713">
        <ele>301</ele>
        <time>2015-12-09T14:01:51Z</time>
      </trkpt>
      <trkpt lat="43.44902" lon="6.06713">
        <ele>301</ele>
        <time>2015-12-09T14:01:55Z</time>
      </trkpt>
      <trkpt lat="43.44902" lon="6.06713">
        <ele>300.79998779297</ele>
        <time>2015-12-09T14:01:57Z</time>
      </trkpt>
      <trkpt lat="43.44902" lon="6.06713">
        <ele>301</ele>
        <time>2015-12-09T14:01:59Z</time>
      </trkpt>
      <trkpt lat="43.44902" lon="6.06712">
        <ele>301.39999389648</ele>
        <time>2015-12-09T14:02:03Z</time>
      </trkpt>
      <trkpt lat="43.44902" lon="6.06713">
        <ele>301.39999389648</ele>
        <time>2015-12-09T14:02:05Z</time>
      </trkpt>
      <trkpt lat="43.44902" lon="6.06713">
        <ele>301.60000610352</ele>
        <time>2015-12-09T14:02:07Z</time>
      </trkpt>
      <trkpt lat="43.44902" lon="6.06713">
        <ele>301.79998779297</ele>
        <time>2015-12-09T14:02:09Z</time>
      </trkpt>
      <trkpt lat="43.44902" lon="6.06713">
        <ele>302.39999389648</ele>
        <time>2015-12-09T14:02:11Z</time>
      </trkpt>
      <trkpt lat="43.44902" lon="6.06713">
        <ele>301.39999389648</ele>
        <time>2015-12-09T14:02:19Z</time>
      </trkpt>
      <trkpt lat="43.44902" lon="6.06713">
        <ele>301.60000610352</ele>
        <time>2015-12-09T14:02:25Z</time>
      </trkpt>
      <trkpt lat="43.44902" lon="6.06713">
        <ele>301.20001220703</ele>
        <time>2015-12-09T14:02:27Z</time>
      </trkpt>
      <trkpt lat="43.44902" lon="6.06716">
        <ele>301.20001220703</ele>
        <time>2015-12-09T14:02:29Z</time>
      </trkpt>
      <trkpt lat="43.44904" lon="6.0672">
        <ele>301.39999389648</ele>
        <time>2015-12-09T14:02:31Z</time>
      </trkpt>
      <trkpt lat="43.44905" lon="6.06724">
        <ele>301.20001220703</ele>
        <time>2015-12-09T14:02:33Z</time>
      </trkpt>
      <trkpt lat="43.44907" lon="6.06729">
        <ele>301.79998779297</ele>
        <time>2015-12-09T14:02:35Z</time>
      </trkpt>
      <trkpt lat="43.4491" lon="6.06731">
        <ele>302</ele>
        <time>2015-12-09T14:02:37Z</time>
      </trkpt>
      <trkpt lat="43.44913" lon="6.06733">
        <ele>302.39999389648</ele>
        <time>2015-12-09T14:02:39Z</time>
      </trkpt>
      <trkpt lat="43.44917" lon="6.06732">
        <ele>302.60000610352</ele>
        <time>2015-12-09T14:02:41Z</time>
      </trkpt>
      <trkpt lat="43.44921" lon="6.0673">
        <ele>302.60000610352</ele>
        <time>2015-12-09T14:02:43Z</time>
      </trkpt>
      <trkpt lat="43.44926" lon="6.06728">
        <ele>302.60000610352</ele>
        <time>2015-12-09T14:02:45Z</time>
      </trkpt>
      <trkpt lat="43.44931" lon="6.06727">
        <ele>302.60000610352</ele>
        <time>2015-12-09T14:02:47Z</time>
      </trkpt>
      <trkpt lat="43.44938" lon="6.06727">
        <ele>302.39999389648</ele>
        <time>2015-12-09T14:02:49Z</time>
      </trkpt>
      <trkpt lat="43.44943" lon="6.06726">
        <ele>302.20001220703</ele>
        <time>2015-12-09T14:02:51Z</time>
      </trkpt>
      <trkpt lat="43.44947" lon="6.06725">
        <ele>302.39999389648</ele>
        <time>2015-12-09T14:02:53Z</time>
      </trkpt>
      <trkpt lat="43.4496" lon="6.06719">
        <ele>303.39999389648</ele>
        <time>2015-12-09T14:02:59Z</time>
      </trkpt>
      <trkpt lat="43.44963" lon="6.06717">
        <ele>303.79998779297</ele>
        <time>2015-12-09T14:03:01Z</time>
      </trkpt>
      <trkpt lat="43.44967" lon="6.06716">
        <ele>304.20001220703</ele>
        <time>2015-12-09T14:03:03Z</time>
      </trkpt>
      <trkpt lat="43.44969" lon="6.06715">
        <ele>304.39999389648</ele>
        <time>2015-12-09T14:03:04Z</time>
      </trkpt>
      <trkpt lat="43.4497" lon="6.06715">
        <ele>304.39999389648</ele>
        <time>2015-12-09T14:03:05Z</time>
      </trkpt>
      <trkpt lat="43.44972" lon="6.06713">
        <ele>304.79998779297</ele>
        <time>2015-12-09T14:03:07Z</time>
      </trkpt>
      <trkpt lat="43.44972" lon="6.06713">
        <ele>305.39999389648</ele>
        <time>2015-12-09T14:03:09Z</time>
      </trkpt>
      <trkpt lat="43.44973" lon="6.06713">
        <ele>305.39999389648</ele>
        <time>2015-12-09T14:03:10Z</time>
      </trkpt>
      <trkpt lat="43.44973" lon="6.06713">
        <ele>305.39999389648</ele>
        <time>2015-12-09T14:03:11Z</time>
      </trkpt>
      <trkpt lat="43.44973" lon="6.06713">
        <ele>305.60000610352</ele>
        <time>2015-12-09T14:03:14Z</time>
      </trkpt>
      <trkpt lat="43.44973" lon="6.06713">
        <ele>305.39999389648</ele>
        <time>2015-12-09T14:03:17Z</time>
      </trkpt>
      <trkpt lat="43.44973" lon="6.06713">
        <ele>305.60000610352</ele>
        <time>2015-12-09T14:03:19Z</time>
      </trkpt>
      <trkpt lat="43.44973" lon="6.06713">
        <ele>305.60000610352</ele>
        <time>2015-12-09T14:03:21Z</time>
      </trkpt>
      <trkpt lat="43.44973" lon="6.06713">
        <ele>305.60000610352</ele>
        <time>2015-12-09T14:03:23Z</time>
      </trkpt>
      <trkpt lat="43.44974" lon="6.06713">
        <ele>305.79998779297</ele>
        <time>2015-12-09T14:03:27Z</time>
      </trkpt>
      <trkpt lat="43.44974" lon="6.06713">
        <ele>305.79998779297</ele>
        <time>2015-12-09T14:03:29Z</time>
      </trkpt>
      <trkpt lat="43.44974" lon="6.06713">
        <ele>305.60000610352</ele>
        <time>2015-12-09T14:03:30Z</time>
      </trkpt>
      <trkpt lat="43.44974" lon="6.06713">
        <ele>305.60000610352</ele>
        <time>2015-12-09T14:03:33Z</time>
      </trkpt>
      <trkpt lat="43.44974" lon="6.06713">
        <ele>305.60000610352</ele>
        <time>2015-12-09T14:03:37Z</time>
      </trkpt>
      <trkpt lat="43.44974" lon="6.06713">
        <ele>305.79998779297</ele>
        <time>2015-12-09T14:03:39Z</time>
      </trkpt>
      <trkpt lat="43.44975" lon="6.06713">
        <ele>305.60000610352</ele>
        <time>2015-12-09T14:03:41Z</time>
      </trkpt>
      <trkpt lat="43.44975" lon="6.06713">
        <ele>305.60000610352</ele>
        <time>2015-12-09T14:03:45Z</time>
      </trkpt>
      <trkpt lat="43.44975" lon="6.06713">
        <ele>305.60000610352</ele>
        <time>2015-12-09T14:03:47Z</time>
      </trkpt>
      <trkpt lat="43.44975" lon="6.06713">
        <ele>305.39999389648</ele>
        <time>2015-12-09T14:03:51Z</time>
      </trkpt>
      <trkpt lat="43.44976" lon="6.06713">
        <ele>305.60000610352</ele>
        <time>2015-12-09T14:03:53Z</time>
      </trkpt>
      <trkpt lat="43.44979" lon="6.06714">
        <ele>305.39999389648</ele>
        <time>2015-12-09T14:03:55Z</time>
      </trkpt>
      <trkpt lat="43.44983" lon="6.06715">
        <ele>304.60000610352</ele>
        <time>2015-12-09T14:03:57Z</time>
      </trkpt>
      <trkpt lat="43.44986" lon="6.06716">
        <ele>304.39999389648</ele>
        <time>2015-12-09T14:03:58Z</time>
      </trkpt>
      <trkpt lat="43.44988" lon="6.06717">
        <ele>303.79998779297</ele>
        <time>2015-12-09T14:03:59Z</time>
      </trkpt>
      <trkpt lat="43.4499" lon="6.06719">
        <ele>303</ele>
        <time>2015-12-09T14:04:00Z</time>
      </trkpt>
      <trkpt lat="43.44991" lon="6.06722">
        <ele>302.20001220703</ele>
        <time>2015-12-09T14:04:01Z</time>
      </trkpt>
      <trkpt lat="43.44992" lon="6.06727">
        <ele>301.79998779297</ele>
        <time>2015-12-09T14:04:02Z</time>
      </trkpt>
      <trkpt lat="43.44993" lon="6.06732">
        <ele>301</ele>
        <time>2015-12-09T14:04:03Z</time>
      </trkpt>
      <trkpt lat="43.44993" lon="6.06738">
        <ele>300.39999389648</ele>
        <time>2015-12-09T14:04:04Z</time>
      </trkpt>
      <trkpt lat="43.44993" lon="6.06744">
        <ele>300.39999389648</ele>
        <time>2015-12-09T14:04:05Z</time>
      </trkpt>
      <trkpt lat="43.44992" lon="6.06752">
        <ele>300.60000610352</ele>
        <time>2015-12-09T14:04:07Z</time>
      </trkpt>
      <trkpt lat="43.44993" lon="6.06754">
        <ele>300.79998779297</ele>
        <time>2015-12-09T14:04:08Z</time>
      </trkpt>
      <trkpt lat="43.44993" lon="6.06756">
        <ele>300.79998779297</ele>
        <time>2015-12-09T14:04:09Z</time>
      </trkpt>
      <trkpt lat="43.44993" lon="6.06759">
        <ele>300.79998779297</ele>
        <time>2015-12-09T14:04:11Z</time>
      </trkpt>
      <trkpt lat="43.44994" lon="6.06761">
        <ele>300.79998779297</ele>
        <time>2015-12-09T14:04:12Z</time>
      </trkpt>
      <trkpt lat="43.44995" lon="6.06762">
        <ele>301</ele>
        <time>2015-12-09T14:04:13Z</time>
      </trkpt>
      <trkpt lat="43.44999" lon="6.06764">
        <ele>301</ele>
        <time>2015-12-09T14:04:15Z</time>
      </trkpt>
      <trkpt lat="43.45002" lon="6.06767">
        <ele>301.39999389648</ele>
        <time>2015-12-09T14:04:17Z</time>
      </trkpt>
      <trkpt lat="43.45005" lon="6.06767">
        <ele>301.39999389648</ele>
        <time>2015-12-09T14:04:19Z</time>
      </trkpt>
      <trkpt lat="43.45012" lon="6.06765">
        <ele>301.60000610352</ele>
        <time>2015-12-09T14:04:23Z</time>
      </trkpt>
      <trkpt lat="43.45015" lon="6.06764">
        <ele>302</ele>
        <time>2015-12-09T14:04:25Z</time>
      </trkpt>
      <trkpt lat="43.45019" lon="6.06763">
        <ele>302.20001220703</ele>
        <time>2015-12-09T14:04:27Z</time>
      </trkpt>
      <trkpt lat="43.45023" lon="6.06762">
        <ele>302.39999389648</ele>
        <time>2015-12-09T14:04:29Z</time>
      </trkpt>
      <trkpt lat="43.45026" lon="6.06761">
        <ele>302.60000610352</ele>
        <time>2015-12-09T14:04:31Z</time>
      </trkpt>
      <trkpt lat="43.4503" lon="6.06761">
        <ele>303</ele>
        <time>2015-12-09T14:04:33Z</time>
      </trkpt>
      <trkpt lat="43.45034" lon="6.0676">
        <ele>303</ele>
        <time>2015-12-09T14:04:35Z</time>
      </trkpt>
      <trkpt lat="43.45037" lon="6.06759">
        <ele>303.39999389648</ele>
        <time>2015-12-09T14:04:37Z</time>
      </trkpt>
      <trkpt lat="43.45041" lon="6.06758">
        <ele>303.79998779297</ele>
        <time>2015-12-09T14:04:39Z</time>
      </trkpt>
      <trkpt lat="43.45044" lon="6.06757">
        <ele>304</ele>
        <time>2015-12-09T14:04:41Z</time>
      </trkpt>
      <trkpt lat="43.45047" lon="6.06756">
        <ele>304.20001220703</ele>
        <time>2015-12-09T14:04:43Z</time>
      </trkpt>
      <trkpt lat="43.4505" lon="6.06756">
        <ele>304.79998779297</ele>
        <time>2015-12-09T14:04:45Z</time>
      </trkpt>
      <trkpt lat="43.45054" lon="6.06755">
        <ele>304.79998779297</ele>
        <time>2015-12-09T14:04:47Z</time>
      </trkpt>
      <trkpt lat="43.45057" lon="6.06754">
        <ele>305.39999389648</ele>
        <time>2015-12-09T14:04:49Z</time>
      </trkpt>
      <trkpt lat="43.4506" lon="6.06754">
        <ele>305.60000610352</ele>
        <time>2015-12-09T14:04:51Z</time>
      </trkpt>
      <trkpt lat="43.45061" lon="6.06753">
        <ele>306</ele>
        <time>2015-12-09T14:04:52Z</time>
      </trkpt>
      <trkpt lat="43.45066" lon="6.06753">
        <ele>306.39999389648</ele>
        <time>2015-12-09T14:04:55Z</time>
      </trkpt>
      <trkpt lat="43.45069" lon="6.06753">
        <ele>306.79998779297</ele>
        <time>2015-12-09T14:04:57Z</time>
      </trkpt>
      <trkpt lat="43.45073" lon="6.06754">
        <ele>307.39999389648</ele>
        <time>2015-12-09T14:04:59Z</time>
      </trkpt>
      <trkpt lat="43.45076" lon="6.06752">
        <ele>307.79998779297</ele>
        <time>2015-12-09T14:05:01Z</time>
      </trkpt>
      <trkpt lat="43.4508" lon="6.06751">
        <ele>307.79998779297</ele>
        <time>2015-12-09T14:05:03Z</time>
      </trkpt>
      <trkpt lat="43.45084" lon="6.06751">
        <ele>308</ele>
        <time>2015-12-09T14:05:05Z</time>
      </trkpt>
      <trkpt lat="43.45088" lon="6.06755">
        <ele>308.79998779297</ele>
        <time>2015-12-09T14:05:08Z</time>
      </trkpt>
      <trkpt lat="43.4509" lon="6.06755">
        <ele>309</ele>
        <time>2015-12-09T14:05:09Z</time>
      </trkpt>
      <trkpt lat="43.45096" lon="6.06759">
        <ele>309.20001220703</ele>
        <time>2015-12-09T14:05:13Z</time>
      </trkpt>
      <trkpt lat="43.45099" lon="6.06761">
        <ele>309.39999389648</ele>
        <time>2015-12-09T14:05:15Z</time>
      </trkpt>
      <trkpt lat="43.45102" lon="6.06763">
        <ele>309.79998779297</ele>
        <time>2015-12-09T14:05:17Z</time>
      </trkpt>
      <trkpt lat="43.45105" lon="6.06765">
        <ele>310</ele>
        <time>2015-12-09T14:05:19Z</time>
      </trkpt>
      <trkpt lat="43.45108" lon="6.06766">
        <ele>310.39999389648</ele>
        <time>2015-12-09T14:05:21Z</time>
      </trkpt>
      <trkpt lat="43.45111" lon="6.06767">
        <ele>310.20001220703</ele>
        <time>2015-12-09T14:05:23Z</time>
      </trkpt>
      <trkpt lat="43.45113" lon="6.06768">
        <ele>310.60000610352</ele>
        <time>2015-12-09T14:05:25Z</time>
      </trkpt>
      <trkpt lat="43.45116" lon="6.06769">
        <ele>311</ele>
        <time>2015-12-09T14:05:27Z</time>
      </trkpt>
      <trkpt lat="43.45117" lon="6.0677">
        <ele>311.20001220703</ele>
        <time>2015-12-09T14:05:28Z</time>
      </trkpt>
      <trkpt lat="43.45118" lon="6.0677">
        <ele>311.20001220703</ele>
        <time>2015-12-09T14:05:29Z</time>
      </trkpt>
      <trkpt lat="43.45121" lon="6.06771">
        <ele>311.39999389648</ele>
        <time>2015-12-09T14:05:31Z</time>
      </trkpt>
      <trkpt lat="43.45124" lon="6.06772">
        <ele>311.60000610352</ele>
        <time>2015-12-09T14:05:33Z</time>
      </trkpt>
      <trkpt lat="43.45127" lon="6.06772">
        <ele>312</ele>
        <time>2015-12-09T14:05:35Z</time>
      </trkpt>
      <trkpt lat="43.45131" lon="6.06773">
        <ele>312.20001220703</ele>
        <time>2015-12-09T14:05:37Z</time>
      </trkpt>
      <trkpt lat="43.45134" lon="6.06773">
        <ele>312.39999389648</ele>
        <time>2015-12-09T14:05:39Z</time>
      </trkpt>
      <trkpt lat="43.45137" lon="6.06774">
        <ele>312.60000610352</ele>
        <time>2015-12-09T14:05:41Z</time>
      </trkpt>
      <trkpt lat="43.4514" lon="6.06775">
        <ele>313.20001220703</ele>
        <time>2015-12-09T14:05:43Z</time>
      </trkpt>
      <trkpt lat="43.45146" lon="6.06776">
        <ele>313.60000610352</ele>
        <time>2015-12-09T14:05:47Z</time>
      </trkpt>
      <trkpt lat="43.4515" lon="6.06777">
        <ele>314.39999389648</ele>
        <time>2015-12-09T14:05:50Z</time>
      </trkpt>
      <trkpt lat="43.45155" lon="6.06778">
        <ele>314.60000610352</ele>
        <time>2015-12-09T14:05:53Z</time>
      </trkpt>
      <trkpt lat="43.45158" lon="6.06779">
        <ele>315</ele>
        <time>2015-12-09T14:05:55Z</time>
      </trkpt>
      <trkpt lat="43.45162" lon="6.0678">
        <ele>315.39999389648</ele>
        <time>2015-12-09T14:05:58Z</time>
      </trkpt>
      <trkpt lat="43.45163" lon="6.0678">
        <ele>315.79998779297</ele>
        <time>2015-12-09T14:05:59Z</time>
      </trkpt>
      <trkpt lat="43.45166" lon="6.0678">
        <ele>316</ele>
        <time>2015-12-09T14:06:01Z</time>
      </trkpt>
      <trkpt lat="43.45169" lon="6.06781">
        <ele>316.20001220703</ele>
        <time>2015-12-09T14:06:03Z</time>
      </trkpt>
      <trkpt lat="43.45172" lon="6.06781">
        <ele>316.39999389648</ele>
        <time>2015-12-09T14:06:05Z</time>
      </trkpt>
      <trkpt lat="43.45174" lon="6.06781">
        <ele>316.60000610352</ele>
        <time>2015-12-09T14:06:07Z</time>
      </trkpt>
      <trkpt lat="43.45177" lon="6.06781">
        <ele>317</ele>
        <time>2015-12-09T14:06:09Z</time>
      </trkpt>
      <trkpt lat="43.4518" lon="6.06781">
        <ele>317.20001220703</ele>
        <time>2015-12-09T14:06:11Z</time>
      </trkpt>
      <trkpt lat="43.45181" lon="6.06781">
        <ele>317.60000610352</ele>
        <time>2015-12-09T14:06:12Z</time>
      </trkpt>
      <trkpt lat="43.45182" lon="6.06781">
        <ele>317.60000610352</ele>
        <time>2015-12-09T14:06:13Z</time>
      </trkpt>
      <trkpt lat="43.45184" lon="6.06782">
        <ele>317.79998779297</ele>
        <time>2015-12-09T14:06:15Z</time>
      </trkpt>
      <trkpt lat="43.45184" lon="6.06782">
        <ele>317.79998779297</ele>
        <time>2015-12-09T14:06:17Z</time>
      </trkpt>
      <trkpt lat="43.45184" lon="6.06782">
        <ele>318</ele>
        <time>2015-12-09T14:06:20Z</time>
      </trkpt>
      <trkpt lat="43.45184" lon="6.06781">
        <ele>317.79998779297</ele>
        <time>2015-12-09T14:06:24Z</time>
      </trkpt>
      <trkpt lat="43.45184" lon="6.06781">
        <ele>317.79998779297</ele>
        <time>2015-12-09T14:06:26Z</time>
      </trkpt>
      <trkpt lat="43.45184" lon="6.06781">
        <ele>317.79998779297</ele>
        <time>2015-12-09T14:06:28Z</time>
      </trkpt>
      <trkpt lat="43.45184" lon="6.06781">
        <ele>317.79998779297</ele>
        <time>2015-12-09T14:06:32Z</time>
      </trkpt>
      <trkpt lat="43.45184" lon="6.06781">
        <ele>317.79998779297</ele>
        <time>2015-12-09T14:06:38Z</time>
      </trkpt>
      <trkpt lat="43.45184" lon="6.06781">
        <ele>317.79998779297</ele>
        <time>2015-12-09T14:06:52Z</time>
      </trkpt>
      <trkpt lat="43.45184" lon="6.06781">
        <ele>317.79998779297</ele>
        <time>2015-12-09T14:06:54Z</time>
      </trkpt>
      <trkpt lat="43.45184" lon="6.06781">
        <ele>317.60000610352</ele>
        <time>2015-12-09T14:06:58Z</time>
      </trkpt>
      <trkpt lat="43.45184" lon="6.06781">
        <ele>317.79998779297</ele>
        <time>2015-12-09T14:07:04Z</time>
      </trkpt>
      <trkpt lat="43.45184" lon="6.06781">
        <ele>317.79998779297</ele>
        <time>2015-12-09T14:07:06Z</time>
      </trkpt>
      <trkpt lat="43.45184" lon="6.06781">
        <ele>317.60000610352</ele>
        <time>2015-12-09T14:07:08Z</time>
      </trkpt>
      <trkpt lat="43.45184" lon="6.06781">
        <ele>317.60000610352</ele>
        <time>2015-12-09T14:07:10Z</time>
      </trkpt>
      <trkpt lat="43.45184" lon="6.06781">
        <ele>317.60000610352</ele>
        <time>2015-12-09T14:07:14Z</time>
      </trkpt>
      <trkpt lat="43.45184" lon="6.06781">
        <ele>317.79998779297</ele>
        <time>2015-12-09T14:07:18Z</time>
      </trkpt>
      <trkpt lat="43.45184" lon="6.06781">
        <ele>317.79998779297</ele>
        <time>2015-12-09T14:07:40Z</time>
      </trkpt>
      <trkpt lat="43.45184" lon="6.06781">
        <ele>317.79998779297</ele>
        <time>2015-12-09T14:08:08Z</time>
      </trkpt>
      <trkpt lat="43.45184" lon="6.0678">
        <ele>317.79998779297</ele>
        <time>2015-12-09T14:08:20Z</time>
      </trkpt>
      <trkpt lat="43.45184" lon="6.0678">
        <ele>317.79998779297</ele>
        <time>2015-12-09T14:08:34Z</time>
      </trkpt>
      <trkpt lat="43.45184" lon="6.0678">
        <ele>318</ele>
        <time>2015-12-09T14:08:46Z</time>
      </trkpt>
      <trkpt lat="43.45184" lon="6.06781">
        <ele>317.79998779297</ele>
        <time>2015-12-09T14:09:10Z</time>
      </trkpt>
      <trkpt lat="43.45184" lon="6.06781">
        <ele>317.79998779297</ele>
        <time>2015-12-09T14:09:16Z</time>
      </trkpt>
      <trkpt lat="43.45184" lon="6.06781">
        <ele>318</ele>
        <time>2015-12-09T14:09:18Z</time>
      </trkpt>
      <trkpt lat="43.45184" lon="6.06781">
        <ele>318</ele>
        <time>2015-12-09T14:09:20Z</time>
      </trkpt>
      <trkpt lat="43.45184" lon="6.06781">
        <ele>318</ele>
        <time>2015-12-09T14:09:22Z</time>
      </trkpt>
      <trkpt lat="43.45184" lon="6.06782">
        <ele>317.79998779297</ele>
        <time>2015-12-09T14:09:24Z</time>
      </trkpt>
      <trkpt lat="43.45184" lon="6.06782">
        <ele>318</ele>
        <time>2015-12-09T14:09:26Z</time>
      </trkpt>
      <trkpt lat="43.45184" lon="6.06782">
        <ele>317.79998779297</ele>
        <time>2015-12-09T14:09:28Z</time>
      </trkpt>
      <trkpt lat="43.45184" lon="6.06782">
        <ele>317.79998779297</ele>
        <time>2015-12-09T14:09:32Z</time>
      </trkpt>
      <trkpt lat="43.45184" lon="6.06782">
        <ele>318</ele>
        <time>2015-12-09T14:09:40Z</time>
      </trkpt>
      <trkpt lat="43.45184" lon="6.06782">
        <ele>317.79998779297</ele>
        <time>2015-12-09T14:09:46Z</time>
      </trkpt>
      <trkpt lat="43.45184" lon="6.06782">
        <ele>318</ele>
        <time>2015-12-09T14:10:04Z</time>
      </trkpt>
      <trkpt lat="43.45184" lon="6.06782">
        <ele>318</ele>
        <time>2015-12-09T14:10:14Z</time>
      </trkpt>
      <trkpt lat="43.45184" lon="6.06782">
        <ele>317.79998779297</ele>
        <time>2015-12-09T14:10:24Z</time>
      </trkpt>
      <trkpt lat="43.45184" lon="6.06783">
        <ele>318</ele>
        <time>2015-12-09T14:10:26Z</time>
      </trkpt>
      <trkpt lat="43.45184" lon="6.06783">
        <ele>317.79998779297</ele>
        <time>2015-12-09T14:10:30Z</time>
      </trkpt>
      <trkpt lat="43.45184" lon="6.06783">
        <ele>317.79998779297</ele>
        <time>2015-12-09T14:10:38Z</time>
      </trkpt>
      <trkpt lat="43.45184" lon="6.06782">
        <ele>317.79998779297</ele>
        <time>2015-12-09T14:10:42Z</time>
      </trkpt>
      <trkpt lat="43.45184" lon="6.06782">
        <ele>317.60000610352</ele>
        <time>2015-12-09T14:10:44Z</time>
      </trkpt>
      <trkpt lat="43.45184" lon="6.06782">
        <ele>318</ele>
        <time>2015-12-09T14:10:46Z</time>
      </trkpt>
      <trkpt lat="43.45183" lon="6.06782">
        <ele>317.79998779297</ele>
        <time>2015-12-09T14:10:48Z</time>
      </trkpt>
      <trkpt lat="43.45183" lon="6.06782">
        <ele>318</ele>
        <time>2015-12-09T14:10:57Z</time>
      </trkpt>
      <trkpt lat="43.45183" lon="6.06782">
        <ele>317.79998779297</ele>
        <time>2015-12-09T14:11:02Z</time>
      </trkpt>
      <trkpt lat="43.45183" lon="6.06782">
        <ele>317.79998779297</ele>
        <time>2015-12-09T14:11:30Z</time>
      </trkpt>
      <trkpt lat="43.45183" lon="6.06782">
        <ele>318</ele>
        <time>2015-12-09T14:11:44Z</time>
      </trkpt>
      <trkpt lat="43.45183" lon="6.06782">
        <ele>318</ele>
        <time>2015-12-09T14:11:46Z</time>
      </trkpt>
      <trkpt lat="43.45184" lon="6.06783">
        <ele>317.79998779297</ele>
        <time>2015-12-09T14:11:48Z</time>
      </trkpt>
      <trkpt lat="43.45185" lon="6.06785">
        <ele>318</ele>
        <time>2015-12-09T14:11:50Z</time>
      </trkpt>
      <trkpt lat="43.45186" lon="6.06786">
        <ele>317.79998779297</ele>
        <time>2015-12-09T14:11:51Z</time>
      </trkpt>
      <trkpt lat="43.45187" lon="6.06788">
        <ele>317.79998779297</ele>
        <time>2015-12-09T14:11:52Z</time>
      </trkpt>
      <trkpt lat="43.45187" lon="6.0679">
        <ele>317.79998779297</ele>
        <time>2015-12-09T14:11:53Z</time>
      </trkpt>
      <trkpt lat="43.45187" lon="6.06792">
        <ele>317.79998779297</ele>
        <time>2015-12-09T14:11:54Z</time>
      </trkpt>
      <trkpt lat="43.45186" lon="6.06795">
        <ele>318</ele>
        <time>2015-12-09T14:11:56Z</time>
      </trkpt>
      <trkpt lat="43.45185" lon="6.06796">
        <ele>318</ele>
        <time>2015-12-09T14:11:57Z</time>
      </trkpt>
      <trkpt lat="43.45184" lon="6.06799">
        <ele>318.20001220703</ele>
        <time>2015-12-09T14:11:58Z</time>
      </trkpt>
      <trkpt lat="43.45182" lon="6.06802">
        <ele>318.60000610352</ele>
        <time>2015-12-09T14:12:00Z</time>
      </trkpt>
      <trkpt lat="43.45182" lon="6.06807">
        <ele>318.79998779297</ele>
        <time>2015-12-09T14:12:02Z</time>
      </trkpt>
      <trkpt lat="43.45183" lon="6.06812">
        <ele>319.60000610352</ele>
        <time>2015-12-09T14:12:04Z</time>
      </trkpt>
      <trkpt lat="43.45184" lon="6.06817">
        <ele>319.79998779297</ele>
        <time>2015-12-09T14:12:06Z</time>
      </trkpt>
      <trkpt lat="43.45183" lon="6.06821">
        <ele>320</ele>
        <time>2015-12-09T14:12:08Z</time>
      </trkpt>
      <trkpt lat="43.45182" lon="6.06825">
        <ele>320</ele>
        <time>2015-12-09T14:12:10Z</time>
      </trkpt>
      <trkpt lat="43.45181" lon="6.0683">
        <ele>320.79998779297</ele>
        <time>2015-12-09T14:12:12Z</time>
      </trkpt>
      <trkpt lat="43.4518" lon="6.06832">
        <ele>321</ele>
        <time>2015-12-09T14:12:13Z</time>
      </trkpt>
      <trkpt lat="43.45177" lon="6.06845">
        <ele>321.60000610352</ele>
        <time>2015-12-09T14:12:18Z</time>
      </trkpt>
      <trkpt lat="43.45176" lon="6.0685">
        <ele>321.79998779297</ele>
        <time>2015-12-09T14:12:20Z</time>
      </trkpt>
      <trkpt lat="43.45176" lon="6.06853">
        <ele>322.39999389648</ele>
        <time>2015-12-09T14:12:21Z</time>
      </trkpt>
      <trkpt lat="43.45176" lon="6.06855">
        <ele>322.39999389648</ele>
        <time>2015-12-09T14:12:22Z</time>
      </trkpt>
      <trkpt lat="43.45176" lon="6.0686">
        <ele>322.20001220703</ele>
        <time>2015-12-09T14:12:24Z</time>
      </trkpt>
      <trkpt lat="43.45176" lon="6.06863">
        <ele>322.60000610352</ele>
        <time>2015-12-09T14:12:25Z</time>
      </trkpt>
      <trkpt lat="43.45176" lon="6.06866">
        <ele>323</ele>
        <time>2015-12-09T14:12:26Z</time>
      </trkpt>
      <trkpt lat="43.45177" lon="6.06868">
        <ele>323.39999389648</ele>
        <time>2015-12-09T14:12:27Z</time>
      </trkpt>
      <trkpt lat="43.45177" lon="6.0687">
        <ele>323.60000610352</ele>
        <time>2015-12-09T14:12:28Z</time>
      </trkpt>
      <trkpt lat="43.45179" lon="6.06874">
        <ele>323.79998779297</ele>
        <time>2015-12-09T14:12:30Z</time>
      </trkpt>
      <trkpt lat="43.45179" lon="6.06876">
        <ele>323.79998779297</ele>
        <time>2015-12-09T14:12:31Z</time>
      </trkpt>
      <trkpt lat="43.4518" lon="6.06881">
        <ele>324.60000610352</ele>
        <time>2015-12-09T14:12:33Z</time>
      </trkpt>
      <trkpt lat="43.4518" lon="6.06884">
        <ele>325</ele>
        <time>2015-12-09T14:12:34Z</time>
      </trkpt>
      <trkpt lat="43.4518" lon="6.06888">
        <ele>325.60000610352</ele>
        <time>2015-12-09T14:12:36Z</time>
      </trkpt>
      <trkpt lat="43.4518" lon="6.0689">
        <ele>325.60000610352</ele>
        <time>2015-12-09T14:12:37Z</time>
      </trkpt>
      <trkpt lat="43.45181" lon="6.06892">
        <ele>325.79998779297</ele>
        <time>2015-12-09T14:12:38Z</time>
      </trkpt>
      <trkpt lat="43.45182" lon="6.06896">
        <ele>326</ele>
        <time>2015-12-09T14:12:40Z</time>
      </trkpt>
      <trkpt lat="43.45182" lon="6.06897">
        <ele>326.20001220703</ele>
        <time>2015-12-09T14:12:41Z</time>
      </trkpt>
      <trkpt lat="43.45184" lon="6.06899">
        <ele>327</ele>
        <time>2015-12-09T14:12:43Z</time>
      </trkpt>
      <trkpt lat="43.45186" lon="6.06903">
        <ele>327.39999389648</ele>
        <time>2015-12-09T14:12:46Z</time>
      </trkpt>
      <trkpt lat="43.45187" lon="6.06906">
        <ele>327.79998779297</ele>
        <time>2015-12-09T14:12:48Z</time>
      </trkpt>
      <trkpt lat="43.45187" lon="6.06906">
        <ele>328</ele>
        <time>2015-12-09T14:12:49Z</time>
      </trkpt>
      <trkpt lat="43.45187" lon="6.06906">
        <ele>328.20001220703</ele>
        <time>2015-12-09T14:12:50Z</time>
      </trkpt>
      <trkpt lat="43.45187" lon="6.06906">
        <ele>328.39999389648</ele>
        <time>2015-12-09T14:12:52Z</time>
      </trkpt>
      <trkpt lat="43.45187" lon="6.06906">
        <ele>328.20001220703</ele>
        <time>2015-12-09T14:12:54Z</time>
      </trkpt>
      <trkpt lat="43.45187" lon="6.06906">
        <ele>328.39999389648</ele>
        <time>2015-12-09T14:12:56Z</time>
      </trkpt>
      <trkpt lat="43.45187" lon="6.06906">
        <ele>328.39999389648</ele>
        <time>2015-12-09T14:13:00Z</time>
      </trkpt>
      <trkpt lat="43.45187" lon="6.06907">
        <ele>328.39999389648</ele>
        <time>2015-12-09T14:13:08Z</time>
      </trkpt>
      <trkpt lat="43.45187" lon="6.06906">
        <ele>328.60000610352</ele>
        <time>2015-12-09T14:13:12Z</time>
      </trkpt>
      <trkpt lat="43.45187" lon="6.06906">
        <ele>328.39999389648</ele>
        <time>2015-12-09T14:13:14Z</time>
      </trkpt>
      <trkpt lat="43.45187" lon="6.06905">
        <ele>328.39999389648</ele>
        <time>2015-12-09T14:13:16Z</time>
      </trkpt>
      <trkpt lat="43.45187" lon="6.06904">
        <ele>328.60000610352</ele>
        <time>2015-12-09T14:13:18Z</time>
      </trkpt>
      <trkpt lat="43.45187" lon="6.06903">
        <ele>328.39999389648</ele>
        <time>2015-12-09T14:13:20Z</time>
      </trkpt>
      <trkpt lat="43.45187" lon="6.06903">
        <ele>328.20001220703</ele>
        <time>2015-12-09T14:13:22Z</time>
      </trkpt>
      <trkpt lat="43.45186" lon="6.06903">
        <ele>328.20001220703</ele>
        <time>2015-12-09T14:13:24Z</time>
      </trkpt>
      <trkpt lat="43.45186" lon="6.06903">
        <ele>328.20001220703</ele>
        <time>2015-12-09T14:13:26Z</time>
      </trkpt>
      <trkpt lat="43.45186" lon="6.06903">
        <ele>328.20001220703</ele>
        <time>2015-12-09T14:13:28Z</time>
      </trkpt>
      <trkpt lat="43.45186" lon="6.06903">
        <ele>328.20001220703</ele>
        <time>2015-12-09T14:13:30Z</time>
      </trkpt>
      <trkpt lat="43.45187" lon="6.06903">
        <ele>328.39999389648</ele>
        <time>2015-12-09T14:13:32Z</time>
      </trkpt>
      <trkpt lat="43.45187" lon="6.06905">
        <ele>328.60000610352</ele>
        <time>2015-12-09T14:13:34Z</time>
      </trkpt>
      <trkpt lat="43.45187" lon="6.06906">
        <ele>328.60000610352</ele>
        <time>2015-12-09T14:13:36Z</time>
      </trkpt>
      <trkpt lat="43.45187" lon="6.06906">
        <ele>328.60000610352</ele>
        <time>2015-12-09T14:13:37Z</time>
      </trkpt>
      <trkpt lat="43.45187" lon="6.06906">
        <ele>328.60000610352</ele>
        <time>2015-12-09T14:13:38Z</time>
      </trkpt>
      <trkpt lat="43.45187" lon="6.06906">
        <ele>328.60000610352</ele>
        <time>2015-12-09T14:13:40Z</time>
      </trkpt>
      <trkpt lat="43.45187" lon="6.06907">
        <ele>328.60000610352</ele>
        <time>2015-12-09T14:13:42Z</time>
      </trkpt>
      <trkpt lat="43.45186" lon="6.0691">
        <ele>328.79998779297</ele>
        <time>2015-12-09T14:13:44Z</time>
      </trkpt>
      <trkpt lat="43.45186" lon="6.06914">
        <ele>328.60000610352</ele>
        <time>2015-12-09T14:13:46Z</time>
      </trkpt>
      <trkpt lat="43.45185" lon="6.06919">
        <ele>329</ele>
        <time>2015-12-09T14:13:48Z</time>
      </trkpt>
      <trkpt lat="43.45184" lon="6.06924">
        <ele>329</ele>
        <time>2015-12-09T14:13:50Z</time>
      </trkpt>
      <trkpt lat="43.45183" lon="6.06926">
        <ele>329.20001220703</ele>
        <time>2015-12-09T14:13:51Z</time>
      </trkpt>
      <trkpt lat="43.45182" lon="6.06928">
        <ele>329.20001220703</ele>
        <time>2015-12-09T14:13:52Z</time>
      </trkpt>
      <trkpt lat="43.4518" lon="6.06933">
        <ele>329</ele>
        <time>2015-12-09T14:13:54Z</time>
      </trkpt>
      <trkpt lat="43.45178" lon="6.06937">
        <ele>329</ele>
        <time>2015-12-09T14:13:56Z</time>
      </trkpt>
      <trkpt lat="43.45176" lon="6.06941">
        <ele>329</ele>
        <time>2015-12-09T14:13:58Z</time>
      </trkpt>
      <trkpt lat="43.45174" lon="6.06944">
        <ele>329.20001220703</ele>
        <time>2015-12-09T14:14:00Z</time>
      </trkpt>
      <trkpt lat="43.45172" lon="6.06947">
        <ele>329.60000610352</ele>
        <time>2015-12-09T14:14:02Z</time>
      </trkpt>
      <trkpt lat="43.45169" lon="6.06951">
        <ele>329.79998779297</ele>
        <time>2015-12-09T14:14:04Z</time>
      </trkpt>
      <trkpt lat="43.45167" lon="6.06955">
        <ele>330.60000610352</ele>
        <time>2015-12-09T14:14:06Z</time>
      </trkpt>
      <trkpt lat="43.45165" lon="6.06959">
        <ele>330.60000610352</ele>
        <time>2015-12-09T14:14:08Z</time>
      </trkpt>
      <trkpt lat="43.45163" lon="6.06963">
        <ele>330.79998779297</ele>
        <time>2015-12-09T14:14:10Z</time>
      </trkpt>
      <trkpt lat="43.45161" lon="6.06966">
        <ele>331</ele>
        <time>2015-12-09T14:14:12Z</time>
      </trkpt>
      <trkpt lat="43.45159" lon="6.0697">
        <ele>331.39999389648</ele>
        <time>2015-12-09T14:14:14Z</time>
      </trkpt>
      <trkpt lat="43.45156" lon="6.06976">
        <ele>331.60000610352</ele>
        <time>2015-12-09T14:14:18Z</time>
      </trkpt>
      <trkpt lat="43.45155" lon="6.0698">
        <ele>331.79998779297</ele>
        <time>2015-12-09T14:14:20Z</time>
      </trkpt>
      <trkpt lat="43.45153" lon="6.06984">
        <ele>332</ele>
        <time>2015-12-09T14:14:22Z</time>
      </trkpt>
      <trkpt lat="43.45152" lon="6.06988">
        <ele>332.20001220703</ele>
        <time>2015-12-09T14:14:24Z</time>
      </trkpt>
      <trkpt lat="43.45151" lon="6.06991">
        <ele>332.20001220703</ele>
        <time>2015-12-09T14:14:25Z</time>
      </trkpt>
      <trkpt lat="43.45151" lon="6.06993">
        <ele>332</ele>
        <time>2015-12-09T14:14:26Z</time>
      </trkpt>
      <trkpt lat="43.4515" lon="6.06998">
        <ele>332.20001220703</ele>
        <time>2015-12-09T14:14:28Z</time>
      </trkpt>
      <trkpt lat="43.4515" lon="6.07003">
        <ele>332.39999389648</ele>
        <time>2015-12-09T14:14:30Z</time>
      </trkpt>
      <trkpt lat="43.4515" lon="6.07008">
        <ele>332.60000610352</ele>
        <time>2015-12-09T14:14:32Z</time>
      </trkpt>
      <trkpt lat="43.45151" lon="6.07013">
        <ele>332.39999389648</ele>
        <time>2015-12-09T14:14:34Z</time>
      </trkpt>
      <trkpt lat="43.45151" lon="6.07019">
        <ele>332.60000610352</ele>
        <time>2015-12-09T14:14:36Z</time>
      </trkpt>
      <trkpt lat="43.45152" lon="6.07025">
        <ele>332.39999389648</ele>
        <time>2015-12-09T14:14:38Z</time>
      </trkpt>
      <trkpt lat="43.45153" lon="6.07033">
        <ele>332.20001220703</ele>
        <time>2015-12-09T14:14:40Z</time>
      </trkpt>
      <trkpt lat="43.45155" lon="6.07041">
        <ele>331.79998779297</ele>
        <time>2015-12-09T14:14:42Z</time>
      </trkpt>
      <trkpt lat="43.45156" lon="6.07046">
        <ele>331.60000610352</ele>
        <time>2015-12-09T14:14:43Z</time>
      </trkpt>
      <trkpt lat="43.45157" lon="6.0705">
        <ele>331.60000610352</ele>
        <time>2015-12-09T14:14:44Z</time>
      </trkpt>
      <trkpt lat="43.45159" lon="6.07059">
        <ele>331.60000610352</ele>
        <time>2015-12-09T14:14:46Z</time>
      </trkpt>
      <trkpt lat="43.45161" lon="6.07067">
        <ele>331.60000610352</ele>
        <time>2015-12-09T14:14:48Z</time>
      </trkpt>
      <trkpt lat="43.45163" lon="6.07074">
        <ele>331.60000610352</ele>
        <time>2015-12-09T14:14:50Z</time>
      </trkpt>
      <trkpt lat="43.45167" lon="6.0708">
        <ele>331.39999389648</ele>
        <time>2015-12-09T14:14:52Z</time>
      </trkpt>
      <trkpt lat="43.45171" lon="6.07085">
        <ele>331.39999389648</ele>
        <time>2015-12-09T14:14:54Z</time>
      </trkpt>
      <trkpt lat="43.45171" lon="6.07087">
        <ele>331.79998779297</ele>
        <time>2015-12-09T14:14:55Z</time>
      </trkpt>
      <trkpt lat="43.45171" lon="6.07092">
        <ele>331.60000610352</ele>
        <time>2015-12-09T14:14:57Z</time>
      </trkpt>
      <trkpt lat="43.45171" lon="6.07094">
        <ele>331.79998779297</ele>
        <time>2015-12-09T14:14:58Z</time>
      </trkpt>
      <trkpt lat="43.45171" lon="6.07099">
        <ele>332.20001220703</ele>
        <time>2015-12-09T14:15:00Z</time>
      </trkpt>
      <trkpt lat="43.45172" lon="6.07104">
        <ele>332.60000610352</ele>
        <time>2015-12-09T14:15:02Z</time>
      </trkpt>
      <trkpt lat="43.45172" lon="6.07115">
        <ele>333</ele>
        <time>2015-12-09T14:15:06Z</time>
      </trkpt>
      <trkpt lat="43.45172" lon="6.0712">
        <ele>333</ele>
        <time>2015-12-09T14:15:08Z</time>
      </trkpt>
      <trkpt lat="43.45172" lon="6.07126">
        <ele>333</ele>
        <time>2015-12-09T14:15:10Z</time>
      </trkpt>
      <trkpt lat="43.45172" lon="6.07131">
        <ele>333.79998779297</ele>
        <time>2015-12-09T14:15:12Z</time>
      </trkpt>
      <trkpt lat="43.45171" lon="6.07136">
        <ele>333.79998779297</ele>
        <time>2015-12-09T14:15:14Z</time>
      </trkpt>
      <trkpt lat="43.4517" lon="6.07141">
        <ele>333.79998779297</ele>
        <time>2015-12-09T14:15:16Z</time>
      </trkpt>
      <trkpt lat="43.45169" lon="6.07146">
        <ele>334</ele>
        <time>2015-12-09T14:15:18Z</time>
      </trkpt>
      <trkpt lat="43.45168" lon="6.07151">
        <ele>334</ele>
        <time>2015-12-09T14:15:20Z</time>
      </trkpt>
      <trkpt lat="43.45167" lon="6.07156">
        <ele>334</ele>
        <time>2015-12-09T14:15:22Z</time>
      </trkpt>
      <trkpt lat="43.45166" lon="6.07161">
        <ele>334.20001220703</ele>
        <time>2015-12-09T14:15:24Z</time>
      </trkpt>
      <trkpt lat="43.45165" lon="6.07165">
        <ele>334.60000610352</ele>
        <time>2015-12-09T14:15:26Z</time>
      </trkpt>
      <trkpt lat="43.45163" lon="6.07169">
        <ele>334.60000610352</ele>
        <time>2015-12-09T14:15:28Z</time>
      </trkpt>
      <trkpt lat="43.4516" lon="6.07178">
        <ele>335</ele>
        <time>2015-12-09T14:15:32Z</time>
      </trkpt>
      <trkpt lat="43.45158" lon="6.07182">
        <ele>335.39999389648</ele>
        <time>2015-12-09T14:15:34Z</time>
      </trkpt>
      <trkpt lat="43.45157" lon="6.07184">
        <ele>335.60000610352</ele>
        <time>2015-12-09T14:15:35Z</time>
      </trkpt>
      <trkpt lat="43.45156" lon="6.07186">
        <ele>335.79998779297</ele>
        <time>2015-12-09T14:15:36Z</time>
      </trkpt>
      <trkpt lat="43.45154" lon="6.07189">
        <ele>335.79998779297</ele>
        <time>2015-12-09T14:15:38Z</time>
      </trkpt>
      <trkpt lat="43.45152" lon="6.07193">
        <ele>336</ele>
        <time>2015-12-09T14:15:40Z</time>
      </trkpt>
      <trkpt lat="43.45149" lon="6.07197">
        <ele>336.60000610352</ele>
        <time>2015-12-09T14:15:42Z</time>
      </trkpt>
      <trkpt lat="43.45147" lon="6.072">
        <ele>337</ele>
        <time>2015-12-09T14:15:44Z</time>
      </trkpt>
      <trkpt lat="43.45146" lon="6.07202">
        <ele>337</ele>
        <time>2015-12-09T14:15:45Z</time>
      </trkpt>
      <trkpt lat="43.45145" lon="6.07204">
        <ele>337</ele>
        <time>2015-12-09T14:15:46Z</time>
      </trkpt>
      <trkpt lat="43.45142" lon="6.07207">
        <ele>337.39999389648</ele>
        <time>2015-12-09T14:15:48Z</time>
      </trkpt>
      <trkpt lat="43.4514" lon="6.0721">
        <ele>337.79998779297</ele>
        <time>2015-12-09T14:15:50Z</time>
      </trkpt>
      <trkpt lat="43.45139" lon="6.07212">
        <ele>338.20001220703</ele>
        <time>2015-12-09T14:15:51Z</time>
      </trkpt>
      <trkpt lat="43.45136" lon="6.07217">
        <ele>338.39999389648</ele>
        <time>2015-12-09T14:15:54Z</time>
      </trkpt>
      <trkpt lat="43.45135" lon="6.07221">
        <ele>338.60000610352</ele>
        <time>2015-12-09T14:15:56Z</time>
      </trkpt>
      <trkpt lat="43.45133" lon="6.07225">
        <ele>338.39999389648</ele>
        <time>2015-12-09T14:15:58Z</time>
      </trkpt>
      <trkpt lat="43.45132" lon="6.0723">
        <ele>338.39999389648</ele>
        <time>2015-12-09T14:16:00Z</time>
      </trkpt>
      <trkpt lat="43.45129" lon="6.07234">
        <ele>338.39999389648</ele>
        <time>2015-12-09T14:16:02Z</time>
      </trkpt>
      <trkpt lat="43.45126" lon="6.07241">
        <ele>338.60000610352</ele>
        <time>2015-12-09T14:16:06Z</time>
      </trkpt>
      <trkpt lat="43.45123" lon="6.07249">
        <ele>338.60000610352</ele>
        <time>2015-12-09T14:16:10Z</time>
      </trkpt>
      <trkpt lat="43.45121" lon="6.07253">
        <ele>338.39999389648</ele>
        <time>2015-12-09T14:16:12Z</time>
      </trkpt>
      <trkpt lat="43.45118" lon="6.07256">
        <ele>338.79998779297</ele>
        <time>2015-12-09T14:16:14Z</time>
      </trkpt>
      <trkpt lat="43.45117" lon="6.07257">
        <ele>339</ele>
        <time>2015-12-09T14:16:15Z</time>
      </trkpt>
      <trkpt lat="43.45116" lon="6.07258">
        <ele>339</ele>
        <time>2015-12-09T14:16:16Z</time>
      </trkpt>
      <trkpt lat="43.45115" lon="6.07259">
        <ele>339.39999389648</ele>
        <time>2015-12-09T14:16:17Z</time>
      </trkpt>
      <trkpt lat="43.45113" lon="6.07261">
        <ele>339.60000610352</ele>
        <time>2015-12-09T14:16:18Z</time>
      </trkpt>
      <trkpt lat="43.45111" lon="6.07263">
        <ele>339.60000610352</ele>
        <time>2015-12-09T14:16:20Z</time>
      </trkpt>
      <trkpt lat="43.45107" lon="6.07267">
        <ele>340.39999389648</ele>
        <time>2015-12-09T14:16:23Z</time>
      </trkpt>
      <trkpt lat="43.45106" lon="6.07269">
        <ele>340.60000610352</ele>
        <time>2015-12-09T14:16:24Z</time>
      </trkpt>
      <trkpt lat="43.45104" lon="6.07272">
        <ele>341</ele>
        <time>2015-12-09T14:16:26Z</time>
      </trkpt>
      <trkpt lat="43.45103" lon="6.07276">
        <ele>341.20001220703</ele>
        <time>2015-12-09T14:16:28Z</time>
      </trkpt>
      <trkpt lat="43.45101" lon="6.07284">
        <ele>341.39999389648</ele>
        <time>2015-12-09T14:16:32Z</time>
      </trkpt>
      <trkpt lat="43.45099" lon="6.0729">
        <ele>341.39999389648</ele>
        <time>2015-12-09T14:16:35Z</time>
      </trkpt>
      <trkpt lat="43.45097" lon="6.07293">
        <ele>341.60000610352</ele>
        <time>2015-12-09T14:16:37Z</time>
      </trkpt>
      <trkpt lat="43.45095" lon="6.07295">
        <ele>341.79998779297</ele>
        <time>2015-12-09T14:16:39Z</time>
      </trkpt>
      <trkpt lat="43.45093" lon="6.07298">
        <ele>342.20001220703</ele>
        <time>2015-12-09T14:16:41Z</time>
      </trkpt>
      <trkpt lat="43.4509" lon="6.073">
        <ele>342.79998779297</ele>
        <time>2015-12-09T14:16:43Z</time>
      </trkpt>
      <trkpt lat="43.45087" lon="6.07301">
        <ele>343.20001220703</ele>
        <time>2015-12-09T14:16:45Z</time>
      </trkpt>
      <trkpt lat="43.45085" lon="6.07301">
        <ele>343.79998779297</ele>
        <time>2015-12-09T14:16:47Z</time>
      </trkpt>
      <trkpt lat="43.45082" lon="6.073">
        <ele>344.20001220703</ele>
        <time>2015-12-09T14:16:49Z</time>
      </trkpt>
      <trkpt lat="43.45079" lon="6.073">
        <ele>344.39999389648</ele>
        <time>2015-12-09T14:16:51Z</time>
      </trkpt>
      <trkpt lat="43.45076" lon="6.073">
        <ele>344.79998779297</ele>
        <time>2015-12-09T14:16:53Z</time>
      </trkpt>
      <trkpt lat="43.45074" lon="6.07298">
        <ele>345</ele>
        <time>2015-12-09T14:16:55Z</time>
      </trkpt>
      <trkpt lat="43.45069" lon="6.07296">
        <ele>346</ele>
        <time>2015-12-09T14:16:59Z</time>
      </trkpt>
      <trkpt lat="43.45067" lon="6.07293">
        <ele>346.60000610352</ele>
        <time>2015-12-09T14:17:01Z</time>
      </trkpt>
      <trkpt lat="43.45064" lon="6.0729">
        <ele>347.39999389648</ele>
        <time>2015-12-09T14:17:04Z</time>
      </trkpt>
      <trkpt lat="43.45063" lon="6.07289">
        <ele>347.60000610352</ele>
        <time>2015-12-09T14:17:05Z</time>
      </trkpt>
      <trkpt lat="43.4506" lon="6.07284">
        <ele>347.79998779297</ele>
        <time>2015-12-09T14:17:09Z</time>
      </trkpt>
      <trkpt lat="43.45058" lon="6.07283">
        <ele>348.20001220703</ele>
        <time>2015-12-09T14:17:10Z</time>
      </trkpt>
      <trkpt lat="43.45057" lon="6.07283">
        <ele>348.60000610352</ele>
        <time>2015-12-09T14:17:11Z</time>
      </trkpt>
      <trkpt lat="43.45053" lon="6.07281">
        <ele>349.60000610352</ele>
        <time>2015-12-09T14:17:15Z</time>
      </trkpt>
      <trkpt lat="43.45051" lon="6.0728">
        <ele>349.79998779297</ele>
        <time>2015-12-09T14:17:17Z</time>
      </trkpt>
      <trkpt lat="43.45048" lon="6.0728">
        <ele>350.20001220703</ele>
        <time>2015-12-09T14:17:20Z</time>
      </trkpt>
      <trkpt lat="43.45045" lon="6.07279">
        <ele>350.60000610352</ele>
        <time>2015-12-09T14:17:23Z</time>
      </trkpt>
      <trkpt lat="43.45044" lon="6.07279">
        <ele>350.79998779297</ele>
        <time>2015-12-09T14:17:25Z</time>
      </trkpt>
      <trkpt lat="43.45042" lon="6.07279">
        <ele>350.79998779297</ele>
        <time>2015-12-09T14:17:26Z</time>
      </trkpt>
      <trkpt lat="43.4504" lon="6.07279">
        <ele>351</ele>
        <time>2015-12-09T14:17:29Z</time>
      </trkpt>
      <trkpt lat="43.45037" lon="6.07279">
        <ele>351</ele>
        <time>2015-12-09T14:17:31Z</time>
      </trkpt>
      <trkpt lat="43.45035" lon="6.07278">
        <ele>351.20001220703</ele>
        <time>2015-12-09T14:17:33Z</time>
      </trkpt>
      <trkpt lat="43.45034" lon="6.07278">
        <ele>351.20001220703</ele>
        <time>2015-12-09T14:17:34Z</time>
      </trkpt>
      <trkpt lat="43.45033" lon="6.07278">
        <ele>351.20001220703</ele>
        <time>2015-12-09T14:17:35Z</time>
      </trkpt>
      <trkpt lat="43.45029" lon="6.0728">
        <ele>351</ele>
        <time>2015-12-09T14:17:37Z</time>
      </trkpt>
      <trkpt lat="43.45024" lon="6.07283">
        <ele>350.39999389648</ele>
        <time>2015-12-09T14:17:39Z</time>
      </trkpt>
      <trkpt lat="43.45021" lon="6.07285">
        <ele>350.20001220703</ele>
        <time>2015-12-09T14:17:40Z</time>
      </trkpt>
      <trkpt lat="43.45019" lon="6.07286">
        <ele>350.20001220703</ele>
        <time>2015-12-09T14:17:41Z</time>
      </trkpt>
      <trkpt lat="43.45016" lon="6.07288">
        <ele>350.60000610352</ele>
        <time>2015-12-09T14:17:43Z</time>
      </trkpt>
      <trkpt lat="43.45015" lon="6.07288">
        <ele>350.60000610352</ele>
        <time>2015-12-09T14:17:44Z</time>
      </trkpt>
      <trkpt lat="43.45014" lon="6.07289">
        <ele>350.60000610352</ele>
        <time>2015-12-09T14:17:45Z</time>
      </trkpt>
      <trkpt lat="43.45013" lon="6.0729">
        <ele>350.60000610352</ele>
        <time>2015-12-09T14:17:47Z</time>
      </trkpt>
      <trkpt lat="43.45011" lon="6.0729">
        <ele>350.79998779297</ele>
        <time>2015-12-09T14:17:49Z</time>
      </trkpt>
      <trkpt lat="43.4501" lon="6.0729">
        <ele>350.79998779297</ele>
        <time>2015-12-09T14:17:51Z</time>
      </trkpt>
      <trkpt lat="43.4501" lon="6.0729">
        <ele>350.79998779297</ele>
        <time>2015-12-09T14:17:53Z</time>
      </trkpt>
      <trkpt lat="43.4501" lon="6.0729">
        <ele>350.79998779297</ele>
        <time>2015-12-09T14:17:55Z</time>
      </trkpt>
      <trkpt lat="43.4501" lon="6.0729">
        <ele>350.79998779297</ele>
        <time>2015-12-09T14:17:57Z</time>
      </trkpt>
      <trkpt lat="43.4501" lon="6.0729">
        <ele>350.79998779297</ele>
        <time>2015-12-09T14:17:59Z</time>
      </trkpt>
      <trkpt lat="43.4501" lon="6.07289">
        <ele>350.60000610352</ele>
        <time>2015-12-09T14:18:13Z</time>
      </trkpt>
      <trkpt lat="43.4501" lon="6.07289">
        <ele>350.60000610352</ele>
        <time>2015-12-09T14:18:17Z</time>
      </trkpt>
      <trkpt lat="43.4501" lon="6.07289">
        <ele>350.60000610352</ele>
        <time>2015-12-09T14:18:21Z</time>
      </trkpt>
      <trkpt lat="43.4501" lon="6.07289">
        <ele>350.39999389648</ele>
        <time>2015-12-09T14:18:23Z</time>
      </trkpt>
      <trkpt lat="43.4501" lon="6.07289">
        <ele>350.60000610352</ele>
        <time>2015-12-09T14:18:25Z</time>
      </trkpt>
      <trkpt lat="43.4501" lon="6.07289">
        <ele>350.39999389648</ele>
        <time>2015-12-09T14:18:27Z</time>
      </trkpt>
      <trkpt lat="43.4501" lon="6.07289">
        <ele>350.60000610352</ele>
        <time>2015-12-09T14:18:29Z</time>
      </trkpt>
      <trkpt lat="43.4501" lon="6.07289">
        <ele>350.60000610352</ele>
        <time>2015-12-09T14:18:31Z</time>
      </trkpt>
      <trkpt lat="43.4501" lon="6.07289">
        <ele>350.20001220703</ele>
        <time>2015-12-09T14:18:37Z</time>
      </trkpt>
      <trkpt lat="43.4501" lon="6.07289">
        <ele>350.39999389648</ele>
        <time>2015-12-09T14:18:43Z</time>
      </trkpt>
      <trkpt lat="43.4501" lon="6.07289">
        <ele>350.60000610352</ele>
        <time>2015-12-09T14:18:51Z</time>
      </trkpt>
      <trkpt lat="43.4501" lon="6.07289">
        <ele>350.60000610352</ele>
        <time>2015-12-09T14:18:57Z</time>
      </trkpt>
      <trkpt lat="43.4501" lon="6.07289">
        <ele>350.60000610352</ele>
        <time>2015-12-09T14:18:59Z</time>
      </trkpt>
      <trkpt lat="43.4501" lon="6.07289">
        <ele>350.60000610352</ele>
        <time>2015-12-09T14:19:05Z</time>
      </trkpt>
      <trkpt lat="43.4501" lon="6.07289">
        <ele>350.39999389648</ele>
        <time>2015-12-09T14:19:17Z</time>
      </trkpt>
      <trkpt lat="43.4501" lon="6.07289">
        <ele>350.39999389648</ele>
        <time>2015-12-09T14:19:21Z</time>
      </trkpt>
      <trkpt lat="43.4501" lon="6.07289">
        <ele>350.20001220703</ele>
        <time>2015-12-09T14:19:23Z</time>
      </trkpt>
      <trkpt lat="43.4501" lon="6.07289">
        <ele>350.20001220703</ele>
        <time>2015-12-09T14:19:29Z</time>
      </trkpt>
      <trkpt lat="43.4501" lon="6.07289">
        <ele>350.60000610352</ele>
        <time>2015-12-09T14:20:21Z</time>
      </trkpt>
      <trkpt lat="43.4501" lon="6.07289">
        <ele>350.60000610352</ele>
        <time>2015-12-09T14:20:25Z</time>
      </trkpt>
      <trkpt lat="43.4501" lon="6.07289">
        <ele>350.60000610352</ele>
        <time>2015-12-09T14:20:26Z</time>
      </trkpt>
      <trkpt lat="43.45011" lon="6.07288">
        <ele>350.60000610352</ele>
        <time>2015-12-09T14:20:29Z</time>
      </trkpt>
      <trkpt lat="43.45012" lon="6.07284">
        <ele>350.60000610352</ele>
        <time>2015-12-09T14:20:31Z</time>
      </trkpt>
      <trkpt lat="43.45013" lon="6.07282">
        <ele>350.79998779297</ele>
        <time>2015-12-09T14:20:32Z</time>
      </trkpt>
      <trkpt lat="43.45013" lon="6.0728">
        <ele>351</ele>
        <time>2015-12-09T14:20:33Z</time>
      </trkpt>
      <trkpt lat="43.45015" lon="6.07275">
        <ele>351.60000610352</ele>
        <time>2015-12-09T14:20:35Z</time>
      </trkpt>
      <trkpt lat="43.45017" lon="6.07274">
        <ele>352.20001220703</ele>
        <time>2015-12-09T14:20:36Z</time>
      </trkpt>
      <trkpt lat="43.45018" lon="6.07273">
        <ele>352.39999389648</ele>
        <time>2015-12-09T14:20:37Z</time>
      </trkpt>
      <trkpt lat="43.4502" lon="6.07271">
        <ele>352.60000610352</ele>
        <time>2015-12-09T14:20:38Z</time>
      </trkpt>
      <trkpt lat="43.45021" lon="6.0727">
        <ele>352.60000610352</ele>
        <time>2015-12-09T14:20:39Z</time>
      </trkpt>
      <trkpt lat="43.45023" lon="6.07269">
        <ele>352.20001220703</ele>
        <time>2015-12-09T14:20:41Z</time>
      </trkpt>
      <trkpt lat="43.45023" lon="6.07269">
        <ele>352.39999389648</ele>
        <time>2015-12-09T14:20:43Z</time>
      </trkpt>
      <trkpt lat="43.45023" lon="6.07268">
        <ele>352.39999389648</ele>
        <time>2015-12-09T14:20:45Z</time>
      </trkpt>
      <trkpt lat="43.45023" lon="6.07268">
        <ele>352.39999389648</ele>
        <time>2015-12-09T14:20:47Z</time>
      </trkpt>
      <trkpt lat="43.45024" lon="6.07266">
        <ele>352.20001220703</ele>
        <time>2015-12-09T14:20:49Z</time>
      </trkpt>
      <trkpt lat="43.45024" lon="6.07264">
        <ele>352</ele>
        <time>2015-12-09T14:20:51Z</time>
      </trkpt>
      <trkpt lat="43.45024" lon="6.07264">
        <ele>352.20001220703</ele>
        <time>2015-12-09T14:20:53Z</time>
      </trkpt>
      <trkpt lat="43.45024" lon="6.07262">
        <ele>352</ele>
        <time>2015-12-09T14:20:55Z</time>
      </trkpt>
      <trkpt lat="43.45024" lon="6.07261">
        <ele>351.79998779297</ele>
        <time>2015-12-09T14:20:57Z</time>
      </trkpt>
      <trkpt lat="43.45025" lon="6.07259">
        <ele>351.60000610352</ele>
        <time>2015-12-09T14:20:59Z</time>
      </trkpt>
      <trkpt lat="43.45026" lon="6.07255">
        <ele>350.79998779297</ele>
        <time>2015-12-09T14:21:01Z</time>
      </trkpt>
      <trkpt lat="43.45027" lon="6.07252">
        <ele>350.20001220703</ele>
        <time>2015-12-09T14:21:03Z</time>
      </trkpt>
      <trkpt lat="43.45028" lon="6.07249">
        <ele>349.79998779297</ele>
        <time>2015-12-09T14:21:04Z</time>
      </trkpt>
      <trkpt lat="43.45027" lon="6.07248">
        <ele>349.39999389648</ele>
        <time>2015-12-09T14:21:05Z</time>
      </trkpt>
      <trkpt lat="43.45025" lon="6.07245">
        <ele>348.79998779297</ele>
        <time>2015-12-09T14:21:07Z</time>
      </trkpt>
      <trkpt lat="43.45024" lon="6.07245">
        <ele>348.39999389648</ele>
        <time>2015-12-09T14:21:08Z</time>
      </trkpt>
      <trkpt lat="43.45024" lon="6.07245">
        <ele>348.20001220703</ele>
        <time>2015-12-09T14:21:09Z</time>
      </trkpt>
      <trkpt lat="43.45024" lon="6.07245">
        <ele>348</ele>
        <time>2015-12-09T14:21:11Z</time>
      </trkpt>
      <trkpt lat="43.45025" lon="6.07245">
        <ele>348</ele>
        <time>2015-12-09T14:21:13Z</time>
      </trkpt>
      <trkpt lat="43.45025" lon="6.07245">
        <ele>348</ele>
        <time>2015-12-09T14:21:15Z</time>
      </trkpt>
      <trkpt lat="43.45025" lon="6.07245">
        <ele>348</ele>
        <time>2015-12-09T14:21:19Z</time>
      </trkpt>
      <trkpt lat="43.45025" lon="6.07245">
        <ele>347.79998779297</ele>
        <time>2015-12-09T14:21:23Z</time>
      </trkpt>
      <trkpt lat="43.45025" lon="6.07245">
        <ele>348</ele>
        <time>2015-12-09T14:21:27Z</time>
      </trkpt>
      <trkpt lat="43.45025" lon="6.07245">
        <ele>348</ele>
        <time>2015-12-09T14:21:39Z</time>
      </trkpt>
      <trkpt lat="43.45025" lon="6.07245">
        <ele>347.79998779297</ele>
        <time>2015-12-09T14:21:41Z</time>
      </trkpt>
      <trkpt lat="43.45025" lon="6.07245">
        <ele>348</ele>
        <time>2015-12-09T14:21:43Z</time>
      </trkpt>
      <trkpt lat="43.45025" lon="6.07245">
        <ele>348</ele>
        <time>2015-12-09T14:21:47Z</time>
      </trkpt>
      <trkpt lat="43.45025" lon="6.07245">
        <ele>348</ele>
        <time>2015-12-09T14:21:51Z</time>
      </trkpt>
      <trkpt lat="43.45025" lon="6.07245">
        <ele>347.79998779297</ele>
        <time>2015-12-09T14:21:53Z</time>
      </trkpt>
      <trkpt lat="43.45025" lon="6.07245">
        <ele>347.79998779297</ele>
        <time>2015-12-09T14:21:59Z</time>
      </trkpt>
      <trkpt lat="43.45025" lon="6.07245">
        <ele>347.79998779297</ele>
        <time>2015-12-09T14:22:25Z</time>
      </trkpt>
      <trkpt lat="43.45025" lon="6.07245">
        <ele>347.79998779297</ele>
        <time>2015-12-09T14:22:29Z</time>
      </trkpt>
      <trkpt lat="43.45024" lon="6.07245">
        <ele>347.79998779297</ele>
        <time>2015-12-09T14:22:37Z</time>
      </trkpt>
      <trkpt lat="43.45024" lon="6.07245">
        <ele>347.79998779297</ele>
        <time>2015-12-09T14:22:39Z</time>
      </trkpt>
      <trkpt lat="43.45024" lon="6.07245">
        <ele>347.79998779297</ele>
        <time>2015-12-09T14:22:41Z</time>
      </trkpt>
      <trkpt lat="43.45024" lon="6.07245">
        <ele>347.79998779297</ele>
        <time>2015-12-09T14:22:43Z</time>
      </trkpt>
      <trkpt lat="43.45024" lon="6.07245">
        <ele>347.60000610352</ele>
        <time>2015-12-09T14:22:45Z</time>
      </trkpt>
      <trkpt lat="43.45024" lon="6.07245">
        <ele>347.79998779297</ele>
        <time>2015-12-09T14:22:47Z</time>
      </trkpt>
      <trkpt lat="43.45023" lon="6.07245">
        <ele>347.79998779297</ele>
        <time>2015-12-09T14:22:48Z</time>
      </trkpt>
      <trkpt lat="43.45023" lon="6.07245">
        <ele>347.60000610352</ele>
        <time>2015-12-09T14:22:51Z</time>
      </trkpt>
      <trkpt lat="43.45023" lon="6.07244">
        <ele>347.60000610352</ele>
        <time>2015-12-09T14:22:52Z</time>
      </trkpt>
      <trkpt lat="43.45022" lon="6.07243">
        <ele>347.60000610352</ele>
        <time>2015-12-09T14:22:53Z</time>
      </trkpt>
      <trkpt lat="43.45019" lon="6.0724">
        <ele>347</ele>
        <time>2015-12-09T14:22:55Z</time>
      </trkpt>
      <trkpt lat="43.45016" lon="6.07238">
        <ele>346.60000610352</ele>
        <time>2015-12-09T14:22:57Z</time>
      </trkpt>
      <trkpt lat="43.45014" lon="6.07237">
        <ele>346.20001220703</ele>
        <time>2015-12-09T14:22:59Z</time>
      </trkpt>
      <trkpt lat="43.45012" lon="6.07236">
        <ele>345.79998779297</ele>
        <time>2015-12-09T14:23:00Z</time>
      </trkpt>
      <trkpt lat="43.45011" lon="6.07235">
        <ele>345.39999389648</ele>
        <time>2015-12-09T14:23:01Z</time>
      </trkpt>
      <trkpt lat="43.45009" lon="6.07234">
        <ele>344.79998779297</ele>
        <time>2015-12-09T14:23:03Z</time>
      </trkpt>
      <trkpt lat="43.45009" lon="6.07234">
        <ele>344.60000610352</ele>
        <time>2015-12-09T14:23:04Z</time>
      </trkpt>
      <trkpt lat="43.45009" lon="6.07234">
        <ele>344.60000610352</ele>
        <time>2015-12-09T14:23:05Z</time>
      </trkpt>
      <trkpt lat="43.45008" lon="6.07233">
        <ele>344.39999389648</ele>
        <time>2015-12-09T14:23:06Z</time>
      </trkpt>
      <trkpt lat="43.45008" lon="6.07233">
        <ele>344.39999389648</ele>
        <time>2015-12-09T14:23:07Z</time>
      </trkpt>
      <trkpt lat="43.45007" lon="6.07233">
        <ele>344.39999389648</ele>
        <time>2015-12-09T14:23:09Z</time>
      </trkpt>
      <trkpt lat="43.45006" lon="6.07232">
        <ele>344</ele>
        <time>2015-12-09T14:23:11Z</time>
      </trkpt>
      <trkpt lat="43.45006" lon="6.07231">
        <ele>343.79998779297</ele>
        <time>2015-12-09T14:23:13Z</time>
      </trkpt>
      <trkpt lat="43.45006" lon="6.0723">
        <ele>343.60000610352</ele>
        <time>2015-12-09T14:23:14Z</time>
      </trkpt>
      <trkpt lat="43.45006" lon="6.0723">
        <ele>343.39999389648</ele>
        <time>2015-12-09T14:23:15Z</time>
      </trkpt>
      <trkpt lat="43.45006" lon="6.0723">
        <ele>343.60000610352</ele>
        <time>2015-12-09T14:23:17Z</time>
      </trkpt>
      <trkpt lat="43.45006" lon="6.07229">
        <ele>343.60000610352</ele>
        <time>2015-12-09T14:23:19Z</time>
      </trkpt>
      <trkpt lat="43.45005" lon="6.07229">
        <ele>343</ele>
        <time>2015-12-09T14:23:21Z</time>
      </trkpt>
      <trkpt lat="43.45005" lon="6.07228">
        <ele>342.60000610352</ele>
        <time>2015-12-09T14:23:23Z</time>
      </trkpt>
      <trkpt lat="43.45005" lon="6.07228">
        <ele>342.39999389648</ele>
        <time>2015-12-09T14:23:25Z</time>
      </trkpt>
      <trkpt lat="43.45004" lon="6.07228">
        <ele>342.39999389648</ele>
        <time>2015-12-09T14:23:26Z</time>
      </trkpt>
      <trkpt lat="43.45004" lon="6.07227">
        <ele>342.60000610352</ele>
        <time>2015-12-09T14:23:29Z</time>
      </trkpt>
      <trkpt lat="43.45004" lon="6.07227">
        <ele>342.39999389648</ele>
        <time>2015-12-09T14:23:31Z</time>
      </trkpt>
      <trkpt lat="43.45004" lon="6.07227">
        <ele>342.39999389648</ele>
        <time>2015-12-09T14:23:33Z</time>
      </trkpt>
      <trkpt lat="43.45004" lon="6.07227">
        <ele>342.20001220703</ele>
        <time>2015-12-09T14:23:35Z</time>
      </trkpt>
      <trkpt lat="43.45004" lon="6.07227">
        <ele>342.20001220703</ele>
        <time>2015-12-09T14:23:37Z</time>
      </trkpt>
      <trkpt lat="43.45004" lon="6.07227">
        <ele>342.20001220703</ele>
        <time>2015-12-09T14:23:39Z</time>
      </trkpt>
      <trkpt lat="43.45004" lon="6.07227">
        <ele>342</ele>
        <time>2015-12-09T14:23:41Z</time>
      </trkpt>
      <trkpt lat="43.45004" lon="6.07226">
        <ele>342</ele>
        <time>2015-12-09T14:23:45Z</time>
      </trkpt>
      <trkpt lat="43.45004" lon="6.07226">
        <ele>342.20001220703</ele>
        <time>2015-12-09T14:23:46Z</time>
      </trkpt>
      <trkpt lat="43.45004" lon="6.07226">
        <ele>342.20001220703</ele>
        <time>2015-12-09T14:23:47Z</time>
      </trkpt>
      <trkpt lat="43.45003" lon="6.07226">
        <ele>342.39999389648</ele>
        <time>2015-12-09T14:23:49Z</time>
      </trkpt>
      <trkpt lat="43.45002" lon="6.07225">
        <ele>342.20001220703</ele>
        <time>2015-12-09T14:23:51Z</time>
      </trkpt>
      <trkpt lat="43.45001" lon="6.07225">
        <ele>341.79998779297</ele>
        <time>2015-12-09T14:23:53Z</time>
      </trkpt>
      <trkpt lat="43.45" lon="6.07224">
        <ele>341.39999389648</ele>
        <time>2015-12-09T14:23:55Z</time>
      </trkpt>
      <trkpt lat="43.44999" lon="6.07224">
        <ele>341.20001220703</ele>
        <time>2015-12-09T14:23:57Z</time>
      </trkpt>
      <trkpt lat="43.44998" lon="6.07223">
        <ele>341</ele>
        <time>2015-12-09T14:23:59Z</time>
      </trkpt>
      <trkpt lat="43.44997" lon="6.07222">
        <ele>340.60000610352</ele>
        <time>2015-12-09T14:24:01Z</time>
      </trkpt>
      <trkpt lat="43.44996" lon="6.07221">
        <ele>340.60000610352</ele>
        <time>2015-12-09T14:24:03Z</time>
      </trkpt>
      <trkpt lat="43.44995" lon="6.0722">
        <ele>340.39999389648</ele>
        <time>2015-12-09T14:24:05Z</time>
      </trkpt>
      <trkpt lat="43.44995" lon="6.0722">
        <ele>340.20001220703</ele>
        <time>2015-12-09T14:24:06Z</time>
      </trkpt>
      <trkpt lat="43.44995" lon="6.0722">
        <ele>340.20001220703</ele>
        <time>2015-12-09T14:24:07Z</time>
      </trkpt>
      <trkpt lat="43.44995" lon="6.07219">
        <ele>340</ele>
        <time>2015-12-09T14:24:09Z</time>
      </trkpt>
      <trkpt lat="43.44996" lon="6.07218">
        <ele>339.60000610352</ele>
        <time>2015-12-09T14:24:11Z</time>
      </trkpt>
      <trkpt lat="43.44996" lon="6.07217">
        <ele>339.60000610352</ele>
        <time>2015-12-09T14:24:13Z</time>
      </trkpt>
      <trkpt lat="43.44997" lon="6.07217">
        <ele>339.39999389648</ele>
        <time>2015-12-09T14:24:15Z</time>
      </trkpt>
      <trkpt lat="43.44997" lon="6.07217">
        <ele>339.39999389648</ele>
        <time>2015-12-09T14:24:17Z</time>
      </trkpt>
      <trkpt lat="43.44997" lon="6.07217">
        <ele>339.60000610352</ele>
        <time>2015-12-09T14:24:21Z</time>
      </trkpt>
      <trkpt lat="43.44997" lon="6.07217">
        <ele>339.60000610352</ele>
        <time>2015-12-09T14:24:23Z</time>
      </trkpt>
      <trkpt lat="43.44997" lon="6.07217">
        <ele>339.60000610352</ele>
        <time>2015-12-09T14:24:25Z</time>
      </trkpt>
      <trkpt lat="43.44997" lon="6.07216">
        <ele>339.60000610352</ele>
        <time>2015-12-09T14:24:27Z</time>
      </trkpt>
      <trkpt lat="43.44997" lon="6.07215">
        <ele>339.39999389648</ele>
        <time>2015-12-09T14:24:29Z</time>
      </trkpt>
      <trkpt lat="43.44997" lon="6.07215">
        <ele>339.20001220703</ele>
        <time>2015-12-09T14:24:30Z</time>
      </trkpt>
      <trkpt lat="43.44997" lon="6.07215">
        <ele>339</ele>
        <time>2015-12-09T14:24:31Z</time>
      </trkpt>
      <trkpt lat="43.44997" lon="6.07215">
        <ele>338.79998779297</ele>
        <time>2015-12-09T14:24:33Z</time>
      </trkpt>
      <trkpt lat="43.44997" lon="6.07215">
        <ele>338.79998779297</ele>
        <time>2015-12-09T14:24:35Z</time>
      </trkpt>
      <trkpt lat="43.44997" lon="6.07215">
        <ele>338.79998779297</ele>
        <time>2015-12-09T14:24:39Z</time>
      </trkpt>
      <trkpt lat="43.44997" lon="6.07214">
        <ele>338.79998779297</ele>
        <time>2015-12-09T14:24:41Z</time>
      </trkpt>
      <trkpt lat="43.44998" lon="6.07214">
        <ele>338.79998779297</ele>
        <time>2015-12-09T14:24:43Z</time>
      </trkpt>
      <trkpt lat="43.44998" lon="6.07214">
        <ele>338.79998779297</ele>
        <time>2015-12-09T14:24:45Z</time>
      </trkpt>
      <trkpt lat="43.44998" lon="6.07214">
        <ele>338.39999389648</ele>
        <time>2015-12-09T14:24:47Z</time>
      </trkpt>
      <trkpt lat="43.44998" lon="6.07214">
        <ele>338.39999389648</ele>
        <time>2015-12-09T14:24:49Z</time>
      </trkpt>
      <trkpt lat="43.44998" lon="6.07214">
        <ele>338.39999389648</ele>
        <time>2015-12-09T14:24:51Z</time>
      </trkpt>
      <trkpt lat="43.44999" lon="6.07213">
        <ele>338.20001220703</ele>
        <time>2015-12-09T14:24:53Z</time>
      </trkpt>
      <trkpt lat="43.44999" lon="6.07213">
        <ele>337.79998779297</ele>
        <time>2015-12-09T14:24:54Z</time>
      </trkpt>
      <trkpt lat="43.44999" lon="6.07213">
        <ele>337.79998779297</ele>
        <time>2015-12-09T14:24:57Z</time>
      </trkpt>
      <trkpt lat="43.44999" lon="6.07213">
        <ele>337.79998779297</ele>
        <time>2015-12-09T14:25:01Z</time>
      </trkpt>
      <trkpt lat="43.44999" lon="6.07213">
        <ele>337.79998779297</ele>
        <time>2015-12-09T14:25:05Z</time>
      </trkpt>
      <trkpt lat="43.44999" lon="6.07213">
        <ele>337.79998779297</ele>
        <time>2015-12-09T14:25:06Z</time>
      </trkpt>
      <trkpt lat="43.44999" lon="6.07212">
        <ele>337.79998779297</ele>
        <time>2015-12-09T14:25:07Z</time>
      </trkpt>
      <trkpt lat="43.45" lon="6.07212">
        <ele>337.79998779297</ele>
        <time>2015-12-09T14:25:09Z</time>
      </trkpt>
      <trkpt lat="43.45" lon="6.07211">
        <ele>337.79998779297</ele>
        <time>2015-12-09T14:25:11Z</time>
      </trkpt>
      <trkpt lat="43.45001" lon="6.07211">
        <ele>337.79998779297</ele>
        <time>2015-12-09T14:25:12Z</time>
      </trkpt>
      <trkpt lat="43.45001" lon="6.07211">
        <ele>337.60000610352</ele>
        <time>2015-12-09T14:25:13Z</time>
      </trkpt>
      <trkpt lat="43.45002" lon="6.07211">
        <ele>337.39999389648</ele>
        <time>2015-12-09T14:25:15Z</time>
      </trkpt>
      <trkpt lat="43.45005" lon="6.0721">
        <ele>336.79998779297</ele>
        <time>2015-12-09T14:25:17Z</time>
      </trkpt>
      <trkpt lat="43.45008" lon="6.0721">
        <ele>336</ele>
        <time>2015-12-09T14:25:19Z</time>
      </trkpt>
      <trkpt lat="43.45012" lon="6.07209">
        <ele>335.79998779297</ele>
        <time>2015-12-09T14:25:21Z</time>
      </trkpt>
      <trkpt lat="43.45013" lon="6.07209">
        <ele>335.60000610352</ele>
        <time>2015-12-09T14:25:22Z</time>
      </trkpt>
      <trkpt lat="43.45014" lon="6.07208">
        <ele>335.20001220703</ele>
        <time>2015-12-09T14:25:23Z</time>
      </trkpt>
      <trkpt lat="43.45016" lon="6.07208">
        <ele>334.79998779297</ele>
        <time>2015-12-09T14:25:24Z</time>
      </trkpt>
      <trkpt lat="43.45017" lon="6.07206">
        <ele>334.20001220703</ele>
        <time>2015-12-09T14:25:25Z</time>
      </trkpt>
      <trkpt lat="43.45017" lon="6.07205">
        <ele>333.39999389648</ele>
        <time>2015-12-09T14:25:27Z</time>
      </trkpt>
      <trkpt lat="43.45017" lon="6.07205">
        <ele>333.20001220703</ele>
        <time>2015-12-09T14:25:29Z</time>
      </trkpt>
      <trkpt lat="43.45017" lon="6.07204">
        <ele>333.20001220703</ele>
        <time>2015-12-09T14:25:31Z</time>
      </trkpt>
      <trkpt lat="43.45017" lon="6.07204">
        <ele>333.39999389648</ele>
        <time>2015-12-09T14:25:34Z</time>
      </trkpt>
      <trkpt lat="43.45017" lon="6.07204">
        <ele>333.20001220703</ele>
        <time>2015-12-09T14:25:35Z</time>
      </trkpt>
      <trkpt lat="43.45017" lon="6.07204">
        <ele>333</ele>
        <time>2015-12-09T14:25:37Z</time>
      </trkpt>
      <trkpt lat="43.45017" lon="6.07204">
        <ele>333.20001220703</ele>
        <time>2015-12-09T14:25:39Z</time>
      </trkpt>
      <trkpt lat="43.45016" lon="6.07204">
        <ele>333.20001220703</ele>
        <time>2015-12-09T14:25:41Z</time>
      </trkpt>
      <trkpt lat="43.45016" lon="6.07204">
        <ele>333.20001220703</ele>
        <time>2015-12-09T14:25:43Z</time>
      </trkpt>
      <trkpt lat="43.45016" lon="6.07202">
        <ele>333.20001220703</ele>
        <time>2015-12-09T14:25:45Z</time>
      </trkpt>
      <trkpt lat="43.45015" lon="6.07202">
        <ele>333</ele>
        <time>2015-12-09T14:25:47Z</time>
      </trkpt>
      <trkpt lat="43.45015" lon="6.07202">
        <ele>332.20001220703</ele>
        <time>2015-12-09T14:25:49Z</time>
      </trkpt>
      <trkpt lat="43.45015" lon="6.07202">
        <ele>332.20001220703</ele>
        <time>2015-12-09T14:25:51Z</time>
      </trkpt>
      <trkpt lat="43.45015" lon="6.07202">
        <ele>332.20001220703</ele>
        <time>2015-12-09T14:25:53Z</time>
      </trkpt>
      <trkpt lat="43.45015" lon="6.07202">
        <ele>332.20001220703</ele>
        <time>2015-12-09T14:25:55Z</time>
      </trkpt>
      <trkpt lat="43.45015" lon="6.07202">
        <ele>332.20001220703</ele>
        <time>2015-12-09T14:25:57Z</time>
      </trkpt>
      <trkpt lat="43.45015" lon="6.07202">
        <ele>332.39999389648</ele>
        <time>2015-12-09T14:26:01Z</time>
      </trkpt>
      <trkpt lat="43.45015" lon="6.07202">
        <ele>332</ele>
        <time>2015-12-09T14:26:05Z</time>
      </trkpt>
      <trkpt lat="43.45015" lon="6.07202">
        <ele>332</ele>
        <time>2015-12-09T14:26:07Z</time>
      </trkpt>
      <trkpt lat="43.45015" lon="6.07202">
        <ele>332</ele>
        <time>2015-12-09T14:26:08Z</time>
      </trkpt>
      <trkpt lat="43.45015" lon="6.07202">
        <ele>332</ele>
        <time>2015-12-09T14:26:09Z</time>
      </trkpt>
      <trkpt lat="43.45015" lon="6.07202">
        <ele>332</ele>
        <time>2015-12-09T14:26:11Z</time>
      </trkpt>
      <trkpt lat="43.45015" lon="6.07202">
        <ele>332.20001220703</ele>
        <time>2015-12-09T14:26:13Z</time>
      </trkpt>
      <trkpt lat="43.45015" lon="6.07202">
        <ele>332.20001220703</ele>
        <time>2015-12-09T14:26:15Z</time>
      </trkpt>
      <trkpt lat="43.45015" lon="6.07202">
        <ele>332.20001220703</ele>
        <time>2015-12-09T14:26:17Z</time>
      </trkpt>
      <trkpt lat="43.45015" lon="6.07202">
        <ele>332</ele>
        <time>2015-12-09T14:26:25Z</time>
      </trkpt>
      <trkpt lat="43.45015" lon="6.07202">
        <ele>331.79998779297</ele>
        <time>2015-12-09T14:26:39Z</time>
      </trkpt>
      <trkpt lat="43.45015" lon="6.07202">
        <ele>332</ele>
        <time>2015-12-09T14:26:49Z</time>
      </trkpt>
      <trkpt lat="43.45015" lon="6.07202">
        <ele>332</ele>
        <time>2015-12-09T14:26:51Z</time>
      </trkpt>
      <trkpt lat="43.45015" lon="6.07202">
        <ele>332</ele>
        <time>2015-12-09T14:26:54Z</time>
      </trkpt>
      <trkpt lat="43.45015" lon="6.07202">
        <ele>332</ele>
        <time>2015-12-09T14:26:57Z</time>
      </trkpt>
      <trkpt lat="43.45015" lon="6.07202">
        <ele>332</ele>
        <time>2015-12-09T14:26:59Z</time>
      </trkpt>
      <trkpt lat="43.45015" lon="6.07202">
        <ele>332</ele>
        <time>2015-12-09T14:27:03Z</time>
      </trkpt>
      <trkpt lat="43.45015" lon="6.07202">
        <ele>331.79998779297</ele>
        <time>2015-12-09T14:27:05Z</time>
      </trkpt>
      <trkpt lat="43.45014" lon="6.07201">
        <ele>332.60000610352</ele>
        <time>2015-12-09T14:27:09Z</time>
      </trkpt>
      <trkpt lat="43.45013" lon="6.072">
        <ele>332.60000610352</ele>
        <time>2015-12-09T14:27:10Z</time>
      </trkpt>
      <trkpt lat="43.45013" lon="6.072">
        <ele>332.60000610352</ele>
        <time>2015-12-09T14:27:11Z</time>
      </trkpt>
      <trkpt lat="43.45012" lon="6.072">
        <ele>332.39999389648</ele>
        <time>2015-12-09T14:27:13Z</time>
      </trkpt>
      <trkpt lat="43.45012" lon="6.07199">
        <ele>332.39999389648</ele>
        <time>2015-12-09T14:27:15Z</time>
      </trkpt>
      <trkpt lat="43.4501" lon="6.07198">
        <ele>332.39999389648</ele>
        <time>2015-12-09T14:27:19Z</time>
      </trkpt>
      <trkpt lat="43.45009" lon="6.07197">
        <ele>332.39999389648</ele>
        <time>2015-12-09T14:27:21Z</time>
      </trkpt>
      <trkpt lat="43.45007" lon="6.07196">
        <ele>331.79998779297</ele>
        <time>2015-12-09T14:27:23Z</time>
      </trkpt>
      <trkpt lat="43.45007" lon="6.07194">
        <ele>331</ele>
        <time>2015-12-09T14:27:27Z</time>
      </trkpt>
      <trkpt lat="43.45007" lon="6.07194">
        <ele>330.60000610352</ele>
        <time>2015-12-09T14:27:28Z</time>
      </trkpt>
      <trkpt lat="43.45006" lon="6.07193">
        <ele>330.20001220703</ele>
        <time>2015-12-09T14:27:29Z</time>
      </trkpt>
      <trkpt lat="43.45005" lon="6.07192">
        <ele>330.60000610352</ele>
        <time>2015-12-09T14:27:31Z</time>
      </trkpt>
      <trkpt lat="43.45005" lon="6.07192">
        <ele>330.39999389648</ele>
        <time>2015-12-09T14:27:33Z</time>
      </trkpt>
      <trkpt lat="43.45005" lon="6.07192">
        <ele>330.39999389648</ele>
        <time>2015-12-09T14:27:37Z</time>
      </trkpt>
      <trkpt lat="43.45005" lon="6.07192">
        <ele>330.39999389648</ele>
        <time>2015-12-09T14:27:45Z</time>
      </trkpt>
      <trkpt lat="43.45005" lon="6.07192">
        <ele>330.39999389648</ele>
        <time>2015-12-09T14:27:47Z</time>
      </trkpt>
      <trkpt lat="43.45005" lon="6.07192">
        <ele>330.39999389648</ele>
        <time>2015-12-09T14:27:49Z</time>
      </trkpt>
      <trkpt lat="43.45005" lon="6.07192">
        <ele>330.20001220703</ele>
        <time>2015-12-09T14:27:51Z</time>
      </trkpt>
      <trkpt lat="43.45005" lon="6.07192">
        <ele>330.39999389648</ele>
        <time>2015-12-09T14:27:53Z</time>
      </trkpt>
      <trkpt lat="43.45005" lon="6.07192">
        <ele>330.39999389648</ele>
        <time>2015-12-09T14:28:09Z</time>
      </trkpt>
      <trkpt lat="43.45005" lon="6.07192">
        <ele>330.39999389648</ele>
        <time>2015-12-09T14:28:23Z</time>
      </trkpt>
      <trkpt lat="43.45005" lon="6.07192">
        <ele>330.39999389648</ele>
        <time>2015-12-09T14:28:25Z</time>
      </trkpt>
      <trkpt lat="43.45005" lon="6.07192">
        <ele>330.39999389648</ele>
        <time>2015-12-09T14:28:27Z</time>
      </trkpt>
      <trkpt lat="43.45003" lon="6.07191">
        <ele>330.20001220703</ele>
        <time>2015-12-09T14:28:29Z</time>
      </trkpt>
      <trkpt lat="43.45001" lon="6.07188">
        <ele>330</ele>
        <time>2015-12-09T14:28:31Z</time>
      </trkpt>
      <trkpt lat="43.44999" lon="6.07187">
        <ele>329.79998779297</ele>
        <time>2015-12-09T14:28:32Z</time>
      </trkpt>
      <trkpt lat="43.44998" lon="6.07187">
        <ele>329.79998779297</ele>
        <time>2015-12-09T14:28:33Z</time>
      </trkpt>
      <trkpt lat="43.44994" lon="6.07187">
        <ele>330</ele>
        <time>2015-12-09T14:28:35Z</time>
      </trkpt>
      <trkpt lat="43.44991" lon="6.07187">
        <ele>329.39999389648</ele>
        <time>2015-12-09T14:28:36Z</time>
      </trkpt>
      <trkpt lat="43.44989" lon="6.07188">
        <ele>329</ele>
        <time>2015-12-09T14:28:37Z</time>
      </trkpt>
      <trkpt lat="43.44987" lon="6.07189">
        <ele>328.79998779297</ele>
        <time>2015-12-09T14:28:38Z</time>
      </trkpt>
      <trkpt lat="43.44984" lon="6.07189">
        <ele>328.79998779297</ele>
        <time>2015-12-09T14:28:39Z</time>
      </trkpt>
      <trkpt lat="43.4498" lon="6.07191">
        <ele>328.79998779297</ele>
        <time>2015-12-09T14:28:41Z</time>
      </trkpt>
      <trkpt lat="43.44977" lon="6.07193">
        <ele>328.60000610352</ele>
        <time>2015-12-09T14:28:43Z</time>
      </trkpt>
      <trkpt lat="43.44973" lon="6.07194">
        <ele>328.20001220703</ele>
        <time>2015-12-09T14:28:45Z</time>
      </trkpt>
      <trkpt lat="43.4497" lon="6.07195">
        <ele>328.20001220703</ele>
        <time>2015-12-09T14:28:46Z</time>
      </trkpt>
      <trkpt lat="43.44968" lon="6.07194">
        <ele>328</ele>
        <time>2015-12-09T14:28:47Z</time>
      </trkpt>
      <trkpt lat="43.44966" lon="6.07193">
        <ele>327.79998779297</ele>
        <time>2015-12-09T14:28:48Z</time>
      </trkpt>
      <trkpt lat="43.44958" lon="6.07191">
        <ele>327.39999389648</ele>
        <time>2015-12-09T14:28:51Z</time>
      </trkpt>
      <trkpt lat="43.44955" lon="6.07189">
        <ele>326.39999389648</ele>
        <time>2015-12-09T14:28:52Z</time>
      </trkpt>
      <trkpt lat="43.44952" lon="6.07188">
        <ele>326.20001220703</ele>
        <time>2015-12-09T14:28:53Z</time>
      </trkpt>
      <trkpt lat="43.44949" lon="6.07186">
        <ele>326</ele>
        <time>2015-12-09T14:28:54Z</time>
      </trkpt>
      <trkpt lat="43.44946" lon="6.07184">
        <ele>326</ele>
        <time>2015-12-09T14:28:55Z</time>
      </trkpt>
      <trkpt lat="43.44942" lon="6.07179">
        <ele>326</ele>
        <time>2015-12-09T14:28:57Z</time>
      </trkpt>
      <trkpt lat="43.44939" lon="6.07175">
        <ele>325.79998779297</ele>
        <time>2015-12-09T14:28:59Z</time>
      </trkpt>
      <trkpt lat="43.44939" lon="6.07172">
        <ele>325.39999389648</ele>
        <time>2015-12-09T14:29:00Z</time>
      </trkpt>
      <trkpt lat="43.44938" lon="6.07169">
        <ele>325</ele>
        <time>2015-12-09T14:29:01Z</time>
      </trkpt>
      <trkpt lat="43.44937" lon="6.07163">
        <ele>324.20001220703</ele>
        <time>2015-12-09T14:29:03Z</time>
      </trkpt>
      <trkpt lat="43.44936" lon="6.07157">
        <ele>324.20001220703</ele>
        <time>2015-12-09T14:29:05Z</time>
      </trkpt>
      <trkpt lat="43.44936" lon="6.07154">
        <ele>324.20001220703</ele>
        <time>2015-12-09T14:29:06Z</time>
      </trkpt>
      <trkpt lat="43.44935" lon="6.07151">
        <ele>324.20001220703</ele>
        <time>2015-12-09T14:29:07Z</time>
      </trkpt>
      <trkpt lat="43.44934" lon="6.07145">
        <ele>323.60000610352</ele>
        <time>2015-12-09T14:29:09Z</time>
      </trkpt>
      <trkpt lat="43.44933" lon="6.07142">
        <ele>323.20001220703</ele>
        <time>2015-12-09T14:29:10Z</time>
      </trkpt>
      <trkpt lat="43.44933" lon="6.07139">
        <ele>322.60000610352</ele>
        <time>2015-12-09T14:29:11Z</time>
      </trkpt>
      <trkpt lat="43.44932" lon="6.07136">
        <ele>322</ele>
        <time>2015-12-09T14:29:12Z</time>
      </trkpt>
      <trkpt lat="43.44931" lon="6.07131">
        <ele>321.39999389648</ele>
        <time>2015-12-09T14:29:14Z</time>
      </trkpt>
      <trkpt lat="43.4493" lon="6.07129">
        <ele>321.20001220703</ele>
        <time>2015-12-09T14:29:15Z</time>
      </trkpt>
      <trkpt lat="43.4493" lon="6.07126">
        <ele>320.79998779297</ele>
        <time>2015-12-09T14:29:16Z</time>
      </trkpt>
      <trkpt lat="43.4493" lon="6.07124">
        <ele>320.20001220703</ele>
        <time>2015-12-09T14:29:17Z</time>
      </trkpt>
      <trkpt lat="43.44929" lon="6.07121">
        <ele>319.39999389648</ele>
        <time>2015-12-09T14:29:19Z</time>
      </trkpt>
      <trkpt lat="43.44929" lon="6.07121">
        <ele>319</ele>
        <time>2015-12-09T14:29:20Z</time>
      </trkpt>
      <trkpt lat="43.44929" lon="6.07121">
        <ele>319</ele>
        <time>2015-12-09T14:29:21Z</time>
      </trkpt>
      <trkpt lat="43.44928" lon="6.07119">
        <ele>318.60000610352</ele>
        <time>2015-12-09T14:29:23Z</time>
      </trkpt>
      <trkpt lat="43.44928" lon="6.07118">
        <ele>318.39999389648</ele>
        <time>2015-12-09T14:29:24Z</time>
      </trkpt>
      <trkpt lat="43.44928" lon="6.07117">
        <ele>318.39999389648</ele>
        <time>2015-12-09T14:29:25Z</time>
      </trkpt>
      <trkpt lat="43.44928" lon="6.07117">
        <ele>318.20001220703</ele>
        <time>2015-12-09T14:29:26Z</time>
      </trkpt>
      <trkpt lat="43.44928" lon="6.07116">
        <ele>318</ele>
        <time>2015-12-09T14:29:27Z</time>
      </trkpt>
      <trkpt lat="43.44928" lon="6.07116">
        <ele>317.79998779297</ele>
        <time>2015-12-09T14:29:29Z</time>
      </trkpt>
      <trkpt lat="43.44928" lon="6.07116">
        <ele>318</ele>
        <time>2015-12-09T14:29:35Z</time>
      </trkpt>
      <trkpt lat="43.44928" lon="6.07116">
        <ele>318</ele>
        <time>2015-12-09T14:29:39Z</time>
      </trkpt>
      <trkpt lat="43.44927" lon="6.07113">
        <ele>317.79998779297</ele>
        <time>2015-12-09T14:29:43Z</time>
      </trkpt>
      <trkpt lat="43.44927" lon="6.07112">
        <ele>317.20001220703</ele>
        <time>2015-12-09T14:29:44Z</time>
      </trkpt>
      <trkpt lat="43.44927" lon="6.07109">
        <ele>317</ele>
        <time>2015-12-09T14:29:45Z</time>
      </trkpt>
      <trkpt lat="43.44927" lon="6.07104">
        <ele>316.39999389648</ele>
        <time>2015-12-09T14:29:47Z</time>
      </trkpt>
      <trkpt lat="43.44928" lon="6.07101">
        <ele>316</ele>
        <time>2015-12-09T14:29:48Z</time>
      </trkpt>
      <trkpt lat="43.44928" lon="6.07098">
        <ele>315.60000610352</ele>
        <time>2015-12-09T14:29:49Z</time>
      </trkpt>
      <trkpt lat="43.44928" lon="6.07093">
        <ele>314.39999389648</ele>
        <time>2015-12-09T14:29:51Z</time>
      </trkpt>
      <trkpt lat="43.44928" lon="6.07088">
        <ele>313.60000610352</ele>
        <time>2015-12-09T14:29:53Z</time>
      </trkpt>
      <trkpt lat="43.44928" lon="6.07086">
        <ele>313.39999389648</ele>
        <time>2015-12-09T14:29:54Z</time>
      </trkpt>
      <trkpt lat="43.44927" lon="6.07084">
        <ele>313.60000610352</ele>
        <time>2015-12-09T14:29:55Z</time>
      </trkpt>
      <trkpt lat="43.44926" lon="6.07081">
        <ele>312.60000610352</ele>
        <time>2015-12-09T14:29:57Z</time>
      </trkpt>
      <trkpt lat="43.44926" lon="6.07079">
        <ele>312.39999389648</ele>
        <time>2015-12-09T14:29:58Z</time>
      </trkpt>
      <trkpt lat="43.44926" lon="6.07078">
        <ele>312</ele>
        <time>2015-12-09T14:29:59Z</time>
      </trkpt>
      <trkpt lat="43.44926" lon="6.07078">
        <ele>311.79998779297</ele>
        <time>2015-12-09T14:30:01Z</time>
      </trkpt>
      <trkpt lat="43.44926" lon="6.07078">
        <ele>311.79998779297</ele>
        <time>2015-12-09T14:30:03Z</time>
      </trkpt>
      <trkpt lat="43.44926" lon="6.07078">
        <ele>311.60000610352</ele>
        <time>2015-12-09T14:30:05Z</time>
      </trkpt>
      <trkpt lat="43.44926" lon="6.07078">
        <ele>311.79998779297</ele>
        <time>2015-12-09T14:30:07Z</time>
      </trkpt>
      <trkpt lat="43.44926" lon="6.07078">
        <ele>311.60000610352</ele>
        <time>2015-12-09T14:30:11Z</time>
      </trkpt>
      <trkpt lat="43.44926" lon="6.07078">
        <ele>311.60000610352</ele>
        <time>2015-12-09T14:30:13Z</time>
      </trkpt>
      <trkpt lat="43.44926" lon="6.07077">
        <ele>311.79998779297</ele>
        <time>2015-12-09T14:30:15Z</time>
      </trkpt>
      <trkpt lat="43.44925" lon="6.07077">
        <ele>311.79998779297</ele>
        <time>2015-12-09T14:30:16Z</time>
      </trkpt>
      <trkpt lat="43.44925" lon="6.07077">
        <ele>311.60000610352</ele>
        <time>2015-12-09T14:30:17Z</time>
      </trkpt>
      <trkpt lat="43.44925" lon="6.07077">
        <ele>311.39999389648</ele>
        <time>2015-12-09T14:30:19Z</time>
      </trkpt>
      <trkpt lat="43.44925" lon="6.07077">
        <ele>311.20001220703</ele>
        <time>2015-12-09T14:30:21Z</time>
      </trkpt>
      <trkpt lat="43.44925" lon="6.07077">
        <ele>311.39999389648</ele>
        <time>2015-12-09T14:30:23Z</time>
      </trkpt>
      <trkpt lat="43.44925" lon="6.07077">
        <ele>311.39999389648</ele>
        <time>2015-12-09T14:30:24Z</time>
      </trkpt>
      <trkpt lat="43.44925" lon="6.07077">
        <ele>311.39999389648</ele>
        <time>2015-12-09T14:30:29Z</time>
      </trkpt>
      <trkpt lat="43.44925" lon="6.07077">
        <ele>311.60000610352</ele>
        <time>2015-12-09T14:30:35Z</time>
      </trkpt>
      <trkpt lat="43.44925" lon="6.07077">
        <ele>311.39999389648</ele>
        <time>2015-12-09T14:30:37Z</time>
      </trkpt>
      <trkpt lat="43.44925" lon="6.07076">
        <ele>311.39999389648</ele>
        <time>2015-12-09T14:30:39Z</time>
      </trkpt>
      <trkpt lat="43.44924" lon="6.07076">
        <ele>311.20001220703</ele>
        <time>2015-12-09T14:30:41Z</time>
      </trkpt>
      <trkpt lat="43.44924" lon="6.07076">
        <ele>311.20001220703</ele>
        <time>2015-12-09T14:30:42Z</time>
      </trkpt>
      <trkpt lat="43.44924" lon="6.07075">
        <ele>310.60000610352</ele>
        <time>2015-12-09T14:30:44Z</time>
      </trkpt>
      <trkpt lat="43.44923" lon="6.07074">
        <ele>310.60000610352</ele>
        <time>2015-12-09T14:30:45Z</time>
      </trkpt>
      <trkpt lat="43.44923" lon="6.07073">
        <ele>310.39999389648</ele>
        <time>2015-12-09T14:30:47Z</time>
      </trkpt>
      <trkpt lat="43.44923" lon="6.07072">
        <ele>310.20001220703</ele>
        <time>2015-12-09T14:30:48Z</time>
      </trkpt>
      <trkpt lat="43.44922" lon="6.07068">
        <ele>309.79998779297</ele>
        <time>2015-12-09T14:30:50Z</time>
      </trkpt>
      <trkpt lat="43.44921" lon="6.07066">
        <ele>309.39999389648</ele>
        <time>2015-12-09T14:30:51Z</time>
      </trkpt>
      <trkpt lat="43.44921" lon="6.07062">
        <ele>308.39999389648</ele>
        <time>2015-12-09T14:30:53Z</time>
      </trkpt>
      <trkpt lat="43.44921" lon="6.07058">
        <ele>307.39999389648</ele>
        <time>2015-12-09T14:30:55Z</time>
      </trkpt>
      <trkpt lat="43.44921" lon="6.07056">
        <ele>307.20001220703</ele>
        <time>2015-12-09T14:30:56Z</time>
      </trkpt>
      <trkpt lat="43.44921" lon="6.07054">
        <ele>306.79998779297</ele>
        <time>2015-12-09T14:30:57Z</time>
      </trkpt>
      <trkpt lat="43.44921" lon="6.07052">
        <ele>306.39999389648</ele>
        <time>2015-12-09T14:30:58Z</time>
      </trkpt>
      <trkpt lat="43.4492" lon="6.07049">
        <ele>305.79998779297</ele>
        <time>2015-12-09T14:31:00Z</time>
      </trkpt>
      <trkpt lat="43.4492" lon="6.07047">
        <ele>305.60000610352</ele>
        <time>2015-12-09T14:31:01Z</time>
      </trkpt>
      <trkpt lat="43.44918" lon="6.07044">
        <ele>305</ele>
        <time>2015-12-09T14:31:03Z</time>
      </trkpt>
      <trkpt lat="43.44918" lon="6.07043">
        <ele>304.60000610352</ele>
        <time>2015-12-09T14:31:04Z</time>
      </trkpt>
      <trkpt lat="43.44918" lon="6.07043">
        <ele>304.39999389648</ele>
        <time>2015-12-09T14:31:05Z</time>
      </trkpt>
      <trkpt lat="43.44918" lon="6.07043">
        <ele>304.20001220703</ele>
        <time>2015-12-09T14:31:07Z</time>
      </trkpt>
      <trkpt lat="43.44918" lon="6.07043">
        <ele>304.20001220703</ele>
        <time>2015-12-09T14:31:09Z</time>
      </trkpt>
      <trkpt lat="43.44919" lon="6.07042">
        <ele>304.20001220703</ele>
        <time>2015-12-09T14:31:11Z</time>
      </trkpt>
      <trkpt lat="43.44919" lon="6.07041">
        <ele>304.20001220703</ele>
        <time>2015-12-09T14:31:12Z</time>
      </trkpt>
      <trkpt lat="43.44919" lon="6.07041">
        <ele>304.39999389648</ele>
        <time>2015-12-09T14:31:13Z</time>
      </trkpt>
      <trkpt lat="43.44919" lon="6.07041">
        <ele>304</ele>
        <time>2015-12-09T14:31:19Z</time>
      </trkpt>
      <trkpt lat="43.44919" lon="6.07041">
        <ele>304.20001220703</ele>
        <time>2015-12-09T14:31:25Z</time>
      </trkpt>
      <trkpt lat="43.44919" lon="6.07041">
        <ele>304.20001220703</ele>
        <time>2015-12-09T14:31:53Z</time>
      </trkpt>
      <trkpt lat="43.44919" lon="6.07041">
        <ele>304.20001220703</ele>
        <time>2015-12-09T14:32:09Z</time>
      </trkpt>
      <trkpt lat="43.44919" lon="6.07041">
        <ele>303.79998779297</ele>
        <time>2015-12-09T14:32:30Z</time>
      </trkpt>
      <trkpt lat="43.44919" lon="6.07041">
        <ele>304</ele>
        <time>2015-12-09T14:32:31Z</time>
      </trkpt>
      <trkpt lat="43.44919" lon="6.07041">
        <ele>304.20001220703</ele>
        <time>2015-12-09T14:32:37Z</time>
      </trkpt>
      <trkpt lat="43.44919" lon="6.07041">
        <ele>304</ele>
        <time>2015-12-09T14:32:51Z</time>
      </trkpt>
      <trkpt lat="43.44919" lon="6.07041">
        <ele>304.20001220703</ele>
        <time>2015-12-09T14:32:55Z</time>
      </trkpt>
      <trkpt lat="43.44919" lon="6.07041">
        <ele>304.39999389648</ele>
        <time>2015-12-09T14:32:57Z</time>
      </trkpt>
      <trkpt lat="43.44918" lon="6.07039">
        <ele>304.20001220703</ele>
        <time>2015-12-09T14:32:59Z</time>
      </trkpt>
      <trkpt lat="43.44918" lon="6.07038">
        <ele>304</ele>
        <time>2015-12-09T14:33:01Z</time>
      </trkpt>
      <trkpt lat="43.44918" lon="6.07038">
        <ele>303.79998779297</ele>
        <time>2015-12-09T14:33:05Z</time>
      </trkpt>
      <trkpt lat="43.44918" lon="6.07037">
        <ele>303.60000610352</ele>
        <time>2015-12-09T14:33:07Z</time>
      </trkpt>
      <trkpt lat="43.44917" lon="6.07037">
        <ele>303.39999389648</ele>
        <time>2015-12-09T14:33:09Z</time>
      </trkpt>
      <trkpt lat="43.44917" lon="6.07036">
        <ele>303.39999389648</ele>
        <time>2015-12-09T14:33:11Z</time>
      </trkpt>
      <trkpt lat="43.44917" lon="6.07034">
        <ele>302.60000610352</ele>
        <time>2015-12-09T14:33:15Z</time>
      </trkpt>
      <trkpt lat="43.44917" lon="6.07033">
        <ele>302.20001220703</ele>
        <time>2015-12-09T14:33:17Z</time>
      </trkpt>
      <trkpt lat="43.44917" lon="6.07033">
        <ele>302.20001220703</ele>
        <time>2015-12-09T14:33:19Z</time>
      </trkpt>
      <trkpt lat="43.44917" lon="6.07031">
        <ele>302</ele>
        <time>2015-12-09T14:33:21Z</time>
      </trkpt>
      <trkpt lat="43.44917" lon="6.07028">
        <ele>301.60000610352</ele>
        <time>2015-12-09T14:33:23Z</time>
      </trkpt>
      <trkpt lat="43.44917" lon="6.07026">
        <ele>301.20001220703</ele>
        <time>2015-12-09T14:33:24Z</time>
      </trkpt>
      <trkpt lat="43.44917" lon="6.07024">
        <ele>300.79998779297</ele>
        <time>2015-12-09T14:33:25Z</time>
      </trkpt>
      <trkpt lat="43.44917" lon="6.07019">
        <ele>300.20001220703</ele>
        <time>2015-12-09T14:33:27Z</time>
      </trkpt>
      <trkpt lat="43.44916" lon="6.07016">
        <ele>299.79998779297</ele>
        <time>2015-12-09T14:33:28Z</time>
      </trkpt>
      <trkpt lat="43.44916" lon="6.07014">
        <ele>299.20001220703</ele>
        <time>2015-12-09T14:33:29Z</time>
      </trkpt>
      <trkpt lat="43.44916" lon="6.07011">
        <ele>298.60000610352</ele>
        <time>2015-12-09T14:33:30Z</time>
      </trkpt>
      <trkpt lat="43.44915" lon="6.07008">
        <ele>298.39999389648</ele>
        <time>2015-12-09T14:33:31Z</time>
      </trkpt>
      <trkpt lat="43.44913" lon="6.07004">
        <ele>297</ele>
        <time>2015-12-09T14:33:33Z</time>
      </trkpt>
      <trkpt lat="43.44912" lon="6.07001">
        <ele>296</ele>
        <time>2015-12-09T14:33:35Z</time>
      </trkpt>
      <trkpt lat="43.44912" lon="6.06999">
        <ele>295.60000610352</ele>
        <time>2015-12-09T14:33:36Z</time>
      </trkpt>
      <trkpt lat="43.44912" lon="6.06998">
        <ele>295.39999389648</ele>
        <time>2015-12-09T14:33:37Z</time>
      </trkpt>
      <trkpt lat="43.44911" lon="6.06997">
        <ele>295</ele>
        <time>2015-12-09T14:33:39Z</time>
      </trkpt>
      <trkpt lat="43.4491" lon="6.06996">
        <ele>294.79998779297</ele>
        <time>2015-12-09T14:33:40Z</time>
      </trkpt>
      <trkpt lat="43.4491" lon="6.06996">
        <ele>294.39999389648</ele>
        <time>2015-12-09T14:33:41Z</time>
      </trkpt>
      <trkpt lat="43.4491" lon="6.06996">
        <ele>294</ele>
        <time>2015-12-09T14:33:43Z</time>
      </trkpt>
      <trkpt lat="43.44909" lon="6.06996">
        <ele>294</ele>
        <time>2015-12-09T14:33:45Z</time>
      </trkpt>
      <trkpt lat="43.44909" lon="6.06996">
        <ele>293.79998779297</ele>
        <time>2015-12-09T14:33:46Z</time>
      </trkpt>
      <trkpt lat="43.44909" lon="6.06995">
        <ele>293.60000610352</ele>
        <time>2015-12-09T14:33:49Z</time>
      </trkpt>
      <trkpt lat="43.44907" lon="6.06995">
        <ele>293.39999389648</ele>
        <time>2015-12-09T14:33:51Z</time>
      </trkpt>
      <trkpt lat="43.44907" lon="6.06994">
        <ele>293.20001220703</ele>
        <time>2015-12-09T14:33:52Z</time>
      </trkpt>
      <trkpt lat="43.44906" lon="6.06994">
        <ele>293</ele>
        <time>2015-12-09T14:33:53Z</time>
      </trkpt>
      <trkpt lat="43.44905" lon="6.06993">
        <ele>292.60000610352</ele>
        <time>2015-12-09T14:33:55Z</time>
      </trkpt>
      <trkpt lat="43.44905" lon="6.06993">
        <ele>292.20001220703</ele>
        <time>2015-12-09T14:33:57Z</time>
      </trkpt>
      <trkpt lat="43.44904" lon="6.06993">
        <ele>292</ele>
        <time>2015-12-09T14:33:58Z</time>
      </trkpt>
      <trkpt lat="43.44902" lon="6.06993">
        <ele>292</ele>
        <time>2015-12-09T14:33:59Z</time>
      </trkpt>
      <trkpt lat="43.44901" lon="6.06993">
        <ele>291.20001220703</ele>
        <time>2015-12-09T14:34:01Z</time>
      </trkpt>
      <trkpt lat="43.44899" lon="6.06992">
        <ele>290.79998779297</ele>
        <time>2015-12-09T14:34:02Z</time>
      </trkpt>
      <trkpt lat="43.44899" lon="6.06992">
        <ele>290.79998779297</ele>
        <time>2015-12-09T14:34:03Z</time>
      </trkpt>
      <trkpt lat="43.44898" lon="6.06992">
        <ele>290.79998779297</ele>
        <time>2015-12-09T14:34:04Z</time>
      </trkpt>
      <trkpt lat="43.44898" lon="6.06992">
        <ele>290.79998779297</ele>
        <time>2015-12-09T14:34:05Z</time>
      </trkpt>
      <trkpt lat="43.44898" lon="6.06992">
        <ele>290.39999389648</ele>
        <time>2015-12-09T14:34:07Z</time>
      </trkpt>
      <trkpt lat="43.44898" lon="6.06992">
        <ele>290.39999389648</ele>
        <time>2015-12-09T14:34:09Z</time>
      </trkpt>
      <trkpt lat="43.44897" lon="6.06992">
        <ele>290.39999389648</ele>
        <time>2015-12-09T14:34:11Z</time>
      </trkpt>
      <trkpt lat="43.44897" lon="6.06992">
        <ele>290.60000610352</ele>
        <time>2015-12-09T14:34:13Z</time>
      </trkpt>
      <trkpt lat="43.44897" lon="6.06992">
        <ele>290.60000610352</ele>
        <time>2015-12-09T14:34:15Z</time>
      </trkpt>
      <trkpt lat="43.44897" lon="6.06992">
        <ele>290.39999389648</ele>
        <time>2015-12-09T14:34:17Z</time>
      </trkpt>
      <trkpt lat="43.44897" lon="6.06992">
        <ele>290.39999389648</ele>
        <time>2015-12-09T14:34:19Z</time>
      </trkpt>
      <trkpt lat="43.44897" lon="6.06991">
        <ele>290.39999389648</ele>
        <time>2015-12-09T14:34:20Z</time>
      </trkpt>
      <trkpt lat="43.44897" lon="6.06991">
        <ele>290.39999389648</ele>
        <time>2015-12-09T14:34:23Z</time>
      </trkpt>
      <trkpt lat="43.44897" lon="6.06991">
        <ele>290.39999389648</ele>
        <time>2015-12-09T14:34:25Z</time>
      </trkpt>
      <trkpt lat="43.44897" lon="6.06991">
        <ele>290.39999389648</ele>
        <time>2015-12-09T14:34:27Z</time>
      </trkpt>
      <trkpt lat="43.44897" lon="6.06991">
        <ele>290.39999389648</ele>
        <time>2015-12-09T14:34:33Z</time>
      </trkpt>
      <trkpt lat="43.44897" lon="6.06991">
        <ele>290.39999389648</ele>
        <time>2015-12-09T14:34:45Z</time>
      </trkpt>
      <trkpt lat="43.44897" lon="6.06991">
        <ele>290.39999389648</ele>
        <time>2015-12-09T14:34:47Z</time>
      </trkpt>
      <trkpt lat="43.44897" lon="6.06991">
        <ele>290.60000610352</ele>
        <time>2015-12-09T14:34:49Z</time>
      </trkpt>
      <trkpt lat="43.44897" lon="6.06991">
        <ele>290.60000610352</ele>
        <time>2015-12-09T14:34:51Z</time>
      </trkpt>
      <trkpt lat="43.44897" lon="6.0699">
        <ele>290.39999389648</ele>
        <time>2015-12-09T14:34:53Z</time>
      </trkpt>
      <trkpt lat="43.44897" lon="6.0699">
        <ele>290.39999389648</ele>
        <time>2015-12-09T14:34:55Z</time>
      </trkpt>
      <trkpt lat="43.44897" lon="6.0699">
        <ele>290.39999389648</ele>
        <time>2015-12-09T14:34:57Z</time>
      </trkpt>
      <trkpt lat="43.44897" lon="6.0699">
        <ele>290.20001220703</ele>
        <time>2015-12-09T14:34:59Z</time>
      </trkpt>
      <trkpt lat="43.44897" lon="6.06989">
        <ele>290.20001220703</ele>
        <time>2015-12-09T14:35:03Z</time>
      </trkpt>
      <trkpt lat="43.44897" lon="6.06989">
        <ele>290</ele>
        <time>2015-12-09T14:35:05Z</time>
      </trkpt>
      <trkpt lat="43.44897" lon="6.06989">
        <ele>289.79998779297</ele>
        <time>2015-12-09T14:35:07Z</time>
      </trkpt>
      <trkpt lat="43.44897" lon="6.06989">
        <ele>290.20001220703</ele>
        <time>2015-12-09T14:35:11Z</time>
      </trkpt>
      <trkpt lat="43.44897" lon="6.06989">
        <ele>290.20001220703</ele>
        <time>2015-12-09T14:35:13Z</time>
      </trkpt>
      <trkpt lat="43.44897" lon="6.06989">
        <ele>290.20001220703</ele>
        <time>2015-12-09T14:35:15Z</time>
      </trkpt>
      <trkpt lat="43.44897" lon="6.06989">
        <ele>290</ele>
        <time>2015-12-09T14:35:16Z</time>
      </trkpt>
      <trkpt lat="43.44897" lon="6.06989">
        <ele>290</ele>
        <time>2015-12-09T14:35:17Z</time>
      </trkpt>
      <trkpt lat="43.44897" lon="6.06988">
        <ele>290</ele>
        <time>2015-12-09T14:35:19Z</time>
      </trkpt>
      <trkpt lat="43.44897" lon="6.06988">
        <ele>289.79998779297</ele>
        <time>2015-12-09T14:35:21Z</time>
      </trkpt>
      <trkpt lat="43.44897" lon="6.06988">
        <ele>289.79998779297</ele>
        <time>2015-12-09T14:35:23Z</time>
      </trkpt>
      <trkpt lat="43.44897" lon="6.06988">
        <ele>289.60000610352</ele>
        <time>2015-12-09T14:35:25Z</time>
      </trkpt>
      <trkpt lat="43.44897" lon="6.06988">
        <ele>289.60000610352</ele>
        <time>2015-12-09T14:35:27Z</time>
      </trkpt>
      <trkpt lat="43.44897" lon="6.06988">
        <ele>289.79998779297</ele>
        <time>2015-12-09T14:35:29Z</time>
      </trkpt>
      <trkpt lat="43.44897" lon="6.06988">
        <ele>289.60000610352</ele>
        <time>2015-12-09T14:35:31Z</time>
      </trkpt>
      <trkpt lat="43.44897" lon="6.06988">
        <ele>289.60000610352</ele>
        <time>2015-12-09T14:35:33Z</time>
      </trkpt>
      <trkpt lat="43.44897" lon="6.06988">
        <ele>289.79998779297</ele>
        <time>2015-12-09T14:35:35Z</time>
      </trkpt>
      <trkpt lat="43.44897" lon="6.06988">
        <ele>289.60000610352</ele>
        <time>2015-12-09T14:35:37Z</time>
      </trkpt>
      <trkpt lat="43.44897" lon="6.06988">
        <ele>289.39999389648</ele>
        <time>2015-12-09T14:35:39Z</time>
      </trkpt>
      <trkpt lat="43.44897" lon="6.06988">
        <ele>289.60000610352</ele>
        <time>2015-12-09T14:35:43Z</time>
      </trkpt>
      <trkpt lat="43.44897" lon="6.06988">
        <ele>289.60000610352</ele>
        <time>2015-12-09T14:35:45Z</time>
      </trkpt>
      <trkpt lat="43.44897" lon="6.06988">
        <ele>289.79998779297</ele>
        <time>2015-12-09T14:35:47Z</time>
      </trkpt>
      <trkpt lat="43.44897" lon="6.06988">
        <ele>289.60000610352</ele>
        <time>2015-12-09T14:35:51Z</time>
      </trkpt>
      <trkpt lat="43.44897" lon="6.06988">
        <ele>289.60000610352</ele>
        <time>2015-12-09T14:35:53Z</time>
      </trkpt>
      <trkpt lat="43.44897" lon="6.06987">
        <ele>289.60000610352</ele>
        <time>2015-12-09T14:35:55Z</time>
      </trkpt>
      <trkpt lat="43.44897" lon="6.06987">
        <ele>289.60000610352</ele>
        <time>2015-12-09T14:35:57Z</time>
      </trkpt>
      <trkpt lat="43.44897" lon="6.06987">
        <ele>289.60000610352</ele>
        <time>2015-12-09T14:35:58Z</time>
      </trkpt>
      <trkpt lat="43.44897" lon="6.06987">
        <ele>289.60000610352</ele>
        <time>2015-12-09T14:35:59Z</time>
      </trkpt>
      <trkpt lat="43.44897" lon="6.06985">
        <ele>289.39999389648</ele>
        <time>2015-12-09T14:36:01Z</time>
      </trkpt>
      <trkpt lat="43.44899" lon="6.06984">
        <ele>289.20001220703</ele>
        <time>2015-12-09T14:36:03Z</time>
      </trkpt>
      <trkpt lat="43.44899" lon="6.06981">
        <ele>288.79998779297</ele>
        <time>2015-12-09T14:36:05Z</time>
      </trkpt>
      <trkpt lat="43.44899" lon="6.06979">
        <ele>288.39999389648</ele>
        <time>2015-12-09T14:36:06Z</time>
      </trkpt>
      <trkpt lat="43.44898" lon="6.06978">
        <ele>288</ele>
        <time>2015-12-09T14:36:07Z</time>
      </trkpt>
      <trkpt lat="43.44898" lon="6.06977">
        <ele>287.39999389648</ele>
        <time>2015-12-09T14:36:10Z</time>
      </trkpt>
      <trkpt lat="43.44898" lon="6.06977">
        <ele>287.20001220703</ele>
        <time>2015-12-09T14:36:11Z</time>
      </trkpt>
      <trkpt lat="43.44898" lon="6.06977">
        <ele>287.20001220703</ele>
        <time>2015-12-09T14:36:13Z</time>
      </trkpt>
      <trkpt lat="43.44898" lon="6.06977">
        <ele>287.20001220703</ele>
        <time>2015-12-09T14:36:15Z</time>
      </trkpt>
      <trkpt lat="43.44898" lon="6.06977">
        <ele>287.20001220703</ele>
        <time>2015-12-09T14:36:17Z</time>
      </trkpt>
      <trkpt lat="43.44898" lon="6.06977">
        <ele>287.20001220703</ele>
        <time>2015-12-09T14:36:18Z</time>
      </trkpt>
      <trkpt lat="43.44897" lon="6.06977">
        <ele>287.39999389648</ele>
        <time>2015-12-09T14:36:19Z</time>
      </trkpt>
      <trkpt lat="43.44895" lon="6.06977">
        <ele>287.39999389648</ele>
        <time>2015-12-09T14:36:21Z</time>
      </trkpt>
      <trkpt lat="43.44896" lon="6.06978">
        <ele>287.20001220703</ele>
        <time>2015-12-09T14:36:23Z</time>
      </trkpt>
      <trkpt lat="43.44897" lon="6.06977">
        <ele>287</ele>
        <time>2015-12-09T14:36:25Z</time>
      </trkpt>
      <trkpt lat="43.44897" lon="6.06977">
        <ele>287.20001220703</ele>
        <time>2015-12-09T14:36:27Z</time>
      </trkpt>
      <trkpt lat="43.44899" lon="6.06975">
        <ele>287.20001220703</ele>
        <time>2015-12-09T14:36:29Z</time>
      </trkpt>
      <trkpt lat="43.44902" lon="6.06973">
        <ele>286.79998779297</ele>
        <time>2015-12-09T14:36:31Z</time>
      </trkpt>
      <trkpt lat="43.44902" lon="6.06969">
        <ele>287</ele>
        <time>2015-12-09T14:36:33Z</time>
      </trkpt>
      <trkpt lat="43.44901" lon="6.06967">
        <ele>286.60000610352</ele>
        <time>2015-12-09T14:36:34Z</time>
      </trkpt>
      <trkpt lat="43.44899" lon="6.06967">
        <ele>286.20001220703</ele>
        <time>2015-12-09T14:36:35Z</time>
      </trkpt>
      <trkpt lat="43.44896" lon="6.06968">
        <ele>285.79998779297</ele>
        <time>2015-12-09T14:36:37Z</time>
      </trkpt>
      <trkpt lat="43.44894" lon="6.06969">
        <ele>285.60000610352</ele>
        <time>2015-12-09T14:36:38Z</time>
      </trkpt>
      <trkpt lat="43.44894" lon="6.0697">
        <ele>285.60000610352</ele>
        <time>2015-12-09T14:36:39Z</time>
      </trkpt>
      <trkpt lat="43.44893" lon="6.06971">
        <ele>285</ele>
        <time>2015-12-09T14:36:41Z</time>
      </trkpt>
      <trkpt lat="43.44892" lon="6.06971">
        <ele>284.60000610352</ele>
        <time>2015-12-09T14:36:43Z</time>
      </trkpt>
      <trkpt lat="43.44892" lon="6.06971">
        <ele>284.79998779297</ele>
        <time>2015-12-09T14:36:45Z</time>
      </trkpt>
      <trkpt lat="43.44892" lon="6.06971">
        <ele>284.60000610352</ele>
        <time>2015-12-09T14:36:47Z</time>
      </trkpt>
      <trkpt lat="43.44891" lon="6.06972">
        <ele>284.79998779297</ele>
        <time>2015-12-09T14:36:49Z</time>
      </trkpt>
      <trkpt lat="43.44889" lon="6.06972">
        <ele>284.79998779297</ele>
        <time>2015-12-09T14:36:51Z</time>
      </trkpt>
      <trkpt lat="43.44888" lon="6.06973">
        <ele>284.60000610352</ele>
        <time>2015-12-09T14:36:52Z</time>
      </trkpt>
      <trkpt lat="43.44888" lon="6.06973">
        <ele>284.39999389648</ele>
        <time>2015-12-09T14:36:53Z</time>
      </trkpt>
      <trkpt lat="43.44887" lon="6.06973">
        <ele>284.20001220703</ele>
        <time>2015-12-09T14:36:55Z</time>
      </trkpt>
      <trkpt lat="43.44887" lon="6.06973">
        <ele>284.20001220703</ele>
        <time>2015-12-09T14:36:57Z</time>
      </trkpt>
      <trkpt lat="43.44886" lon="6.06972">
        <ele>284.20001220703</ele>
        <time>2015-12-09T14:37:01Z</time>
      </trkpt>
      <trkpt lat="43.44886" lon="6.06972">
        <ele>284.20001220703</ele>
        <time>2015-12-09T14:37:03Z</time>
      </trkpt>
      <trkpt lat="43.44887" lon="6.06972">
        <ele>284</ele>
        <time>2015-12-09T14:37:05Z</time>
      </trkpt>
      <trkpt lat="43.44887" lon="6.06972">
        <ele>284.20001220703</ele>
        <time>2015-12-09T14:37:07Z</time>
      </trkpt>
      <trkpt lat="43.44887" lon="6.06972">
        <ele>284</ele>
        <time>2015-12-09T14:37:11Z</time>
      </trkpt>
      <trkpt lat="43.44887" lon="6.06973">
        <ele>284.20001220703</ele>
        <time>2015-12-09T14:37:29Z</time>
      </trkpt>
      <trkpt lat="43.44887" lon="6.06972">
        <ele>284</ele>
        <time>2015-12-09T14:37:31Z</time>
      </trkpt>
      <trkpt lat="43.44887" lon="6.06972">
        <ele>284</ele>
        <time>2015-12-09T14:37:32Z</time>
      </trkpt>
      <trkpt lat="43.44887" lon="6.06972">
        <ele>284</ele>
        <time>2015-12-09T14:37:33Z</time>
      </trkpt>
      <trkpt lat="43.44886" lon="6.06971">
        <ele>284.20001220703</ele>
        <time>2015-12-09T14:37:35Z</time>
      </trkpt>
      <trkpt lat="43.44886" lon="6.06971">
        <ele>284.20001220703</ele>
        <time>2015-12-09T14:37:36Z</time>
      </trkpt>
      <trkpt lat="43.44886" lon="6.06971">
        <ele>284</ele>
        <time>2015-12-09T14:37:39Z</time>
      </trkpt>
      <trkpt lat="43.44886" lon="6.06971">
        <ele>284.20001220703</ele>
        <time>2015-12-09T14:37:41Z</time>
      </trkpt>
      <trkpt lat="43.44886" lon="6.06971">
        <ele>284</ele>
        <time>2015-12-09T14:37:45Z</time>
      </trkpt>
      <trkpt lat="43.44886" lon="6.06971">
        <ele>284.20001220703</ele>
        <time>2015-12-09T14:37:47Z</time>
      </trkpt>
      <trkpt lat="43.44886" lon="6.06971">
        <ele>284</ele>
        <time>2015-12-09T14:37:49Z</time>
      </trkpt>
      <trkpt lat="43.44886" lon="6.06971">
        <ele>284</ele>
        <time>2015-12-09T14:37:53Z</time>
      </trkpt>
      <trkpt lat="43.44886" lon="6.06971">
        <ele>284</ele>
        <time>2015-12-09T14:37:57Z</time>
      </trkpt>
      <trkpt lat="43.44886" lon="6.06971">
        <ele>284</ele>
        <time>2015-12-09T14:38:05Z</time>
      </trkpt>
      <trkpt lat="43.44886" lon="6.06971">
        <ele>284</ele>
        <time>2015-12-09T14:38:09Z</time>
      </trkpt>
      <trkpt lat="43.44886" lon="6.06971">
        <ele>284</ele>
        <time>2015-12-09T14:38:13Z</time>
      </trkpt>
      <trkpt lat="43.44886" lon="6.06971">
        <ele>284.20001220703</ele>
        <time>2015-12-09T14:38:15Z</time>
      </trkpt>
      <trkpt lat="43.44886" lon="6.06971">
        <ele>284</ele>
        <time>2015-12-09T14:38:17Z</time>
      </trkpt>
      <trkpt lat="43.44886" lon="6.0697">
        <ele>284</ele>
        <time>2015-12-09T14:38:19Z</time>
      </trkpt>
      <trkpt lat="43.44886" lon="6.0697">
        <ele>284</ele>
        <time>2015-12-09T14:38:21Z</time>
      </trkpt>
      <trkpt lat="43.44886" lon="6.0697">
        <ele>283.79998779297</ele>
        <time>2015-12-09T14:38:23Z</time>
      </trkpt>
      <trkpt lat="43.44886" lon="6.0697">
        <ele>283.79998779297</ele>
        <time>2015-12-09T14:38:25Z</time>
      </trkpt>
      <trkpt lat="43.44886" lon="6.0697">
        <ele>283.79998779297</ele>
        <time>2015-12-09T14:38:27Z</time>
      </trkpt>
      <trkpt lat="43.44886" lon="6.0697">
        <ele>283.79998779297</ele>
        <time>2015-12-09T14:38:29Z</time>
      </trkpt>
      <trkpt lat="43.44886" lon="6.0697">
        <ele>283.79998779297</ele>
        <time>2015-12-09T14:38:31Z</time>
      </trkpt>
      <trkpt lat="43.44886" lon="6.0697">
        <ele>284</ele>
        <time>2015-12-09T14:38:33Z</time>
      </trkpt>
      <trkpt lat="43.44886" lon="6.0697">
        <ele>283.79998779297</ele>
        <time>2015-12-09T14:38:35Z</time>
      </trkpt>
      <trkpt lat="43.44886" lon="6.0697">
        <ele>284</ele>
        <time>2015-12-09T14:38:37Z</time>
      </trkpt>
      <trkpt lat="43.44886" lon="6.0697">
        <ele>283.79998779297</ele>
        <time>2015-12-09T14:38:39Z</time>
      </trkpt>
      <trkpt lat="43.44886" lon="6.06969">
        <ele>283.79998779297</ele>
        <time>2015-12-09T14:38:41Z</time>
      </trkpt>
      <trkpt lat="43.44887" lon="6.06968">
        <ele>283.79998779297</ele>
        <time>2015-12-09T14:38:42Z</time>
      </trkpt>
      <trkpt lat="43.44887" lon="6.06968">
        <ele>284</ele>
        <time>2015-12-09T14:38:43Z</time>
      </trkpt>
      <trkpt lat="43.44888" lon="6.06967">
        <ele>284.39999389648</ele>
        <time>2015-12-09T14:38:45Z</time>
      </trkpt>
      <trkpt lat="43.4489" lon="6.06966">
        <ele>284.39999389648</ele>
        <time>2015-12-09T14:38:47Z</time>
      </trkpt>
      <trkpt lat="43.44891" lon="6.06964">
        <ele>284.39999389648</ele>
        <time>2015-12-09T14:38:48Z</time>
      </trkpt>
      <trkpt lat="43.44893" lon="6.06963">
        <ele>284.39999389648</ele>
        <time>2015-12-09T14:38:49Z</time>
      </trkpt>
      <trkpt lat="43.44895" lon="6.06961">
        <ele>284.39999389648</ele>
        <time>2015-12-09T14:38:51Z</time>
      </trkpt>
      <trkpt lat="43.44897" lon="6.06959">
        <ele>284.79998779297</ele>
        <time>2015-12-09T14:38:53Z</time>
      </trkpt>
      <trkpt lat="43.44897" lon="6.06958">
        <ele>284.79998779297</ele>
        <time>2015-12-09T14:38:54Z</time>
      </trkpt>
      <trkpt lat="43.44897" lon="6.06958">
        <ele>284.79998779297</ele>
        <time>2015-12-09T14:38:55Z</time>
      </trkpt>
      <trkpt lat="43.44897" lon="6.06958">
        <ele>284.79998779297</ele>
        <time>2015-12-09T14:38:57Z</time>
      </trkpt>
      <trkpt lat="43.44897" lon="6.06957">
        <ele>284.39999389648</ele>
        <time>2015-12-09T14:38:59Z</time>
      </trkpt>
      <trkpt lat="43.44897" lon="6.06957">
        <ele>284.20001220703</ele>
        <time>2015-12-09T14:39:03Z</time>
      </trkpt>
      <trkpt lat="43.44897" lon="6.06957">
        <ele>285.20001220703</ele>
        <time>2015-12-09T14:39:04Z</time>
      </trkpt>
      <trkpt lat="43.44897" lon="6.06957">
        <ele>285.60000610352</ele>
        <time>2015-12-09T14:39:05Z</time>
      </trkpt>
      <trkpt lat="43.44897" lon="6.06958">
        <ele>286</ele>
        <time>2015-12-09T14:39:09Z</time>
      </trkpt>
      <trkpt lat="43.44897" lon="6.06957">
        <ele>286</ele>
        <time>2015-12-09T14:39:11Z</time>
      </trkpt>
      <trkpt lat="43.44897" lon="6.06956">
        <ele>285.39999389648</ele>
        <time>2015-12-09T14:39:13Z</time>
      </trkpt>
      <trkpt lat="43.44897" lon="6.06955">
        <ele>285</ele>
        <time>2015-12-09T14:39:15Z</time>
      </trkpt>
      <trkpt lat="43.44897" lon="6.06955">
        <ele>284.79998779297</ele>
        <time>2015-12-09T14:39:17Z</time>
      </trkpt>
      <trkpt lat="43.44898" lon="6.06955">
        <ele>284.79998779297</ele>
        <time>2015-12-09T14:39:19Z</time>
      </trkpt>
      <trkpt lat="43.44899" lon="6.06954">
        <ele>284.79998779297</ele>
        <time>2015-12-09T14:39:21Z</time>
      </trkpt>
      <trkpt lat="43.449" lon="6.06954">
        <ele>285</ele>
        <time>2015-12-09T14:39:22Z</time>
      </trkpt>
      <trkpt lat="43.44901" lon="6.06953">
        <ele>285</ele>
        <time>2015-12-09T14:39:23Z</time>
      </trkpt>
      <trkpt lat="43.44903" lon="6.06951">
        <ele>285.20001220703</ele>
        <time>2015-12-09T14:39:25Z</time>
      </trkpt>
      <trkpt lat="43.44906" lon="6.06948">
        <ele>285.20001220703</ele>
        <time>2015-12-09T14:39:27Z</time>
      </trkpt>
      <trkpt lat="43.44909" lon="6.06946">
        <ele>285.60000610352</ele>
        <time>2015-12-09T14:39:29Z</time>
      </trkpt>
      <trkpt lat="43.44912" lon="6.06942">
        <ele>286</ele>
        <time>2015-12-09T14:39:31Z</time>
      </trkpt>
      <trkpt lat="43.44915" lon="6.06938">
        <ele>286.39999389648</ele>
        <time>2015-12-09T14:39:33Z</time>
      </trkpt>
      <trkpt lat="43.44918" lon="6.06933">
        <ele>287</ele>
        <time>2015-12-09T14:39:35Z</time>
      </trkpt>
      <trkpt lat="43.44918" lon="6.06931">
        <ele>287.39999389648</ele>
        <time>2015-12-09T14:39:36Z</time>
      </trkpt>
      <trkpt lat="43.44919" lon="6.06928">
        <ele>287.60000610352</ele>
        <time>2015-12-09T14:39:37Z</time>
      </trkpt>
      <trkpt lat="43.44919" lon="6.06924">
        <ele>288</ele>
        <time>2015-12-09T14:39:39Z</time>
      </trkpt>
      <trkpt lat="43.44919" lon="6.06921">
        <ele>288.39999389648</ele>
        <time>2015-12-09T14:39:40Z</time>
      </trkpt>
      <trkpt lat="43.4492" lon="6.06916">
        <ele>288.79998779297</ele>
        <time>2015-12-09T14:39:42Z</time>
      </trkpt>
      <trkpt lat="43.44921" lon="6.06911">
        <ele>289.60000610352</ele>
        <time>2015-12-09T14:39:44Z</time>
      </trkpt>
      <trkpt lat="43.44921" lon="6.06908">
        <ele>290</ele>
        <time>2015-12-09T14:39:45Z</time>
      </trkpt>
      <trkpt lat="43.44923" lon="6.06904">
        <ele>290.39999389648</ele>
        <time>2015-12-09T14:39:47Z</time>
      </trkpt>
      <trkpt lat="43.44926" lon="6.06894">
        <ele>291</ele>
        <time>2015-12-09T14:39:51Z</time>
      </trkpt>
      <trkpt lat="43.44928" lon="6.0689">
        <ele>291.39999389648</ele>
        <time>2015-12-09T14:39:53Z</time>
      </trkpt>
      <trkpt lat="43.4493" lon="6.06882">
        <ele>291.79998779297</ele>
        <time>2015-12-09T14:39:56Z</time>
      </trkpt>
      <trkpt lat="43.44934" lon="6.06875">
        <ele>292</ele>
        <time>2015-12-09T14:39:59Z</time>
      </trkpt>
      <trkpt lat="43.44937" lon="6.06871">
        <ele>292.20001220703</ele>
        <time>2015-12-09T14:40:01Z</time>
      </trkpt>
      <trkpt lat="43.44941" lon="6.06867">
        <ele>292.39999389648</ele>
        <time>2015-12-09T14:40:03Z</time>
      </trkpt>
      <trkpt lat="43.44944" lon="6.06863">
        <ele>292.39999389648</ele>
        <time>2015-12-09T14:40:05Z</time>
      </trkpt>
      <trkpt lat="43.44947" lon="6.06859">
        <ele>292.39999389648</ele>
        <time>2015-12-09T14:40:07Z</time>
      </trkpt>
      <trkpt lat="43.44949" lon="6.06856">
        <ele>292.79998779297</ele>
        <time>2015-12-09T14:40:09Z</time>
      </trkpt>
      <trkpt lat="43.44952" lon="6.06852">
        <ele>292.79998779297</ele>
        <time>2015-12-09T14:40:11Z</time>
      </trkpt>
      <trkpt lat="43.44955" lon="6.06848">
        <ele>293</ele>
        <time>2015-12-09T14:40:13Z</time>
      </trkpt>
      <trkpt lat="43.44955" lon="6.06846">
        <ele>293.20001220703</ele>
        <time>2015-12-09T14:40:14Z</time>
      </trkpt>
      <trkpt lat="43.44957" lon="6.06839">
        <ele>293.60000610352</ele>
        <time>2015-12-09T14:40:17Z</time>
      </trkpt>
      <trkpt lat="43.44957" lon="6.06834">
        <ele>293.60000610352</ele>
        <time>2015-12-09T14:40:19Z</time>
      </trkpt>
      <trkpt lat="43.44959" lon="6.06829">
        <ele>294</ele>
        <time>2015-12-09T14:40:21Z</time>
      </trkpt>
      <trkpt lat="43.44962" lon="6.0682">
        <ele>295</ele>
        <time>2015-12-09T14:40:25Z</time>
      </trkpt>
      <trkpt lat="43.44963" lon="6.06816">
        <ele>295.60000610352</ele>
        <time>2015-12-09T14:40:27Z</time>
      </trkpt>
      <trkpt lat="43.44964" lon="6.06813">
        <ele>296</ele>
        <time>2015-12-09T14:40:28Z</time>
      </trkpt>
      <trkpt lat="43.44966" lon="6.06807">
        <ele>296</ele>
        <time>2015-12-09T14:40:31Z</time>
      </trkpt>
      <trkpt lat="43.44967" lon="6.06803">
        <ele>296.60000610352</ele>
        <time>2015-12-09T14:40:33Z</time>
      </trkpt>
      <trkpt lat="43.4497" lon="6.068">
        <ele>296.79998779297</ele>
        <time>2015-12-09T14:40:35Z</time>
      </trkpt>
      <trkpt lat="43.44971" lon="6.06796">
        <ele>297</ele>
        <time>2015-12-09T14:40:37Z</time>
      </trkpt>
      <trkpt lat="43.44974" lon="6.06793">
        <ele>297.20001220703</ele>
        <time>2015-12-09T14:40:39Z</time>
      </trkpt>
      <trkpt lat="43.44976" lon="6.0679">
        <ele>297.39999389648</ele>
        <time>2015-12-09T14:40:41Z</time>
      </trkpt>
      <trkpt lat="43.44979" lon="6.06786">
        <ele>297.79998779297</ele>
        <time>2015-12-09T14:40:43Z</time>
      </trkpt>
      <trkpt lat="43.44981" lon="6.06783">
        <ele>298</ele>
        <time>2015-12-09T14:40:45Z</time>
      </trkpt>
      <trkpt lat="43.44984" lon="6.0678">
        <ele>298.39999389648</ele>
        <time>2015-12-09T14:40:47Z</time>
      </trkpt>
      <trkpt lat="43.44987" lon="6.06776">
        <ele>298.20001220703</ele>
        <time>2015-12-09T14:40:50Z</time>
      </trkpt>
      <trkpt lat="43.44989" lon="6.06775">
        <ele>298.39999389648</ele>
        <time>2015-12-09T14:40:51Z</time>
      </trkpt>
      <trkpt lat="43.44991" lon="6.06773">
        <ele>298.79998779297</ele>
        <time>2015-12-09T14:40:53Z</time>
      </trkpt>
      <trkpt lat="43.44993" lon="6.06771">
        <ele>299.39999389648</ele>
        <time>2015-12-09T14:40:55Z</time>
      </trkpt>
      <trkpt lat="43.44995" lon="6.06771">
        <ele>299.60000610352</ele>
        <time>2015-12-09T14:40:57Z</time>
      </trkpt>
      <trkpt lat="43.44996" lon="6.0677">
        <ele>299.60000610352</ele>
        <time>2015-12-09T14:40:59Z</time>
      </trkpt>
      <trkpt lat="43.44997" lon="6.06769">
        <ele>299.39999389648</ele>
        <time>2015-12-09T14:41:02Z</time>
      </trkpt>
      <trkpt lat="43.44997" lon="6.06769">
        <ele>299.39999389648</ele>
        <time>2015-12-09T14:41:03Z</time>
      </trkpt>
      <trkpt lat="43.44998" lon="6.06768">
        <ele>299.60000610352</ele>
        <time>2015-12-09T14:41:05Z</time>
      </trkpt>
      <trkpt lat="43.44998" lon="6.06767">
        <ele>299.39999389648</ele>
        <time>2015-12-09T14:41:07Z</time>
      </trkpt>
      <trkpt lat="43.44999" lon="6.06767">
        <ele>299.39999389648</ele>
        <time>2015-12-09T14:41:09Z</time>
      </trkpt>
      <trkpt lat="43.44999" lon="6.06767">
        <ele>299.39999389648</ele>
        <time>2015-12-09T14:41:11Z</time>
      </trkpt>
      <trkpt lat="43.44999" lon="6.06767">
        <ele>299.39999389648</ele>
        <time>2015-12-09T14:41:13Z</time>
      </trkpt>
      <trkpt lat="43.44999" lon="6.06767">
        <ele>299.39999389648</ele>
        <time>2015-12-09T14:41:15Z</time>
      </trkpt>
      <trkpt lat="43.44999" lon="6.06767">
        <ele>299.39999389648</ele>
        <time>2015-12-09T14:41:19Z</time>
      </trkpt>
      <trkpt lat="43.44999" lon="6.06767">
        <ele>299.39999389648</ele>
        <time>2015-12-09T14:41:33Z</time>
      </trkpt>
      <trkpt lat="43.44999" lon="6.06767">
        <ele>299.39999389648</ele>
        <time>2015-12-09T14:41:57Z</time>
      </trkpt>
      <trkpt lat="43.44999" lon="6.06767">
        <ele>299.20001220703</ele>
        <time>2015-12-09T14:42:11Z</time>
      </trkpt>
      <trkpt lat="43.44999" lon="6.06766">
        <ele>299.39999389648</ele>
        <time>2015-12-09T14:42:49Z</time>
      </trkpt>
      <trkpt lat="43.44999" lon="6.06766">
        <ele>299.39999389648</ele>
        <time>2015-12-09T14:42:56Z</time>
      </trkpt>
      <trkpt lat="43.44999" lon="6.06766">
        <ele>299.39999389648</ele>
        <time>2015-12-09T14:43:11Z</time>
      </trkpt>
      <trkpt lat="43.44999" lon="6.06766">
        <ele>299.39999389648</ele>
        <time>2015-12-09T14:43:19Z</time>
      </trkpt>
      <trkpt lat="43.44999" lon="6.06766">
        <ele>299.39999389648</ele>
        <time>2015-12-09T14:43:21Z</time>
      </trkpt>
      <trkpt lat="43.44999" lon="6.06766">
        <ele>299.39999389648</ele>
        <time>2015-12-09T14:43:24Z</time>
      </trkpt>
      <trkpt lat="43.44999" lon="6.06766">
        <ele>299.39999389648</ele>
        <time>2015-12-09T14:43:27Z</time>
      </trkpt>
      <trkpt lat="43.44999" lon="6.06765">
        <ele>299.39999389648</ele>
        <time>2015-12-09T14:43:29Z</time>
      </trkpt>
      <trkpt lat="43.44999" lon="6.06762">
        <ele>299.20001220703</ele>
        <time>2015-12-09T14:43:31Z</time>
      </trkpt>
      <trkpt lat="43.44998" lon="6.06761">
        <ele>299.39999389648</ele>
        <time>2015-12-09T14:43:32Z</time>
      </trkpt>
      <trkpt lat="43.44997" lon="6.06759">
        <ele>299.39999389648</ele>
        <time>2015-12-09T14:43:33Z</time>
      </trkpt>
      <trkpt lat="43.44996" lon="6.06757">
        <ele>299.20001220703</ele>
        <time>2015-12-09T14:43:34Z</time>
      </trkpt>
      <trkpt lat="43.44996" lon="6.06755">
        <ele>299.20001220703</ele>
        <time>2015-12-09T14:43:35Z</time>
      </trkpt>
      <trkpt lat="43.44996" lon="6.0675">
        <ele>299</ele>
        <time>2015-12-09T14:43:37Z</time>
      </trkpt>
      <trkpt lat="43.44997" lon="6.06746">
        <ele>299.20001220703</ele>
        <time>2015-12-09T14:43:39Z</time>
      </trkpt>
      <trkpt lat="43.44998" lon="6.06741">
        <ele>299</ele>
        <time>2015-12-09T14:43:41Z</time>
      </trkpt>
      <trkpt lat="43.44999" lon="6.06736">
        <ele>299</ele>
        <time>2015-12-09T14:43:43Z</time>
      </trkpt>
      <trkpt lat="43.44998" lon="6.06734">
        <ele>299.20001220703</ele>
        <time>2015-12-09T14:43:44Z</time>
      </trkpt>
      <trkpt lat="43.44996" lon="6.06727">
        <ele>299.39999389648</ele>
        <time>2015-12-09T14:43:47Z</time>
      </trkpt>
      <trkpt lat="43.44992" lon="6.06719">
        <ele>300.20001220703</ele>
        <time>2015-12-09T14:43:51Z</time>
      </trkpt>
      <trkpt lat="43.44989" lon="6.06716">
        <ele>301.39999389648</ele>
        <time>2015-12-09T14:43:53Z</time>
      </trkpt>
      <trkpt lat="43.44986" lon="6.06714">
        <ele>302.60000610352</ele>
        <time>2015-12-09T14:43:55Z</time>
      </trkpt>
      <trkpt lat="43.44981" lon="6.06713">
        <ele>303.20001220703</ele>
        <time>2015-12-09T14:43:58Z</time>
      </trkpt>
      <trkpt lat="43.4498" lon="6.06713">
        <ele>303.39999389648</ele>
        <time>2015-12-09T14:43:59Z</time>
      </trkpt>
      <trkpt lat="43.44979" lon="6.06713">
        <ele>303.39999389648</ele>
        <time>2015-12-09T14:44:00Z</time>
      </trkpt>
      <trkpt lat="43.44978" lon="6.06713">
        <ele>304</ele>
        <time>2015-12-09T14:44:01Z</time>
      </trkpt>
      <trkpt lat="43.44975" lon="6.06714">
        <ele>303.79998779297</ele>
        <time>2015-12-09T14:44:03Z</time>
      </trkpt>
      <trkpt lat="43.44974" lon="6.06714">
        <ele>303.39999389648</ele>
        <time>2015-12-09T14:44:04Z</time>
      </trkpt>
      <trkpt lat="43.44973" lon="6.06715">
        <ele>303.39999389648</ele>
        <time>2015-12-09T14:44:05Z</time>
      </trkpt>
      <trkpt lat="43.44973" lon="6.06715">
        <ele>303.39999389648</ele>
        <time>2015-12-09T14:44:07Z</time>
      </trkpt>
      <trkpt lat="43.44973" lon="6.06715">
        <ele>303.39999389648</ele>
        <time>2015-12-09T14:44:09Z</time>
      </trkpt>
      <trkpt lat="43.44973" lon="6.06715">
        <ele>303.60000610352</ele>
        <time>2015-12-09T14:44:11Z</time>
      </trkpt>
      <trkpt lat="43.44973" lon="6.06715">
        <ele>303.39999389648</ele>
        <time>2015-12-09T14:44:13Z</time>
      </trkpt>
      <trkpt lat="43.44973" lon="6.06715">
        <ele>303.60000610352</ele>
        <time>2015-12-09T14:44:15Z</time>
      </trkpt>
      <trkpt lat="43.44973" lon="6.06715">
        <ele>303.39999389648</ele>
        <time>2015-12-09T14:44:21Z</time>
      </trkpt>
      <trkpt lat="43.44973" lon="6.06715">
        <ele>303.39999389648</ele>
        <time>2015-12-09T14:44:33Z</time>
      </trkpt>
      <trkpt lat="43.44973" lon="6.06715">
        <ele>303.39999389648</ele>
        <time>2015-12-09T14:44:35Z</time>
      </trkpt>
      <trkpt lat="43.44973" lon="6.06715">
        <ele>303.39999389648</ele>
        <time>2015-12-09T14:44:37Z</time>
      </trkpt>
      <trkpt lat="43.44973" lon="6.06715">
        <ele>303.39999389648</ele>
        <time>2015-12-09T14:44:39Z</time>
      </trkpt>
      <trkpt lat="43.44973" lon="6.06715">
        <ele>303.39999389648</ele>
        <time>2015-12-09T14:44:45Z</time>
      </trkpt>
      <trkpt lat="43.44973" lon="6.06715">
        <ele>303.39999389648</ele>
        <time>2015-12-09T14:44:57Z</time>
      </trkpt>
      <trkpt lat="43.44973" lon="6.06715">
        <ele>303.39999389648</ele>
        <time>2015-12-09T14:45:05Z</time>
      </trkpt>
      <trkpt lat="43.44973" lon="6.06715">
        <ele>303.39999389648</ele>
        <time>2015-12-09T14:45:11Z</time>
      </trkpt>
      <trkpt lat="43.44973" lon="6.06715">
        <ele>303.39999389648</ele>
        <time>2015-12-09T14:45:13Z</time>
      </trkpt>
      <trkpt lat="43.44973" lon="6.06715">
        <ele>303.20001220703</ele>
        <time>2015-12-09T14:45:17Z</time>
      </trkpt>
      <trkpt lat="43.44973" lon="6.06715">
        <ele>303.60000610352</ele>
        <time>2015-12-09T14:45:19Z</time>
      </trkpt>
      <trkpt lat="43.44973" lon="6.06715">
        <ele>303.60000610352</ele>
        <time>2015-12-09T14:45:21Z</time>
      </trkpt>
      <trkpt lat="43.44973" lon="6.06715">
        <ele>303.39999389648</ele>
        <time>2015-12-09T14:45:23Z</time>
      </trkpt>
      <trkpt lat="43.44973" lon="6.06715">
        <ele>303.60000610352</ele>
        <time>2015-12-09T14:45:25Z</time>
      </trkpt>
      <trkpt lat="43.44973" lon="6.06715">
        <ele>303.39999389648</ele>
        <time>2015-12-09T14:45:27Z</time>
      </trkpt>
      <trkpt lat="43.44972" lon="6.06715">
        <ele>303.39999389648</ele>
        <time>2015-12-09T14:45:28Z</time>
      </trkpt>
      <trkpt lat="43.44971" lon="6.06715">
        <ele>303.39999389648</ele>
        <time>2015-12-09T14:45:29Z</time>
      </trkpt>
      <trkpt lat="43.44966" lon="6.06717">
        <ele>303</ele>
        <time>2015-12-09T14:45:31Z</time>
      </trkpt>
      <trkpt lat="43.44963" lon="6.06719">
        <ele>303</ele>
        <time>2015-12-09T14:45:32Z</time>
      </trkpt>
      <trkpt lat="43.4496" lon="6.0672">
        <ele>302.60000610352</ele>
        <time>2015-12-09T14:45:33Z</time>
      </trkpt>
      <trkpt lat="43.44956" lon="6.06722">
        <ele>302</ele>
        <time>2015-12-09T14:45:34Z</time>
      </trkpt>
      <trkpt lat="43.44952" lon="6.06724">
        <ele>301.60000610352</ele>
        <time>2015-12-09T14:45:35Z</time>
      </trkpt>
      <trkpt lat="43.44945" lon="6.06726">
        <ele>301</ele>
        <time>2015-12-09T14:45:37Z</time>
      </trkpt>
      <trkpt lat="43.44938" lon="6.06726">
        <ele>300</ele>
        <time>2015-12-09T14:45:39Z</time>
      </trkpt>
      <trkpt lat="43.44935" lon="6.06726">
        <ele>300</ele>
        <time>2015-12-09T14:45:40Z</time>
      </trkpt>
      <trkpt lat="43.44933" lon="6.06726">
        <ele>300.20001220703</ele>
        <time>2015-12-09T14:45:41Z</time>
      </trkpt>
      <trkpt lat="43.44929" lon="6.06727">
        <ele>300.79998779297</ele>
        <time>2015-12-09T14:45:43Z</time>
      </trkpt>
      <trkpt lat="43.44927" lon="6.06728">
        <ele>301.20001220703</ele>
        <time>2015-12-09T14:45:44Z</time>
      </trkpt>
      <trkpt lat="43.44925" lon="6.06729">
        <ele>301.20001220703</ele>
        <time>2015-12-09T14:45:45Z</time>
      </trkpt>
      <trkpt lat="43.4492" lon="6.06731">
        <ele>301.20001220703</ele>
        <time>2015-12-09T14:45:47Z</time>
      </trkpt>
      <trkpt lat="43.44915" lon="6.06732">
        <ele>300.79998779297</ele>
        <time>2015-12-09T14:45:49Z</time>
      </trkpt>
      <trkpt lat="43.44911" lon="6.0673">
        <ele>300.60000610352</ele>
        <time>2015-12-09T14:45:51Z</time>
      </trkpt>
      <trkpt lat="43.44908" lon="6.06725">
        <ele>300.60000610352</ele>
        <time>2015-12-09T14:45:53Z</time>
      </trkpt>
      <trkpt lat="43.44906" lon="6.06719">
        <ele>300.39999389648</ele>
        <time>2015-12-09T14:45:55Z</time>
      </trkpt>
      <trkpt lat="43.44905" lon="6.06716">
        <ele>300</ele>
        <time>2015-12-09T14:45:56Z</time>
      </trkpt>
      <trkpt lat="43.44904" lon="6.06709">
        <ele>299.79998779297</ele>
        <time>2015-12-09T14:45:59Z</time>
      </trkpt>
      <trkpt lat="43.44902" lon="6.06704">
        <ele>299.79998779297</ele>
        <time>2015-12-09T14:46:01Z</time>
      </trkpt>
      <trkpt lat="43.449" lon="6.06703">
        <ele>299.79998779297</ele>
        <time>2015-12-09T14:46:02Z</time>
      </trkpt>
      <trkpt lat="43.44899" lon="6.06703">
        <ele>299.79998779297</ele>
        <time>2015-12-09T14:46:03Z</time>
      </trkpt>
      <trkpt lat="43.44897" lon="6.06705">
        <ele>299.20001220703</ele>
        <time>2015-12-09T14:46:05Z</time>
      </trkpt>
      <trkpt lat="43.44896" lon="6.06706">
        <ele>299</ele>
        <time>2015-12-09T14:46:06Z</time>
      </trkpt>
      <trkpt lat="43.44896" lon="6.06706">
        <ele>299</ele>
        <time>2015-12-09T14:46:07Z</time>
      </trkpt>
      <trkpt lat="43.44896" lon="6.06706">
        <ele>298.79998779297</ele>
        <time>2015-12-09T14:46:09Z</time>
      </trkpt>
      <trkpt lat="43.44895" lon="6.06707">
        <ele>298.79998779297</ele>
        <time>2015-12-09T14:46:11Z</time>
      </trkpt>
      <trkpt lat="43.44895" lon="6.06707">
        <ele>298.79998779297</ele>
        <time>2015-12-09T14:46:13Z</time>
      </trkpt>
      <trkpt lat="43.44895" lon="6.06707">
        <ele>298.79998779297</ele>
        <time>2015-12-09T14:46:15Z</time>
      </trkpt>
      <trkpt lat="43.44895" lon="6.06707">
        <ele>298.79998779297</ele>
        <time>2015-12-09T14:46:19Z</time>
      </trkpt>
      <trkpt lat="43.44895" lon="6.06707">
        <ele>298.60000610352</ele>
        <time>2015-12-09T14:46:23Z</time>
      </trkpt>
      <trkpt lat="43.44895" lon="6.06707">
        <ele>298.60000610352</ele>
        <time>2015-12-09T14:46:25Z</time>
      </trkpt>
      <trkpt lat="43.44895" lon="6.06707">
        <ele>298.60000610352</ele>
        <time>2015-12-09T14:46:27Z</time>
      </trkpt>
      <trkpt lat="43.44895" lon="6.06707">
        <ele>298.39999389648</ele>
        <time>2015-12-09T14:46:29Z</time>
      </trkpt>
      <trkpt lat="43.44892" lon="6.06708">
        <ele>298</ele>
        <time>2015-12-09T14:46:31Z</time>
      </trkpt>
      <trkpt lat="43.44889" lon="6.06709">
        <ele>297.60000610352</ele>
        <time>2015-12-09T14:46:32Z</time>
      </trkpt>
      <trkpt lat="43.44886" lon="6.06709">
        <ele>297.20001220703</ele>
        <time>2015-12-09T14:46:33Z</time>
      </trkpt>
      <trkpt lat="43.44883" lon="6.06708">
        <ele>296.79998779297</ele>
        <time>2015-12-09T14:46:34Z</time>
      </trkpt>
      <trkpt lat="43.4488" lon="6.06709">
        <ele>296.39999389648</ele>
        <time>2015-12-09T14:46:35Z</time>
      </trkpt>
      <trkpt lat="43.44877" lon="6.0671">
        <ele>296</ele>
        <time>2015-12-09T14:46:36Z</time>
      </trkpt>
      <trkpt lat="43.44875" lon="6.0671">
        <ele>295.60000610352</ele>
        <time>2015-12-09T14:46:37Z</time>
      </trkpt>
      <trkpt lat="43.44873" lon="6.06711">
        <ele>295.39999389648</ele>
        <time>2015-12-09T14:46:39Z</time>
      </trkpt>
      <trkpt lat="43.4487" lon="6.06712">
        <ele>295.39999389648</ele>
        <time>2015-12-09T14:46:40Z</time>
      </trkpt>
      <trkpt lat="43.44868" lon="6.06713">
        <ele>295</ele>
        <time>2015-12-09T14:46:41Z</time>
      </trkpt>
      <trkpt lat="43.44863" lon="6.06714">
        <ele>294.79998779297</ele>
        <time>2015-12-09T14:46:43Z</time>
      </trkpt>
      <trkpt lat="43.4486" lon="6.06713">
        <ele>294.79998779297</ele>
        <time>2015-12-09T14:46:45Z</time>
      </trkpt>
      <trkpt lat="43.44858" lon="6.06714">
        <ele>294.60000610352</ele>
        <time>2015-12-09T14:46:47Z</time>
      </trkpt>
      <trkpt lat="43.44857" lon="6.06714">
        <ele>294.39999389648</ele>
        <time>2015-12-09T14:46:49Z</time>
      </trkpt>
      <trkpt lat="43.44855" lon="6.06714">
        <ele>294</ele>
        <time>2015-12-09T14:46:51Z</time>
      </trkpt>
      <trkpt lat="43.44854" lon="6.06713">
        <ele>293.60000610352</ele>
        <time>2015-12-09T14:46:52Z</time>
      </trkpt>
      <trkpt lat="43.44852" lon="6.06711">
        <ele>293.39999389648</ele>
        <time>2015-12-09T14:46:54Z</time>
      </trkpt>
      <trkpt lat="43.4485" lon="6.06711">
        <ele>293.39999389648</ele>
        <time>2015-12-09T14:46:55Z</time>
      </trkpt>
      <trkpt lat="43.44846" lon="6.06709">
        <ele>293</ele>
        <time>2015-12-09T14:46:57Z</time>
      </trkpt>
      <trkpt lat="43.44843" lon="6.06708">
        <ele>293</ele>
        <time>2015-12-09T14:46:59Z</time>
      </trkpt>
      <trkpt lat="43.44841" lon="6.06706">
        <ele>293.20001220703</ele>
        <time>2015-12-09T14:47:01Z</time>
      </trkpt>
      <trkpt lat="43.44839" lon="6.06706">
        <ele>293.39999389648</ele>
        <time>2015-12-09T14:47:03Z</time>
      </trkpt>
      <trkpt lat="43.44838" lon="6.06705">
        <ele>293.39999389648</ele>
        <time>2015-12-09T14:47:05Z</time>
      </trkpt>
      <trkpt lat="43.44836" lon="6.06705">
        <ele>293.60000610352</ele>
        <time>2015-12-09T14:47:07Z</time>
      </trkpt>
      <trkpt lat="43.44834" lon="6.06704">
        <ele>293.60000610352</ele>
        <time>2015-12-09T14:47:09Z</time>
      </trkpt>
      <trkpt lat="43.4483" lon="6.06703">
        <ele>293.39999389648</ele>
        <time>2015-12-09T14:47:11Z</time>
      </trkpt>
      <trkpt lat="43.44827" lon="6.06702">
        <ele>293.39999389648</ele>
        <time>2015-12-09T14:47:13Z</time>
      </trkpt>
      <trkpt lat="43.44825" lon="6.06701">
        <ele>293.39999389648</ele>
        <time>2015-12-09T14:47:15Z</time>
      </trkpt>
      <trkpt lat="43.44823" lon="6.06701">
        <ele>293</ele>
        <time>2015-12-09T14:47:16Z</time>
      </trkpt>
      <trkpt lat="43.4482" lon="6.06702">
        <ele>292.60000610352</ele>
        <time>2015-12-09T14:47:17Z</time>
      </trkpt>
      <trkpt lat="43.44816" lon="6.06702">
        <ele>292</ele>
        <time>2015-12-09T14:47:19Z</time>
      </trkpt>
      <trkpt lat="43.44815" lon="6.06702">
        <ele>291.79998779297</ele>
        <time>2015-12-09T14:47:20Z</time>
      </trkpt>
      <trkpt lat="43.44814" lon="6.06702">
        <ele>291.60000610352</ele>
        <time>2015-12-09T14:47:21Z</time>
      </trkpt>
      <trkpt lat="43.44814" lon="6.06702">
        <ele>291.60000610352</ele>
        <time>2015-12-09T14:47:23Z</time>
      </trkpt>
      <trkpt lat="43.44814" lon="6.06701">
        <ele>291.39999389648</ele>
        <time>2015-12-09T14:47:24Z</time>
      </trkpt>
      <trkpt lat="43.44814" lon="6.06701">
        <ele>291.39999389648</ele>
        <time>2015-12-09T14:47:27Z</time>
      </trkpt>
      <trkpt lat="43.44814" lon="6.06701">
        <ele>291.39999389648</ele>
        <time>2015-12-09T14:47:29Z</time>
      </trkpt>
      <trkpt lat="43.44814" lon="6.06701">
        <ele>291.60000610352</ele>
        <time>2015-12-09T14:47:35Z</time>
      </trkpt>
      <trkpt lat="43.44814" lon="6.06701">
        <ele>291.39999389648</ele>
        <time>2015-12-09T14:47:37Z</time>
      </trkpt>
      <trkpt lat="43.44814" lon="6.06701">
        <ele>291.60000610352</ele>
        <time>2015-12-09T14:47:39Z</time>
      </trkpt>
      <trkpt lat="43.44814" lon="6.06701">
        <ele>291.60000610352</ele>
        <time>2015-12-09T14:47:41Z</time>
      </trkpt>
      <trkpt lat="43.44814" lon="6.06701">
        <ele>291.60000610352</ele>
        <time>2015-12-09T14:47:43Z</time>
      </trkpt>
      <trkpt lat="43.44814" lon="6.06701">
        <ele>291.60000610352</ele>
        <time>2015-12-09T14:47:45Z</time>
      </trkpt>
      <trkpt lat="43.44811" lon="6.06699">
        <ele>291.60000610352</ele>
        <time>2015-12-09T14:47:49Z</time>
      </trkpt>
      <trkpt lat="43.4481" lon="6.06697">
        <ele>291.60000610352</ele>
        <time>2015-12-09T14:47:51Z</time>
      </trkpt>
      <trkpt lat="43.44808" lon="6.06695">
        <ele>291.79998779297</ele>
        <time>2015-12-09T14:47:53Z</time>
      </trkpt>
      <trkpt lat="43.44805" lon="6.06694">
        <ele>291.79998779297</ele>
        <time>2015-12-09T14:47:55Z</time>
      </trkpt>
      <trkpt lat="43.44801" lon="6.06692">
        <ele>291.39999389648</ele>
        <time>2015-12-09T14:47:57Z</time>
      </trkpt>
      <trkpt lat="43.44796" lon="6.0669">
        <ele>291.60000610352</ele>
        <time>2015-12-09T14:47:59Z</time>
      </trkpt>
      <trkpt lat="43.44793" lon="6.06688">
        <ele>291.60000610352</ele>
        <time>2015-12-09T14:48:01Z</time>
      </trkpt>
      <trkpt lat="43.44791" lon="6.06687">
        <ele>291.60000610352</ele>
        <time>2015-12-09T14:48:03Z</time>
      </trkpt>
      <trkpt lat="43.4479" lon="6.06686">
        <ele>291.79998779297</ele>
        <time>2015-12-09T14:48:04Z</time>
      </trkpt>
      <trkpt lat="43.44789" lon="6.06687">
        <ele>291.79998779297</ele>
        <time>2015-12-09T14:48:05Z</time>
      </trkpt>
      <trkpt lat="43.44787" lon="6.06689">
        <ele>291.60000610352</ele>
        <time>2015-12-09T14:48:07Z</time>
      </trkpt>
      <trkpt lat="43.44785" lon="6.0669">
        <ele>291.39999389648</ele>
        <time>2015-12-09T14:48:09Z</time>
      </trkpt>
      <trkpt lat="43.4478" lon="6.06691">
        <ele>291</ele>
        <time>2015-12-09T14:48:11Z</time>
      </trkpt>
      <trkpt lat="43.44776" lon="6.06694">
        <ele>290.39999389648</ele>
        <time>2015-12-09T14:48:13Z</time>
      </trkpt>
      <trkpt lat="43.44773" lon="6.06699">
        <ele>290</ele>
        <time>2015-12-09T14:48:15Z</time>
      </trkpt>
      <trkpt lat="43.4477" lon="6.06704">
        <ele>290</ele>
        <time>2015-12-09T14:48:17Z</time>
      </trkpt>
      <trkpt lat="43.44767" lon="6.06708">
        <ele>289.60000610352</ele>
        <time>2015-12-09T14:48:19Z</time>
      </trkpt>
      <trkpt lat="43.44765" lon="6.06714">
        <ele>289.20001220703</ele>
        <time>2015-12-09T14:48:21Z</time>
      </trkpt>
      <trkpt lat="43.44764" lon="6.06717">
        <ele>289</ele>
        <time>2015-12-09T14:48:22Z</time>
      </trkpt>
      <trkpt lat="43.44764" lon="6.0672">
        <ele>288.79998779297</ele>
        <time>2015-12-09T14:48:23Z</time>
      </trkpt>
      <trkpt lat="43.44765" lon="6.06725">
        <ele>288.39999389648</ele>
        <time>2015-12-09T14:48:24Z</time>
      </trkpt>
      <trkpt lat="43.44765" lon="6.06729">
        <ele>288</ele>
        <time>2015-12-09T14:48:25Z</time>
      </trkpt>
      <trkpt lat="43.44764" lon="6.06739">
        <ele>287.60000610352</ele>
        <time>2015-12-09T14:48:27Z</time>
      </trkpt>
      <trkpt lat="43.44763" lon="6.06745">
        <ele>287.20001220703</ele>
        <time>2015-12-09T14:48:28Z</time>
      </trkpt>
      <trkpt lat="43.44762" lon="6.0675">
        <ele>287</ele>
        <time>2015-12-09T14:48:29Z</time>
      </trkpt>
      <trkpt lat="43.44761" lon="6.06761">
        <ele>286.79998779297</ele>
        <time>2015-12-09T14:48:31Z</time>
      </trkpt>
      <trkpt lat="43.44759" lon="6.06764">
        <ele>286.79998779297</ele>
        <time>2015-12-09T14:48:32Z</time>
      </trkpt>
      <trkpt lat="43.44757" lon="6.06766">
        <ele>287</ele>
        <time>2015-12-09T14:48:33Z</time>
      </trkpt>
      <trkpt lat="43.44753" lon="6.06768">
        <ele>286.60000610352</ele>
        <time>2015-12-09T14:48:35Z</time>
      </trkpt>
      <trkpt lat="43.44748" lon="6.0677">
        <ele>286.79998779297</ele>
        <time>2015-12-09T14:48:37Z</time>
      </trkpt>
      <trkpt lat="43.44744" lon="6.06773">
        <ele>286.20001220703</ele>
        <time>2015-12-09T14:48:39Z</time>
      </trkpt>
      <trkpt lat="43.4474" lon="6.06777">
        <ele>285.20001220703</ele>
        <time>2015-12-09T14:48:41Z</time>
      </trkpt>
      <trkpt lat="43.44735" lon="6.06782">
        <ele>284.79998779297</ele>
        <time>2015-12-09T14:48:43Z</time>
      </trkpt>
      <trkpt lat="43.44732" lon="6.06784">
        <ele>284.60000610352</ele>
        <time>2015-12-09T14:48:44Z</time>
      </trkpt>
      <trkpt lat="43.44723" lon="6.06789">
        <ele>284</ele>
        <time>2015-12-09T14:48:47Z</time>
      </trkpt>
      <trkpt lat="43.4472" lon="6.0679">
        <ele>283.60000610352</ele>
        <time>2015-12-09T14:48:48Z</time>
      </trkpt>
      <trkpt lat="43.44717" lon="6.0679">
        <ele>283.39999389648</ele>
        <time>2015-12-09T14:48:49Z</time>
      </trkpt>
      <trkpt lat="43.44712" lon="6.0679">
        <ele>283.20001220703</ele>
        <time>2015-12-09T14:48:50Z</time>
      </trkpt>
      <trkpt lat="43.44709" lon="6.06789">
        <ele>282.79998779297</ele>
        <time>2015-12-09T14:48:51Z</time>
      </trkpt>
      <trkpt lat="43.44704" lon="6.06788">
        <ele>282.39999389648</ele>
        <time>2015-12-09T14:48:52Z</time>
      </trkpt>
      <trkpt lat="43.44701" lon="6.06787">
        <ele>282.39999389648</ele>
        <time>2015-12-09T14:48:53Z</time>
      </trkpt>
      <trkpt lat="43.44693" lon="6.06786">
        <ele>282.20001220703</ele>
        <time>2015-12-09T14:48:55Z</time>
      </trkpt>
      <trkpt lat="43.44687" lon="6.06786">
        <ele>281.79998779297</ele>
        <time>2015-12-09T14:48:57Z</time>
      </trkpt>
      <trkpt lat="43.44682" lon="6.06785">
        <ele>282</ele>
        <time>2015-12-09T14:48:59Z</time>
      </trkpt>
      <trkpt lat="43.44674" lon="6.06789">
        <ele>282</ele>
        <time>2015-12-09T14:49:02Z</time>
      </trkpt>
      <trkpt lat="43.44673" lon="6.06791">
        <ele>281.60000610352</ele>
        <time>2015-12-09T14:49:03Z</time>
      </trkpt>
      <trkpt lat="43.44672" lon="6.06793">
        <ele>281.39999389648</ele>
        <time>2015-12-09T14:49:04Z</time>
      </trkpt>
      <trkpt lat="43.44672" lon="6.06795">
        <ele>281.20001220703</ele>
        <time>2015-12-09T14:49:05Z</time>
      </trkpt>
      <trkpt lat="43.44672" lon="6.06799">
        <ele>281</ele>
        <time>2015-12-09T14:49:07Z</time>
      </trkpt>
      <trkpt lat="43.44672" lon="6.068">
        <ele>280.60000610352</ele>
        <time>2015-12-09T14:49:09Z</time>
      </trkpt>
      <trkpt lat="43.44672" lon="6.06801">
        <ele>281</ele>
        <time>2015-12-09T14:49:11Z</time>
      </trkpt>
      <trkpt lat="43.44672" lon="6.068">
        <ele>281</ele>
        <time>2015-12-09T14:49:13Z</time>
      </trkpt>
      <trkpt lat="43.44672" lon="6.068">
        <ele>280.79998779297</ele>
        <time>2015-12-09T14:49:17Z</time>
      </trkpt>
      <trkpt lat="43.44672" lon="6.068">
        <ele>280.79998779297</ele>
        <time>2015-12-09T14:49:19Z</time>
      </trkpt>
      <trkpt lat="43.44672" lon="6.068">
        <ele>280.79998779297</ele>
        <time>2015-12-09T14:49:23Z</time>
      </trkpt>
      <trkpt lat="43.44672" lon="6.06801">
        <ele>280.79998779297</ele>
        <time>2015-12-09T14:49:25Z</time>
      </trkpt>
      <trkpt lat="43.44671" lon="6.06801">
        <ele>280.79998779297</ele>
        <time>2015-12-09T14:49:26Z</time>
      </trkpt>
      <trkpt lat="43.44671" lon="6.06803">
        <ele>281</ele>
        <time>2015-12-09T14:49:27Z</time>
      </trkpt>
      <trkpt lat="43.4467" lon="6.06811">
        <ele>280.60000610352</ele>
        <time>2015-12-09T14:49:29Z</time>
      </trkpt>
      <trkpt lat="43.4467" lon="6.06816">
        <ele>280.20001220703</ele>
        <time>2015-12-09T14:49:30Z</time>
      </trkpt>
      <trkpt lat="43.4467" lon="6.06822">
        <ele>279.60000610352</ele>
        <time>2015-12-09T14:49:31Z</time>
      </trkpt>
      <trkpt lat="43.44669" lon="6.06828">
        <ele>278.60000610352</ele>
        <time>2015-12-09T14:49:32Z</time>
      </trkpt>
      <trkpt lat="43.44669" lon="6.06835">
        <ele>278.60000610352</ele>
        <time>2015-12-09T14:49:33Z</time>
      </trkpt>
      <trkpt lat="43.44669" lon="6.06842">
        <ele>278.39999389648</ele>
        <time>2015-12-09T14:49:34Z</time>
      </trkpt>
      <trkpt lat="43.44669" lon="6.06848">
        <ele>277.79998779297</ele>
        <time>2015-12-09T14:49:35Z</time>
      </trkpt>
      <trkpt lat="43.44668" lon="6.06855">
        <ele>277.20001220703</ele>
        <time>2015-12-09T14:49:36Z</time>
      </trkpt>
      <trkpt lat="43.44669" lon="6.06872">
        <ele>276.39999389648</ele>
        <time>2015-12-09T14:49:38Z</time>
      </trkpt>
      <trkpt lat="43.4467" lon="6.06879">
        <ele>276</ele>
        <time>2015-12-09T14:49:39Z</time>
      </trkpt>
      <trkpt lat="43.44674" lon="6.06909">
        <ele>274.79998779297</ele>
        <time>2015-12-09T14:49:43Z</time>
      </trkpt>
      <trkpt lat="43.44675" lon="6.06925">
        <ele>274.39999389648</ele>
        <time>2015-12-09T14:49:45Z</time>
      </trkpt>
      <trkpt lat="43.44676" lon="6.06941">
        <ele>273.39999389648</ele>
        <time>2015-12-09T14:49:47Z</time>
      </trkpt>
      <trkpt lat="43.44677" lon="6.06957">
        <ele>272.39999389648</ele>
        <time>2015-12-09T14:49:49Z</time>
      </trkpt>
      <trkpt lat="43.44678" lon="6.06964">
        <ele>271.79998779297</ele>
        <time>2015-12-09T14:49:50Z</time>
      </trkpt>
      <trkpt lat="43.44679" lon="6.06969">
        <ele>271.60000610352</ele>
        <time>2015-12-09T14:49:51Z</time>
      </trkpt>
      <trkpt lat="43.44681" lon="6.06979">
        <ele>270.60000610352</ele>
        <time>2015-12-09T14:49:53Z</time>
      </trkpt>
      <trkpt lat="43.44681" lon="6.06983">
        <ele>270</ele>
        <time>2015-12-09T14:49:54Z</time>
      </trkpt>
      <trkpt lat="43.4468" lon="6.06987">
        <ele>269.39999389648</ele>
        <time>2015-12-09T14:49:55Z</time>
      </trkpt>
      <trkpt lat="43.44678" lon="6.06995">
        <ele>268</ele>
        <time>2015-12-09T14:49:57Z</time>
      </trkpt>
      <trkpt lat="43.44678" lon="6.07001">
        <ele>267.60000610352</ele>
        <time>2015-12-09T14:49:58Z</time>
      </trkpt>
      <trkpt lat="43.44677" lon="6.07006">
        <ele>267</ele>
        <time>2015-12-09T14:49:59Z</time>
      </trkpt>
      <trkpt lat="43.44677" lon="6.07012">
        <ele>266</ele>
        <time>2015-12-09T14:50:00Z</time>
      </trkpt>
      <trkpt lat="43.44677" lon="6.07018">
        <ele>264.39999389648</ele>
        <time>2015-12-09T14:50:01Z</time>
      </trkpt>
      <trkpt lat="43.44676" lon="6.07031">
        <ele>263.39999389648</ele>
        <time>2015-12-09T14:50:03Z</time>
      </trkpt>
      <trkpt lat="43.44674" lon="6.07039">
        <ele>263.39999389648</ele>
        <time>2015-12-09T14:50:04Z</time>
      </trkpt>
      <trkpt lat="43.44672" lon="6.07045">
        <ele>263</ele>
        <time>2015-12-09T14:50:05Z</time>
      </trkpt>
      <trkpt lat="43.44669" lon="6.07055">
        <ele>262.39999389648</ele>
        <time>2015-12-09T14:50:07Z</time>
      </trkpt>
      <trkpt lat="43.44669" lon="6.07058">
        <ele>262.20001220703</ele>
        <time>2015-12-09T14:50:08Z</time>
      </trkpt>
      <trkpt lat="43.44669" lon="6.0706">
        <ele>262</ele>
        <time>2015-12-09T14:50:09Z</time>
      </trkpt>
      <trkpt lat="43.44669" lon="6.07063">
        <ele>261.79998779297</ele>
        <time>2015-12-09T14:50:11Z</time>
      </trkpt>
      <trkpt lat="43.44669" lon="6.07063">
        <ele>261.79998779297</ele>
        <time>2015-12-09T14:50:13Z</time>
      </trkpt>
      <trkpt lat="43.44669" lon="6.07063">
        <ele>261.79998779297</ele>
        <time>2015-12-09T14:50:17Z</time>
      </trkpt>
      <trkpt lat="43.44669" lon="6.07063">
        <ele>261.79998779297</ele>
        <time>2015-12-09T14:50:21Z</time>
      </trkpt>
      <trkpt lat="43.44669" lon="6.07063">
        <ele>261.79998779297</ele>
        <time>2015-12-09T14:50:23Z</time>
      </trkpt>
      <trkpt lat="43.44669" lon="6.07063">
        <ele>261.60000610352</ele>
        <time>2015-12-09T14:50:27Z</time>
      </trkpt>
      <trkpt lat="43.44669" lon="6.07065">
        <ele>261.79998779297</ele>
        <time>2015-12-09T14:50:29Z</time>
      </trkpt>
      <trkpt lat="43.44669" lon="6.07071">
        <ele>261.60000610352</ele>
        <time>2015-12-09T14:50:31Z</time>
      </trkpt>
      <trkpt lat="43.44668" lon="6.07076">
        <ele>261.39999389648</ele>
        <time>2015-12-09T14:50:33Z</time>
      </trkpt>
      <trkpt lat="43.44667" lon="6.07083">
        <ele>261</ele>
        <time>2015-12-09T14:50:35Z</time>
      </trkpt>
      <trkpt lat="43.44666" lon="6.07092">
        <ele>261</ele>
        <time>2015-12-09T14:50:37Z</time>
      </trkpt>
      <trkpt lat="43.44664" lon="6.07102">
        <ele>260.39999389648</ele>
        <time>2015-12-09T14:50:39Z</time>
      </trkpt>
      <trkpt lat="43.44663" lon="6.07114">
        <ele>260.60000610352</ele>
        <time>2015-12-09T14:50:41Z</time>
      </trkpt>
      <trkpt lat="43.44662" lon="6.07126">
        <ele>260.20001220703</ele>
        <time>2015-12-09T14:50:43Z</time>
      </trkpt>
      <trkpt lat="43.44661" lon="6.07131">
        <ele>259.79998779297</ele>
        <time>2015-12-09T14:50:44Z</time>
      </trkpt>
      <trkpt lat="43.44661" lon="6.07137">
        <ele>259.20001220703</ele>
        <time>2015-12-09T14:50:45Z</time>
      </trkpt>
      <trkpt lat="43.44659" lon="6.07147">
        <ele>258.60000610352</ele>
        <time>2015-12-09T14:50:47Z</time>
      </trkpt>
      <trkpt lat="43.44657" lon="6.07156">
        <ele>258.60000610352</ele>
        <time>2015-12-09T14:50:49Z</time>
      </trkpt>
      <trkpt lat="43.44656" lon="6.0716">
        <ele>258.20001220703</ele>
        <time>2015-12-09T14:50:50Z</time>
      </trkpt>
      <trkpt lat="43.44655" lon="6.07162">
        <ele>258.20001220703</ele>
        <time>2015-12-09T14:50:51Z</time>
      </trkpt>
      <trkpt lat="43.44652" lon="6.07166">
        <ele>258.39999389648</ele>
        <time>2015-12-09T14:50:53Z</time>
      </trkpt>
      <trkpt lat="43.44648" lon="6.07169">
        <ele>258.20001220703</ele>
        <time>2015-12-09T14:50:55Z</time>
      </trkpt>
      <trkpt lat="43.44646" lon="6.07172">
        <ele>258</ele>
        <time>2015-12-09T14:50:57Z</time>
      </trkpt>
      <trkpt lat="43.44643" lon="6.07174">
        <ele>257.79998779297</ele>
        <time>2015-12-09T14:50:59Z</time>
      </trkpt>
      <trkpt lat="43.4464" lon="6.07176">
        <ele>257.60000610352</ele>
        <time>2015-12-09T14:51:01Z</time>
      </trkpt>
      <trkpt lat="43.44634" lon="6.07176">
        <ele>257.39999389648</ele>
        <time>2015-12-09T14:51:03Z</time>
      </trkpt>
      <trkpt lat="43.44628" lon="6.07176">
        <ele>257</ele>
        <time>2015-12-09T14:51:05Z</time>
      </trkpt>
      <trkpt lat="43.44621" lon="6.07175">
        <ele>256.60000610352</ele>
        <time>2015-12-09T14:51:07Z</time>
      </trkpt>
      <trkpt lat="43.44612" lon="6.07175">
        <ele>256.20001220703</ele>
        <time>2015-12-09T14:51:09Z</time>
      </trkpt>
      <trkpt lat="43.44603" lon="6.07175">
        <ele>255.60000610352</ele>
        <time>2015-12-09T14:51:11Z</time>
      </trkpt>
      <trkpt lat="43.44598" lon="6.07175">
        <ele>255.19999694824</ele>
        <time>2015-12-09T14:51:12Z</time>
      </trkpt>
      <trkpt lat="43.44593" lon="6.07175">
        <ele>254.80000305176</ele>
        <time>2015-12-09T14:51:13Z</time>
      </trkpt>
      <trkpt lat="43.44581" lon="6.07176">
        <ele>253.80000305176</ele>
        <time>2015-12-09T14:51:15Z</time>
      </trkpt>
      <trkpt lat="43.44567" lon="6.07178">
        <ele>252.60000610352</ele>
        <time>2015-12-09T14:51:17Z</time>
      </trkpt>
      <trkpt lat="43.44553" lon="6.0718">
        <ele>251.39999389648</ele>
        <time>2015-12-09T14:51:19Z</time>
      </trkpt>
      <trkpt lat="43.44546" lon="6.07183">
        <ele>250.80000305176</ele>
        <time>2015-12-09T14:51:20Z</time>
      </trkpt>
      <trkpt lat="43.4454" lon="6.07185">
        <ele>250.19999694824</ele>
        <time>2015-12-09T14:51:21Z</time>
      </trkpt>
      <trkpt lat="43.44533" lon="6.07189">
        <ele>249.60000610352</ele>
        <time>2015-12-09T14:51:22Z</time>
      </trkpt>
      <trkpt lat="43.44505" lon="6.07205">
        <ele>245.80000305176</ele>
        <time>2015-12-09T14:51:26Z</time>
      </trkpt>
      <trkpt lat="43.44498" lon="6.07207">
        <ele>245.19999694824</ele>
        <time>2015-12-09T14:51:27Z</time>
      </trkpt>
      <trkpt lat="43.4449" lon="6.07209">
        <ele>244.80000305176</ele>
        <time>2015-12-09T14:51:28Z</time>
      </trkpt>
      <trkpt lat="43.44475" lon="6.07205">
        <ele>243.39999389648</ele>
        <time>2015-12-09T14:51:30Z</time>
      </trkpt>
      <trkpt lat="43.44468" lon="6.07201">
        <ele>242.80000305176</ele>
        <time>2015-12-09T14:51:31Z</time>
      </trkpt>
      <trkpt lat="43.4446" lon="6.07199">
        <ele>242</ele>
        <time>2015-12-09T14:51:32Z</time>
      </trkpt>
      <trkpt lat="43.44452" lon="6.07197">
        <ele>241.19999694824</ele>
        <time>2015-12-09T14:51:33Z</time>
      </trkpt>
      <trkpt lat="43.44444" lon="6.07195">
        <ele>240.60000610352</ele>
        <time>2015-12-09T14:51:34Z</time>
      </trkpt>
      <trkpt lat="43.44437" lon="6.07194">
        <ele>240.19999694824</ele>
        <time>2015-12-09T14:51:35Z</time>
      </trkpt>
      <trkpt lat="43.44429" lon="6.07193">
        <ele>239.80000305176</ele>
        <time>2015-12-09T14:51:36Z</time>
      </trkpt>
      <trkpt lat="43.44423" lon="6.07192">
        <ele>239.60000610352</ele>
        <time>2015-12-09T14:51:37Z</time>
      </trkpt>
      <trkpt lat="43.44418" lon="6.07191">
        <ele>239.19999694824</ele>
        <time>2015-12-09T14:51:38Z</time>
      </trkpt>
      <trkpt lat="43.44413" lon="6.07189">
        <ele>239</ele>
        <time>2015-12-09T14:51:39Z</time>
      </trkpt>
      <trkpt lat="43.4441" lon="6.07187">
        <ele>239</ele>
        <time>2015-12-09T14:51:40Z</time>
      </trkpt>
      <trkpt lat="43.44408" lon="6.07187">
        <ele>239.19999694824</ele>
        <time>2015-12-09T14:51:41Z</time>
      </trkpt>
      <trkpt lat="43.44402" lon="6.07186">
        <ele>239</ele>
        <time>2015-12-09T14:51:43Z</time>
      </trkpt>
      <trkpt lat="43.44399" lon="6.07186">
        <ele>238.80000305176</ele>
        <time>2015-12-09T14:51:44Z</time>
      </trkpt>
      <trkpt lat="43.44397" lon="6.07187">
        <ele>238.80000305176</ele>
        <time>2015-12-09T14:51:45Z</time>
      </trkpt>
      <trkpt lat="43.44391" lon="6.07191">
        <ele>238.39999389648</ele>
        <time>2015-12-09T14:51:47Z</time>
      </trkpt>
      <trkpt lat="43.44389" lon="6.07192">
        <ele>238.19999694824</ele>
        <time>2015-12-09T14:51:48Z</time>
      </trkpt>
      <trkpt lat="43.44388" lon="6.07193">
        <ele>238</ele>
        <time>2015-12-09T14:51:49Z</time>
      </trkpt>
      <trkpt lat="43.44388" lon="6.07194">
        <ele>238</ele>
        <time>2015-12-09T14:51:51Z</time>
      </trkpt>
      <trkpt lat="43.44388" lon="6.07194">
        <ele>238</ele>
        <time>2015-12-09T14:51:52Z</time>
      </trkpt>
      <trkpt lat="43.44388" lon="6.07194">
        <ele>238.19999694824</ele>
        <time>2015-12-09T14:51:53Z</time>
      </trkpt>
      <trkpt lat="43.44388" lon="6.07194">
        <ele>238.19999694824</ele>
        <time>2015-12-09T14:51:59Z</time>
      </trkpt>
      <trkpt lat="43.44388" lon="6.07194">
        <ele>238.19999694824</ele>
        <time>2015-12-09T14:52:01Z</time>
      </trkpt>
      <trkpt lat="43.44388" lon="6.07194">
        <ele>238.19999694824</ele>
        <time>2015-12-09T14:52:05Z</time>
      </trkpt>
      <trkpt lat="43.44388" lon="6.07194">
        <ele>238</ele>
        <time>2015-12-09T14:52:09Z</time>
      </trkpt>
      <trkpt lat="43.44388" lon="6.07194">
        <ele>238</ele>
        <time>2015-12-09T14:52:15Z</time>
      </trkpt>
      <trkpt lat="43.44388" lon="6.07194">
        <ele>238</ele>
        <time>2015-12-09T14:52:17Z</time>
      </trkpt>
      <trkpt lat="43.44388" lon="6.07194">
        <ele>237.80000305176</ele>
        <time>2015-12-09T14:52:23Z</time>
      </trkpt>
      <trkpt lat="43.44388" lon="6.07194">
        <ele>238</ele>
        <time>2015-12-09T14:52:25Z</time>
      </trkpt>
      <trkpt lat="43.44388" lon="6.07194">
        <ele>238</ele>
        <time>2015-12-09T14:52:27Z</time>
      </trkpt>
      <trkpt lat="43.44388" lon="6.07194">
        <ele>238.19999694824</ele>
        <time>2015-12-09T14:52:29Z</time>
      </trkpt>
      <trkpt lat="43.44388" lon="6.07194">
        <ele>238.19999694824</ele>
        <time>2015-12-09T14:52:31Z</time>
      </trkpt>
      <trkpt lat="43.44388" lon="6.07194">
        <ele>238</ele>
        <time>2015-12-09T14:52:41Z</time>
      </trkpt>
      <trkpt lat="43.44388" lon="6.07194">
        <ele>238</ele>
        <time>2015-12-09T14:52:51Z</time>
      </trkpt>
      <trkpt lat="43.44388" lon="6.07194">
        <ele>237.80000305176</ele>
        <time>2015-12-09T14:52:55Z</time>
      </trkpt>
      <trkpt lat="43.44388" lon="6.07194">
        <ele>237.80000305176</ele>
        <time>2015-12-09T14:52:57Z</time>
      </trkpt>
      <trkpt lat="43.44388" lon="6.07194">
        <ele>237.80000305176</ele>
        <time>2015-12-09T14:52:59Z</time>
      </trkpt>
      <trkpt lat="43.44387" lon="6.07195">
        <ele>237.60000610352</ele>
        <time>2015-12-09T14:53:01Z</time>
      </trkpt>
      <trkpt lat="43.44384" lon="6.07195">
        <ele>237.60000610352</ele>
        <time>2015-12-09T14:53:03Z</time>
      </trkpt>
      <trkpt lat="43.44381" lon="6.07194">
        <ele>237.39999389648</ele>
        <time>2015-12-09T14:53:04Z</time>
      </trkpt>
      <trkpt lat="43.44379" lon="6.07194">
        <ele>237.19999694824</ele>
        <time>2015-12-09T14:53:05Z</time>
      </trkpt>
      <trkpt lat="43.44373" lon="6.07193">
        <ele>237.19999694824</ele>
        <time>2015-12-09T14:53:07Z</time>
      </trkpt>
      <trkpt lat="43.44366" lon="6.07191">
        <ele>237.19999694824</ele>
        <time>2015-12-09T14:53:09Z</time>
      </trkpt>
      <trkpt lat="43.44362" lon="6.0719">
        <ele>236.80000305176</ele>
        <time>2015-12-09T14:53:10Z</time>
      </trkpt>
      <trkpt lat="43.44358" lon="6.0719">
        <ele>236.60000610352</ele>
        <time>2015-12-09T14:53:11Z</time>
      </trkpt>
      <trkpt lat="43.44354" lon="6.07189">
        <ele>236.60000610352</ele>
        <time>2015-12-09T14:53:12Z</time>
      </trkpt>
      <trkpt lat="43.4435" lon="6.07188">
        <ele>236.39999389648</ele>
        <time>2015-12-09T14:53:13Z</time>
      </trkpt>
      <trkpt lat="43.44342" lon="6.07184">
        <ele>236.19999694824</ele>
        <time>2015-12-09T14:53:15Z</time>
      </trkpt>
      <trkpt lat="43.44334" lon="6.07181">
        <ele>235.60000610352</ele>
        <time>2015-12-09T14:53:17Z</time>
      </trkpt>
      <trkpt lat="43.44326" lon="6.07179">
        <ele>235.60000610352</ele>
        <time>2015-12-09T14:53:19Z</time>
      </trkpt>
      <trkpt lat="43.44318" lon="6.07177">
        <ele>235.39999389648</ele>
        <time>2015-12-09T14:53:21Z</time>
      </trkpt>
      <trkpt lat="43.44315" lon="6.07174">
        <ele>235.39999389648</ele>
        <time>2015-12-09T14:53:22Z</time>
      </trkpt>
      <trkpt lat="43.44313" lon="6.07171">
        <ele>235.19999694824</ele>
        <time>2015-12-09T14:53:23Z</time>
      </trkpt>
      <trkpt lat="43.44308" lon="6.07162">
        <ele>235.19999694824</ele>
        <time>2015-12-09T14:53:25Z</time>
      </trkpt>
      <trkpt lat="43.44306" lon="6.07157">
        <ele>235.19999694824</ele>
        <time>2015-12-09T14:53:26Z</time>
      </trkpt>
      <trkpt lat="43.44304" lon="6.07153">
        <ele>235.19999694824</ele>
        <time>2015-12-09T14:53:27Z</time>
      </trkpt>
      <trkpt lat="43.443" lon="6.07144">
        <ele>235.19999694824</ele>
        <time>2015-12-09T14:53:29Z</time>
      </trkpt>
      <trkpt lat="43.44296" lon="6.07136">
        <ele>235.39999389648</ele>
        <time>2015-12-09T14:53:31Z</time>
      </trkpt>
      <trkpt lat="43.44292" lon="6.07128">
        <ele>235.60000610352</ele>
        <time>2015-12-09T14:53:33Z</time>
      </trkpt>
      <trkpt lat="43.44287" lon="6.0712">
        <ele>235.60000610352</ele>
        <time>2015-12-09T14:53:35Z</time>
      </trkpt>
      <trkpt lat="43.44281" lon="6.07111">
        <ele>235.60000610352</ele>
        <time>2015-12-09T14:53:37Z</time>
      </trkpt>
      <trkpt lat="43.44275" lon="6.07103">
        <ele>235.60000610352</ele>
        <time>2015-12-09T14:53:39Z</time>
      </trkpt>
      <trkpt lat="43.44269" lon="6.07095">
        <ele>235.39999389648</ele>
        <time>2015-12-09T14:53:41Z</time>
      </trkpt>
      <trkpt lat="43.44262" lon="6.07087">
        <ele>235.19999694824</ele>
        <time>2015-12-09T14:53:43Z</time>
      </trkpt>
      <trkpt lat="43.44255" lon="6.0708">
        <ele>235.39999389648</ele>
        <time>2015-12-09T14:53:45Z</time>
      </trkpt>
      <trkpt lat="43.44249" lon="6.07072">
        <ele>235.39999389648</ele>
        <time>2015-12-09T14:53:47Z</time>
      </trkpt>
      <trkpt lat="43.44242" lon="6.07065">
        <ele>235.60000610352</ele>
        <time>2015-12-09T14:53:49Z</time>
      </trkpt>
      <trkpt lat="43.44236" lon="6.07058">
        <ele>235.80000305176</ele>
        <time>2015-12-09T14:53:51Z</time>
      </trkpt>
      <trkpt lat="43.44223" lon="6.07044">
        <ele>236</ele>
        <time>2015-12-09T14:53:55Z</time>
      </trkpt>
      <trkpt lat="43.44217" lon="6.07037">
        <ele>236.19999694824</ele>
        <time>2015-12-09T14:53:57Z</time>
      </trkpt>
      <trkpt lat="43.44211" lon="6.07031">
        <ele>236.39999389648</ele>
        <time>2015-12-09T14:53:59Z</time>
      </trkpt>
      <trkpt lat="43.44205" lon="6.07025">
        <ele>236.60000610352</ele>
        <time>2015-12-09T14:54:01Z</time>
      </trkpt>
      <trkpt lat="43.44199" lon="6.07018">
        <ele>236.39999389648</ele>
        <time>2015-12-09T14:54:03Z</time>
      </trkpt>
      <trkpt lat="43.44192" lon="6.07011">
        <ele>236.60000610352</ele>
        <time>2015-12-09T14:54:05Z</time>
      </trkpt>
      <trkpt lat="43.44185" lon="6.07004">
        <ele>236.39999389648</ele>
        <time>2015-12-09T14:54:07Z</time>
      </trkpt>
      <trkpt lat="43.4418" lon="6.06998">
        <ele>236.60000610352</ele>
        <time>2015-12-09T14:54:09Z</time>
      </trkpt>
      <trkpt lat="43.44174" lon="6.06992">
        <ele>237</ele>
        <time>2015-12-09T14:54:11Z</time>
      </trkpt>
      <trkpt lat="43.44168" lon="6.06986">
        <ele>237.19999694824</ele>
        <time>2015-12-09T14:54:13Z</time>
      </trkpt>
      <trkpt lat="43.44163" lon="6.06981">
        <ele>237.39999389648</ele>
        <time>2015-12-09T14:54:15Z</time>
      </trkpt>
      <trkpt lat="43.44158" lon="6.06976">
        <ele>237.60000610352</ele>
        <time>2015-12-09T14:54:17Z</time>
      </trkpt>
      <trkpt lat="43.44152" lon="6.06971">
        <ele>237.80000305176</ele>
        <time>2015-12-09T14:54:19Z</time>
      </trkpt>
      <trkpt lat="43.44146" lon="6.06966">
        <ele>237.80000305176</ele>
        <time>2015-12-09T14:54:21Z</time>
      </trkpt>
      <trkpt lat="43.44134" lon="6.06956">
        <ele>238</ele>
        <time>2015-12-09T14:54:25Z</time>
      </trkpt>
      <trkpt lat="43.4412" lon="6.06947">
        <ele>238.19999694824</ele>
        <time>2015-12-09T14:54:29Z</time>
      </trkpt>
      <trkpt lat="43.44112" lon="6.06943">
        <ele>238.19999694824</ele>
        <time>2015-12-09T14:54:31Z</time>
      </trkpt>
      <trkpt lat="43.44104" lon="6.06939">
        <ele>238.39999389648</ele>
        <time>2015-12-09T14:54:33Z</time>
      </trkpt>
      <trkpt lat="43.44096" lon="6.06936">
        <ele>238.19999694824</ele>
        <time>2015-12-09T14:54:35Z</time>
      </trkpt>
      <trkpt lat="43.44088" lon="6.06933">
        <ele>238.19999694824</ele>
        <time>2015-12-09T14:54:37Z</time>
      </trkpt>
      <trkpt lat="43.4408" lon="6.0693">
        <ele>238.39999389648</ele>
        <time>2015-12-09T14:54:39Z</time>
      </trkpt>
      <trkpt lat="43.44072" lon="6.06928">
        <ele>238</ele>
        <time>2015-12-09T14:54:41Z</time>
      </trkpt>
      <trkpt lat="43.44063" lon="6.06926">
        <ele>238</ele>
        <time>2015-12-09T14:54:43Z</time>
      </trkpt>
      <trkpt lat="43.44055" lon="6.06925">
        <ele>237.80000305176</ele>
        <time>2015-12-09T14:54:45Z</time>
      </trkpt>
      <trkpt lat="43.44037" lon="6.06923">
        <ele>237.80000305176</ele>
        <time>2015-12-09T14:54:49Z</time>
      </trkpt>
      <trkpt lat="43.44029" lon="6.06922">
        <ele>237.60000610352</ele>
        <time>2015-12-09T14:54:51Z</time>
      </trkpt>
      <trkpt lat="43.4402" lon="6.06921">
        <ele>237.60000610352</ele>
        <time>2015-12-09T14:54:53Z</time>
      </trkpt>
      <trkpt lat="43.44011" lon="6.06921">
        <ele>237.39999389648</ele>
        <time>2015-12-09T14:54:55Z</time>
      </trkpt>
      <trkpt lat="43.44002" lon="6.06921">
        <ele>237.39999389648</ele>
        <time>2015-12-09T14:54:57Z</time>
      </trkpt>
      <trkpt lat="43.43993" lon="6.06921">
        <ele>237.19999694824</ele>
        <time>2015-12-09T14:54:59Z</time>
      </trkpt>
      <trkpt lat="43.43984" lon="6.06921">
        <ele>237.39999389648</ele>
        <time>2015-12-09T14:55:01Z</time>
      </trkpt>
      <trkpt lat="43.43975" lon="6.06921">
        <ele>237.39999389648</ele>
        <time>2015-12-09T14:55:03Z</time>
      </trkpt>
      <trkpt lat="43.43966" lon="6.06921">
        <ele>237.19999694824</ele>
        <time>2015-12-09T14:55:05Z</time>
      </trkpt>
      <trkpt lat="43.43955" lon="6.06922">
        <ele>237</ele>
        <time>2015-12-09T14:55:07Z</time>
      </trkpt>
      <trkpt lat="43.43944" lon="6.06923">
        <ele>236.60000610352</ele>
        <time>2015-12-09T14:55:09Z</time>
      </trkpt>
      <trkpt lat="43.43931" lon="6.06925">
        <ele>236.60000610352</ele>
        <time>2015-12-09T14:55:11Z</time>
      </trkpt>
      <trkpt lat="43.43924" lon="6.06927">
        <ele>236.60000610352</ele>
        <time>2015-12-09T14:55:12Z</time>
      </trkpt>
      <trkpt lat="43.43917" lon="6.06929">
        <ele>236.60000610352</ele>
        <time>2015-12-09T14:55:13Z</time>
      </trkpt>
      <trkpt lat="43.43909" lon="6.06932">
        <ele>236.80000305176</ele>
        <time>2015-12-09T14:55:14Z</time>
      </trkpt>
      <trkpt lat="43.43903" lon="6.06935">
        <ele>236.39999389648</ele>
        <time>2015-12-09T14:55:15Z</time>
      </trkpt>
      <trkpt lat="43.43889" lon="6.06941">
        <ele>235.60000610352</ele>
        <time>2015-12-09T14:55:17Z</time>
      </trkpt>
      <trkpt lat="43.43882" lon="6.06942">
        <ele>235.60000610352</ele>
        <time>2015-12-09T14:55:18Z</time>
      </trkpt>
      <trkpt lat="43.43876" lon="6.06943">
        <ele>235.39999389648</ele>
        <time>2015-12-09T14:55:19Z</time>
      </trkpt>
      <trkpt lat="43.43862" lon="6.06945">
        <ele>235.60000610352</ele>
        <time>2015-12-09T14:55:21Z</time>
      </trkpt>
      <trkpt lat="43.43855" lon="6.06949">
        <ele>235.60000610352</ele>
        <time>2015-12-09T14:55:22Z</time>
      </trkpt>
      <trkpt lat="43.4385" lon="6.06955">
        <ele>236</ele>
        <time>2015-12-09T14:55:23Z</time>
      </trkpt>
      <trkpt lat="43.43841" lon="6.06973">
        <ele>236</ele>
        <time>2015-12-09T14:55:25Z</time>
      </trkpt>
      <trkpt lat="43.43836" lon="6.06982">
        <ele>236</ele>
        <time>2015-12-09T14:55:26Z</time>
      </trkpt>
      <trkpt lat="43.43831" lon="6.0699">
        <ele>235.80000305176</ele>
        <time>2015-12-09T14:55:27Z</time>
      </trkpt>
      <trkpt lat="43.43826" lon="6.06998">
        <ele>235.60000610352</ele>
        <time>2015-12-09T14:55:28Z</time>
      </trkpt>
      <trkpt lat="43.4382" lon="6.07005">
        <ele>235.60000610352</ele>
        <time>2015-12-09T14:55:29Z</time>
      </trkpt>
      <trkpt lat="43.43814" lon="6.07012">
        <ele>235.60000610352</ele>
        <time>2015-12-09T14:55:30Z</time>
      </trkpt>
      <trkpt lat="43.43808" lon="6.07018">
        <ele>235.60000610352</ele>
        <time>2015-12-09T14:55:31Z</time>
      </trkpt>
      <trkpt lat="43.43795" lon="6.0703">
        <ele>235.39999389648</ele>
        <time>2015-12-09T14:55:33Z</time>
      </trkpt>
      <trkpt lat="43.43783" lon="6.07043">
        <ele>235.19999694824</ele>
        <time>2015-12-09T14:55:35Z</time>
      </trkpt>
      <trkpt lat="43.43771" lon="6.07056">
        <ele>235</ele>
        <time>2015-12-09T14:55:37Z</time>
      </trkpt>
      <trkpt lat="43.4376" lon="6.07067">
        <ele>234.39999389648</ele>
        <time>2015-12-09T14:55:39Z</time>
      </trkpt>
      <trkpt lat="43.43751" lon="6.07076">
        <ele>234.19999694824</ele>
        <time>2015-12-09T14:55:41Z</time>
      </trkpt>
      <trkpt lat="43.43746" lon="6.0708">
        <ele>234.19999694824</ele>
        <time>2015-12-09T14:55:42Z</time>
      </trkpt>
      <trkpt lat="43.43742" lon="6.07084">
        <ele>234.19999694824</ele>
        <time>2015-12-09T14:55:43Z</time>
      </trkpt>
      <trkpt lat="43.43734" lon="6.07092">
        <ele>233.60000610352</ele>
        <time>2015-12-09T14:55:45Z</time>
      </trkpt>
      <trkpt lat="43.43729" lon="6.07096">
        <ele>233.39999389648</ele>
        <time>2015-12-09T14:55:46Z</time>
      </trkpt>
      <trkpt lat="43.43725" lon="6.071">
        <ele>233.19999694824</ele>
        <time>2015-12-09T14:55:47Z</time>
      </trkpt>
      <trkpt lat="43.43716" lon="6.07107">
        <ele>233.19999694824</ele>
        <time>2015-12-09T14:55:49Z</time>
      </trkpt>
      <trkpt lat="43.43708" lon="6.07113">
        <ele>233</ele>
        <time>2015-12-09T14:55:51Z</time>
      </trkpt>
      <trkpt lat="43.43699" lon="6.07117">
        <ele>232.60000610352</ele>
        <time>2015-12-09T14:55:53Z</time>
      </trkpt>
      <trkpt lat="43.4369" lon="6.0712">
        <ele>232.60000610352</ele>
        <time>2015-12-09T14:55:55Z</time>
      </trkpt>
      <trkpt lat="43.43681" lon="6.07121">
        <ele>232.39999389648</ele>
        <time>2015-12-09T14:55:57Z</time>
      </trkpt>
      <trkpt lat="43.43671" lon="6.07121">
        <ele>232</ele>
        <time>2015-12-09T14:55:59Z</time>
      </trkpt>
      <trkpt lat="43.43661" lon="6.07119">
        <ele>232</ele>
        <time>2015-12-09T14:56:01Z</time>
      </trkpt>
      <trkpt lat="43.43652" lon="6.07116">
        <ele>231.80000305176</ele>
        <time>2015-12-09T14:56:03Z</time>
      </trkpt>
      <trkpt lat="43.43647" lon="6.07115">
        <ele>232</ele>
        <time>2015-12-09T14:56:04Z</time>
      </trkpt>
      <trkpt lat="43.43643" lon="6.07114">
        <ele>232</ele>
        <time>2015-12-09T14:56:05Z</time>
      </trkpt>
      <trkpt lat="43.43635" lon="6.07112">
        <ele>232</ele>
        <time>2015-12-09T14:56:07Z</time>
      </trkpt>
      <trkpt lat="43.43627" lon="6.0711">
        <ele>232</ele>
        <time>2015-12-09T14:56:09Z</time>
      </trkpt>
      <trkpt lat="43.43619" lon="6.07107">
        <ele>232.19999694824</ele>
        <time>2015-12-09T14:56:11Z</time>
      </trkpt>
      <trkpt lat="43.4361" lon="6.07104">
        <ele>232.19999694824</ele>
        <time>2015-12-09T14:56:13Z</time>
      </trkpt>
      <trkpt lat="43.43602" lon="6.07102">
        <ele>232.19999694824</ele>
        <time>2015-12-09T14:56:15Z</time>
      </trkpt>
      <trkpt lat="43.43594" lon="6.07099">
        <ele>232.60000610352</ele>
        <time>2015-12-09T14:56:17Z</time>
      </trkpt>
      <trkpt lat="43.43585" lon="6.07097">
        <ele>233</ele>
        <time>2015-12-09T14:56:19Z</time>
      </trkpt>
      <trkpt lat="43.43577" lon="6.07094">
        <ele>233.19999694824</ele>
        <time>2015-12-09T14:56:21Z</time>
      </trkpt>
      <trkpt lat="43.43569" lon="6.07092">
        <ele>233.39999389648</ele>
        <time>2015-12-09T14:56:23Z</time>
      </trkpt>
      <trkpt lat="43.4356" lon="6.0709">
        <ele>233.60000610352</ele>
        <time>2015-12-09T14:56:25Z</time>
      </trkpt>
      <trkpt lat="43.43553" lon="6.07088">
        <ele>234</ele>
        <time>2015-12-09T14:56:27Z</time>
      </trkpt>
      <trkpt lat="43.43546" lon="6.07086">
        <ele>234.19999694824</ele>
        <time>2015-12-09T14:56:29Z</time>
      </trkpt>
      <trkpt lat="43.43541" lon="6.07084">
        <ele>234.60000610352</ele>
        <time>2015-12-09T14:56:30Z</time>
      </trkpt>
      <trkpt lat="43.43538" lon="6.07083">
        <ele>235</ele>
        <time>2015-12-09T14:56:31Z</time>
      </trkpt>
      <trkpt lat="43.43531" lon="6.07081">
        <ele>235.19999694824</ele>
        <time>2015-12-09T14:56:33Z</time>
      </trkpt>
      <trkpt lat="43.43523" lon="6.07078">
        <ele>235.60000610352</ele>
        <time>2015-12-09T14:56:35Z</time>
      </trkpt>
      <trkpt lat="43.43511" lon="6.07074">
        <ele>236</ele>
        <time>2015-12-09T14:56:38Z</time>
      </trkpt>
      <trkpt lat="43.43507" lon="6.07072">
        <ele>236.19999694824</ele>
        <time>2015-12-09T14:56:39Z</time>
      </trkpt>
      <trkpt lat="43.43502" lon="6.07071">
        <ele>236.60000610352</ele>
        <time>2015-12-09T14:56:40Z</time>
      </trkpt>
      <trkpt lat="43.43497" lon="6.07069">
        <ele>236.80000305176</ele>
        <time>2015-12-09T14:56:41Z</time>
      </trkpt>
      <trkpt lat="43.43493" lon="6.07068">
        <ele>237</ele>
        <time>2015-12-09T14:56:42Z</time>
      </trkpt>
      <trkpt lat="43.43488" lon="6.07066">
        <ele>237</ele>
        <time>2015-12-09T14:56:43Z</time>
      </trkpt>
      <trkpt lat="43.43479" lon="6.07063">
        <ele>237</ele>
        <time>2015-12-09T14:56:45Z</time>
      </trkpt>
      <trkpt lat="43.43469" lon="6.0706">
        <ele>236.80000305176</ele>
        <time>2015-12-09T14:56:47Z</time>
      </trkpt>
      <trkpt lat="43.43458" lon="6.07056">
        <ele>236.39999389648</ele>
        <time>2015-12-09T14:56:49Z</time>
      </trkpt>
      <trkpt lat="43.43437" lon="6.0705">
        <ele>236.60000610352</ele>
        <time>2015-12-09T14:56:53Z</time>
      </trkpt>
      <trkpt lat="43.43425" lon="6.07046">
        <ele>235.80000305176</ele>
        <time>2015-12-09T14:56:55Z</time>
      </trkpt>
      <trkpt lat="43.43413" lon="6.07042">
        <ele>235.19999694824</ele>
        <time>2015-12-09T14:56:57Z</time>
      </trkpt>
      <trkpt lat="43.43401" lon="6.07038">
        <ele>234.60000610352</ele>
        <time>2015-12-09T14:56:59Z</time>
      </trkpt>
      <trkpt lat="43.43388" lon="6.07035">
        <ele>234</ele>
        <time>2015-12-09T14:57:01Z</time>
      </trkpt>
      <trkpt lat="43.43377" lon="6.07031">
        <ele>233.60000610352</ele>
        <time>2015-12-09T14:57:03Z</time>
      </trkpt>
      <trkpt lat="43.43366" lon="6.07028">
        <ele>233</ele>
        <time>2015-12-09T14:57:05Z</time>
      </trkpt>
      <trkpt lat="43.43356" lon="6.07025">
        <ele>232.60000610352</ele>
        <time>2015-12-09T14:57:07Z</time>
      </trkpt>
      <trkpt lat="43.43351" lon="6.07023">
        <ele>232.60000610352</ele>
        <time>2015-12-09T14:57:08Z</time>
      </trkpt>
      <trkpt lat="43.43347" lon="6.07022">
        <ele>232.39999389648</ele>
        <time>2015-12-09T14:57:09Z</time>
      </trkpt>
      <trkpt lat="43.43339" lon="6.07019">
        <ele>232.39999389648</ele>
        <time>2015-12-09T14:57:11Z</time>
      </trkpt>
      <trkpt lat="43.43332" lon="6.07016">
        <ele>232.80000305176</ele>
        <time>2015-12-09T14:57:13Z</time>
      </trkpt>
      <trkpt lat="43.43326" lon="6.07013">
        <ele>232.19999694824</ele>
        <time>2015-12-09T14:57:15Z</time>
      </trkpt>
      <trkpt lat="43.43319" lon="6.07011">
        <ele>232.19999694824</ele>
        <time>2015-12-09T14:57:17Z</time>
      </trkpt>
      <trkpt lat="43.43312" lon="6.0701">
        <ele>232.60000610352</ele>
        <time>2015-12-09T14:57:19Z</time>
      </trkpt>
      <trkpt lat="43.43306" lon="6.0701">
        <ele>232.39999389648</ele>
        <time>2015-12-09T14:57:21Z</time>
      </trkpt>
      <trkpt lat="43.43299" lon="6.07011">
        <ele>232.39999389648</ele>
        <time>2015-12-09T14:57:23Z</time>
      </trkpt>
      <trkpt lat="43.43294" lon="6.07013">
        <ele>232.39999389648</ele>
        <time>2015-12-09T14:57:25Z</time>
      </trkpt>
      <trkpt lat="43.43288" lon="6.07014">
        <ele>232.39999389648</ele>
        <time>2015-12-09T14:57:27Z</time>
      </trkpt>
      <trkpt lat="43.43285" lon="6.07009">
        <ele>233</ele>
        <time>2015-12-09T14:57:29Z</time>
      </trkpt>
      <trkpt lat="43.43283" lon="6.07004">
        <ele>233</ele>
        <time>2015-12-09T14:57:31Z</time>
      </trkpt>
      <trkpt lat="43.43282" lon="6.07001">
        <ele>233</ele>
        <time>2015-12-09T14:57:33Z</time>
      </trkpt>
      <trkpt lat="43.43282" lon="6.06999">
        <ele>233.19999694824</ele>
        <time>2015-12-09T14:57:34Z</time>
      </trkpt>
      <trkpt lat="43.43281" lon="6.06998">
        <ele>233.39999389648</ele>
        <time>2015-12-09T14:57:35Z</time>
      </trkpt>
      <trkpt lat="43.4328" lon="6.06997">
        <ele>233.60000610352</ele>
        <time>2015-12-09T14:57:37Z</time>
      </trkpt>
      <trkpt lat="43.4328" lon="6.06997">
        <ele>233.60000610352</ele>
        <time>2015-12-09T14:57:39Z</time>
      </trkpt>
      <trkpt lat="43.4328" lon="6.06997">
        <ele>233.60000610352</ele>
        <time>2015-12-09T14:57:41Z</time>
      </trkpt>
      <trkpt lat="43.4328" lon="6.06997">
        <ele>233.60000610352</ele>
        <time>2015-12-09T14:57:43Z</time>
      </trkpt>
      <trkpt lat="43.4328" lon="6.06997">
        <ele>233.60000610352</ele>
        <time>2015-12-09T14:57:45Z</time>
      </trkpt>
      <trkpt lat="43.4328" lon="6.06997">
        <ele>233.39999389648</ele>
        <time>2015-12-09T14:57:49Z</time>
      </trkpt>
      <trkpt lat="43.4328" lon="6.06997">
        <ele>233.39999389648</ele>
        <time>2015-12-09T14:57:57Z</time>
      </trkpt>
      <trkpt lat="43.4328" lon="6.06996">
        <ele>233.60000610352</ele>
        <time>2015-12-09T14:58:03Z</time>
      </trkpt>
      <trkpt lat="43.4328" lon="6.06996">
        <ele>233.60000610352</ele>
        <time>2015-12-09T14:58:05Z</time>
      </trkpt>
      <trkpt lat="43.4328" lon="6.06996">
        <ele>233.60000610352</ele>
        <time>2015-12-09T14:58:09Z</time>
      </trkpt>
      <trkpt lat="43.4328" lon="6.06996">
        <ele>233.60000610352</ele>
        <time>2015-12-09T14:58:11Z</time>
      </trkpt>
      <trkpt lat="43.4328" lon="6.06996">
        <ele>233.60000610352</ele>
        <time>2015-12-09T14:58:15Z</time>
      </trkpt>
      <trkpt lat="43.4328" lon="6.06995">
        <ele>233.39999389648</ele>
        <time>2015-12-09T14:58:17Z</time>
      </trkpt>
      <trkpt lat="43.43281" lon="6.06992">
        <ele>233.60000610352</ele>
        <time>2015-12-09T14:58:19Z</time>
      </trkpt>
      <trkpt lat="43.43282" lon="6.06989">
        <ele>233.60000610352</ele>
        <time>2015-12-09T14:58:20Z</time>
      </trkpt>
      <trkpt lat="43.43282" lon="6.06986">
        <ele>233.60000610352</ele>
        <time>2015-12-09T14:58:21Z</time>
      </trkpt>
      <trkpt lat="43.43283" lon="6.0698">
        <ele>233.60000610352</ele>
        <time>2015-12-09T14:58:23Z</time>
      </trkpt>
      <trkpt lat="43.43284" lon="6.06973">
        <ele>233.80000305176</ele>
        <time>2015-12-09T14:58:25Z</time>
      </trkpt>
      <trkpt lat="43.43285" lon="6.06966">
        <ele>233.80000305176</ele>
        <time>2015-12-09T14:58:27Z</time>
      </trkpt>
      <trkpt lat="43.43286" lon="6.06959">
        <ele>234.19999694824</ele>
        <time>2015-12-09T14:58:29Z</time>
      </trkpt>
      <trkpt lat="43.43286" lon="6.06952">
        <ele>234.19999694824</ele>
        <time>2015-12-09T14:58:31Z</time>
      </trkpt>
      <trkpt lat="43.43285" lon="6.06937">
        <ele>234.60000610352</ele>
        <time>2015-12-09T14:58:36Z</time>
      </trkpt>
      <trkpt lat="43.43285" lon="6.06929">
        <ele>235</ele>
        <time>2015-12-09T14:58:39Z</time>
      </trkpt>
      <trkpt lat="43.43285" lon="6.06926">
        <ele>235.19999694824</ele>
        <time>2015-12-09T14:58:40Z</time>
      </trkpt>
      <trkpt lat="43.43284" lon="6.06924">
        <ele>235.39999389648</ele>
        <time>2015-12-09T14:58:41Z</time>
      </trkpt>
      <trkpt lat="43.43283" lon="6.06918">
        <ele>236</ele>
        <time>2015-12-09T14:58:43Z</time>
      </trkpt>
      <trkpt lat="43.43284" lon="6.06908">
        <ele>237</ele>
        <time>2015-12-09T14:58:46Z</time>
      </trkpt>
      <trkpt lat="43.43285" lon="6.06905">
        <ele>237.39999389648</ele>
        <time>2015-12-09T14:58:47Z</time>
      </trkpt>
      <trkpt lat="43.43284" lon="6.06895">
        <ele>238.39999389648</ele>
        <time>2015-12-09T14:58:50Z</time>
      </trkpt>
      <trkpt lat="43.43284" lon="6.06892">
        <ele>238.80000305176</ele>
        <time>2015-12-09T14:58:51Z</time>
      </trkpt>
      <trkpt lat="43.43285" lon="6.06889">
        <ele>239.19999694824</ele>
        <time>2015-12-09T14:58:52Z</time>
      </trkpt>
      <trkpt lat="43.43285" lon="6.06881">
        <ele>240.39999389648</ele>
        <time>2015-12-09T14:58:55Z</time>
      </trkpt>
      <trkpt lat="43.43284" lon="6.06876">
        <ele>240.80000305176</ele>
        <time>2015-12-09T14:58:57Z</time>
      </trkpt>
      <trkpt lat="43.43283" lon="6.06872">
        <ele>241.60000610352</ele>
        <time>2015-12-09T14:58:59Z</time>
      </trkpt>
      <trkpt lat="43.43282" lon="6.06867">
        <ele>242</ele>
        <time>2015-12-09T14:59:01Z</time>
      </trkpt>
      <trkpt lat="43.43281" lon="6.06862">
        <ele>242.39999389648</ele>
        <time>2015-12-09T14:59:03Z</time>
      </trkpt>
      <trkpt lat="43.4328" lon="6.06857">
        <ele>242.80000305176</ele>
        <time>2015-12-09T14:59:05Z</time>
      </trkpt>
      <trkpt lat="43.43278" lon="6.06849">
        <ele>243.39999389648</ele>
        <time>2015-12-09T14:59:09Z</time>
      </trkpt>
      <trkpt lat="43.43277" lon="6.06845">
        <ele>243.39999389648</ele>
        <time>2015-12-09T14:59:11Z</time>
      </trkpt>
      <trkpt lat="43.43275" lon="6.06841">
        <ele>243.60000610352</ele>
        <time>2015-12-09T14:59:13Z</time>
      </trkpt>
      <trkpt lat="43.43274" lon="6.06837">
        <ele>243.80000305176</ele>
        <time>2015-12-09T14:59:15Z</time>
      </trkpt>
      <trkpt lat="43.43273" lon="6.06833">
        <ele>243.80000305176</ele>
        <time>2015-12-09T14:59:17Z</time>
      </trkpt>
      <trkpt lat="43.4327" lon="6.06825">
        <ele>244.60000610352</ele>
        <time>2015-12-09T14:59:21Z</time>
      </trkpt>
      <trkpt lat="43.43269" lon="6.06822">
        <ele>244.80000305176</ele>
        <time>2015-12-09T14:59:23Z</time>
      </trkpt>
      <trkpt lat="43.43267" lon="6.06812">
        <ele>245.39999389648</ele>
        <time>2015-12-09T14:59:27Z</time>
      </trkpt>
      <trkpt lat="43.43266" lon="6.06808">
        <ele>245.39999389648</ele>
        <time>2015-12-09T14:59:29Z</time>
      </trkpt>
      <trkpt lat="43.43265" lon="6.06803">
        <ele>245.39999389648</ele>
        <time>2015-12-09T14:59:31Z</time>
      </trkpt>
      <trkpt lat="43.43264" lon="6.06798">
        <ele>245.39999389648</ele>
        <time>2015-12-09T14:59:33Z</time>
      </trkpt>
      <trkpt lat="43.43261" lon="6.06789">
        <ele>245.60000610352</ele>
        <time>2015-12-09T14:59:37Z</time>
      </trkpt>
      <trkpt lat="43.43256" lon="6.06775">
        <ele>246.19999694824</ele>
        <time>2015-12-09T14:59:43Z</time>
      </trkpt>
      <trkpt lat="43.43254" lon="6.06771">
        <ele>246.19999694824</ele>
        <time>2015-12-09T14:59:45Z</time>
      </trkpt>
      <trkpt lat="43.43253" lon="6.06766">
        <ele>246.19999694824</ele>
        <time>2015-12-09T14:59:47Z</time>
      </trkpt>
      <trkpt lat="43.43251" lon="6.06761">
        <ele>246.39999389648</ele>
        <time>2015-12-09T14:59:49Z</time>
      </trkpt>
      <trkpt lat="43.4325" lon="6.06758">
        <ele>246.39999389648</ele>
        <time>2015-12-09T14:59:50Z</time>
      </trkpt>
      <trkpt lat="43.43249" lon="6.06756">
        <ele>246.39999389648</ele>
        <time>2015-12-09T14:59:51Z</time>
      </trkpt>
      <trkpt lat="43.43248" lon="6.06751">
        <ele>246.39999389648</ele>
        <time>2015-12-09T14:59:53Z</time>
      </trkpt>
      <trkpt lat="43.43246" lon="6.06749">
        <ele>246.60000610352</ele>
        <time>2015-12-09T14:59:54Z</time>
      </trkpt>
      <trkpt lat="43.43246" lon="6.06747">
        <ele>247.19999694824</ele>
        <time>2015-12-09T14:59:55Z</time>
      </trkpt>
      <trkpt lat="43.43243" lon="6.06743">
        <ele>247.19999694824</ele>
        <time>2015-12-09T14:59:57Z</time>
      </trkpt>
      <trkpt lat="43.43242" lon="6.06738">
        <ele>247.19999694824</ele>
        <time>2015-12-09T14:59:59Z</time>
      </trkpt>
      <trkpt lat="43.4324" lon="6.06733">
        <ele>247.39999389648</ele>
        <time>2015-12-09T15:00:01Z</time>
      </trkpt>
      <trkpt lat="43.43238" lon="6.06729">
        <ele>247.39999389648</ele>
        <time>2015-12-09T15:00:03Z</time>
      </trkpt>
      <trkpt lat="43.43236" lon="6.06725">
        <ele>247.39999389648</ele>
        <time>2015-12-09T15:00:05Z</time>
      </trkpt>
      <trkpt lat="43.43233" lon="6.06721">
        <ele>247.39999389648</ele>
        <time>2015-12-09T15:00:07Z</time>
      </trkpt>
      <trkpt lat="43.43231" lon="6.06719">
        <ele>247.39999389648</ele>
        <time>2015-12-09T15:00:08Z</time>
      </trkpt>
      <trkpt lat="43.4323" lon="6.06717">
        <ele>247</ele>
        <time>2015-12-09T15:00:09Z</time>
      </trkpt>
      <trkpt lat="43.43227" lon="6.06713">
        <ele>247.19999694824</ele>
        <time>2015-12-09T15:00:11Z</time>
      </trkpt>
      <trkpt lat="43.43224" lon="6.06709">
        <ele>247</ele>
        <time>2015-12-09T15:00:13Z</time>
      </trkpt>
      <trkpt lat="43.43222" lon="6.06705">
        <ele>247</ele>
        <time>2015-12-09T15:00:15Z</time>
      </trkpt>
      <trkpt lat="43.43219" lon="6.067">
        <ele>247.19999694824</ele>
        <time>2015-12-09T15:00:17Z</time>
      </trkpt>
      <trkpt lat="43.43216" lon="6.06695">
        <ele>247.19999694824</ele>
        <time>2015-12-09T15:00:19Z</time>
      </trkpt>
      <trkpt lat="43.43213" lon="6.06691">
        <ele>247.19999694824</ele>
        <time>2015-12-09T15:00:21Z</time>
      </trkpt>
      <trkpt lat="43.43209" lon="6.06687">
        <ele>247</ele>
        <time>2015-12-09T15:00:23Z</time>
      </trkpt>
      <trkpt lat="43.43207" lon="6.06676">
        <ele>247.19999694824</ele>
        <time>2015-12-09T15:00:27Z</time>
      </trkpt>
      <trkpt lat="43.43205" lon="6.0667">
        <ele>247</ele>
        <time>2015-12-09T15:00:29Z</time>
      </trkpt>
      <trkpt lat="43.43203" lon="6.06663">
        <ele>247.19999694824</ele>
        <time>2015-12-09T15:00:31Z</time>
      </trkpt>
      <trkpt lat="43.43203" lon="6.06658">
        <ele>247.19999694824</ele>
        <time>2015-12-09T15:00:33Z</time>
      </trkpt>
      <trkpt lat="43.43202" lon="6.06651">
        <ele>247.19999694824</ele>
        <time>2015-12-09T15:00:35Z</time>
      </trkpt>
      <trkpt lat="43.43203" lon="6.06645">
        <ele>247.19999694824</ele>
        <time>2015-12-09T15:00:37Z</time>
      </trkpt>
      <trkpt lat="43.43202" lon="6.0664">
        <ele>247.19999694824</ele>
        <time>2015-12-09T15:00:39Z</time>
      </trkpt>
      <trkpt lat="43.43201" lon="6.06637">
        <ele>247.19999694824</ele>
        <time>2015-12-09T15:00:40Z</time>
      </trkpt>
      <trkpt lat="43.432" lon="6.06634">
        <ele>247.39999389648</ele>
        <time>2015-12-09T15:00:41Z</time>
      </trkpt>
      <trkpt lat="43.43197" lon="6.06623">
        <ele>247.60000610352</ele>
        <time>2015-12-09T15:00:45Z</time>
      </trkpt>
      <trkpt lat="43.43195" lon="6.06618">
        <ele>247.60000610352</ele>
        <time>2015-12-09T15:00:47Z</time>
      </trkpt>
      <trkpt lat="43.43194" lon="6.06616">
        <ele>247.39999389648</ele>
        <time>2015-12-09T15:00:48Z</time>
      </trkpt>
      <trkpt lat="43.43192" lon="6.06613">
        <ele>247.39999389648</ele>
        <time>2015-12-09T15:00:49Z</time>
      </trkpt>
      <trkpt lat="43.4319" lon="6.06608">
        <ele>247.80000305176</ele>
        <time>2015-12-09T15:00:51Z</time>
      </trkpt>
      <trkpt lat="43.43188" lon="6.066">
        <ele>248.19999694824</ele>
        <time>2015-12-09T15:00:54Z</time>
      </trkpt>
      <trkpt lat="43.43187" lon="6.06598">
        <ele>248.39999389648</ele>
        <time>2015-12-09T15:00:55Z</time>
      </trkpt>
      <trkpt lat="43.43185" lon="6.06593">
        <ele>248.80000305176</ele>
        <time>2015-12-09T15:00:57Z</time>
      </trkpt>
      <trkpt lat="43.43182" lon="6.06585">
        <ele>249.39999389648</ele>
        <time>2015-12-09T15:01:00Z</time>
      </trkpt>
      <trkpt lat="43.43179" lon="6.06573">
        <ele>250</ele>
        <time>2015-12-09T15:01:05Z</time>
      </trkpt>
      <trkpt lat="43.43176" lon="6.06565">
        <ele>250.39999389648</ele>
        <time>2015-12-09T15:01:09Z</time>
      </trkpt>
      <trkpt lat="43.43174" lon="6.06562">
        <ele>250.60000610352</ele>
        <time>2015-12-09T15:01:11Z</time>
      </trkpt>
      <trkpt lat="43.43172" lon="6.06559">
        <ele>250.80000305176</ele>
        <time>2015-12-09T15:01:13Z</time>
      </trkpt>
      <trkpt lat="43.43169" lon="6.06556">
        <ele>251</ele>
        <time>2015-12-09T15:01:15Z</time>
      </trkpt>
      <trkpt lat="43.43166" lon="6.06551">
        <ele>251.39999389648</ele>
        <time>2015-12-09T15:01:19Z</time>
      </trkpt>
      <trkpt lat="43.43164" lon="6.06547">
        <ele>251.60000610352</ele>
        <time>2015-12-09T15:01:21Z</time>
      </trkpt>
      <trkpt lat="43.4316" lon="6.06541">
        <ele>252.60000610352</ele>
        <time>2015-12-09T15:01:25Z</time>
      </trkpt>
      <trkpt lat="43.43155" lon="6.06536">
        <ele>252.80000305176</ele>
        <time>2015-12-09T15:01:29Z</time>
      </trkpt>
      <trkpt lat="43.43154" lon="6.06533">
        <ele>253.39999389648</ele>
        <time>2015-12-09T15:01:31Z</time>
      </trkpt>
      <trkpt lat="43.43152" lon="6.0653">
        <ele>253.60000610352</ele>
        <time>2015-12-09T15:01:33Z</time>
      </trkpt>
      <trkpt lat="43.4315" lon="6.06528">
        <ele>253.80000305176</ele>
        <time>2015-12-09T15:01:35Z</time>
      </trkpt>
      <trkpt lat="43.43148" lon="6.06526">
        <ele>253.80000305176</ele>
        <time>2015-12-09T15:01:37Z</time>
      </trkpt>
      <trkpt lat="43.43147" lon="6.06523">
        <ele>254.39999389648</ele>
        <time>2015-12-09T15:01:39Z</time>
      </trkpt>
      <trkpt lat="43.43145" lon="6.0652">
        <ele>254.60000610352</ele>
        <time>2015-12-09T15:01:41Z</time>
      </trkpt>
      <trkpt lat="43.43143" lon="6.06518">
        <ele>255</ele>
        <time>2015-12-09T15:01:43Z</time>
      </trkpt>
      <trkpt lat="43.4314" lon="6.06516">
        <ele>255.19999694824</ele>
        <time>2015-12-09T15:01:45Z</time>
      </trkpt>
      <trkpt lat="43.43138" lon="6.06512">
        <ele>255.19999694824</ele>
        <time>2015-12-09T15:01:47Z</time>
      </trkpt>
      <trkpt lat="43.43134" lon="6.06508">
        <ele>255.39999389648</ele>
        <time>2015-12-09T15:01:51Z</time>
      </trkpt>
      <trkpt lat="43.43132" lon="6.06506">
        <ele>255.60000610352</ele>
        <time>2015-12-09T15:01:52Z</time>
      </trkpt>
      <trkpt lat="43.43132" lon="6.06505">
        <ele>256</ele>
        <time>2015-12-09T15:01:53Z</time>
      </trkpt>
      <trkpt lat="43.4313" lon="6.06504">
        <ele>256</ele>
        <time>2015-12-09T15:01:54Z</time>
      </trkpt>
      <trkpt lat="43.43129" lon="6.06503">
        <ele>256.20001220703</ele>
        <time>2015-12-09T15:01:55Z</time>
      </trkpt>
      <trkpt lat="43.43127" lon="6.06501">
        <ele>256.39999389648</ele>
        <time>2015-12-09T15:01:57Z</time>
      </trkpt>
      <trkpt lat="43.43122" lon="6.06496">
        <ele>257</ele>
        <time>2015-12-09T15:02:01Z</time>
      </trkpt>
      <trkpt lat="43.43117" lon="6.06491">
        <ele>258</ele>
        <time>2015-12-09T15:02:05Z</time>
      </trkpt>
      <trkpt lat="43.43115" lon="6.06489">
        <ele>258.20001220703</ele>
        <time>2015-12-09T15:02:06Z</time>
      </trkpt>
      <trkpt lat="43.43114" lon="6.06487">
        <ele>258.20001220703</ele>
        <time>2015-12-09T15:02:07Z</time>
      </trkpt>
      <trkpt lat="43.43112" lon="6.06481">
        <ele>258.39999389648</ele>
        <time>2015-12-09T15:02:10Z</time>
      </trkpt>
      <trkpt lat="43.43113" lon="6.06479">
        <ele>258.79998779297</ele>
        <time>2015-12-09T15:02:11Z</time>
      </trkpt>
      <trkpt lat="43.43111" lon="6.06475">
        <ele>259.20001220703</ele>
        <time>2015-12-09T15:02:13Z</time>
      </trkpt>
      <trkpt lat="43.43111" lon="6.06473">
        <ele>259.20001220703</ele>
        <time>2015-12-09T15:02:14Z</time>
      </trkpt>
      <trkpt lat="43.4311" lon="6.06467">
        <ele>259.79998779297</ele>
        <time>2015-12-09T15:02:17Z</time>
      </trkpt>
      <trkpt lat="43.43109" lon="6.06463">
        <ele>260</ele>
        <time>2015-12-09T15:02:19Z</time>
      </trkpt>
      <trkpt lat="43.43108" lon="6.06459">
        <ele>260.39999389648</ele>
        <time>2015-12-09T15:02:21Z</time>
      </trkpt>
      <trkpt lat="43.43107" lon="6.06457">
        <ele>260.20001220703</ele>
        <time>2015-12-09T15:02:22Z</time>
      </trkpt>
      <trkpt lat="43.43106" lon="6.06455">
        <ele>260.20001220703</ele>
        <time>2015-12-09T15:02:23Z</time>
      </trkpt>
      <trkpt lat="43.43104" lon="6.0645">
        <ele>260.60000610352</ele>
        <time>2015-12-09T15:02:26Z</time>
      </trkpt>
      <trkpt lat="43.43101" lon="6.06445">
        <ele>261</ele>
        <time>2015-12-09T15:02:29Z</time>
      </trkpt>
      <trkpt lat="43.431" lon="6.06437">
        <ele>261.60000610352</ele>
        <time>2015-12-09T15:02:33Z</time>
      </trkpt>
      <trkpt lat="43.43097" lon="6.06432">
        <ele>261.79998779297</ele>
        <time>2015-12-09T15:02:36Z</time>
      </trkpt>
      <trkpt lat="43.43094" lon="6.06427">
        <ele>262.39999389648</ele>
        <time>2015-12-09T15:02:39Z</time>
      </trkpt>
      <trkpt lat="43.43093" lon="6.06423">
        <ele>262.39999389648</ele>
        <time>2015-12-09T15:02:41Z</time>
      </trkpt>
      <trkpt lat="43.43093" lon="6.06422">
        <ele>262.60000610352</ele>
        <time>2015-12-09T15:02:42Z</time>
      </trkpt>
      <trkpt lat="43.43092" lon="6.06412">
        <ele>263</ele>
        <time>2015-12-09T15:02:47Z</time>
      </trkpt>
      <trkpt lat="43.4309" lon="6.06405">
        <ele>263.20001220703</ele>
        <time>2015-12-09T15:02:51Z</time>
      </trkpt>
      <trkpt lat="43.43089" lon="6.06398">
        <ele>263.39999389648</ele>
        <time>2015-12-09T15:02:55Z</time>
      </trkpt>
      <trkpt lat="43.43087" lon="6.06391">
        <ele>263.60000610352</ele>
        <time>2015-12-09T15:02:59Z</time>
      </trkpt>
      <trkpt lat="43.43086" lon="6.06383">
        <ele>263.60000610352</ele>
        <time>2015-12-09T15:03:03Z</time>
      </trkpt>
      <trkpt lat="43.43085" lon="6.0638">
        <ele>263.60000610352</ele>
        <time>2015-12-09T15:03:05Z</time>
      </trkpt>
      <trkpt lat="43.43083" lon="6.06371">
        <ele>263.60000610352</ele>
        <time>2015-12-09T15:03:09Z</time>
      </trkpt>
      <trkpt lat="43.43081" lon="6.06367">
        <ele>263.79998779297</ele>
        <time>2015-12-09T15:03:11Z</time>
      </trkpt>
      <trkpt lat="43.43079" lon="6.06363">
        <ele>263.79998779297</ele>
        <time>2015-12-09T15:03:13Z</time>
      </trkpt>
      <trkpt lat="43.43076" lon="6.0636">
        <ele>263.79998779297</ele>
        <time>2015-12-09T15:03:15Z</time>
      </trkpt>
      <trkpt lat="43.43073" lon="6.06358">
        <ele>264</ele>
        <time>2015-12-09T15:03:17Z</time>
      </trkpt>
      <trkpt lat="43.4307" lon="6.06356">
        <ele>264</ele>
        <time>2015-12-09T15:03:19Z</time>
      </trkpt>
      <trkpt lat="43.43067" lon="6.06354">
        <ele>263.79998779297</ele>
        <time>2015-12-09T15:03:21Z</time>
      </trkpt>
      <trkpt lat="43.43064" lon="6.06353">
        <ele>263.79998779297</ele>
        <time>2015-12-09T15:03:23Z</time>
      </trkpt>
      <trkpt lat="43.4306" lon="6.06351">
        <ele>264.20001220703</ele>
        <time>2015-12-09T15:03:25Z</time>
      </trkpt>
      <trkpt lat="43.43057" lon="6.0635">
        <ele>264.20001220703</ele>
        <time>2015-12-09T15:03:27Z</time>
      </trkpt>
      <trkpt lat="43.43053" lon="6.06349">
        <ele>264.20001220703</ele>
        <time>2015-12-09T15:03:29Z</time>
      </trkpt>
      <trkpt lat="43.43051" lon="6.06347">
        <ele>264.39999389648</ele>
        <time>2015-12-09T15:03:31Z</time>
      </trkpt>
      <trkpt lat="43.43048" lon="6.06346">
        <ele>264.79998779297</ele>
        <time>2015-12-09T15:03:33Z</time>
      </trkpt>
      <trkpt lat="43.43041" lon="6.06342">
        <ele>265</ele>
        <time>2015-12-09T15:03:37Z</time>
      </trkpt>
      <trkpt lat="43.43039" lon="6.06339">
        <ele>264.79998779297</ele>
        <time>2015-12-09T15:03:39Z</time>
      </trkpt>
      <trkpt lat="43.43036" lon="6.06335">
        <ele>264.79998779297</ele>
        <time>2015-12-09T15:03:41Z</time>
      </trkpt>
      <trkpt lat="43.43034" lon="6.06331">
        <ele>265</ele>
        <time>2015-12-09T15:03:43Z</time>
      </trkpt>
      <trkpt lat="43.43034" lon="6.06329">
        <ele>265</ele>
        <time>2015-12-09T15:03:44Z</time>
      </trkpt>
      <trkpt lat="43.43034" lon="6.06327">
        <ele>265.20001220703</ele>
        <time>2015-12-09T15:03:45Z</time>
      </trkpt>
      <trkpt lat="43.43032" lon="6.06321">
        <ele>265.39999389648</ele>
        <time>2015-12-09T15:03:48Z</time>
      </trkpt>
      <trkpt lat="43.43031" lon="6.06319">
        <ele>265.20001220703</ele>
        <time>2015-12-09T15:03:49Z</time>
      </trkpt>
      <trkpt lat="43.43029" lon="6.06316">
        <ele>265.39999389648</ele>
        <time>2015-12-09T15:03:51Z</time>
      </trkpt>
      <trkpt lat="43.43027" lon="6.06314">
        <ele>265.79998779297</ele>
        <time>2015-12-09T15:03:53Z</time>
      </trkpt>
      <trkpt lat="43.43026" lon="6.06314">
        <ele>265.79998779297</ele>
        <time>2015-12-09T15:03:54Z</time>
      </trkpt>
      <trkpt lat="43.43024" lon="6.06314">
        <ele>266</ele>
        <time>2015-12-09T15:03:55Z</time>
      </trkpt>
      <trkpt lat="43.43021" lon="6.06313">
        <ele>266</ele>
        <time>2015-12-09T15:03:57Z</time>
      </trkpt>
      <trkpt lat="43.43015" lon="6.06313">
        <ele>265.79998779297</ele>
        <time>2015-12-09T15:04:01Z</time>
      </trkpt>
      <trkpt lat="43.43012" lon="6.06314">
        <ele>266.39999389648</ele>
        <time>2015-12-09T15:04:03Z</time>
      </trkpt>
      <trkpt lat="43.43008" lon="6.06314">
        <ele>266.39999389648</ele>
        <time>2015-12-09T15:04:05Z</time>
      </trkpt>
      <trkpt lat="43.43002" lon="6.06313">
        <ele>266.60000610352</ele>
        <time>2015-12-09T15:04:09Z</time>
      </trkpt>
      <trkpt lat="43.42999" lon="6.06313">
        <ele>267</ele>
        <time>2015-12-09T15:04:11Z</time>
      </trkpt>
      <trkpt lat="43.42995" lon="6.06312">
        <ele>267.39999389648</ele>
        <time>2015-12-09T15:04:13Z</time>
      </trkpt>
      <trkpt lat="43.42992" lon="6.06311">
        <ele>267.39999389648</ele>
        <time>2015-12-09T15:04:15Z</time>
      </trkpt>
      <trkpt lat="43.42989" lon="6.0631">
        <ele>267.60000610352</ele>
        <time>2015-12-09T15:04:17Z</time>
      </trkpt>
      <trkpt lat="43.42986" lon="6.06308">
        <ele>267.60000610352</ele>
        <time>2015-12-09T15:04:19Z</time>
      </trkpt>
      <trkpt lat="43.42983" lon="6.06307">
        <ele>267.79998779297</ele>
        <time>2015-12-09T15:04:21Z</time>
      </trkpt>
      <trkpt lat="43.4298" lon="6.06306">
        <ele>267.79998779297</ele>
        <time>2015-12-09T15:04:23Z</time>
      </trkpt>
      <trkpt lat="43.42978" lon="6.06306">
        <ele>268.20001220703</ele>
        <time>2015-12-09T15:04:25Z</time>
      </trkpt>
      <trkpt lat="43.42976" lon="6.06306">
        <ele>268.20001220703</ele>
        <time>2015-12-09T15:04:26Z</time>
      </trkpt>
      <trkpt lat="43.42974" lon="6.06307">
        <ele>268.39999389648</ele>
        <time>2015-12-09T15:04:27Z</time>
      </trkpt>
      <trkpt lat="43.42971" lon="6.06308">
        <ele>268.39999389648</ele>
        <time>2015-12-09T15:04:29Z</time>
      </trkpt>
      <trkpt lat="43.4297" lon="6.06308">
        <ele>268.60000610352</ele>
        <time>2015-12-09T15:04:30Z</time>
      </trkpt>
      <trkpt lat="43.42966" lon="6.06308">
        <ele>268.79998779297</ele>
        <time>2015-12-09T15:04:32Z</time>
      </trkpt>
      <trkpt lat="43.42964" lon="6.06307">
        <ele>268.79998779297</ele>
        <time>2015-12-09T15:04:33Z</time>
      </trkpt>
      <trkpt lat="43.42959" lon="6.06304">
        <ele>269.20001220703</ele>
        <time>2015-12-09T15:04:36Z</time>
      </trkpt>
      <trkpt lat="43.42958" lon="6.06302">
        <ele>269.20001220703</ele>
        <time>2015-12-09T15:04:37Z</time>
      </trkpt>
      <trkpt lat="43.42957" lon="6.06301">
        <ele>269.39999389648</ele>
        <time>2015-12-09T15:04:38Z</time>
      </trkpt>
      <trkpt lat="43.42955" lon="6.063">
        <ele>269.60000610352</ele>
        <time>2015-12-09T15:04:39Z</time>
      </trkpt>
      <trkpt lat="43.42951" lon="6.06292">
        <ele>269.79998779297</ele>
        <time>2015-12-09T15:04:43Z</time>
      </trkpt>
      <trkpt lat="43.42949" lon="6.06289">
        <ele>270</ele>
        <time>2015-12-09T15:04:45Z</time>
      </trkpt>
      <trkpt lat="43.42946" lon="6.06287">
        <ele>270.39999389648</ele>
        <time>2015-12-09T15:04:47Z</time>
      </trkpt>
      <trkpt lat="43.42943" lon="6.06285">
        <ele>270.79998779297</ele>
        <time>2015-12-09T15:04:49Z</time>
      </trkpt>
      <trkpt lat="43.42942" lon="6.06285">
        <ele>271</ele>
        <time>2015-12-09T15:04:50Z</time>
      </trkpt>
      <trkpt lat="43.42937" lon="6.06284">
        <ele>271.39999389648</ele>
        <time>2015-12-09T15:04:53Z</time>
      </trkpt>
      <trkpt lat="43.42936" lon="6.06284">
        <ele>271.60000610352</ele>
        <time>2015-12-09T15:04:54Z</time>
      </trkpt>
      <trkpt lat="43.42932" lon="6.06286">
        <ele>272.60000610352</ele>
        <time>2015-12-09T15:04:57Z</time>
      </trkpt>
      <trkpt lat="43.42931" lon="6.06287">
        <ele>272.79998779297</ele>
        <time>2015-12-09T15:04:58Z</time>
      </trkpt>
      <trkpt lat="43.4293" lon="6.06288">
        <ele>272.79998779297</ele>
        <time>2015-12-09T15:04:59Z</time>
      </trkpt>
      <trkpt lat="43.42927" lon="6.06288">
        <ele>273</ele>
        <time>2015-12-09T15:05:01Z</time>
      </trkpt>
      <trkpt lat="43.42926" lon="6.06289">
        <ele>273.20001220703</ele>
        <time>2015-12-09T15:05:03Z</time>
      </trkpt>
      <trkpt lat="43.42926" lon="6.06289">
        <ele>273.39999389648</ele>
        <time>2015-12-09T15:05:05Z</time>
      </trkpt>
      <trkpt lat="43.42926" lon="6.06289">
        <ele>273.20001220703</ele>
        <time>2015-12-09T15:05:07Z</time>
      </trkpt>
      <trkpt lat="43.42926" lon="6.06289">
        <ele>273.20001220703</ele>
        <time>2015-12-09T15:05:09Z</time>
      </trkpt>
      <trkpt lat="43.42926" lon="6.06289">
        <ele>273.20001220703</ele>
        <time>2015-12-09T15:05:11Z</time>
      </trkpt>
      <trkpt lat="43.42926" lon="6.06289">
        <ele>273</ele>
        <time>2015-12-09T15:05:13Z</time>
      </trkpt>
      <trkpt lat="43.42926" lon="6.06289">
        <ele>273</ele>
        <time>2015-12-09T15:05:16Z</time>
      </trkpt>
      <trkpt lat="43.42926" lon="6.06289">
        <ele>273</ele>
        <time>2015-12-09T15:05:23Z</time>
      </trkpt>
      <trkpt lat="43.42926" lon="6.0629">
        <ele>273.20001220703</ele>
        <time>2015-12-09T15:05:29Z</time>
      </trkpt>
      <trkpt lat="43.42926" lon="6.0629">
        <ele>273</ele>
        <time>2015-12-09T15:05:57Z</time>
      </trkpt>
      <trkpt lat="43.42926" lon="6.0629">
        <ele>272.79998779297</ele>
        <time>2015-12-09T15:06:03Z</time>
      </trkpt>
      <trkpt lat="43.42926" lon="6.0629">
        <ele>273</ele>
        <time>2015-12-09T15:06:05Z</time>
      </trkpt>
      <trkpt lat="43.42926" lon="6.0629">
        <ele>273</ele>
        <time>2015-12-09T15:06:09Z</time>
      </trkpt>
      <trkpt lat="43.42926" lon="6.0629">
        <ele>273.20001220703</ele>
        <time>2015-12-09T15:06:27Z</time>
      </trkpt>
      <trkpt lat="43.42926" lon="6.0629">
        <ele>273.20001220703</ele>
        <time>2015-12-09T15:06:33Z</time>
      </trkpt>
      <trkpt lat="43.42926" lon="6.06291">
        <ele>273.20001220703</ele>
        <time>2015-12-09T15:06:55Z</time>
      </trkpt>
      <trkpt lat="43.42926" lon="6.06291">
        <ele>273.39999389648</ele>
        <time>2015-12-09T15:07:03Z</time>
      </trkpt>
      <trkpt lat="43.42926" lon="6.0629">
        <ele>273.39999389648</ele>
        <time>2015-12-09T15:07:11Z</time>
      </trkpt>
      <trkpt lat="43.42926" lon="6.0629">
        <ele>273.39999389648</ele>
        <time>2015-12-09T15:07:15Z</time>
      </trkpt>
      <trkpt lat="43.42926" lon="6.0629">
        <ele>273.60000610352</ele>
        <time>2015-12-09T15:07:41Z</time>
      </trkpt>
      <trkpt lat="43.42926" lon="6.0629">
        <ele>273.60000610352</ele>
        <time>2015-12-09T15:07:47Z</time>
      </trkpt>
      <trkpt lat="43.42926" lon="6.0629">
        <ele>273.60000610352</ele>
        <time>2015-12-09T15:07:51Z</time>
      </trkpt>
      <trkpt lat="43.42924" lon="6.0629">
        <ele>273.60000610352</ele>
        <time>2015-12-09T15:07:53Z</time>
      </trkpt>
      <trkpt lat="43.42924" lon="6.06291">
        <ele>273.79998779297</ele>
        <time>2015-12-09T15:07:55Z</time>
      </trkpt>
      <trkpt lat="43.42924" lon="6.0629">
        <ele>273.79998779297</ele>
        <time>2015-12-09T15:07:59Z</time>
      </trkpt>
      <trkpt lat="43.42923" lon="6.0629">
        <ele>273.79998779297</ele>
        <time>2015-12-09T15:08:01Z</time>
      </trkpt>
      <trkpt lat="43.42923" lon="6.06292">
        <ele>274</ele>
        <time>2015-12-09T15:08:03Z</time>
      </trkpt>
      <trkpt lat="43.42922" lon="6.06292">
        <ele>274</ele>
        <time>2015-12-09T15:08:05Z</time>
      </trkpt>
      <trkpt lat="43.42922" lon="6.06292">
        <ele>274</ele>
        <time>2015-12-09T15:08:07Z</time>
      </trkpt>
      <trkpt lat="43.42922" lon="6.06292">
        <ele>274</ele>
        <time>2015-12-09T15:08:09Z</time>
      </trkpt>
      <trkpt lat="43.42922" lon="6.06292">
        <ele>274.20001220703</ele>
        <time>2015-12-09T15:08:16Z</time>
      </trkpt>
      <trkpt lat="43.42922" lon="6.06292">
        <ele>274</ele>
        <time>2015-12-09T15:08:21Z</time>
      </trkpt>
      <trkpt lat="43.42922" lon="6.06292">
        <ele>273.79998779297</ele>
        <time>2015-12-09T15:08:47Z</time>
      </trkpt>
      <trkpt lat="43.42922" lon="6.06292">
        <ele>274.20001220703</ele>
        <time>2015-12-09T15:09:01Z</time>
      </trkpt>
      <trkpt lat="43.42922" lon="6.06292">
        <ele>274</ele>
        <time>2015-12-09T15:09:07Z</time>
      </trkpt>
      <trkpt lat="43.42922" lon="6.06292">
        <ele>274.20001220703</ele>
        <time>2015-12-09T15:09:11Z</time>
      </trkpt>
      <trkpt lat="43.42922" lon="6.06292">
        <ele>274.20001220703</ele>
        <time>2015-12-09T15:09:12Z</time>
      </trkpt>
      <trkpt lat="43.42922" lon="6.06292">
        <ele>274.20001220703</ele>
        <time>2015-12-09T15:09:13Z</time>
      </trkpt>
      <trkpt lat="43.42921" lon="6.06294">
        <ele>274.20001220703</ele>
        <time>2015-12-09T15:09:15Z</time>
      </trkpt>
      <trkpt lat="43.42921" lon="6.06295">
        <ele>274.60000610352</ele>
        <time>2015-12-09T15:09:17Z</time>
      </trkpt>
      <trkpt lat="43.42921" lon="6.06298">
        <ele>274.60000610352</ele>
        <time>2015-12-09T15:09:19Z</time>
      </trkpt>
      <trkpt lat="43.42921" lon="6.06299">
        <ele>274.79998779297</ele>
        <time>2015-12-09T15:09:21Z</time>
      </trkpt>
      <trkpt lat="43.42921" lon="6.06301">
        <ele>274.79998779297</ele>
        <time>2015-12-09T15:09:23Z</time>
      </trkpt>
      <trkpt lat="43.42921" lon="6.06303">
        <ele>275.20001220703</ele>
        <time>2015-12-09T15:09:25Z</time>
      </trkpt>
      <trkpt lat="43.4292" lon="6.06304">
        <ele>275.79998779297</ele>
        <time>2015-12-09T15:09:27Z</time>
      </trkpt>
      <trkpt lat="43.4292" lon="6.06305">
        <ele>276</ele>
        <time>2015-12-09T15:09:29Z</time>
      </trkpt>
      <trkpt lat="43.42918" lon="6.06307">
        <ele>276.39999389648</ele>
        <time>2015-12-09T15:09:33Z</time>
      </trkpt>
      <trkpt lat="43.42918" lon="6.06309">
        <ele>277.39999389648</ele>
        <time>2015-12-09T15:09:37Z</time>
      </trkpt>
      <trkpt lat="43.42918" lon="6.06309">
        <ele>277.60000610352</ele>
        <time>2015-12-09T15:09:39Z</time>
      </trkpt>
      <trkpt lat="43.42918" lon="6.06309">
        <ele>277.60000610352</ele>
        <time>2015-12-09T15:09:41Z</time>
      </trkpt>
      <trkpt lat="43.42918" lon="6.06309">
        <ele>277.79998779297</ele>
        <time>2015-12-09T15:09:43Z</time>
      </trkpt>
      <trkpt lat="43.42918" lon="6.06309">
        <ele>277.60000610352</ele>
        <time>2015-12-09T15:09:47Z</time>
      </trkpt>
      <trkpt lat="43.42916" lon="6.0631">
        <ele>278.20001220703</ele>
        <time>2015-12-09T15:09:50Z</time>
      </trkpt>
      <trkpt lat="43.42916" lon="6.0631">
        <ele>278.20001220703</ele>
        <time>2015-12-09T15:09:51Z</time>
      </trkpt>
      <trkpt lat="43.42915" lon="6.06311">
        <ele>278.39999389648</ele>
        <time>2015-12-09T15:09:55Z</time>
      </trkpt>
      <trkpt lat="43.42915" lon="6.06311">
        <ele>278.39999389648</ele>
        <time>2015-12-09T15:09:56Z</time>
      </trkpt>
      <trkpt lat="43.42915" lon="6.06311">
        <ele>278.39999389648</ele>
        <time>2015-12-09T15:09:57Z</time>
      </trkpt>
      <trkpt lat="43.42915" lon="6.06312">
        <ele>278.20001220703</ele>
        <time>2015-12-09T15:09:59Z</time>
      </trkpt>
      <trkpt lat="43.42914" lon="6.06312">
        <ele>278.60000610352</ele>
        <time>2015-12-09T15:10:01Z</time>
      </trkpt>
      <trkpt lat="43.42914" lon="6.06313">
        <ele>278.79998779297</ele>
        <time>2015-12-09T15:10:03Z</time>
      </trkpt>
      <trkpt lat="43.42913" lon="6.06313">
        <ele>278.79998779297</ele>
        <time>2015-12-09T15:10:04Z</time>
      </trkpt>
      <trkpt lat="43.42913" lon="6.06313">
        <ele>278.79998779297</ele>
        <time>2015-12-09T15:10:05Z</time>
      </trkpt>
      <trkpt lat="43.42913" lon="6.06313">
        <ele>279.20001220703</ele>
        <time>2015-12-09T15:10:07Z</time>
      </trkpt>
      <trkpt lat="43.42912" lon="6.06314">
        <ele>279.60000610352</ele>
        <time>2015-12-09T15:10:09Z</time>
      </trkpt>
      <trkpt lat="43.42911" lon="6.06316">
        <ele>279.79998779297</ele>
        <time>2015-12-09T15:10:11Z</time>
      </trkpt>
      <trkpt lat="43.4291" lon="6.06317">
        <ele>280.20001220703</ele>
        <time>2015-12-09T15:10:13Z</time>
      </trkpt>
      <trkpt lat="43.4291" lon="6.06317">
        <ele>280.60000610352</ele>
        <time>2015-12-09T15:10:14Z</time>
      </trkpt>
      <trkpt lat="43.42909" lon="6.06318">
        <ele>280.60000610352</ele>
        <time>2015-12-09T15:10:15Z</time>
      </trkpt>
      <trkpt lat="43.42907" lon="6.06318">
        <ele>280.79998779297</ele>
        <time>2015-12-09T15:10:18Z</time>
      </trkpt>
      <trkpt lat="43.42906" lon="6.06318">
        <ele>280.79998779297</ele>
        <time>2015-12-09T15:10:19Z</time>
      </trkpt>
      <trkpt lat="43.42905" lon="6.06318">
        <ele>280.79998779297</ele>
        <time>2015-12-09T15:10:21Z</time>
      </trkpt>
      <trkpt lat="43.42905" lon="6.06318">
        <ele>281</ele>
        <time>2015-12-09T15:10:23Z</time>
      </trkpt>
      <trkpt lat="43.42905" lon="6.06318">
        <ele>280.79998779297</ele>
        <time>2015-12-09T15:10:25Z</time>
      </trkpt>
      <trkpt lat="43.42905" lon="6.06318">
        <ele>280.79998779297</ele>
        <time>2015-12-09T15:10:27Z</time>
      </trkpt>
      <trkpt lat="43.42905" lon="6.06318">
        <ele>280.79998779297</ele>
        <time>2015-12-09T15:10:29Z</time>
      </trkpt>
      <trkpt lat="43.42905" lon="6.06318">
        <ele>280.79998779297</ele>
        <time>2015-12-09T15:10:33Z</time>
      </trkpt>
      <trkpt lat="43.42904" lon="6.06317">
        <ele>281</ele>
        <time>2015-12-09T15:10:35Z</time>
      </trkpt>
      <trkpt lat="43.42904" lon="6.06317">
        <ele>280.79998779297</ele>
        <time>2015-12-09T15:10:37Z</time>
      </trkpt>
      <trkpt lat="43.42904" lon="6.06318">
        <ele>280.79998779297</ele>
        <time>2015-12-09T15:10:39Z</time>
      </trkpt>
      <trkpt lat="43.42904" lon="6.06317">
        <ele>280.79998779297</ele>
        <time>2015-12-09T15:10:43Z</time>
      </trkpt>
      <trkpt lat="43.42904" lon="6.06317">
        <ele>280.79998779297</ele>
        <time>2015-12-09T15:10:45Z</time>
      </trkpt>
      <trkpt lat="43.42904" lon="6.06317">
        <ele>280.79998779297</ele>
        <time>2015-12-09T15:10:47Z</time>
      </trkpt>
      <trkpt lat="43.42904" lon="6.06317">
        <ele>280.79998779297</ele>
        <time>2015-12-09T15:10:53Z</time>
      </trkpt>
      <trkpt lat="43.42904" lon="6.06317">
        <ele>280.60000610352</ele>
        <time>2015-12-09T15:10:57Z</time>
      </trkpt>
      <trkpt lat="43.42904" lon="6.06317">
        <ele>280.79998779297</ele>
        <time>2015-12-09T15:11:01Z</time>
      </trkpt>
      <trkpt lat="43.42904" lon="6.06317">
        <ele>280.60000610352</ele>
        <time>2015-12-09T15:11:07Z</time>
      </trkpt>
      <trkpt lat="43.42904" lon="6.06317">
        <ele>280.79998779297</ele>
        <time>2015-12-09T15:11:39Z</time>
      </trkpt>
      <trkpt lat="43.42904" lon="6.06317">
        <ele>280.60000610352</ele>
        <time>2015-12-09T15:11:49Z</time>
      </trkpt>
      <trkpt lat="43.42904" lon="6.06317">
        <ele>280.79998779297</ele>
        <time>2015-12-09T15:11:53Z</time>
      </trkpt>
      <trkpt lat="43.42904" lon="6.06317">
        <ele>280.79998779297</ele>
        <time>2015-12-09T15:12:11Z</time>
      </trkpt>
      <trkpt lat="43.42904" lon="6.06317">
        <ele>280.79998779297</ele>
        <time>2015-12-09T15:12:27Z</time>
      </trkpt>
      <trkpt lat="43.42904" lon="6.06317">
        <ele>280.79998779297</ele>
        <time>2015-12-09T15:12:37Z</time>
      </trkpt>
      <trkpt lat="43.42904" lon="6.06317">
        <ele>280.60000610352</ele>
        <time>2015-12-09T15:12:41Z</time>
      </trkpt>
      <trkpt lat="43.42904" lon="6.06317">
        <ele>280.79998779297</ele>
        <time>2015-12-09T15:12:55Z</time>
      </trkpt>
      <trkpt lat="43.42904" lon="6.06317">
        <ele>280.79998779297</ele>
        <time>2015-12-09T15:13:07Z</time>
      </trkpt>
      <trkpt lat="43.42904" lon="6.06317">
        <ele>280.79998779297</ele>
        <time>2015-12-09T15:13:11Z</time>
      </trkpt>
      <trkpt lat="43.42904" lon="6.06317">
        <ele>280.79998779297</ele>
        <time>2015-12-09T15:13:13Z</time>
      </trkpt>
      <trkpt lat="43.42904" lon="6.06317">
        <ele>280.79998779297</ele>
        <time>2015-12-09T15:13:15Z</time>
      </trkpt>
      <trkpt lat="43.42903" lon="6.06317">
        <ele>280.79998779297</ele>
        <time>2015-12-09T15:13:17Z</time>
      </trkpt>
      <trkpt lat="43.42903" lon="6.06317">
        <ele>281</ele>
        <time>2015-12-09T15:13:19Z</time>
      </trkpt>
      <trkpt lat="43.42903" lon="6.06317">
        <ele>280.79998779297</ele>
        <time>2015-12-09T15:13:21Z</time>
      </trkpt>
      <trkpt lat="43.42903" lon="6.06317">
        <ele>280.79998779297</ele>
        <time>2015-12-09T15:13:23Z</time>
      </trkpt>
      <trkpt lat="43.42903" lon="6.06317">
        <ele>281</ele>
        <time>2015-12-09T15:13:25Z</time>
      </trkpt>
      <trkpt lat="43.42903" lon="6.06317">
        <ele>281</ele>
        <time>2015-12-09T15:13:29Z</time>
      </trkpt>
      <trkpt lat="43.42903" lon="6.06317">
        <ele>281</ele>
        <time>2015-12-09T15:13:33Z</time>
      </trkpt>
      <trkpt lat="43.42903" lon="6.06317">
        <ele>280.79998779297</ele>
        <time>2015-12-09T15:13:37Z</time>
      </trkpt>
      <trkpt lat="43.42903" lon="6.06317">
        <ele>281</ele>
        <time>2015-12-09T15:13:39Z</time>
      </trkpt>
      <trkpt lat="43.42903" lon="6.06317">
        <ele>281</ele>
        <time>2015-12-09T15:13:41Z</time>
      </trkpt>
      <trkpt lat="43.42903" lon="6.06317">
        <ele>281</ele>
        <time>2015-12-09T15:13:45Z</time>
      </trkpt>
      <trkpt lat="43.42903" lon="6.06317">
        <ele>281</ele>
        <time>2015-12-09T15:13:47Z</time>
      </trkpt>
      <trkpt lat="43.42903" lon="6.06316">
        <ele>281</ele>
        <time>2015-12-09T15:13:51Z</time>
      </trkpt>
      <trkpt lat="43.42903" lon="6.06316">
        <ele>281</ele>
        <time>2015-12-09T15:13:53Z</time>
      </trkpt>
      <trkpt lat="43.42903" lon="6.06316">
        <ele>280.79998779297</ele>
        <time>2015-12-09T15:13:55Z</time>
      </trkpt>
      <trkpt lat="43.42902" lon="6.06316">
        <ele>280.79998779297</ele>
        <time>2015-12-09T15:13:57Z</time>
      </trkpt>
      <trkpt lat="43.42901" lon="6.06317">
        <ele>281</ele>
        <time>2015-12-09T15:13:59Z</time>
      </trkpt>
      <trkpt lat="43.429" lon="6.06317">
        <ele>280.79998779297</ele>
        <time>2015-12-09T15:14:01Z</time>
      </trkpt>
      <trkpt lat="43.42897" lon="6.06318">
        <ele>281.20001220703</ele>
        <time>2015-12-09T15:14:03Z</time>
      </trkpt>
      <trkpt lat="43.42894" lon="6.06319">
        <ele>281.39999389648</ele>
        <time>2015-12-09T15:14:05Z</time>
      </trkpt>
      <trkpt lat="43.4289" lon="6.06319">
        <ele>281.60000610352</ele>
        <time>2015-12-09T15:14:07Z</time>
      </trkpt>
      <trkpt lat="43.42887" lon="6.06318">
        <ele>281.79998779297</ele>
        <time>2015-12-09T15:14:09Z</time>
      </trkpt>
      <trkpt lat="43.42883" lon="6.06318">
        <ele>282.20001220703</ele>
        <time>2015-12-09T15:14:11Z</time>
      </trkpt>
      <trkpt lat="43.42879" lon="6.06317">
        <ele>282.20001220703</ele>
        <time>2015-12-09T15:14:13Z</time>
      </trkpt>
      <trkpt lat="43.42875" lon="6.06316">
        <ele>282.39999389648</ele>
        <time>2015-12-09T15:14:15Z</time>
      </trkpt>
      <trkpt lat="43.42873" lon="6.06315">
        <ele>282.60000610352</ele>
        <time>2015-12-09T15:14:16Z</time>
      </trkpt>
      <trkpt lat="43.42868" lon="6.06313">
        <ele>283</ele>
        <time>2015-12-09T15:14:19Z</time>
      </trkpt>
      <trkpt lat="43.42864" lon="6.06312">
        <ele>283.39999389648</ele>
        <time>2015-12-09T15:14:21Z</time>
      </trkpt>
      <trkpt lat="43.42856" lon="6.06312">
        <ele>283.60000610352</ele>
        <time>2015-12-09T15:14:25Z</time>
      </trkpt>
      <trkpt lat="43.42852" lon="6.06314">
        <ele>283.60000610352</ele>
        <time>2015-12-09T15:14:27Z</time>
      </trkpt>
      <trkpt lat="43.42849" lon="6.06316">
        <ele>283.39999389648</ele>
        <time>2015-12-09T15:14:29Z</time>
      </trkpt>
      <trkpt lat="43.42845" lon="6.06318">
        <ele>283.79998779297</ele>
        <time>2015-12-09T15:14:31Z</time>
      </trkpt>
      <trkpt lat="43.42843" lon="6.0632">
        <ele>283.79998779297</ele>
        <time>2015-12-09T15:14:32Z</time>
      </trkpt>
      <trkpt lat="43.42841" lon="6.06322">
        <ele>283.60000610352</ele>
        <time>2015-12-09T15:14:33Z</time>
      </trkpt>
      <trkpt lat="43.42837" lon="6.06325">
        <ele>283.39999389648</ele>
        <time>2015-12-09T15:14:35Z</time>
      </trkpt>
      <trkpt lat="43.42832" lon="6.06329">
        <ele>282.79998779297</ele>
        <time>2015-12-09T15:14:37Z</time>
      </trkpt>
      <trkpt lat="43.42829" lon="6.06332">
        <ele>282.39999389648</ele>
        <time>2015-12-09T15:14:38Z</time>
      </trkpt>
      <trkpt lat="43.42826" lon="6.06335">
        <ele>282</ele>
        <time>2015-12-09T15:14:39Z</time>
      </trkpt>
      <trkpt lat="43.42818" lon="6.0634">
        <ele>281.39999389648</ele>
        <time>2015-12-09T15:14:41Z</time>
      </trkpt>
      <trkpt lat="43.42812" lon="6.0634">
        <ele>280.39999389648</ele>
        <time>2015-12-09T15:14:43Z</time>
      </trkpt>
      <trkpt lat="43.42804" lon="6.06339">
        <ele>279.79998779297</ele>
        <time>2015-12-09T15:14:45Z</time>
      </trkpt>
      <trkpt lat="43.42801" lon="6.06338">
        <ele>279.20001220703</ele>
        <time>2015-12-09T15:14:46Z</time>
      </trkpt>
      <trkpt lat="43.42797" lon="6.06338">
        <ele>279.20001220703</ele>
        <time>2015-12-09T15:14:47Z</time>
      </trkpt>
      <trkpt lat="43.42788" lon="6.06336">
        <ele>278.60000610352</ele>
        <time>2015-12-09T15:14:49Z</time>
      </trkpt>
      <trkpt lat="43.42784" lon="6.06334">
        <ele>278.20001220703</ele>
        <time>2015-12-09T15:14:50Z</time>
      </trkpt>
      <trkpt lat="43.4278" lon="6.06331">
        <ele>277.79998779297</ele>
        <time>2015-12-09T15:14:51Z</time>
      </trkpt>
      <trkpt lat="43.42775" lon="6.0633">
        <ele>277.20001220703</ele>
        <time>2015-12-09T15:14:52Z</time>
      </trkpt>
      <trkpt lat="43.4277" lon="6.0633">
        <ele>276.60000610352</ele>
        <time>2015-12-09T15:14:53Z</time>
      </trkpt>
      <trkpt lat="43.42764" lon="6.0633">
        <ele>275.79998779297</ele>
        <time>2015-12-09T15:14:54Z</time>
      </trkpt>
      <trkpt lat="43.42759" lon="6.06332">
        <ele>275.60000610352</ele>
        <time>2015-12-09T15:14:55Z</time>
      </trkpt>
      <trkpt lat="43.42748" lon="6.06336">
        <ele>274.39999389648</ele>
        <time>2015-12-09T15:14:57Z</time>
      </trkpt>
      <trkpt lat="43.42737" lon="6.0634">
        <ele>274</ele>
        <time>2015-12-09T15:14:59Z</time>
      </trkpt>
      <trkpt lat="43.42727" lon="6.06343">
        <ele>273.20001220703</ele>
        <time>2015-12-09T15:15:01Z</time>
      </trkpt>
      <trkpt lat="43.42717" lon="6.06344">
        <ele>273.39999389648</ele>
        <time>2015-12-09T15:15:03Z</time>
      </trkpt>
      <trkpt lat="43.42712" lon="6.06343">
        <ele>273.20001220703</ele>
        <time>2015-12-09T15:15:04Z</time>
      </trkpt>
      <trkpt lat="43.42707" lon="6.06341">
        <ele>272.79998779297</ele>
        <time>2015-12-09T15:15:05Z</time>
      </trkpt>
      <trkpt lat="43.42699" lon="6.06337">
        <ele>272.60000610352</ele>
        <time>2015-12-09T15:15:07Z</time>
      </trkpt>
      <trkpt lat="43.42695" lon="6.06335">
        <ele>272.79998779297</ele>
        <time>2015-12-09T15:15:08Z</time>
      </trkpt>
      <trkpt lat="43.42692" lon="6.06334">
        <ele>273</ele>
        <time>2015-12-09T15:15:09Z</time>
      </trkpt>
      <trkpt lat="43.42688" lon="6.06333">
        <ele>273.79998779297</ele>
        <time>2015-12-09T15:15:11Z</time>
      </trkpt>
      <trkpt lat="43.42684" lon="6.0633">
        <ele>273.79998779297</ele>
        <time>2015-12-09T15:15:13Z</time>
      </trkpt>
      <trkpt lat="43.4268" lon="6.06327">
        <ele>273.60000610352</ele>
        <time>2015-12-09T15:15:15Z</time>
      </trkpt>
      <trkpt lat="43.42672" lon="6.06323">
        <ele>272.20001220703</ele>
        <time>2015-12-09T15:15:17Z</time>
      </trkpt>
      <trkpt lat="43.42667" lon="6.06322">
        <ele>272.20001220703</ele>
        <time>2015-12-09T15:15:18Z</time>
      </trkpt>
      <trkpt lat="43.42662" lon="6.06321">
        <ele>271.60000610352</ele>
        <time>2015-12-09T15:15:19Z</time>
      </trkpt>
      <trkpt lat="43.42657" lon="6.06321">
        <ele>271.20001220703</ele>
        <time>2015-12-09T15:15:20Z</time>
      </trkpt>
      <trkpt lat="43.42649" lon="6.06319">
        <ele>271</ele>
        <time>2015-12-09T15:15:22Z</time>
      </trkpt>
      <trkpt lat="43.42646" lon="6.06318">
        <ele>270.79998779297</ele>
        <time>2015-12-09T15:15:23Z</time>
      </trkpt>
      <trkpt lat="43.42638" lon="6.06316">
        <ele>270.79998779297</ele>
        <time>2015-12-09T15:15:25Z</time>
      </trkpt>
      <trkpt lat="43.42631" lon="6.06315">
        <ele>270.79998779297</ele>
        <time>2015-12-09T15:15:27Z</time>
      </trkpt>
      <trkpt lat="43.42627" lon="6.06313">
        <ele>270.20001220703</ele>
        <time>2015-12-09T15:15:28Z</time>
      </trkpt>
      <trkpt lat="43.42624" lon="6.06312">
        <ele>269.79998779297</ele>
        <time>2015-12-09T15:15:29Z</time>
      </trkpt>
      <trkpt lat="43.42618" lon="6.06309">
        <ele>269.60000610352</ele>
        <time>2015-12-09T15:15:31Z</time>
      </trkpt>
      <trkpt lat="43.42614" lon="6.06308">
        <ele>269</ele>
        <time>2015-12-09T15:15:32Z</time>
      </trkpt>
      <trkpt lat="43.42611" lon="6.06308">
        <ele>268.60000610352</ele>
        <time>2015-12-09T15:15:33Z</time>
      </trkpt>
      <trkpt lat="43.42604" lon="6.06308">
        <ele>268.60000610352</ele>
        <time>2015-12-09T15:15:35Z</time>
      </trkpt>
      <trkpt lat="43.42598" lon="6.0631">
        <ele>268.39999389648</ele>
        <time>2015-12-09T15:15:37Z</time>
      </trkpt>
      <trkpt lat="43.42593" lon="6.06314">
        <ele>268.60000610352</ele>
        <time>2015-12-09T15:15:39Z</time>
      </trkpt>
      <trkpt lat="43.4259" lon="6.06316">
        <ele>268</ele>
        <time>2015-12-09T15:15:40Z</time>
      </trkpt>
      <trkpt lat="43.42587" lon="6.06318">
        <ele>267.39999389648</ele>
        <time>2015-12-09T15:15:41Z</time>
      </trkpt>
      <trkpt lat="43.42581" lon="6.06324">
        <ele>267.60000610352</ele>
        <time>2015-12-09T15:15:43Z</time>
      </trkpt>
      <trkpt lat="43.42575" lon="6.06329">
        <ele>267</ele>
        <time>2015-12-09T15:15:45Z</time>
      </trkpt>
      <trkpt lat="43.42573" lon="6.06331">
        <ele>266.79998779297</ele>
        <time>2015-12-09T15:15:46Z</time>
      </trkpt>
      <trkpt lat="43.4257" lon="6.06333">
        <ele>266.20001220703</ele>
        <time>2015-12-09T15:15:47Z</time>
      </trkpt>
      <trkpt lat="43.42568" lon="6.06335">
        <ele>265.60000610352</ele>
        <time>2015-12-09T15:15:48Z</time>
      </trkpt>
      <trkpt lat="43.42566" lon="6.06336">
        <ele>265.79998779297</ele>
        <time>2015-12-09T15:15:49Z</time>
      </trkpt>
      <trkpt lat="43.42561" lon="6.06339">
        <ele>265.60000610352</ele>
        <time>2015-12-09T15:15:51Z</time>
      </trkpt>
      <trkpt lat="43.42554" lon="6.06344">
        <ele>264.60000610352</ele>
        <time>2015-12-09T15:15:53Z</time>
      </trkpt>
      <trkpt lat="43.42546" lon="6.06349">
        <ele>264.39999389648</ele>
        <time>2015-12-09T15:15:55Z</time>
      </trkpt>
      <trkpt lat="43.42539" lon="6.06353">
        <ele>264.20001220703</ele>
        <time>2015-12-09T15:15:57Z</time>
      </trkpt>
      <trkpt lat="43.42531" lon="6.06356">
        <ele>263.39999389648</ele>
        <time>2015-12-09T15:15:59Z</time>
      </trkpt>
      <trkpt lat="43.42523" lon="6.06358">
        <ele>263.20001220703</ele>
        <time>2015-12-09T15:16:01Z</time>
      </trkpt>
      <trkpt lat="43.42519" lon="6.06359">
        <ele>263.20001220703</ele>
        <time>2015-12-09T15:16:02Z</time>
      </trkpt>
      <trkpt lat="43.42515" lon="6.06361">
        <ele>263</ele>
        <time>2015-12-09T15:16:03Z</time>
      </trkpt>
      <trkpt lat="43.42506" lon="6.06365">
        <ele>262.20001220703</ele>
        <time>2015-12-09T15:16:05Z</time>
      </trkpt>
      <trkpt lat="43.42498" lon="6.0637">
        <ele>262</ele>
        <time>2015-12-09T15:16:07Z</time>
      </trkpt>
      <trkpt lat="43.42493" lon="6.06371">
        <ele>261.79998779297</ele>
        <time>2015-12-09T15:16:08Z</time>
      </trkpt>
      <trkpt lat="43.42489" lon="6.06372">
        <ele>261.60000610352</ele>
        <time>2015-12-09T15:16:09Z</time>
      </trkpt>
      <trkpt lat="43.42479" lon="6.06373">
        <ele>261.39999389648</ele>
        <time>2015-12-09T15:16:11Z</time>
      </trkpt>
      <trkpt lat="43.42468" lon="6.06375">
        <ele>261.20001220703</ele>
        <time>2015-12-09T15:16:13Z</time>
      </trkpt>
      <trkpt lat="43.42457" lon="6.06378">
        <ele>261</ele>
        <time>2015-12-09T15:16:15Z</time>
      </trkpt>
      <trkpt lat="43.42451" lon="6.06381">
        <ele>260.79998779297</ele>
        <time>2015-12-09T15:16:16Z</time>
      </trkpt>
      <trkpt lat="43.42442" lon="6.06388">
        <ele>260.39999389648</ele>
        <time>2015-12-09T15:16:18Z</time>
      </trkpt>
      <trkpt lat="43.42437" lon="6.06392">
        <ele>260.39999389648</ele>
        <time>2015-12-09T15:16:19Z</time>
      </trkpt>
      <trkpt lat="43.42429" lon="6.064">
        <ele>260.20001220703</ele>
        <time>2015-12-09T15:16:21Z</time>
      </trkpt>
      <trkpt lat="43.42424" lon="6.06403">
        <ele>260</ele>
        <time>2015-12-09T15:16:22Z</time>
      </trkpt>
      <trkpt lat="43.4242" lon="6.06406">
        <ele>260</ele>
        <time>2015-12-09T15:16:23Z</time>
      </trkpt>
      <trkpt lat="43.42415" lon="6.06407">
        <ele>259.79998779297</ele>
        <time>2015-12-09T15:16:24Z</time>
      </trkpt>
      <trkpt lat="43.42411" lon="6.06406">
        <ele>259.79998779297</ele>
        <time>2015-12-09T15:16:25Z</time>
      </trkpt>
      <trkpt lat="43.42402" lon="6.06403">
        <ele>260.20001220703</ele>
        <time>2015-12-09T15:16:27Z</time>
      </trkpt>
      <trkpt lat="43.42396" lon="6.06401">
        <ele>259.79998779297</ele>
        <time>2015-12-09T15:16:28Z</time>
      </trkpt>
      <trkpt lat="43.42391" lon="6.06398">
        <ele>259.60000610352</ele>
        <time>2015-12-09T15:16:29Z</time>
      </trkpt>
      <trkpt lat="43.42379" lon="6.06397">
        <ele>258.79998779297</ele>
        <time>2015-12-09T15:16:31Z</time>
      </trkpt>
      <trkpt lat="43.42373" lon="6.064">
        <ele>258.20001220703</ele>
        <time>2015-12-09T15:16:32Z</time>
      </trkpt>
      <trkpt lat="43.42364" lon="6.0641">
        <ele>257.60000610352</ele>
        <time>2015-12-09T15:16:34Z</time>
      </trkpt>
      <trkpt lat="43.4236" lon="6.06415">
        <ele>257.79998779297</ele>
        <time>2015-12-09T15:16:35Z</time>
      </trkpt>
      <trkpt lat="43.4235" lon="6.06423">
        <ele>257.60000610352</ele>
        <time>2015-12-09T15:16:37Z</time>
      </trkpt>
      <trkpt lat="43.42342" lon="6.06429">
        <ele>257.20001220703</ele>
        <time>2015-12-09T15:16:39Z</time>
      </trkpt>
      <trkpt lat="43.42333" lon="6.06435">
        <ele>257.79998779297</ele>
        <time>2015-12-09T15:16:41Z</time>
      </trkpt>
      <trkpt lat="43.42329" lon="6.06438">
        <ele>257.79998779297</ele>
        <time>2015-12-09T15:16:42Z</time>
      </trkpt>
      <trkpt lat="43.42324" lon="6.06442">
        <ele>257.60000610352</ele>
        <time>2015-12-09T15:16:43Z</time>
      </trkpt>
      <trkpt lat="43.4232" lon="6.06447">
        <ele>257.20001220703</ele>
        <time>2015-12-09T15:16:44Z</time>
      </trkpt>
      <trkpt lat="43.42316" lon="6.06452">
        <ele>256.79998779297</ele>
        <time>2015-12-09T15:16:45Z</time>
      </trkpt>
      <trkpt lat="43.42312" lon="6.06457">
        <ele>256.60000610352</ele>
        <time>2015-12-09T15:16:46Z</time>
      </trkpt>
      <trkpt lat="43.42304" lon="6.06467">
        <ele>256.20001220703</ele>
        <time>2015-12-09T15:16:48Z</time>
      </trkpt>
      <trkpt lat="43.42301" lon="6.06471">
        <ele>255.60000610352</ele>
        <time>2015-12-09T15:16:49Z</time>
      </trkpt>
      <trkpt lat="43.42298" lon="6.06475">
        <ele>255.39999389648</ele>
        <time>2015-12-09T15:16:50Z</time>
      </trkpt>
      <trkpt lat="43.42295" lon="6.0648">
        <ele>255</ele>
        <time>2015-12-09T15:16:51Z</time>
      </trkpt>
      <trkpt lat="43.42291" lon="6.06485">
        <ele>254.60000610352</ele>
        <time>2015-12-09T15:16:52Z</time>
      </trkpt>
      <trkpt lat="43.42287" lon="6.06489">
        <ele>254.19999694824</ele>
        <time>2015-12-09T15:16:53Z</time>
      </trkpt>
      <trkpt lat="43.42277" lon="6.06498">
        <ele>253</ele>
        <time>2015-12-09T15:16:55Z</time>
      </trkpt>
      <trkpt lat="43.42271" lon="6.06502">
        <ele>252.39999389648</ele>
        <time>2015-12-09T15:16:56Z</time>
      </trkpt>
      <trkpt lat="43.42266" lon="6.06504">
        <ele>252.19999694824</ele>
        <time>2015-12-09T15:16:57Z</time>
      </trkpt>
      <trkpt lat="43.4226" lon="6.06506">
        <ele>251.60000610352</ele>
        <time>2015-12-09T15:16:58Z</time>
      </trkpt>
      <trkpt lat="43.42255" lon="6.06506">
        <ele>251</ele>
        <time>2015-12-09T15:16:59Z</time>
      </trkpt>
      <trkpt lat="43.42241" lon="6.06502">
        <ele>250.80000305176</ele>
        <time>2015-12-09T15:17:01Z</time>
      </trkpt>
      <trkpt lat="43.42235" lon="6.065">
        <ele>250.19999694824</ele>
        <time>2015-12-09T15:17:02Z</time>
      </trkpt>
      <trkpt lat="43.42229" lon="6.06499">
        <ele>249.80000305176</ele>
        <time>2015-12-09T15:17:03Z</time>
      </trkpt>
      <trkpt lat="43.42223" lon="6.06499">
        <ele>249.19999694824</ele>
        <time>2015-12-09T15:17:04Z</time>
      </trkpt>
      <trkpt lat="43.42218" lon="6.06499">
        <ele>248.80000305176</ele>
        <time>2015-12-09T15:17:05Z</time>
      </trkpt>
      <trkpt lat="43.42213" lon="6.06499">
        <ele>248</ele>
        <time>2015-12-09T15:17:06Z</time>
      </trkpt>
      <trkpt lat="43.42208" lon="6.065">
        <ele>247.80000305176</ele>
        <time>2015-12-09T15:17:07Z</time>
      </trkpt>
      <trkpt lat="43.42204" lon="6.06501">
        <ele>247.39999389648</ele>
        <time>2015-12-09T15:17:08Z</time>
      </trkpt>
      <trkpt lat="43.422" lon="6.06499">
        <ele>247.19999694824</ele>
        <time>2015-12-09T15:17:09Z</time>
      </trkpt>
      <trkpt lat="43.42197" lon="6.06494">
        <ele>247</ele>
        <time>2015-12-09T15:17:10Z</time>
      </trkpt>
      <trkpt lat="43.42196" lon="6.0649">
        <ele>247</ele>
        <time>2015-12-09T15:17:11Z</time>
      </trkpt>
      <trkpt lat="43.42194" lon="6.0648">
        <ele>247</ele>
        <time>2015-12-09T15:17:13Z</time>
      </trkpt>
      <trkpt lat="43.42191" lon="6.06471">
        <ele>246.60000610352</ele>
        <time>2015-12-09T15:17:15Z</time>
      </trkpt>
      <trkpt lat="43.4219" lon="6.06466">
        <ele>246.39999389648</ele>
        <time>2015-12-09T15:17:16Z</time>
      </trkpt>
      <trkpt lat="43.42187" lon="6.06452">
        <ele>246.80000305176</ele>
        <time>2015-12-09T15:17:19Z</time>
      </trkpt>
      <trkpt lat="43.42184" lon="6.06441">
        <ele>246.60000610352</ele>
        <time>2015-12-09T15:17:21Z</time>
      </trkpt>
      <trkpt lat="43.42181" lon="6.0643">
        <ele>246.19999694824</ele>
        <time>2015-12-09T15:17:23Z</time>
      </trkpt>
      <trkpt lat="43.42179" lon="6.06418">
        <ele>246.39999389648</ele>
        <time>2015-12-09T15:17:25Z</time>
      </trkpt>
      <trkpt lat="43.42178" lon="6.06407">
        <ele>246.80000305176</ele>
        <time>2015-12-09T15:17:27Z</time>
      </trkpt>
      <trkpt lat="43.42176" lon="6.06396">
        <ele>246.60000610352</ele>
        <time>2015-12-09T15:17:29Z</time>
      </trkpt>
      <trkpt lat="43.42173" lon="6.06384">
        <ele>246.39999389648</ele>
        <time>2015-12-09T15:17:31Z</time>
      </trkpt>
      <trkpt lat="43.42172" lon="6.06378">
        <ele>246.19999694824</ele>
        <time>2015-12-09T15:17:32Z</time>
      </trkpt>
      <trkpt lat="43.42166" lon="6.06351">
        <ele>246.80000305176</ele>
        <time>2015-12-09T15:17:37Z</time>
      </trkpt>
      <trkpt lat="43.42164" lon="6.06341">
        <ele>246.80000305176</ele>
        <time>2015-12-09T15:17:39Z</time>
      </trkpt>
      <trkpt lat="43.42163" lon="6.06335">
        <ele>246.60000610352</ele>
        <time>2015-12-09T15:17:40Z</time>
      </trkpt>
      <trkpt lat="43.42162" lon="6.0633">
        <ele>246.80000305176</ele>
        <time>2015-12-09T15:17:41Z</time>
      </trkpt>
      <trkpt lat="43.42161" lon="6.0632">
        <ele>247</ele>
        <time>2015-12-09T15:17:43Z</time>
      </trkpt>
      <trkpt lat="43.4216" lon="6.06312">
        <ele>247.19999694824</ele>
        <time>2015-12-09T15:17:45Z</time>
      </trkpt>
      <trkpt lat="43.42158" lon="6.06304">
        <ele>248</ele>
        <time>2015-12-09T15:17:47Z</time>
      </trkpt>
      <trkpt lat="43.42157" lon="6.063">
        <ele>248.19999694824</ele>
        <time>2015-12-09T15:17:48Z</time>
      </trkpt>
      <trkpt lat="43.42157" lon="6.06297">
        <ele>248.60000610352</ele>
        <time>2015-12-09T15:17:49Z</time>
      </trkpt>
      <trkpt lat="43.42156" lon="6.06289">
        <ele>249</ele>
        <time>2015-12-09T15:17:51Z</time>
      </trkpt>
      <trkpt lat="43.42156" lon="6.06281">
        <ele>249.60000610352</ele>
        <time>2015-12-09T15:17:53Z</time>
      </trkpt>
      <trkpt lat="43.42155" lon="6.06277">
        <ele>249.80000305176</ele>
        <time>2015-12-09T15:17:54Z</time>
      </trkpt>
      <trkpt lat="43.42155" lon="6.06273">
        <ele>250</ele>
        <time>2015-12-09T15:17:55Z</time>
      </trkpt>
      <trkpt lat="43.42155" lon="6.06265">
        <ele>250.80000305176</ele>
        <time>2015-12-09T15:17:57Z</time>
      </trkpt>
      <trkpt lat="43.42155" lon="6.06259">
        <ele>251.19999694824</ele>
        <time>2015-12-09T15:17:59Z</time>
      </trkpt>
      <trkpt lat="43.42156" lon="6.06254">
        <ele>251.60000610352</ele>
        <time>2015-12-09T15:18:01Z</time>
      </trkpt>
      <trkpt lat="43.42156" lon="6.06248">
        <ele>251.60000610352</ele>
        <time>2015-12-09T15:18:03Z</time>
      </trkpt>
      <trkpt lat="43.42156" lon="6.06242">
        <ele>252</ele>
        <time>2015-12-09T15:18:05Z</time>
      </trkpt>
      <trkpt lat="43.42156" lon="6.06236">
        <ele>252.19999694824</ele>
        <time>2015-12-09T15:18:07Z</time>
      </trkpt>
      <trkpt lat="43.42156" lon="6.06231">
        <ele>252.60000610352</ele>
        <time>2015-12-09T15:18:09Z</time>
      </trkpt>
      <trkpt lat="43.42156" lon="6.06228">
        <ele>252.60000610352</ele>
        <time>2015-12-09T15:18:10Z</time>
      </trkpt>
      <trkpt lat="43.42155" lon="6.06226">
        <ele>252.80000305176</ele>
        <time>2015-12-09T15:18:11Z</time>
      </trkpt>
      <trkpt lat="43.42153" lon="6.06222">
        <ele>253</ele>
        <time>2015-12-09T15:18:13Z</time>
      </trkpt>
      <trkpt lat="43.4215" lon="6.0622">
        <ele>253.39999389648</ele>
        <time>2015-12-09T15:18:15Z</time>
      </trkpt>
      <trkpt lat="43.42146" lon="6.0622">
        <ele>253.39999389648</ele>
        <time>2015-12-09T15:18:17Z</time>
      </trkpt>
      <trkpt lat="43.42143" lon="6.06221">
        <ele>253.39999389648</ele>
        <time>2015-12-09T15:18:19Z</time>
      </trkpt>
      <trkpt lat="43.42141" lon="6.06221">
        <ele>253.39999389648</ele>
        <time>2015-12-09T15:18:21Z</time>
      </trkpt>
      <trkpt lat="43.42141" lon="6.06222">
        <ele>253.19999694824</ele>
        <time>2015-12-09T15:18:23Z</time>
      </trkpt>
      <trkpt lat="43.42138" lon="6.06222">
        <ele>253</ele>
        <time>2015-12-09T15:18:27Z</time>
      </trkpt>
      <trkpt lat="43.42138" lon="6.06223">
        <ele>253</ele>
        <time>2015-12-09T15:18:28Z</time>
      </trkpt>
      <trkpt lat="43.42138" lon="6.06223">
        <ele>253</ele>
        <time>2015-12-09T15:18:29Z</time>
      </trkpt>
      <trkpt lat="43.42138" lon="6.06223">
        <ele>253</ele>
        <time>2015-12-09T15:18:31Z</time>
      </trkpt>
      <trkpt lat="43.42138" lon="6.06223">
        <ele>253</ele>
        <time>2015-12-09T15:18:33Z</time>
      </trkpt>
      <trkpt lat="43.42138" lon="6.06223">
        <ele>253</ele>
        <time>2015-12-09T15:18:37Z</time>
      </trkpt>
      <trkpt lat="43.42138" lon="6.06223">
        <ele>253</ele>
        <time>2015-12-09T15:18:39Z</time>
      </trkpt>
      <trkpt lat="43.42138" lon="6.06223">
        <ele>253</ele>
        <time>2015-12-09T15:18:41Z</time>
      </trkpt>
      <trkpt lat="43.42137" lon="6.06223">
        <ele>253</ele>
        <time>2015-12-09T15:18:42Z</time>
      </trkpt>
      <trkpt lat="43.42137" lon="6.06223">
        <ele>253</ele>
        <time>2015-12-09T15:18:43Z</time>
      </trkpt>
      <trkpt lat="43.42136" lon="6.06223">
        <ele>252.80000305176</ele>
        <time>2015-12-09T15:18:45Z</time>
      </trkpt>
      <trkpt lat="43.42136" lon="6.06224">
        <ele>252.80000305176</ele>
        <time>2015-12-09T15:18:47Z</time>
      </trkpt>
      <trkpt lat="43.42136" lon="6.06224">
        <ele>252.60000610352</ele>
        <time>2015-12-09T15:18:49Z</time>
      </trkpt>
      <trkpt lat="43.42136" lon="6.06224">
        <ele>252.60000610352</ele>
        <time>2015-12-09T15:18:50Z</time>
      </trkpt>
      <trkpt lat="43.42136" lon="6.06223">
        <ele>252.60000610352</ele>
        <time>2015-12-09T15:18:51Z</time>
      </trkpt>
      <trkpt lat="43.42134" lon="6.06221">
        <ele>252.39999389648</ele>
        <time>2015-12-09T15:18:53Z</time>
      </trkpt>
      <trkpt lat="43.42133" lon="6.06222">
        <ele>252.39999389648</ele>
        <time>2015-12-09T15:18:54Z</time>
      </trkpt>
      <trkpt lat="43.42131" lon="6.06223">
        <ele>252.39999389648</ele>
        <time>2015-12-09T15:18:55Z</time>
      </trkpt>
      <trkpt lat="43.42125" lon="6.06225">
        <ele>252</ele>
        <time>2015-12-09T15:18:57Z</time>
      </trkpt>
      <trkpt lat="43.42116" lon="6.06228">
        <ele>251</ele>
        <time>2015-12-09T15:18:59Z</time>
      </trkpt>
      <trkpt lat="43.42106" lon="6.06231">
        <ele>250.39999389648</ele>
        <time>2015-12-09T15:19:01Z</time>
      </trkpt>
      <trkpt lat="43.42094" lon="6.06235">
        <ele>250</ele>
        <time>2015-12-09T15:19:03Z</time>
      </trkpt>
      <trkpt lat="43.4208" lon="6.0624">
        <ele>248.60000610352</ele>
        <time>2015-12-09T15:19:05Z</time>
      </trkpt>
      <trkpt lat="43.42063" lon="6.06246">
        <ele>247</ele>
        <time>2015-12-09T15:19:07Z</time>
      </trkpt>
      <trkpt lat="43.42044" lon="6.06252">
        <ele>245</ele>
        <time>2015-12-09T15:19:09Z</time>
      </trkpt>
      <trkpt lat="43.42034" lon="6.06256">
        <ele>243.60000610352</ele>
        <time>2015-12-09T15:19:10Z</time>
      </trkpt>
      <trkpt lat="43.42024" lon="6.06259">
        <ele>241.80000305176</ele>
        <time>2015-12-09T15:19:11Z</time>
      </trkpt>
      <trkpt lat="43.42012" lon="6.06263">
        <ele>240.39999389648</ele>
        <time>2015-12-09T15:19:12Z</time>
      </trkpt>
      <trkpt lat="43.42002" lon="6.06266">
        <ele>239</ele>
        <time>2015-12-09T15:19:13Z</time>
      </trkpt>
      <trkpt lat="43.41991" lon="6.0627">
        <ele>238</ele>
        <time>2015-12-09T15:19:14Z</time>
      </trkpt>
      <trkpt lat="43.41982" lon="6.06273">
        <ele>236.60000610352</ele>
        <time>2015-12-09T15:19:15Z</time>
      </trkpt>
      <trkpt lat="43.41964" lon="6.06278">
        <ele>234</ele>
        <time>2015-12-09T15:19:17Z</time>
      </trkpt>
      <trkpt lat="43.41948" lon="6.06283">
        <ele>233.80000305176</ele>
        <time>2015-12-09T15:19:19Z</time>
      </trkpt>
      <trkpt lat="43.4194" lon="6.06286">
        <ele>233.60000610352</ele>
        <time>2015-12-09T15:19:20Z</time>
      </trkpt>
      <trkpt lat="43.41933" lon="6.06287">
        <ele>233.19999694824</ele>
        <time>2015-12-09T15:19:21Z</time>
      </trkpt>
      <trkpt lat="43.41925" lon="6.06289">
        <ele>232.39999389648</ele>
        <time>2015-12-09T15:19:22Z</time>
      </trkpt>
      <trkpt lat="43.41919" lon="6.06291">
        <ele>232.19999694824</ele>
        <time>2015-12-09T15:19:23Z</time>
      </trkpt>
      <trkpt lat="43.41903" lon="6.06293">
        <ele>231.60000610352</ele>
        <time>2015-12-09T15:19:25Z</time>
      </trkpt>
      <trkpt lat="43.41895" lon="6.06293">
        <ele>230.60000610352</ele>
        <time>2015-12-09T15:19:26Z</time>
      </trkpt>
      <trkpt lat="43.41878" lon="6.06292">
        <ele>228.80000305176</ele>
        <time>2015-12-09T15:19:28Z</time>
      </trkpt>
      <trkpt lat="43.41852" lon="6.06292">
        <ele>227.80000305176</ele>
        <time>2015-12-09T15:19:31Z</time>
      </trkpt>
      <trkpt lat="43.41833" lon="6.06292">
        <ele>226.19999694824</ele>
        <time>2015-12-09T15:19:33Z</time>
      </trkpt>
      <trkpt lat="43.41824" lon="6.06291">
        <ele>225.39999389648</ele>
        <time>2015-12-09T15:19:34Z</time>
      </trkpt>
      <trkpt lat="43.41815" lon="6.0629">
        <ele>225</ele>
        <time>2015-12-09T15:19:35Z</time>
      </trkpt>
      <trkpt lat="43.41797" lon="6.0628">
        <ele>223.60000610352</ele>
        <time>2015-12-09T15:19:37Z</time>
      </trkpt>
      <trkpt lat="43.41782" lon="6.06268">
        <ele>223.39999389648</ele>
        <time>2015-12-09T15:19:39Z</time>
      </trkpt>
      <trkpt lat="43.41765" lon="6.06258">
        <ele>222</ele>
        <time>2015-12-09T15:19:41Z</time>
      </trkpt>
      <trkpt lat="43.41748" lon="6.06251">
        <ele>221</ele>
        <time>2015-12-09T15:19:43Z</time>
      </trkpt>
      <trkpt lat="43.41738" lon="6.0625">
        <ele>220.60000610352</ele>
        <time>2015-12-09T15:19:44Z</time>
      </trkpt>
      <trkpt lat="43.4173" lon="6.06249">
        <ele>219.80000305176</ele>
        <time>2015-12-09T15:19:45Z</time>
      </trkpt>
      <trkpt lat="43.41711" lon="6.06249">
        <ele>219.80000305176</ele>
        <time>2015-12-09T15:19:47Z</time>
      </trkpt>
      <trkpt lat="43.41702" lon="6.0625">
        <ele>219.39999389648</ele>
        <time>2015-12-09T15:19:48Z</time>
      </trkpt>
      <trkpt lat="43.41693" lon="6.06249">
        <ele>219.19999694824</ele>
        <time>2015-12-09T15:19:49Z</time>
      </trkpt>
      <trkpt lat="43.41677" lon="6.06247">
        <ele>219</ele>
        <time>2015-12-09T15:19:51Z</time>
      </trkpt>
      <trkpt lat="43.41663" lon="6.06244">
        <ele>219.19999694824</ele>
        <time>2015-12-09T15:19:53Z</time>
      </trkpt>
      <trkpt lat="43.41648" lon="6.06239">
        <ele>219.60000610352</ele>
        <time>2015-12-09T15:19:55Z</time>
      </trkpt>
      <trkpt lat="43.41642" lon="6.06236">
        <ele>219.80000305176</ele>
        <time>2015-12-09T15:19:56Z</time>
      </trkpt>
      <trkpt lat="43.41637" lon="6.06233">
        <ele>219.80000305176</ele>
        <time>2015-12-09T15:19:57Z</time>
      </trkpt>
      <trkpt lat="43.41628" lon="6.0623">
        <ele>219.19999694824</ele>
        <time>2015-12-09T15:19:59Z</time>
      </trkpt>
      <trkpt lat="43.41625" lon="6.0623">
        <ele>219</ele>
        <time>2015-12-09T15:20:00Z</time>
      </trkpt>
      <trkpt lat="43.41622" lon="6.06231">
        <ele>219</ele>
        <time>2015-12-09T15:20:01Z</time>
      </trkpt>
      <trkpt lat="43.41617" lon="6.06232">
        <ele>218.80000305176</ele>
        <time>2015-12-09T15:20:03Z</time>
      </trkpt>
      <trkpt lat="43.41612" lon="6.06233">
        <ele>218.39999389648</ele>
        <time>2015-12-09T15:20:05Z</time>
      </trkpt>
      <trkpt lat="43.4161" lon="6.06233">
        <ele>218</ele>
        <time>2015-12-09T15:20:07Z</time>
      </trkpt>
      <trkpt lat="43.41608" lon="6.06234">
        <ele>217.80000305176</ele>
        <time>2015-12-09T15:20:09Z</time>
      </trkpt>
      <trkpt lat="43.41608" lon="6.06234">
        <ele>217.80000305176</ele>
        <time>2015-12-09T15:20:10Z</time>
      </trkpt>
      <trkpt lat="43.41608" lon="6.06234">
        <ele>217.60000610352</ele>
        <time>2015-12-09T15:20:11Z</time>
      </trkpt>
      <trkpt lat="43.41608" lon="6.06234">
        <ele>217.80000305176</ele>
        <time>2015-12-09T15:20:13Z</time>
      </trkpt>
      <trkpt lat="43.41608" lon="6.06234">
        <ele>217.60000610352</ele>
        <time>2015-12-09T15:20:15Z</time>
      </trkpt>
      <trkpt lat="43.41608" lon="6.06234">
        <ele>217.60000610352</ele>
        <time>2015-12-09T15:20:17Z</time>
      </trkpt>
      <trkpt lat="43.41608" lon="6.06234">
        <ele>217.60000610352</ele>
        <time>2015-12-09T15:20:19Z</time>
      </trkpt>
      <trkpt lat="43.41608" lon="6.06234">
        <ele>217.39999389648</ele>
        <time>2015-12-09T15:20:25Z</time>
      </trkpt>
      <trkpt lat="43.41608" lon="6.06234">
        <ele>217.39999389648</ele>
        <time>2015-12-09T15:20:27Z</time>
      </trkpt>
      <trkpt lat="43.41608" lon="6.06235">
        <ele>217.39999389648</ele>
        <time>2015-12-09T15:20:29Z</time>
      </trkpt>
      <trkpt lat="43.41608" lon="6.06235">
        <ele>217.19999694824</ele>
        <time>2015-12-09T15:20:31Z</time>
      </trkpt>
      <trkpt lat="43.41608" lon="6.06235">
        <ele>217.19999694824</ele>
        <time>2015-12-09T15:20:33Z</time>
      </trkpt>
      <trkpt lat="43.41608" lon="6.06235">
        <ele>217.39999389648</ele>
        <time>2015-12-09T15:20:37Z</time>
      </trkpt>
      <trkpt lat="43.41608" lon="6.06235">
        <ele>217.39999389648</ele>
        <time>2015-12-09T15:20:41Z</time>
      </trkpt>
      <trkpt lat="43.41608" lon="6.06235">
        <ele>217.60000610352</ele>
        <time>2015-12-09T15:20:49Z</time>
      </trkpt>
      <trkpt lat="43.41608" lon="6.06235">
        <ele>217.60000610352</ele>
        <time>2015-12-09T15:20:51Z</time>
      </trkpt>
      <trkpt lat="43.41608" lon="6.06235">
        <ele>217.39999389648</ele>
        <time>2015-12-09T15:20:53Z</time>
      </trkpt>
      <trkpt lat="43.41607" lon="6.06237">
        <ele>217.39999389648</ele>
        <time>2015-12-09T15:20:55Z</time>
      </trkpt>
      <trkpt lat="43.41607" lon="6.06238">
        <ele>217.39999389648</ele>
        <time>2015-12-09T15:20:56Z</time>
      </trkpt>
      <trkpt lat="43.41606" lon="6.0624">
        <ele>217.60000610352</ele>
        <time>2015-12-09T15:20:57Z</time>
      </trkpt>
      <trkpt lat="43.41605" lon="6.06245">
        <ele>217.60000610352</ele>
        <time>2015-12-09T15:20:59Z</time>
      </trkpt>
      <trkpt lat="43.41605" lon="6.06248">
        <ele>217.39999389648</ele>
        <time>2015-12-09T15:21:01Z</time>
      </trkpt>
      <trkpt lat="43.41605" lon="6.0625">
        <ele>217.60000610352</ele>
        <time>2015-12-09T15:21:03Z</time>
      </trkpt>
      <trkpt lat="43.41605" lon="6.06252">
        <ele>217.60000610352</ele>
        <time>2015-12-09T15:21:05Z</time>
      </trkpt>
      <trkpt lat="43.41605" lon="6.06253">
        <ele>217.60000610352</ele>
        <time>2015-12-09T15:21:07Z</time>
      </trkpt>
      <trkpt lat="43.41605" lon="6.06253">
        <ele>217.60000610352</ele>
        <time>2015-12-09T15:21:09Z</time>
      </trkpt>
      <trkpt lat="43.41605" lon="6.06253">
        <ele>217.60000610352</ele>
        <time>2015-12-09T15:21:11Z</time>
      </trkpt>
      <trkpt lat="43.41605" lon="6.06253">
        <ele>217.60000610352</ele>
        <time>2015-12-09T15:21:13Z</time>
      </trkpt>
      <trkpt lat="43.41604" lon="6.06256">
        <ele>217.60000610352</ele>
        <time>2015-12-09T15:21:15Z</time>
      </trkpt>
      <trkpt lat="43.41604" lon="6.06256">
        <ele>217.39999389648</ele>
        <time>2015-12-09T15:21:16Z</time>
      </trkpt>
      <trkpt lat="43.41604" lon="6.06257">
        <ele>217.19999694824</ele>
        <time>2015-12-09T15:21:17Z</time>
      </trkpt>
      <trkpt lat="43.41603" lon="6.06257">
        <ele>217.39999389648</ele>
        <time>2015-12-09T15:21:19Z</time>
      </trkpt>
      <trkpt lat="43.41601" lon="6.06258">
        <ele>217.39999389648</ele>
        <time>2015-12-09T15:21:20Z</time>
      </trkpt>
      <trkpt lat="43.416" lon="6.06259">
        <ele>217.19999694824</ele>
        <time>2015-12-09T15:21:21Z</time>
      </trkpt>
      <trkpt lat="43.41595" lon="6.06261">
        <ele>217</ele>
        <time>2015-12-09T15:21:23Z</time>
      </trkpt>
      <trkpt lat="43.41591" lon="6.06266">
        <ele>216.80000305176</ele>
        <time>2015-12-09T15:21:25Z</time>
      </trkpt>
      <trkpt lat="43.41587" lon="6.06273">
        <ele>216.80000305176</ele>
        <time>2015-12-09T15:21:27Z</time>
      </trkpt>
      <trkpt lat="43.41587" lon="6.06284">
        <ele>216.60000610352</ele>
        <time>2015-12-09T15:21:29Z</time>
      </trkpt>
      <trkpt lat="43.41586" lon="6.06298">
        <ele>215.80000305176</ele>
        <time>2015-12-09T15:21:31Z</time>
      </trkpt>
      <trkpt lat="43.41584" lon="6.06313">
        <ele>215.19999694824</ele>
        <time>2015-12-09T15:21:33Z</time>
      </trkpt>
      <trkpt lat="43.41581" lon="6.0632">
        <ele>215.19999694824</ele>
        <time>2015-12-09T15:21:34Z</time>
      </trkpt>
      <trkpt lat="43.41578" lon="6.06326">
        <ele>215</ele>
        <time>2015-12-09T15:21:35Z</time>
      </trkpt>
      <trkpt lat="43.41569" lon="6.0634">
        <ele>214.39999389648</ele>
        <time>2015-12-09T15:21:37Z</time>
      </trkpt>
      <trkpt lat="43.41565" lon="6.06347">
        <ele>214.19999694824</ele>
        <time>2015-12-09T15:21:38Z</time>
      </trkpt>
      <trkpt lat="43.41561" lon="6.06355">
        <ele>213.60000610352</ele>
        <time>2015-12-09T15:21:39Z</time>
      </trkpt>
      <trkpt lat="43.41556" lon="6.06375">
        <ele>212.80000305176</ele>
        <time>2015-12-09T15:21:41Z</time>
      </trkpt>
      <trkpt lat="43.41553" lon="6.06387">
        <ele>212.19999694824</ele>
        <time>2015-12-09T15:21:42Z</time>
      </trkpt>
      <trkpt lat="43.41551" lon="6.06398">
        <ele>211.60000610352</ele>
        <time>2015-12-09T15:21:43Z</time>
      </trkpt>
      <trkpt lat="43.41549" lon="6.0641">
        <ele>210.80000305176</ele>
        <time>2015-12-09T15:21:44Z</time>
      </trkpt>
      <trkpt lat="43.41547" lon="6.06422">
        <ele>210.19999694824</ele>
        <time>2015-12-09T15:21:45Z</time>
      </trkpt>
      <trkpt lat="43.41544" lon="6.06447">
        <ele>209.39999389648</ele>
        <time>2015-12-09T15:21:47Z</time>
      </trkpt>
      <trkpt lat="43.41546" lon="6.06469">
        <ele>208.39999389648</ele>
        <time>2015-12-09T15:21:49Z</time>
      </trkpt>
      <trkpt lat="43.41545" lon="6.06479">
        <ele>207.80000305176</ele>
        <time>2015-12-09T15:21:50Z</time>
      </trkpt>
      <trkpt lat="43.41543" lon="6.06487">
        <ele>207.80000305176</ele>
        <time>2015-12-09T15:21:51Z</time>
      </trkpt>
      <trkpt lat="43.41535" lon="6.06501">
        <ele>207.39999389648</ele>
        <time>2015-12-09T15:21:53Z</time>
      </trkpt>
      <trkpt lat="43.41528" lon="6.06517">
        <ele>207.19999694824</ele>
        <time>2015-12-09T15:21:55Z</time>
      </trkpt>
      <trkpt lat="43.41523" lon="6.06534">
        <ele>206.80000305176</ele>
        <time>2015-12-09T15:21:57Z</time>
      </trkpt>
      <trkpt lat="43.4152" lon="6.06553">
        <ele>206.39999389648</ele>
        <time>2015-12-09T15:21:59Z</time>
      </trkpt>
      <trkpt lat="43.41517" lon="6.06571">
        <ele>206.19999694824</ele>
        <time>2015-12-09T15:22:01Z</time>
      </trkpt>
      <trkpt lat="43.41511" lon="6.0661">
        <ele>206.60000610352</ele>
        <time>2015-12-09T15:22:05Z</time>
      </trkpt>
      <trkpt lat="43.41507" lon="6.0663">
        <ele>206.19999694824</ele>
        <time>2015-12-09T15:22:07Z</time>
      </trkpt>
      <trkpt lat="43.41504" lon="6.06649">
        <ele>206</ele>
        <time>2015-12-09T15:22:09Z</time>
      </trkpt>
      <trkpt lat="43.41501" lon="6.06668">
        <ele>205.80000305176</ele>
        <time>2015-12-09T15:22:11Z</time>
      </trkpt>
      <trkpt lat="43.41499" lon="6.06678">
        <ele>205.80000305176</ele>
        <time>2015-12-09T15:22:12Z</time>
      </trkpt>
      <trkpt lat="43.41499" lon="6.06688">
        <ele>205.60000610352</ele>
        <time>2015-12-09T15:22:13Z</time>
      </trkpt>
      <trkpt lat="43.41499" lon="6.06706">
        <ele>205.60000610352</ele>
        <time>2015-12-09T15:22:15Z</time>
      </trkpt>
      <trkpt lat="43.41498" lon="6.06725">
        <ele>205.39999389648</ele>
        <time>2015-12-09T15:22:17Z</time>
      </trkpt>
      <trkpt lat="43.41496" lon="6.06745">
        <ele>205.19999694824</ele>
        <time>2015-12-09T15:22:19Z</time>
      </trkpt>
      <trkpt lat="43.41494" lon="6.06764">
        <ele>204.19999694824</ele>
        <time>2015-12-09T15:22:21Z</time>
      </trkpt>
      <trkpt lat="43.41492" lon="6.06785">
        <ele>204</ele>
        <time>2015-12-09T15:22:23Z</time>
      </trkpt>
      <trkpt lat="43.4149" lon="6.06795">
        <ele>203.80000305176</ele>
        <time>2015-12-09T15:22:24Z</time>
      </trkpt>
      <trkpt lat="43.41488" lon="6.06804">
        <ele>203.60000610352</ele>
        <time>2015-12-09T15:22:25Z</time>
      </trkpt>
      <trkpt lat="43.41484" lon="6.06818">
        <ele>203</ele>
        <time>2015-12-09T15:22:27Z</time>
      </trkpt>
      <trkpt lat="43.41483" lon="6.06824">
        <ele>203.19999694824</ele>
        <time>2015-12-09T15:22:28Z</time>
      </trkpt>
      <trkpt lat="43.41481" lon="6.06828">
        <ele>203.19999694824</ele>
        <time>2015-12-09T15:22:29Z</time>
      </trkpt>
      <trkpt lat="43.41478" lon="6.06837">
        <ele>202.60000610352</ele>
        <time>2015-12-09T15:22:31Z</time>
      </trkpt>
      <trkpt lat="43.41476" lon="6.06848">
        <ele>202.80000305176</ele>
        <time>2015-12-09T15:22:33Z</time>
      </trkpt>
      <trkpt lat="43.41474" lon="6.06859">
        <ele>203</ele>
        <time>2015-12-09T15:22:35Z</time>
      </trkpt>
      <trkpt lat="43.41475" lon="6.06869">
        <ele>203.39999389648</ele>
        <time>2015-12-09T15:22:37Z</time>
      </trkpt>
      <trkpt lat="43.41475" lon="6.06873">
        <ele>203.39999389648</ele>
        <time>2015-12-09T15:22:38Z</time>
      </trkpt>
      <trkpt lat="43.41475" lon="6.06876">
        <ele>203.19999694824</ele>
        <time>2015-12-09T15:22:39Z</time>
      </trkpt>
      <trkpt lat="43.41475" lon="6.06881">
        <ele>203.39999389648</ele>
        <time>2015-12-09T15:22:41Z</time>
      </trkpt>
      <trkpt lat="43.41475" lon="6.0689">
        <ele>203.19999694824</ele>
        <time>2015-12-09T15:22:44Z</time>
      </trkpt>
      <trkpt lat="43.41475" lon="6.06892">
        <ele>203.19999694824</ele>
        <time>2015-12-09T15:22:45Z</time>
      </trkpt>
      <trkpt lat="43.41475" lon="6.06896">
        <ele>203.19999694824</ele>
        <time>2015-12-09T15:22:47Z</time>
      </trkpt>
      <trkpt lat="43.41475" lon="6.06897">
        <ele>203.19999694824</ele>
        <time>2015-12-09T15:22:49Z</time>
      </trkpt>
      <trkpt lat="43.41476" lon="6.06897">
        <ele>203.39999389648</ele>
        <time>2015-12-09T15:22:51Z</time>
      </trkpt>
      <trkpt lat="43.41476" lon="6.06897">
        <ele>203.39999389648</ele>
        <time>2015-12-09T15:22:53Z</time>
      </trkpt>
      <trkpt lat="43.41476" lon="6.06898">
        <ele>203.19999694824</ele>
        <time>2015-12-09T15:22:55Z</time>
      </trkpt>
      <trkpt lat="43.41477" lon="6.06903">
        <ele>203.19999694824</ele>
        <time>2015-12-09T15:22:57Z</time>
      </trkpt>
      <trkpt lat="43.41477" lon="6.06907">
        <ele>203.19999694824</ele>
        <time>2015-12-09T15:22:58Z</time>
      </trkpt>
      <trkpt lat="43.41476" lon="6.0691">
        <ele>203.19999694824</ele>
        <time>2015-12-09T15:22:59Z</time>
      </trkpt>
      <trkpt lat="43.41473" lon="6.06917">
        <ele>203.19999694824</ele>
        <time>2015-12-09T15:23:01Z</time>
      </trkpt>
      <trkpt lat="43.41471" lon="6.06923">
        <ele>203</ele>
        <time>2015-12-09T15:23:03Z</time>
      </trkpt>
      <trkpt lat="43.4147" lon="6.06927">
        <ele>203</ele>
        <time>2015-12-09T15:23:05Z</time>
      </trkpt>
      <trkpt lat="43.4147" lon="6.06929">
        <ele>203</ele>
        <time>2015-12-09T15:23:06Z</time>
      </trkpt>
      <trkpt lat="43.4147" lon="6.0693">
        <ele>203.19999694824</ele>
        <time>2015-12-09T15:23:07Z</time>
      </trkpt>
      <trkpt lat="43.41473" lon="6.06935">
        <ele>203.39999389648</ele>
        <time>2015-12-09T15:23:09Z</time>
      </trkpt>
      <trkpt lat="43.41476" lon="6.06941">
        <ele>203</ele>
        <time>2015-12-09T15:23:11Z</time>
      </trkpt>
      <trkpt lat="43.41481" lon="6.06945">
        <ele>203</ele>
        <time>2015-12-09T15:23:13Z</time>
      </trkpt>
      <trkpt lat="43.41486" lon="6.0695">
        <ele>202.80000305176</ele>
        <time>2015-12-09T15:23:15Z</time>
      </trkpt>
      <trkpt lat="43.41491" lon="6.06957">
        <ele>202.60000610352</ele>
        <time>2015-12-09T15:23:17Z</time>
      </trkpt>
      <trkpt lat="43.41496" lon="6.06963">
        <ele>202.39999389648</ele>
        <time>2015-12-09T15:23:19Z</time>
      </trkpt>
      <trkpt lat="43.41502" lon="6.06967">
        <ele>202.60000610352</ele>
        <time>2015-12-09T15:23:21Z</time>
      </trkpt>
      <trkpt lat="43.41506" lon="6.06971">
        <ele>202.39999389648</ele>
        <time>2015-12-09T15:23:23Z</time>
      </trkpt>
      <trkpt lat="43.4151" lon="6.06973">
        <ele>202.80000305176</ele>
        <time>2015-12-09T15:23:25Z</time>
      </trkpt>
      <trkpt lat="43.41523" lon="6.06972">
        <ele>202.60000610352</ele>
        <time>2015-12-09T15:23:29Z</time>
      </trkpt>
      <trkpt lat="43.41529" lon="6.06971">
        <ele>202.60000610352</ele>
        <time>2015-12-09T15:23:31Z</time>
      </trkpt>
      <trkpt lat="43.41533" lon="6.06971">
        <ele>202.60000610352</ele>
        <time>2015-12-09T15:23:33Z</time>
      </trkpt>
      <trkpt lat="43.41537" lon="6.06971">
        <ele>202.80000305176</ele>
        <time>2015-12-09T15:23:35Z</time>
      </trkpt>
      <trkpt lat="43.4154" lon="6.06971">
        <ele>202.80000305176</ele>
        <time>2015-12-09T15:23:37Z</time>
      </trkpt>
      <trkpt lat="43.4154" lon="6.0697">
        <ele>202.80000305176</ele>
        <time>2015-12-09T15:23:39Z</time>
      </trkpt>
      <trkpt lat="43.4154" lon="6.06971">
        <ele>202.80000305176</ele>
        <time>2015-12-09T15:23:41Z</time>
      </trkpt>
      <trkpt lat="43.4154" lon="6.06971">
        <ele>202.80000305176</ele>
        <time>2015-12-09T15:23:42Z</time>
      </trkpt>
      <trkpt lat="43.4154" lon="6.06971">
        <ele>203</ele>
        <time>2015-12-09T15:23:43Z</time>
      </trkpt>
      <trkpt lat="43.41541" lon="6.06972">
        <ele>203</ele>
        <time>2015-12-09T15:23:45Z</time>
      </trkpt>
      <trkpt lat="43.41541" lon="6.06972">
        <ele>203</ele>
        <time>2015-12-09T15:23:47Z</time>
      </trkpt>
      <trkpt lat="43.41541" lon="6.06972">
        <ele>203</ele>
        <time>2015-12-09T15:23:49Z</time>
      </trkpt>
      <trkpt lat="43.41541" lon="6.06972">
        <ele>202.80000305176</ele>
        <time>2015-12-09T15:23:50Z</time>
      </trkpt>
      <trkpt lat="43.41541" lon="6.06972">
        <ele>203</ele>
        <time>2015-12-09T15:23:53Z</time>
      </trkpt>
      <trkpt lat="43.41541" lon="6.06972">
        <ele>202.80000305176</ele>
        <time>2015-12-09T15:23:57Z</time>
      </trkpt>
      <trkpt lat="43.41541" lon="6.06972">
        <ele>202.60000610352</ele>
        <time>2015-12-09T15:23:59Z</time>
      </trkpt>
      <trkpt lat="43.41541" lon="6.06972">
        <ele>202.60000610352</ele>
        <time>2015-12-09T15:24:01Z</time>
      </trkpt>
      <trkpt lat="43.41541" lon="6.06972">
        <ele>202.80000305176</ele>
        <time>2015-12-09T15:24:05Z</time>
      </trkpt>
      <trkpt lat="43.41541" lon="6.06972">
        <ele>202.80000305176</ele>
        <time>2015-12-09T15:24:09Z</time>
      </trkpt>
      <trkpt lat="43.41541" lon="6.06972">
        <ele>202.60000610352</ele>
        <time>2015-12-09T15:24:11Z</time>
      </trkpt>
      <trkpt lat="43.41541" lon="6.06972">
        <ele>202.60000610352</ele>
        <time>2015-12-09T15:24:13Z</time>
      </trkpt>
      <trkpt lat="43.41541" lon="6.06972">
        <ele>202.60000610352</ele>
        <time>2015-12-09T15:24:17Z</time>
      </trkpt>
      <trkpt lat="43.41541" lon="6.06972">
        <ele>202.80000305176</ele>
        <time>2015-12-09T15:24:19Z</time>
      </trkpt>
      <trkpt lat="43.41541" lon="6.06972">
        <ele>202.80000305176</ele>
        <time>2015-12-09T15:24:21Z</time>
      </trkpt>
      <trkpt lat="43.41541" lon="6.06972">
        <ele>202.80000305176</ele>
        <time>2015-12-09T15:24:23Z</time>
      </trkpt>
      <trkpt lat="43.41541" lon="6.06972">
        <ele>202.80000305176</ele>
        <time>2015-12-09T15:24:25Z</time>
      </trkpt>
      <trkpt lat="43.4154" lon="6.06972">
        <ele>202.80000305176</ele>
        <time>2015-12-09T15:24:26Z</time>
      </trkpt>
      <trkpt lat="43.41541" lon="6.06971">
        <ele>202.80000305176</ele>
        <time>2015-12-09T15:24:27Z</time>
      </trkpt>
      <trkpt lat="43.41544" lon="6.0697">
        <ele>202.80000305176</ele>
        <time>2015-12-09T15:24:29Z</time>
      </trkpt>
      <trkpt lat="43.41549" lon="6.06968">
        <ele>202.80000305176</ele>
        <time>2015-12-09T15:24:31Z</time>
      </trkpt>
      <trkpt lat="43.41553" lon="6.06967">
        <ele>203</ele>
        <time>2015-12-09T15:24:33Z</time>
      </trkpt>
      <trkpt lat="43.41558" lon="6.06966">
        <ele>203.19999694824</ele>
        <time>2015-12-09T15:24:35Z</time>
      </trkpt>
      <trkpt lat="43.41562" lon="6.06966">
        <ele>203.39999389648</ele>
        <time>2015-12-09T15:24:37Z</time>
      </trkpt>
      <trkpt lat="43.41563" lon="6.06965">
        <ele>203.39999389648</ele>
        <time>2015-12-09T15:24:38Z</time>
      </trkpt>
      <trkpt lat="43.41564" lon="6.06964">
        <ele>203.39999389648</ele>
        <time>2015-12-09T15:24:39Z</time>
      </trkpt>
      <trkpt lat="43.41565" lon="6.06963">
        <ele>203.60000610352</ele>
        <time>2015-12-09T15:24:40Z</time>
      </trkpt>
      <trkpt lat="43.41567" lon="6.06964">
        <ele>203.60000610352</ele>
        <time>2015-12-09T15:24:41Z</time>
      </trkpt>
      <trkpt lat="43.41569" lon="6.06968">
        <ele>203.80000305176</ele>
        <time>2015-12-09T15:24:43Z</time>
      </trkpt>
      <trkpt lat="43.41571" lon="6.06973">
        <ele>204</ele>
        <time>2015-12-09T15:24:45Z</time>
      </trkpt>
      <trkpt lat="43.41573" lon="6.06981">
        <ele>203.60000610352</ele>
        <time>2015-12-09T15:24:47Z</time>
      </trkpt>
      <trkpt lat="43.41573" lon="6.06985">
        <ele>203.39999389648</ele>
        <time>2015-12-09T15:24:48Z</time>
      </trkpt>
      <trkpt lat="43.41573" lon="6.06989">
        <ele>203.19999694824</ele>
        <time>2015-12-09T15:24:49Z</time>
      </trkpt>
      <trkpt lat="43.41574" lon="6.06996">
        <ele>203.39999389648</ele>
        <time>2015-12-09T15:24:51Z</time>
      </trkpt>
      <trkpt lat="43.41575" lon="6.07003">
        <ele>203.39999389648</ele>
        <time>2015-12-09T15:24:53Z</time>
      </trkpt>
      <trkpt lat="43.41575" lon="6.07006">
        <ele>203.39999389648</ele>
        <time>2015-12-09T15:24:54Z</time>
      </trkpt>
      <trkpt lat="43.41576" lon="6.07009">
        <ele>203.39999389648</ele>
        <time>2015-12-09T15:24:55Z</time>
      </trkpt>
      <trkpt lat="43.41577" lon="6.07015">
        <ele>203.19999694824</ele>
        <time>2015-12-09T15:24:57Z</time>
      </trkpt>
      <trkpt lat="43.41578" lon="6.07019">
        <ele>203.39999389648</ele>
        <time>2015-12-09T15:24:59Z</time>
      </trkpt>
      <trkpt lat="43.41578" lon="6.07024">
        <ele>203.39999389648</ele>
        <time>2015-12-09T15:25:01Z</time>
      </trkpt>
      <trkpt lat="43.41578" lon="6.07029">
        <ele>203.60000610352</ele>
        <time>2015-12-09T15:25:03Z</time>
      </trkpt>
      <trkpt lat="43.41578" lon="6.07033">
        <ele>203.60000610352</ele>
        <time>2015-12-09T15:25:05Z</time>
      </trkpt>
      <trkpt lat="43.41579" lon="6.07037">
        <ele>203.60000610352</ele>
        <time>2015-12-09T15:25:07Z</time>
      </trkpt>
      <trkpt lat="43.41579" lon="6.07039">
        <ele>203.60000610352</ele>
        <time>2015-12-09T15:25:09Z</time>
      </trkpt>
      <trkpt lat="43.41579" lon="6.07039">
        <ele>203.60000610352</ele>
        <time>2015-12-09T15:25:11Z</time>
      </trkpt>
      <trkpt lat="43.41579" lon="6.07039">
        <ele>203.60000610352</ele>
        <time>2015-12-09T15:25:12Z</time>
      </trkpt>
    </trkseg>
  </trk>
</gpx>